<?xml version="1.0" encoding="UTF-8" standalone="no" ?><gpx xmlns="http://www.topografix.com/GPX/1/1" xmlns:gpxx="http://www.garmin.com/xmlschemas/GpxExtensions/v3" xmlns:wptx1="http://www.garmin.com/xmlschemas/WaypointExtension/v1" xmlns:gpxtpx="http://www.garmin.com/xmlschemas/TrackPointExtension/v1" creator="GuideVTT.com" version="1.1" xmlns:xsi="http://www.w3.org/2001/XMLSchema-instance" xsi:schemaLocation="http://www.topografix.com/GPX/1/1 http://www.topografix.com/GPX/1/1/gpx.xsd http://www.garmin.com/xmlschemas/GpxExtensions/v3 http://www8.garmin.com/xmlschemas/GpxExtensionsv3.xsd http://www.garmin.com/xmlschemas/WaypointExtension/v1 http://www8.garmin.com/xmlschemas/WaypointExtensionv1.xsd http://www.garmin.com/xmlschemas/TrackPointExtension/v1 http://www.garmin.com/xmlschemas/TrackPointExtensionv1.xsd">
<metadata><link href="http://www.garmin.com"><text>Garmin International</text></link><time>2013-06-22T15:13:50Z</time></metadata>
<trk><name>2013-06-23-01.trk.gpx</name><extensions><gpxx:TrackExtension><gpxx:DisplayColor>Cyan</gpxx:DisplayColor></gpxx:TrackExtension></extensions><trkseg>
<trkpt lat="48.496150" lon="2.634546"><ele></ele><time>2017-9-17T12:27:14Z</time></trkpt>
<trkpt lat="48.496088" lon="2.634550"><ele></ele><time>2017-9-17T12:27:17Z</time></trkpt>
<trkpt lat="48.495708" lon="2.634593"><ele></ele><time>2017-9-17T12:27:20Z</time></trkpt>
<trkpt lat="48.495509" lon="2.634616"><ele></ele><time>2017-9-17T12:27:23Z</time></trkpt>
<trkpt lat="48.495288" lon="2.634652"><ele></ele><time>2017-9-17T12:27:26Z</time></trkpt>
<trkpt lat="48.494953" lon="2.634702"><ele></ele><time>2017-9-17T12:27:29Z</time></trkpt>
<trkpt lat="48.494835" lon="2.634735"><ele></ele><time>2017-9-17T12:27:32Z</time></trkpt>
<trkpt lat="48.494792" lon="2.634747"><ele></ele><time>2017-9-17T12:27:35Z</time></trkpt>
<trkpt lat="48.494668" lon="2.634767"><ele></ele><time>2017-9-17T12:27:38Z</time></trkpt>
<trkpt lat="48.494627" lon="2.634773"><ele></ele><time>2017-9-17T12:27:41Z</time></trkpt>
<trkpt lat="48.494538" lon="2.634780"><ele></ele><time>2017-9-17T12:27:44Z</time></trkpt>
<trkpt lat="48.494450" lon="2.634787"><ele></ele><time>2017-9-17T12:27:47Z</time></trkpt>
<trkpt lat="48.494362" lon="2.634797"><ele></ele><time>2017-9-17T12:27:50Z</time></trkpt>
<trkpt lat="48.494317" lon="2.634808"><ele></ele><time>2017-9-17T12:27:53Z</time></trkpt>
<trkpt lat="48.494272" lon="2.634818"><ele></ele><time>2017-9-17T12:27:56Z</time></trkpt>
<trkpt lat="48.494225" lon="2.634825"><ele></ele><time>2017-9-17T12:27:59Z</time></trkpt>
<trkpt lat="48.494180" lon="2.634830"><ele></ele><time>2017-9-17T12:28:2Z</time></trkpt>
<trkpt lat="48.494133" lon="2.634833"><ele></ele><time>2017-9-17T12:28:5Z</time></trkpt>
<trkpt lat="48.494087" lon="2.634838"><ele></ele><time>2017-9-17T12:28:8Z</time></trkpt>
<trkpt lat="48.494042" lon="2.634845"><ele></ele><time>2017-9-17T12:28:11Z</time></trkpt>
<trkpt lat="48.493953" lon="2.634853"><ele></ele><time>2017-9-17T12:28:14Z</time></trkpt>
<trkpt lat="48.493832" lon="2.634870"><ele></ele><time>2017-9-17T12:28:17Z</time></trkpt>
<trkpt lat="48.493753" lon="2.634883"><ele></ele><time>2017-9-17T12:28:20Z</time></trkpt>
<trkpt lat="48.493665" lon="2.634895"><ele></ele><time>2017-9-17T12:28:23Z</time></trkpt>
<trkpt lat="48.493617" lon="2.634902"><ele></ele><time>2017-9-17T12:28:26Z</time></trkpt>
<trkpt lat="48.493567" lon="2.634907"><ele></ele><time>2017-9-17T12:28:29Z</time></trkpt>
<trkpt lat="48.493513" lon="2.634915"><ele></ele><time>2017-9-17T12:28:32Z</time></trkpt>
<trkpt lat="48.493463" lon="2.634918"><ele></ele><time>2017-9-17T12:28:35Z</time></trkpt>
<trkpt lat="48.493412" lon="2.634920"><ele></ele><time>2017-9-17T12:28:38Z</time></trkpt>
<trkpt lat="48.493358" lon="2.634925"><ele></ele><time>2017-9-17T12:28:41Z</time></trkpt>
<trkpt lat="48.493253" lon="2.634935"><ele></ele><time>2017-9-17T12:28:44Z</time></trkpt>
<trkpt lat="48.493253" lon="2.634935"><ele></ele><time>2017-9-17T12:28:47Z</time></trkpt>
<trkpt lat="48.493147" lon="2.634950"><ele></ele><time>2017-9-17T12:28:50Z</time></trkpt>
<trkpt lat="48.493093" lon="2.634955"><ele></ele><time>2017-9-17T12:28:53Z</time></trkpt>
<trkpt lat="48.493040" lon="2.634960"><ele></ele><time>2017-9-17T12:28:56Z</time></trkpt>
<trkpt lat="48.492985" lon="2.634963"><ele></ele><time>2017-9-17T12:28:59Z</time></trkpt>
<trkpt lat="48.492932" lon="2.634967"><ele></ele><time>2017-9-17T12:29:2Z</time></trkpt>
<trkpt lat="48.492880" lon="2.634968"><ele></ele><time>2017-9-17T12:29:5Z</time></trkpt>
<trkpt lat="48.492827" lon="2.634970"><ele></ele><time>2017-9-17T12:29:8Z</time></trkpt>
<trkpt lat="48.492775" lon="2.634975"><ele></ele><time>2017-9-17T12:29:11Z</time></trkpt>
<trkpt lat="48.492723" lon="2.634980"><ele></ele><time>2017-9-17T12:29:14Z</time></trkpt>
<trkpt lat="48.492673" lon="2.634982"><ele></ele><time>2017-9-17T12:29:17Z</time></trkpt>
<trkpt lat="48.492623" lon="2.634985"><ele></ele><time>2017-9-17T12:29:20Z</time></trkpt>
<trkpt lat="48.492572" lon="2.634988"><ele></ele><time>2017-9-17T12:29:23Z</time></trkpt>
<trkpt lat="48.492522" lon="2.634992"><ele></ele><time>2017-9-17T12:29:26Z</time></trkpt>
<trkpt lat="48.492472" lon="2.634995"><ele></ele><time>2017-9-17T12:29:29Z</time></trkpt>
<trkpt lat="48.492320" lon="2.635008"><ele></ele><time>2017-9-17T12:29:32Z</time></trkpt>
<trkpt lat="48.492270" lon="2.635013"><ele></ele><time>2017-9-17T12:29:35Z</time></trkpt>
<trkpt lat="48.492170" lon="2.635025"><ele></ele><time>2017-9-17T12:29:38Z</time></trkpt>
<trkpt lat="48.492068" lon="2.635040"><ele></ele><time>2017-9-17T12:29:41Z</time></trkpt>
<trkpt lat="48.492018" lon="2.635048"><ele></ele><time>2017-9-17T12:29:44Z</time></trkpt>
<trkpt lat="48.491970" lon="2.635057"><ele></ele><time>2017-9-17T12:29:47Z</time></trkpt>
<trkpt lat="48.491920" lon="2.635065"><ele></ele><time>2017-9-17T12:29:50Z</time></trkpt>
<trkpt lat="48.491872" lon="2.635073"><ele></ele><time>2017-9-17T12:29:53Z</time></trkpt>
<trkpt lat="48.491823" lon="2.635082"><ele></ele><time>2017-9-17T12:29:56Z</time></trkpt>
<trkpt lat="48.491775" lon="2.635090"><ele></ele><time>2017-9-17T12:29:59Z</time></trkpt>
<trkpt lat="48.491728" lon="2.635103"><ele></ele><time>2017-9-17T12:30:2Z</time></trkpt>
<trkpt lat="48.491645" lon="2.635152"><ele></ele><time>2017-9-17T12:30:5Z</time></trkpt>
<trkpt lat="48.491592" lon="2.635247"><ele></ele><time>2017-9-17T12:30:8Z</time></trkpt>
<trkpt lat="48.491562" lon="2.635372"><ele></ele><time>2017-9-17T12:30:11Z</time></trkpt>
<trkpt lat="48.491545" lon="2.635435"><ele></ele><time>2017-9-17T12:30:14Z</time></trkpt>
<trkpt lat="48.491513" lon="2.635562"><ele></ele><time>2017-9-17T12:30:17Z</time></trkpt>
<trkpt lat="48.491497" lon="2.635625"><ele></ele><time>2017-9-17T12:30:20Z</time></trkpt>
<trkpt lat="48.491478" lon="2.635688"><ele></ele><time>2017-9-17T12:30:23Z</time></trkpt>
<trkpt lat="48.491460" lon="2.635753"><ele></ele><time>2017-9-17T12:30:26Z</time></trkpt>
<trkpt lat="48.491442" lon="2.635815"><ele></ele><time>2017-9-17T12:30:29Z</time></trkpt>
<trkpt lat="48.491423" lon="2.635878"><ele></ele><time>2017-9-17T12:30:32Z</time></trkpt>
<trkpt lat="48.491383" lon="2.636008"><ele></ele><time>2017-9-17T12:30:35Z</time></trkpt>
<trkpt lat="48.491352" lon="2.636140"><ele></ele><time>2017-9-17T12:30:38Z</time></trkpt>
<trkpt lat="48.491333" lon="2.636207"><ele></ele><time>2017-9-17T12:30:41Z</time></trkpt>
<trkpt lat="48.491318" lon="2.636270"><ele></ele><time>2017-9-17T12:30:44Z</time></trkpt>
<trkpt lat="48.491303" lon="2.636335"><ele></ele><time>2017-9-17T12:30:47Z</time></trkpt>
<trkpt lat="48.491288" lon="2.636402"><ele></ele><time>2017-9-17T12:30:50Z</time></trkpt>
<trkpt lat="48.491273" lon="2.636468"><ele></ele><time>2017-9-17T12:30:53Z</time></trkpt>
<trkpt lat="48.491260" lon="2.636538"><ele></ele><time>2017-9-17T12:30:56Z</time></trkpt>
<trkpt lat="48.491247" lon="2.636607"><ele></ele><time>2017-9-17T12:30:59Z</time></trkpt>
<trkpt lat="48.491233" lon="2.636675"><ele></ele><time>2017-9-17T12:31:2Z</time></trkpt>
<trkpt lat="48.491218" lon="2.636742"><ele></ele><time>2017-9-17T12:31:5Z</time></trkpt>
<trkpt lat="48.491205" lon="2.636808"><ele></ele><time>2017-9-17T12:31:8Z</time></trkpt>
<trkpt lat="48.491180" lon="2.636937"><ele></ele><time>2017-9-17T12:31:11Z</time></trkpt>
<trkpt lat="48.491165" lon="2.637002"><ele></ele><time>2017-9-17T12:31:14Z</time></trkpt>
<trkpt lat="48.491140" lon="2.637125"><ele></ele><time>2017-9-17T12:31:17Z</time></trkpt>
<trkpt lat="48.491127" lon="2.637192"><ele></ele><time>2017-9-17T12:31:20Z</time></trkpt>
<trkpt lat="48.491112" lon="2.637257"><ele></ele><time>2017-9-17T12:31:23Z</time></trkpt>
<trkpt lat="48.491095" lon="2.637320"><ele></ele><time>2017-9-17T12:31:26Z</time></trkpt>
<trkpt lat="48.491078" lon="2.637385"><ele></ele><time>2017-9-17T12:31:29Z</time></trkpt>
<trkpt lat="48.491047" lon="2.637512"><ele></ele><time>2017-9-17T12:31:32Z</time></trkpt>
<trkpt lat="48.491015" lon="2.637640"><ele></ele><time>2017-9-17T12:31:35Z</time></trkpt>
<trkpt lat="48.490987" lon="2.637768"><ele></ele><time>2017-9-17T12:31:38Z</time></trkpt>
<trkpt lat="48.490973" lon="2.637833"><ele></ele><time>2017-9-17T12:31:41Z</time></trkpt>
<trkpt lat="48.490957" lon="2.637898"><ele></ele><time>2017-9-17T12:31:44Z</time></trkpt>
<trkpt lat="48.490943" lon="2.637963"><ele></ele><time>2017-9-17T12:31:47Z</time></trkpt>
<trkpt lat="48.490928" lon="2.638030"><ele></ele><time>2017-9-17T12:31:50Z</time></trkpt>
<trkpt lat="48.490913" lon="2.638095"><ele></ele><time>2017-9-17T12:31:53Z</time></trkpt>
<trkpt lat="48.490897" lon="2.638160"><ele></ele><time>2017-9-17T12:31:56Z</time></trkpt>
<trkpt lat="48.490880" lon="2.638225"><ele></ele><time>2017-9-17T12:31:59Z</time></trkpt>
<trkpt lat="48.490862" lon="2.638292"><ele></ele><time>2017-9-17T12:32:2Z</time></trkpt>
<trkpt lat="48.490847" lon="2.638355"><ele></ele><time>2017-9-17T12:32:5Z</time></trkpt>
<trkpt lat="48.490828" lon="2.638422"><ele></ele><time>2017-9-17T12:32:8Z</time></trkpt>
<trkpt lat="48.490812" lon="2.638487"><ele></ele><time>2017-9-17T12:32:11Z</time></trkpt>
<trkpt lat="48.490795" lon="2.638553"><ele></ele><time>2017-9-17T12:32:14Z</time></trkpt>
<trkpt lat="48.490780" lon="2.638617"><ele></ele><time>2017-9-17T12:32:17Z</time></trkpt>
<trkpt lat="48.490765" lon="2.638683"><ele></ele><time>2017-9-17T12:32:20Z</time></trkpt>
<trkpt lat="48.490747" lon="2.638747"><ele></ele><time>2017-9-17T12:32:23Z</time></trkpt>
<trkpt lat="48.490728" lon="2.638815"><ele></ele><time>2017-9-17T12:32:26Z</time></trkpt>
<trkpt lat="48.490708" lon="2.638880"><ele></ele><time>2017-9-17T12:32:29Z</time></trkpt>
<trkpt lat="48.490688" lon="2.638947"><ele></ele><time>2017-9-17T12:32:32Z</time></trkpt>
<trkpt lat="48.490665" lon="2.639020"><ele></ele><time>2017-9-17T12:32:35Z</time></trkpt>
<trkpt lat="48.490628" lon="2.639160"><ele></ele><time>2017-9-17T12:32:38Z</time></trkpt>
<trkpt lat="48.490613" lon="2.639230"><ele></ele><time>2017-9-17T12:32:41Z</time></trkpt>
<trkpt lat="48.490598" lon="2.639298"><ele></ele><time>2017-9-17T12:32:44Z</time></trkpt>
<trkpt lat="48.490582" lon="2.639368"><ele></ele><time>2017-9-17T12:32:47Z</time></trkpt>
<trkpt lat="48.490565" lon="2.639435"><ele></ele><time>2017-9-17T12:32:50Z</time></trkpt>
<trkpt lat="48.490548" lon="2.639498"><ele></ele><time>2017-9-17T12:32:53Z</time></trkpt>
<trkpt lat="48.490528" lon="2.639562"><ele></ele><time>2017-9-17T12:32:56Z</time></trkpt>
<trkpt lat="48.490508" lon="2.639628"><ele></ele><time>2017-9-17T12:32:59Z</time></trkpt>
<trkpt lat="48.490490" lon="2.639695"><ele></ele><time>2017-9-17T12:33:2Z</time></trkpt>
<trkpt lat="48.490470" lon="2.639760"><ele></ele><time>2017-9-17T12:33:5Z</time></trkpt>
<trkpt lat="48.490452" lon="2.639825"><ele></ele><time>2017-9-17T12:33:8Z</time></trkpt>
<trkpt lat="48.490430" lon="2.639900"><ele></ele><time>2017-9-17T12:33:11Z</time></trkpt>
<trkpt lat="48.490413" lon="2.639967"><ele></ele><time>2017-9-17T12:33:14Z</time></trkpt>
<trkpt lat="48.490395" lon="2.640037"><ele></ele><time>2017-9-17T12:33:17Z</time></trkpt>
<trkpt lat="48.490380" lon="2.640102"><ele></ele><time>2017-9-17T12:33:20Z</time></trkpt>
<trkpt lat="48.490362" lon="2.640170"><ele></ele><time>2017-9-17T12:33:23Z</time></trkpt>
<trkpt lat="48.490342" lon="2.640240"><ele></ele><time>2017-9-17T12:33:26Z</time></trkpt>
<trkpt lat="48.490327" lon="2.640303"><ele></ele><time>2017-9-17T12:33:29Z</time></trkpt>
<trkpt lat="48.490312" lon="2.640368"><ele></ele><time>2017-9-17T12:33:32Z</time></trkpt>
<trkpt lat="48.490298" lon="2.640438"><ele></ele><time>2017-9-17T12:33:35Z</time></trkpt>
<trkpt lat="48.490283" lon="2.640505"><ele></ele><time>2017-9-17T12:33:38Z</time></trkpt>
<trkpt lat="48.490267" lon="2.640577"><ele></ele><time>2017-9-17T12:33:41Z</time></trkpt>
<trkpt lat="48.490243" lon="2.640707"><ele></ele><time>2017-9-17T12:33:44Z</time></trkpt>
<trkpt lat="48.490222" lon="2.640820"><ele></ele><time>2017-9-17T12:33:47Z</time></trkpt>
<trkpt lat="48.490208" lon="2.640885"><ele></ele><time>2017-9-17T12:33:50Z</time></trkpt>
<trkpt lat="48.490192" lon="2.640952"><ele></ele><time>2017-9-17T12:33:53Z</time></trkpt>
<trkpt lat="48.490175" lon="2.641022"><ele></ele><time>2017-9-17T12:33:56Z</time></trkpt>
<trkpt lat="48.490140" lon="2.641147"><ele></ele><time>2017-9-17T12:33:59Z</time></trkpt>
<trkpt lat="48.490108" lon="2.641260"><ele></ele><time>2017-9-17T12:34:2Z</time></trkpt>
<trkpt lat="48.490083" lon="2.641382"><ele></ele><time>2017-9-17T12:34:5Z</time></trkpt>
<trkpt lat="48.490063" lon="2.641512"><ele></ele><time>2017-9-17T12:34:8Z</time></trkpt>
<trkpt lat="48.490052" lon="2.641575"><ele></ele><time>2017-9-17T12:34:11Z</time></trkpt>
<trkpt lat="48.490035" lon="2.641642"><ele></ele><time>2017-9-17T12:34:14Z</time></trkpt>
<trkpt lat="48.490020" lon="2.641708"><ele></ele><time>2017-9-17T12:34:17Z</time></trkpt>
<trkpt lat="48.490007" lon="2.641777"><ele></ele><time>2017-9-17T12:34:20Z</time></trkpt>
<trkpt lat="48.489992" lon="2.641845"><ele></ele><time>2017-9-17T12:34:23Z</time></trkpt>
<trkpt lat="48.489975" lon="2.641913"><ele></ele><time>2017-9-17T12:34:26Z</time></trkpt>
<trkpt lat="48.489960" lon="2.641980"><ele></ele><time>2017-9-17T12:34:29Z</time></trkpt>
<trkpt lat="48.489945" lon="2.642050"><ele></ele><time>2017-9-17T12:34:32Z</time></trkpt>
<trkpt lat="48.489928" lon="2.642120"><ele></ele><time>2017-9-17T12:34:35Z</time></trkpt>
<trkpt lat="48.489910" lon="2.642188"><ele></ele><time>2017-9-17T12:34:38Z</time></trkpt>
<trkpt lat="48.489870" lon="2.642315"><ele></ele><time>2017-9-17T12:34:41Z</time></trkpt>
<trkpt lat="48.489840" lon="2.642460"><ele></ele><time>2017-9-17T12:34:44Z</time></trkpt>
<trkpt lat="48.489825" lon="2.642532"><ele></ele><time>2017-9-17T12:34:47Z</time></trkpt>
<trkpt lat="48.489803" lon="2.642603"><ele></ele><time>2017-9-17T12:34:50Z</time></trkpt>
<trkpt lat="48.489783" lon="2.642673"><ele></ele><time>2017-9-17T12:34:53Z</time></trkpt>
<trkpt lat="48.489762" lon="2.642742"><ele></ele><time>2017-9-17T12:34:56Z</time></trkpt>
<trkpt lat="48.489738" lon="2.642817"><ele></ele><time>2017-9-17T12:34:59Z</time></trkpt>
<trkpt lat="48.489717" lon="2.642893"><ele></ele><time>2017-9-17T12:35:2Z</time></trkpt>
<trkpt lat="48.489698" lon="2.642970"><ele></ele><time>2017-9-17T12:35:5Z</time></trkpt>
<trkpt lat="48.489682" lon="2.643048"><ele></ele><time>2017-9-17T12:35:8Z</time></trkpt>
<trkpt lat="48.489662" lon="2.643130"><ele></ele><time>2017-9-17T12:35:11Z</time></trkpt>
<trkpt lat="48.489640" lon="2.643210"><ele></ele><time>2017-9-17T12:35:14Z</time></trkpt>
<trkpt lat="48.489622" lon="2.643287"><ele></ele><time>2017-9-17T12:35:17Z</time></trkpt>
<trkpt lat="48.489603" lon="2.643365"><ele></ele><time>2017-9-17T12:35:20Z</time></trkpt>
<trkpt lat="48.489585" lon="2.643443"><ele></ele><time>2017-9-17T12:35:23Z</time></trkpt>
<trkpt lat="48.489572" lon="2.643522"><ele></ele><time>2017-9-17T12:35:26Z</time></trkpt>
<trkpt lat="48.489553" lon="2.643600"><ele></ele><time>2017-9-17T12:35:29Z</time></trkpt>
<trkpt lat="48.489535" lon="2.643673"><ele></ele><time>2017-9-17T12:35:32Z</time></trkpt>
<trkpt lat="48.489515" lon="2.643748"><ele></ele><time>2017-9-17T12:35:35Z</time></trkpt>
<trkpt lat="48.489497" lon="2.643823"><ele></ele><time>2017-9-17T12:35:38Z</time></trkpt>
<trkpt lat="48.489478" lon="2.643898"><ele></ele><time>2017-9-17T12:35:41Z</time></trkpt>
<trkpt lat="48.489460" lon="2.643973"><ele></ele><time>2017-9-17T12:35:44Z</time></trkpt>
<trkpt lat="48.489443" lon="2.644050"><ele></ele><time>2017-9-17T12:35:47Z</time></trkpt>
<trkpt lat="48.489425" lon="2.644123"><ele></ele><time>2017-9-17T12:35:50Z</time></trkpt>
<trkpt lat="48.489407" lon="2.644197"><ele></ele><time>2017-9-17T12:35:53Z</time></trkpt>
<trkpt lat="48.489362" lon="2.644342"><ele></ele><time>2017-9-17T12:35:56Z</time></trkpt>
<trkpt lat="48.489315" lon="2.644490"><ele></ele><time>2017-9-17T12:35:59Z</time></trkpt>
<trkpt lat="48.489280" lon="2.644642"><ele></ele><time>2017-9-17T12:36:2Z</time></trkpt>
<trkpt lat="48.489260" lon="2.644718"><ele></ele><time>2017-9-17T12:36:5Z</time></trkpt>
<trkpt lat="48.489242" lon="2.644795"><ele></ele><time>2017-9-17T12:36:8Z</time></trkpt>
<trkpt lat="48.489222" lon="2.644872"><ele></ele><time>2017-9-17T12:36:11Z</time></trkpt>
<trkpt lat="48.489203" lon="2.644948"><ele></ele><time>2017-9-17T12:36:14Z</time></trkpt>
<trkpt lat="48.489185" lon="2.645022"><ele></ele><time>2017-9-17T12:36:17Z</time></trkpt>
<trkpt lat="48.489165" lon="2.645100"><ele></ele><time>2017-9-17T12:36:20Z</time></trkpt>
<trkpt lat="48.489147" lon="2.645175"><ele></ele><time>2017-9-17T12:36:23Z</time></trkpt>
<trkpt lat="48.489127" lon="2.645252"><ele></ele><time>2017-9-17T12:36:26Z</time></trkpt>
<trkpt lat="48.489110" lon="2.645328"><ele></ele><time>2017-9-17T12:36:29Z</time></trkpt>
<trkpt lat="48.489093" lon="2.645405"><ele></ele><time>2017-9-17T12:36:32Z</time></trkpt>
<trkpt lat="48.489075" lon="2.645480"><ele></ele><time>2017-9-17T12:36:35Z</time></trkpt>
<trkpt lat="48.489057" lon="2.645555"><ele></ele><time>2017-9-17T12:36:38Z</time></trkpt>
<trkpt lat="48.489035" lon="2.645628"><ele></ele><time>2017-9-17T12:36:41Z</time></trkpt>
<trkpt lat="48.489017" lon="2.645703"><ele></ele><time>2017-9-17T12:36:44Z</time></trkpt>
<trkpt lat="48.489000" lon="2.645780"><ele></ele><time>2017-9-17T12:36:47Z</time></trkpt>
<trkpt lat="48.488982" lon="2.645855"><ele></ele><time>2017-9-17T12:36:50Z</time></trkpt>
<trkpt lat="48.488962" lon="2.645930"><ele></ele><time>2017-9-17T12:36:53Z</time></trkpt>
<trkpt lat="48.488943" lon="2.646005"><ele></ele><time>2017-9-17T12:36:56Z</time></trkpt>
<trkpt lat="48.488925" lon="2.646080"><ele></ele><time>2017-9-17T12:36:59Z</time></trkpt>
<trkpt lat="48.488907" lon="2.646153"><ele></ele><time>2017-9-17T12:37:2Z</time></trkpt>
<trkpt lat="48.488890" lon="2.646225"><ele></ele><time>2017-9-17T12:37:5Z</time></trkpt>
<trkpt lat="48.488872" lon="2.646298"><ele></ele><time>2017-9-17T12:37:8Z</time></trkpt>
<trkpt lat="48.488855" lon="2.646370"><ele></ele><time>2017-9-17T12:37:11Z</time></trkpt>
<trkpt lat="48.488837" lon="2.646443"><ele></ele><time>2017-9-17T12:37:14Z</time></trkpt>
<trkpt lat="48.488817" lon="2.646515"><ele></ele><time>2017-9-17T12:37:17Z</time></trkpt>
<trkpt lat="48.488792" lon="2.646585"><ele></ele><time>2017-9-17T12:37:20Z</time></trkpt>
<trkpt lat="48.488763" lon="2.646652"><ele></ele><time>2017-9-17T12:37:23Z</time></trkpt>
<trkpt lat="48.488732" lon="2.646718"><ele></ele><time>2017-9-17T12:37:26Z</time></trkpt>
<trkpt lat="48.488702" lon="2.646785"><ele></ele><time>2017-9-17T12:37:29Z</time></trkpt>
<trkpt lat="48.488670" lon="2.646850"><ele></ele><time>2017-9-17T12:37:32Z</time></trkpt>
<trkpt lat="48.488640" lon="2.646918"><ele></ele><time>2017-9-17T12:37:35Z</time></trkpt>
<trkpt lat="48.488612" lon="2.646987"><ele></ele><time>2017-9-17T12:37:38Z</time></trkpt>
<trkpt lat="48.488582" lon="2.647053"><ele></ele><time>2017-9-17T12:37:41Z</time></trkpt>
<trkpt lat="48.488550" lon="2.647117"><ele></ele><time>2017-9-17T12:37:44Z</time></trkpt>
<trkpt lat="48.488520" lon="2.647182"><ele></ele><time>2017-9-17T12:37:47Z</time></trkpt>
<trkpt lat="48.488490" lon="2.647245"><ele></ele><time>2017-9-17T12:37:50Z</time></trkpt>
<trkpt lat="48.488460" lon="2.647310"><ele></ele><time>2017-9-17T12:37:53Z</time></trkpt>
<trkpt lat="48.488430" lon="2.647373"><ele></ele><time>2017-9-17T12:37:56Z</time></trkpt>
<trkpt lat="48.488397" lon="2.647437"><ele></ele><time>2017-9-17T12:37:59Z</time></trkpt>
<trkpt lat="48.488363" lon="2.647500"><ele></ele><time>2017-9-17T12:38:2Z</time></trkpt>
<trkpt lat="48.488332" lon="2.647567"><ele></ele><time>2017-9-17T12:38:5Z</time></trkpt>
<trkpt lat="48.488300" lon="2.647630"><ele></ele><time>2017-9-17T12:38:8Z</time></trkpt>
<trkpt lat="48.488268" lon="2.647697"><ele></ele><time>2017-9-17T12:38:11Z</time></trkpt>
<trkpt lat="48.488202" lon="2.647837"><ele></ele><time>2017-9-17T12:38:14Z</time></trkpt>
<trkpt lat="48.488167" lon="2.647907"><ele></ele><time>2017-9-17T12:38:17Z</time></trkpt>
<trkpt lat="48.488133" lon="2.647973"><ele></ele><time>2017-9-17T12:38:20Z</time></trkpt>
<trkpt lat="48.488063" lon="2.648108"><ele></ele><time>2017-9-17T12:38:23Z</time></trkpt>
<trkpt lat="48.488035" lon="2.648172"><ele></ele><time>2017-9-17T12:38:26Z</time></trkpt>
<trkpt lat="48.488002" lon="2.648243"><ele></ele><time>2017-9-17T12:38:29Z</time></trkpt>
<trkpt lat="48.487970" lon="2.648308"><ele></ele><time>2017-9-17T12:38:32Z</time></trkpt>
<trkpt lat="48.487937" lon="2.648377"><ele></ele><time>2017-9-17T12:38:35Z</time></trkpt>
<trkpt lat="48.487902" lon="2.648445"><ele></ele><time>2017-9-17T12:38:38Z</time></trkpt>
<trkpt lat="48.487865" lon="2.648518"><ele></ele><time>2017-9-17T12:38:41Z</time></trkpt>
<trkpt lat="48.487827" lon="2.648583"><ele></ele><time>2017-9-17T12:38:44Z</time></trkpt>
<trkpt lat="48.487788" lon="2.648650"><ele></ele><time>2017-9-17T12:38:47Z</time></trkpt>
<trkpt lat="48.487757" lon="2.648722"><ele></ele><time>2017-9-17T12:38:50Z</time></trkpt>
<trkpt lat="48.487722" lon="2.648792"><ele></ele><time>2017-9-17T12:38:53Z</time></trkpt>
<trkpt lat="48.487690" lon="2.648863"><ele></ele><time>2017-9-17T12:38:56Z</time></trkpt>
<trkpt lat="48.487655" lon="2.648933"><ele></ele><time>2017-9-17T12:38:59Z</time></trkpt>
<trkpt lat="48.487622" lon="2.649002"><ele></ele><time>2017-9-17T12:39:2Z</time></trkpt>
<trkpt lat="48.487588" lon="2.649072"><ele></ele><time>2017-9-17T12:39:5Z</time></trkpt>
<trkpt lat="48.487557" lon="2.649138"><ele></ele><time>2017-9-17T12:39:8Z</time></trkpt>
<trkpt lat="48.487523" lon="2.649205"><ele></ele><time>2017-9-17T12:39:11Z</time></trkpt>
<trkpt lat="48.487495" lon="2.649270"><ele></ele><time>2017-9-17T12:39:14Z</time></trkpt>
<trkpt lat="48.487470" lon="2.649330"><ele></ele><time>2017-9-17T12:39:17Z</time></trkpt>
<trkpt lat="48.487438" lon="2.649395"><ele></ele><time>2017-9-17T12:39:20Z</time></trkpt>
<trkpt lat="48.487407" lon="2.649458"><ele></ele><time>2017-9-17T12:39:23Z</time></trkpt>
<trkpt lat="48.487375" lon="2.649520"><ele></ele><time>2017-9-17T12:39:26Z</time></trkpt>
<trkpt lat="48.487343" lon="2.649582"><ele></ele><time>2017-9-17T12:39:29Z</time></trkpt>
<trkpt lat="48.487312" lon="2.649643"><ele></ele><time>2017-9-17T12:39:32Z</time></trkpt>
<trkpt lat="48.487282" lon="2.649703"><ele></ele><time>2017-9-17T12:39:35Z</time></trkpt>
<trkpt lat="48.487245" lon="2.649767"><ele></ele><time>2017-9-17T12:39:38Z</time></trkpt>
<trkpt lat="48.487208" lon="2.649823"><ele></ele><time>2017-9-17T12:39:41Z</time></trkpt>
<trkpt lat="48.487172" lon="2.649885"><ele></ele><time>2017-9-17T12:39:44Z</time></trkpt>
<trkpt lat="48.487143" lon="2.649947"><ele></ele><time>2017-9-17T12:39:47Z</time></trkpt>
<trkpt lat="48.487108" lon="2.650012"><ele></ele><time>2017-9-17T12:39:50Z</time></trkpt>
<trkpt lat="48.487077" lon="2.650072"><ele></ele><time>2017-9-17T12:39:53Z</time></trkpt>
<trkpt lat="48.487047" lon="2.650132"><ele></ele><time>2017-9-17T12:39:56Z</time></trkpt>
<trkpt lat="48.486992" lon="2.650233"><ele></ele><time>2017-9-17T12:39:59Z</time></trkpt>
<trkpt lat="48.486963" lon="2.650290"><ele></ele><time>2017-9-17T12:40:2Z</time></trkpt>
<trkpt lat="48.486938" lon="2.650348"><ele></ele><time>2017-9-17T12:40:5Z</time></trkpt>
<trkpt lat="48.486913" lon="2.650405"><ele></ele><time>2017-9-17T12:40:8Z</time></trkpt>
<trkpt lat="48.486885" lon="2.650462"><ele></ele><time>2017-9-17T12:40:11Z</time></trkpt>
<trkpt lat="48.486837" lon="2.650573"><ele></ele><time>2017-9-17T12:40:14Z</time></trkpt>
<trkpt lat="48.486785" lon="2.650682"><ele></ele><time>2017-9-17T12:40:17Z</time></trkpt>
<trkpt lat="48.486733" lon="2.650787"><ele></ele><time>2017-9-17T12:40:20Z</time></trkpt>
<trkpt lat="48.486683" lon="2.650893"><ele></ele><time>2017-9-17T12:40:23Z</time></trkpt>
<trkpt lat="48.486637" lon="2.650998"><ele></ele><time>2017-9-17T12:40:26Z</time></trkpt>
<trkpt lat="48.486608" lon="2.651053"><ele></ele><time>2017-9-17T12:40:29Z</time></trkpt>
<trkpt lat="48.486580" lon="2.651110"><ele></ele><time>2017-9-17T12:40:32Z</time></trkpt>
<trkpt lat="48.486553" lon="2.651163"><ele></ele><time>2017-9-17T12:40:35Z</time></trkpt>
<trkpt lat="48.486527" lon="2.651223"><ele></ele><time>2017-9-17T12:40:38Z</time></trkpt>
<trkpt lat="48.486502" lon="2.651278"><ele></ele><time>2017-9-17T12:40:41Z</time></trkpt>
<trkpt lat="48.486472" lon="2.651337"><ele></ele><time>2017-9-17T12:40:44Z</time></trkpt>
<trkpt lat="48.486445" lon="2.651393"><ele></ele><time>2017-9-17T12:40:47Z</time></trkpt>
<trkpt lat="48.486415" lon="2.651452"><ele></ele><time>2017-9-17T12:40:50Z</time></trkpt>
<trkpt lat="48.486388" lon="2.651510"><ele></ele><time>2017-9-17T12:40:53Z</time></trkpt>
<trkpt lat="48.486360" lon="2.651567"><ele></ele><time>2017-9-17T12:40:56Z</time></trkpt>
<trkpt lat="48.486332" lon="2.651625"><ele></ele><time>2017-9-17T12:40:59Z</time></trkpt>
<trkpt lat="48.486300" lon="2.651685"><ele></ele><time>2017-9-17T12:41:2Z</time></trkpt>
<trkpt lat="48.486242" lon="2.651800"><ele></ele><time>2017-9-17T12:41:5Z</time></trkpt>
<trkpt lat="48.486183" lon="2.651918"><ele></ele><time>2017-9-17T12:41:8Z</time></trkpt>
<trkpt lat="48.486125" lon="2.652037"><ele></ele><time>2017-9-17T12:41:11Z</time></trkpt>
<trkpt lat="48.486070" lon="2.652153"><ele></ele><time>2017-9-17T12:41:14Z</time></trkpt>
<trkpt lat="48.486012" lon="2.652267"><ele></ele><time>2017-9-17T12:41:17Z</time></trkpt>
<trkpt lat="48.485953" lon="2.652385"><ele></ele><time>2017-9-17T12:41:20Z</time></trkpt>
<trkpt lat="48.485927" lon="2.652447"><ele></ele><time>2017-9-17T12:41:23Z</time></trkpt>
<trkpt lat="48.485905" lon="2.652507"><ele></ele><time>2017-9-17T12:41:26Z</time></trkpt>
<trkpt lat="48.485882" lon="2.652568"><ele></ele><time>2017-9-17T12:41:29Z</time></trkpt>
<trkpt lat="48.485858" lon="2.652627"><ele></ele><time>2017-9-17T12:41:32Z</time></trkpt>
<trkpt lat="48.485832" lon="2.652687"><ele></ele><time>2017-9-17T12:41:35Z</time></trkpt>
<trkpt lat="48.485802" lon="2.652745"><ele></ele><time>2017-9-17T12:41:38Z</time></trkpt>
<trkpt lat="48.485768" lon="2.652797"><ele></ele><time>2017-9-17T12:41:41Z</time></trkpt>
<trkpt lat="48.485738" lon="2.652847"><ele></ele><time>2017-9-17T12:41:44Z</time></trkpt>
<trkpt lat="48.485707" lon="2.652905"><ele></ele><time>2017-9-17T12:41:47Z</time></trkpt>
<trkpt lat="48.485677" lon="2.652963"><ele></ele><time>2017-9-17T12:41:50Z</time></trkpt>
<trkpt lat="48.485645" lon="2.653020"><ele></ele><time>2017-9-17T12:41:53Z</time></trkpt>
<trkpt lat="48.485617" lon="2.653080"><ele></ele><time>2017-9-17T12:41:56Z</time></trkpt>
<trkpt lat="48.485588" lon="2.653138"><ele></ele><time>2017-9-17T12:41:59Z</time></trkpt>
<trkpt lat="48.485557" lon="2.653195"><ele></ele><time>2017-9-17T12:42:2Z</time></trkpt>
<trkpt lat="48.485527" lon="2.653253"><ele></ele><time>2017-9-17T12:42:5Z</time></trkpt>
<trkpt lat="48.485482" lon="2.653368"><ele></ele><time>2017-9-17T12:42:8Z</time></trkpt>
<trkpt lat="48.485460" lon="2.653432"><ele></ele><time>2017-9-17T12:42:11Z</time></trkpt>
<trkpt lat="48.485438" lon="2.653497"><ele></ele><time>2017-9-17T12:42:14Z</time></trkpt>
<trkpt lat="48.485423" lon="2.653568"><ele></ele><time>2017-9-17T12:42:17Z</time></trkpt>
<trkpt lat="48.485412" lon="2.653638"><ele></ele><time>2017-9-17T12:42:20Z</time></trkpt>
<trkpt lat="48.485402" lon="2.653717"><ele></ele><time>2017-9-17T12:42:23Z</time></trkpt>
<trkpt lat="48.485385" lon="2.653810"><ele></ele><time>2017-9-17T12:42:26Z</time></trkpt>
<trkpt lat="48.485368" lon="2.653907"><ele></ele><time>2017-9-17T12:42:29Z</time></trkpt>
<trkpt lat="48.485355" lon="2.654002"><ele></ele><time>2017-9-17T12:42:32Z</time></trkpt>
<trkpt lat="48.485343" lon="2.654090"><ele></ele><time>2017-9-17T12:42:35Z</time></trkpt>
<trkpt lat="48.485330" lon="2.654178"><ele></ele><time>2017-9-17T12:42:38Z</time></trkpt>
<trkpt lat="48.485315" lon="2.654268"><ele></ele><time>2017-9-17T12:42:41Z</time></trkpt>
<trkpt lat="48.485302" lon="2.654352"><ele></ele><time>2017-9-17T12:42:44Z</time></trkpt>
<trkpt lat="48.485290" lon="2.654437"><ele></ele><time>2017-9-17T12:42:47Z</time></trkpt>
<trkpt lat="48.485277" lon="2.654522"><ele></ele><time>2017-9-17T12:42:50Z</time></trkpt>
<trkpt lat="48.485265" lon="2.654605"><ele></ele><time>2017-9-17T12:42:53Z</time></trkpt>
<trkpt lat="48.485253" lon="2.654685"><ele></ele><time>2017-9-17T12:42:56Z</time></trkpt>
<trkpt lat="48.485242" lon="2.654762"><ele></ele><time>2017-9-17T12:42:59Z</time></trkpt>
<trkpt lat="48.485235" lon="2.654843"><ele></ele><time>2017-9-17T12:43:2Z</time></trkpt>
<trkpt lat="48.485227" lon="2.654927"><ele></ele><time>2017-9-17T12:43:5Z</time></trkpt>
<trkpt lat="48.485213" lon="2.655017"><ele></ele><time>2017-9-17T12:43:8Z</time></trkpt>
<trkpt lat="48.485202" lon="2.655098"><ele></ele><time>2017-9-17T12:43:11Z</time></trkpt>
<trkpt lat="48.485192" lon="2.655182"><ele></ele><time>2017-9-17T12:43:14Z</time></trkpt>
<trkpt lat="48.485180" lon="2.655265"><ele></ele><time>2017-9-17T12:43:17Z</time></trkpt>
<trkpt lat="48.485165" lon="2.655345"><ele></ele><time>2017-9-17T12:43:20Z</time></trkpt>
<trkpt lat="48.485152" lon="2.655435"><ele></ele><time>2017-9-17T12:43:23Z</time></trkpt>
<trkpt lat="48.485142" lon="2.655515"><ele></ele><time>2017-9-17T12:43:26Z</time></trkpt>
<trkpt lat="48.485132" lon="2.655592"><ele></ele><time>2017-9-17T12:43:29Z</time></trkpt>
<trkpt lat="48.485122" lon="2.655663"><ele></ele><time>2017-9-17T12:43:32Z</time></trkpt>
<trkpt lat="48.485112" lon="2.655737"><ele></ele><time>2017-9-17T12:43:35Z</time></trkpt>
<trkpt lat="48.485102" lon="2.655810"><ele></ele><time>2017-9-17T12:43:38Z</time></trkpt>
<trkpt lat="48.485087" lon="2.655885"><ele></ele><time>2017-9-17T12:43:41Z</time></trkpt>
<trkpt lat="48.485075" lon="2.655962"><ele></ele><time>2017-9-17T12:43:44Z</time></trkpt>
<trkpt lat="48.485068" lon="2.656037"><ele></ele><time>2017-9-17T12:43:47Z</time></trkpt>
<trkpt lat="48.485060" lon="2.656113"><ele></ele><time>2017-9-17T12:43:50Z</time></trkpt>
<trkpt lat="48.485052" lon="2.656195"><ele></ele><time>2017-9-17T12:43:53Z</time></trkpt>
<trkpt lat="48.485043" lon="2.656265"><ele></ele><time>2017-9-17T12:43:56Z</time></trkpt>
<trkpt lat="48.485035" lon="2.656337"><ele></ele><time>2017-9-17T12:43:59Z</time></trkpt>
<trkpt lat="48.485023" lon="2.656412"><ele></ele><time>2017-9-17T12:44:2Z</time></trkpt>
<trkpt lat="48.485007" lon="2.656495"><ele></ele><time>2017-9-17T12:44:5Z</time></trkpt>
<trkpt lat="48.484995" lon="2.656575"><ele></ele><time>2017-9-17T12:44:8Z</time></trkpt>
<trkpt lat="48.484973" lon="2.656735"><ele></ele><time>2017-9-17T12:44:11Z</time></trkpt>
<trkpt lat="48.484953" lon="2.656895"><ele></ele><time>2017-9-17T12:44:14Z</time></trkpt>
<trkpt lat="48.484933" lon="2.657047"><ele></ele><time>2017-9-17T12:44:17Z</time></trkpt>
<trkpt lat="48.484917" lon="2.657195"><ele></ele><time>2017-9-17T12:44:20Z</time></trkpt>
<trkpt lat="48.484895" lon="2.657353"><ele></ele><time>2017-9-17T12:44:23Z</time></trkpt>
<trkpt lat="48.484885" lon="2.657433"><ele></ele><time>2017-9-17T12:44:26Z</time></trkpt>
<trkpt lat="48.484875" lon="2.657513"><ele></ele><time>2017-9-17T12:44:29Z</time></trkpt>
<trkpt lat="48.484865" lon="2.657592"><ele></ele><time>2017-9-17T12:44:32Z</time></trkpt>
<trkpt lat="48.484855" lon="2.657670"><ele></ele><time>2017-9-17T12:44:35Z</time></trkpt>
<trkpt lat="48.484845" lon="2.657747"><ele></ele><time>2017-9-17T12:44:38Z</time></trkpt>
<trkpt lat="48.484833" lon="2.657823"><ele></ele><time>2017-9-17T12:44:41Z</time></trkpt>
<trkpt lat="48.484823" lon="2.657900"><ele></ele><time>2017-9-17T12:44:44Z</time></trkpt>
<trkpt lat="48.484812" lon="2.657978"><ele></ele><time>2017-9-17T12:44:47Z</time></trkpt>
<trkpt lat="48.484798" lon="2.658053"><ele></ele><time>2017-9-17T12:44:50Z</time></trkpt>
<trkpt lat="48.484782" lon="2.658133"><ele></ele><time>2017-9-17T12:44:53Z</time></trkpt>
<trkpt lat="48.484765" lon="2.658212"><ele></ele><time>2017-9-17T12:44:56Z</time></trkpt>
<trkpt lat="48.484753" lon="2.658288"><ele></ele><time>2017-9-17T12:44:59Z</time></trkpt>
<trkpt lat="48.484745" lon="2.658365"><ele></ele><time>2017-9-17T12:45:2Z</time></trkpt>
<trkpt lat="48.484735" lon="2.658445"><ele></ele><time>2017-9-17T12:45:5Z</time></trkpt>
<trkpt lat="48.484725" lon="2.658523"><ele></ele><time>2017-9-17T12:45:8Z</time></trkpt>
<trkpt lat="48.484713" lon="2.658603"><ele></ele><time>2017-9-17T12:45:11Z</time></trkpt>
<trkpt lat="48.484705" lon="2.658678"><ele></ele><time>2017-9-17T12:45:14Z</time></trkpt>
<trkpt lat="48.484695" lon="2.658755"><ele></ele><time>2017-9-17T12:45:17Z</time></trkpt>
<trkpt lat="48.484683" lon="2.658835"><ele></ele><time>2017-9-17T12:45:20Z</time></trkpt>
<trkpt lat="48.484673" lon="2.658913"><ele></ele><time>2017-9-17T12:45:23Z</time></trkpt>
<trkpt lat="48.484663" lon="2.658992"><ele></ele><time>2017-9-17T12:45:26Z</time></trkpt>
<trkpt lat="48.484655" lon="2.659067"><ele></ele><time>2017-9-17T12:45:29Z</time></trkpt>
<trkpt lat="48.484643" lon="2.659147"><ele></ele><time>2017-9-17T12:45:32Z</time></trkpt>
<trkpt lat="48.484632" lon="2.659230"><ele></ele><time>2017-9-17T12:45:35Z</time></trkpt>
<trkpt lat="48.484622" lon="2.659308"><ele></ele><time>2017-9-17T12:45:38Z</time></trkpt>
<trkpt lat="48.484613" lon="2.659387"><ele></ele><time>2017-9-17T12:45:41Z</time></trkpt>
<trkpt lat="48.484603" lon="2.659465"><ele></ele><time>2017-9-17T12:45:44Z</time></trkpt>
<trkpt lat="48.484593" lon="2.659560"><ele></ele><time>2017-9-17T12:45:47Z</time></trkpt>
<trkpt lat="48.484578" lon="2.659668"><ele></ele><time>2017-9-17T12:45:50Z</time></trkpt>
<trkpt lat="48.484573" lon="2.659750"><ele></ele><time>2017-9-17T12:45:53Z</time></trkpt>
<trkpt lat="48.484565" lon="2.659815"><ele></ele><time>2017-9-17T12:45:56Z</time></trkpt>
<trkpt lat="48.484548" lon="2.659897"><ele></ele><time>2017-9-17T12:45:59Z</time></trkpt>
<trkpt lat="48.484535" lon="2.659963"><ele></ele><time>2017-9-17T12:46:2Z</time></trkpt>
<trkpt lat="48.484520" lon="2.660037"><ele></ele><time>2017-9-17T12:46:5Z</time></trkpt>
<trkpt lat="48.484508" lon="2.660115"><ele></ele><time>2017-9-17T12:46:8Z</time></trkpt>
<trkpt lat="48.484492" lon="2.660190"><ele></ele><time>2017-9-17T12:46:11Z</time></trkpt>
<trkpt lat="48.484478" lon="2.660258"><ele></ele><time>2017-9-17T12:46:14Z</time></trkpt>
<trkpt lat="48.484462" lon="2.660332"><ele></ele><time>2017-9-17T12:46:17Z</time></trkpt>
<trkpt lat="48.484445" lon="2.660405"><ele></ele><time>2017-9-17T12:46:20Z</time></trkpt>
<trkpt lat="48.484430" lon="2.660477"><ele></ele><time>2017-9-17T12:46:23Z</time></trkpt>
<trkpt lat="48.484413" lon="2.660558"><ele></ele><time>2017-9-17T12:46:26Z</time></trkpt>
<trkpt lat="48.484397" lon="2.660643"><ele></ele><time>2017-9-17T12:46:29Z</time></trkpt>
<trkpt lat="48.484375" lon="2.660722"><ele></ele><time>2017-9-17T12:46:32Z</time></trkpt>
<trkpt lat="48.484355" lon="2.660800"><ele></ele><time>2017-9-17T12:46:35Z</time></trkpt>
<trkpt lat="48.484335" lon="2.660872"><ele></ele><time>2017-9-17T12:46:38Z</time></trkpt>
<trkpt lat="48.484317" lon="2.660945"><ele></ele><time>2017-9-17T12:46:41Z</time></trkpt>
<trkpt lat="48.484300" lon="2.661013"><ele></ele><time>2017-9-17T12:46:44Z</time></trkpt>
<trkpt lat="48.484268" lon="2.661140"><ele></ele><time>2017-9-17T12:46:47Z</time></trkpt>
<trkpt lat="48.484238" lon="2.661253"><ele></ele><time>2017-9-17T12:46:50Z</time></trkpt>
<trkpt lat="48.484207" lon="2.661367"><ele></ele><time>2017-9-17T12:46:53Z</time></trkpt>
<trkpt lat="48.484182" lon="2.661460"><ele></ele><time>2017-9-17T12:46:56Z</time></trkpt>
<trkpt lat="48.484142" lon="2.661578"><ele></ele><time>2017-9-17T12:46:59Z</time></trkpt>
<trkpt lat="48.484112" lon="2.661683"><ele></ele><time>2017-9-17T12:47:2Z</time></trkpt>
<trkpt lat="48.484090" lon="2.661752"><ele></ele><time>2017-9-17T12:47:5Z</time></trkpt>
<trkpt lat="48.484065" lon="2.661870"><ele></ele><time>2017-9-17T12:47:8Z</time></trkpt>
<trkpt lat="48.484057" lon="2.661925"><ele></ele><time>2017-9-17T12:47:11Z</time></trkpt>
<trkpt lat="48.484020" lon="2.662107"><ele></ele><time>2017-9-17T12:47:14Z</time></trkpt>
<trkpt lat="48.483978" lon="2.662225"><ele></ele><time>2017-9-17T12:47:17Z</time></trkpt>
<trkpt lat="48.483945" lon="2.662350"><ele></ele><time>2017-9-17T12:47:20Z</time></trkpt>
<trkpt lat="48.483922" lon="2.662467"><ele></ele><time>2017-9-17T12:47:23Z</time></trkpt>
<trkpt lat="48.483903" lon="2.662587"><ele></ele><time>2017-9-17T12:47:26Z</time></trkpt>
<trkpt lat="48.483875" lon="2.662713"><ele></ele><time>2017-9-17T12:47:29Z</time></trkpt>
<trkpt lat="48.483862" lon="2.662823"><ele></ele><time>2017-9-17T12:47:32Z</time></trkpt>
<trkpt lat="48.483830" lon="2.662942"><ele></ele><time>2017-9-17T12:47:35Z</time></trkpt>
<trkpt lat="48.483805" lon="2.663052"><ele></ele><time>2017-9-17T12:47:38Z</time></trkpt>
<trkpt lat="48.483782" lon="2.663153"><ele></ele><time>2017-9-17T12:47:41Z</time></trkpt>
<trkpt lat="48.483760" lon="2.663257"><ele></ele><time>2017-9-17T12:47:44Z</time></trkpt>
<trkpt lat="48.483735" lon="2.663370"><ele></ele><time>2017-9-17T12:47:47Z</time></trkpt>
<trkpt lat="48.483712" lon="2.663487"><ele></ele><time>2017-9-17T12:47:50Z</time></trkpt>
<trkpt lat="48.483682" lon="2.663608"><ele></ele><time>2017-9-17T12:47:53Z</time></trkpt>
<trkpt lat="48.483645" lon="2.663755"><ele></ele><time>2017-9-17T12:47:56Z</time></trkpt>
<trkpt lat="48.483610" lon="2.663912"><ele></ele><time>2017-9-17T12:47:59Z</time></trkpt>
<trkpt lat="48.483578" lon="2.664070"><ele></ele><time>2017-9-17T12:48:2Z</time></trkpt>
<trkpt lat="48.483545" lon="2.664208"><ele></ele><time>2017-9-17T12:48:5Z</time></trkpt>
<trkpt lat="48.483510" lon="2.664358"><ele></ele><time>2017-9-17T12:48:8Z</time></trkpt>
<trkpt lat="48.483477" lon="2.664505"><ele></ele><time>2017-9-17T12:48:11Z</time></trkpt>
<trkpt lat="48.483452" lon="2.664630"><ele></ele><time>2017-9-17T12:48:14Z</time></trkpt>
<trkpt lat="48.483430" lon="2.664712"><ele></ele><time>2017-9-17T12:48:17Z</time></trkpt>
<trkpt lat="48.483412" lon="2.664792"><ele></ele><time>2017-9-17T12:48:20Z</time></trkpt>
<trkpt lat="48.483395" lon="2.664867"><ele></ele><time>2017-9-17T12:48:23Z</time></trkpt>
<trkpt lat="48.483375" lon="2.664952"><ele></ele><time>2017-9-17T12:48:26Z</time></trkpt>
<trkpt lat="48.483350" lon="2.665018"><ele></ele><time>2017-9-17T12:48:29Z</time></trkpt>
<trkpt lat="48.483315" lon="2.665068"><ele></ele><time>2017-9-17T12:48:32Z</time></trkpt>
<trkpt lat="48.483238" lon="2.665117"><ele></ele><time>2017-9-17T12:48:35Z</time></trkpt>
<trkpt lat="48.483177" lon="2.665095"><ele></ele><time>2017-9-17T12:48:38Z</time></trkpt>
<trkpt lat="48.483113" lon="2.665103"><ele></ele><time>2017-9-17T12:48:41Z</time></trkpt>
<trkpt lat="48.483047" lon="2.665097"><ele></ele><time>2017-9-17T12:48:44Z</time></trkpt>
<trkpt lat="48.482982" lon="2.665078"><ele></ele><time>2017-9-17T12:48:47Z</time></trkpt>
<trkpt lat="48.482923" lon="2.665020"><ele></ele><time>2017-9-17T12:48:50Z</time></trkpt>
<trkpt lat="48.482878" lon="2.664940"><ele></ele><time>2017-9-17T12:48:53Z</time></trkpt>
<trkpt lat="48.482832" lon="2.664863"><ele></ele><time>2017-9-17T12:48:56Z</time></trkpt>
<trkpt lat="48.482779" lon="2.664777"><ele></ele><time>2017-9-17T12:48:59Z</time></trkpt>
<trkpt lat="48.482750" lon="2.664675"><ele></ele><time>2017-9-17T12:49:2Z</time></trkpt>
<trkpt lat="48.482730" lon="2.664563"><ele></ele><time>2017-9-17T12:49:5Z</time></trkpt>
<trkpt lat="48.482698" lon="2.664455"><ele></ele><time>2017-9-17T12:49:8Z</time></trkpt>
<trkpt lat="48.482670" lon="2.664353"><ele></ele><time>2017-9-17T12:49:11Z</time></trkpt>
<trkpt lat="48.482645" lon="2.664242"><ele></ele><time>2017-9-17T12:49:14Z</time></trkpt>
<trkpt lat="48.482628" lon="2.664177"><ele></ele><time>2017-9-17T12:49:17Z</time></trkpt>
<trkpt lat="48.482610" lon="2.664110"><ele></ele><time>2017-9-17T12:49:20Z</time></trkpt>
<trkpt lat="48.482592" lon="2.664045"><ele></ele><time>2017-9-17T12:49:23Z</time></trkpt>
<trkpt lat="48.482572" lon="2.663972"><ele></ele><time>2017-9-17T12:49:26Z</time></trkpt>
<trkpt lat="48.482552" lon="2.663888"><ele></ele><time>2017-9-17T12:49:29Z</time></trkpt>
<trkpt lat="48.482528" lon="2.663797"><ele></ele><time>2017-9-17T12:49:32Z</time></trkpt>
<trkpt lat="48.482502" lon="2.663702"><ele></ele><time>2017-9-17T12:49:35Z</time></trkpt>
<trkpt lat="48.482472" lon="2.663597"><ele></ele><time>2017-9-17T12:49:38Z</time></trkpt>
<trkpt lat="48.482440" lon="2.663485"><ele></ele><time>2017-9-17T12:49:41Z</time></trkpt>
<trkpt lat="48.482410" lon="2.663370"><ele></ele><time>2017-9-17T12:49:44Z</time></trkpt>
<trkpt lat="48.482378" lon="2.663253"><ele></ele><time>2017-9-17T12:49:47Z</time></trkpt>
<trkpt lat="48.482328" lon="2.663027"><ele></ele><time>2017-9-17T12:49:50Z</time></trkpt>
<trkpt lat="48.482300" lon="2.662913"><ele></ele><time>2017-9-17T12:49:53Z</time></trkpt>
<trkpt lat="48.482272" lon="2.662805"><ele></ele><time>2017-9-17T12:49:56Z</time></trkpt>
<trkpt lat="48.482215" lon="2.662563"><ele></ele><time>2017-9-17T12:49:59Z</time></trkpt>
<trkpt lat="48.482153" lon="2.662337"><ele></ele><time>2017-9-17T12:50:2Z</time></trkpt>
<trkpt lat="48.482092" lon="2.662127"><ele></ele><time>2017-9-17T12:50:5Z</time></trkpt>
<trkpt lat="48.482068" lon="2.662030"><ele></ele><time>2017-9-17T12:50:8Z</time></trkpt>
<trkpt lat="48.482038" lon="2.661935"><ele></ele><time>2017-9-17T12:50:11Z</time></trkpt>
<trkpt lat="48.482003" lon="2.661840"><ele></ele><time>2017-9-17T12:50:14Z</time></trkpt>
<trkpt lat="48.481967" lon="2.661750"><ele></ele><time>2017-9-17T12:50:17Z</time></trkpt>
<trkpt lat="48.481942" lon="2.661662"><ele></ele><time>2017-9-17T12:50:20Z</time></trkpt>
<trkpt lat="48.481915" lon="2.661567"><ele></ele><time>2017-9-17T12:50:23Z</time></trkpt>
<trkpt lat="48.481883" lon="2.661477"><ele></ele><time>2017-9-17T12:50:26Z</time></trkpt>
<trkpt lat="48.481850" lon="2.661393"><ele></ele><time>2017-9-17T12:50:29Z</time></trkpt>
<trkpt lat="48.481818" lon="2.661305"><ele></ele><time>2017-9-17T12:50:32Z</time></trkpt>
<trkpt lat="48.481785" lon="2.661203"><ele></ele><time>2017-9-17T12:50:35Z</time></trkpt>
<trkpt lat="48.481752" lon="2.661107"><ele></ele><time>2017-9-17T12:50:38Z</time></trkpt>
<trkpt lat="48.481720" lon="2.661005"><ele></ele><time>2017-9-17T12:50:41Z</time></trkpt>
<trkpt lat="48.481690" lon="2.660900"><ele></ele><time>2017-9-17T12:50:44Z</time></trkpt>
<trkpt lat="48.481657" lon="2.660787"><ele></ele><time>2017-9-17T12:50:47Z</time></trkpt>
<trkpt lat="48.481633" lon="2.660687"><ele></ele><time>2017-9-17T12:50:50Z</time></trkpt>
<trkpt lat="48.481608" lon="2.660595"><ele></ele><time>2017-9-17T12:50:53Z</time></trkpt>
<trkpt lat="48.481580" lon="2.660505"><ele></ele><time>2017-9-17T12:50:56Z</time></trkpt>
<trkpt lat="48.481548" lon="2.660413"><ele></ele><time>2017-9-17T12:50:59Z</time></trkpt>
<trkpt lat="48.481517" lon="2.660317"><ele></ele><time>2017-9-17T12:51:2Z</time></trkpt>
<trkpt lat="48.481488" lon="2.660230"><ele></ele><time>2017-9-17T12:51:5Z</time></trkpt>
<trkpt lat="48.481457" lon="2.660148"><ele></ele><time>2017-9-17T12:51:8Z</time></trkpt>
<trkpt lat="48.481417" lon="2.660053"><ele></ele><time>2017-9-17T12:51:11Z</time></trkpt>
<trkpt lat="48.481385" lon="2.659965"><ele></ele><time>2017-9-17T12:51:14Z</time></trkpt>
<trkpt lat="48.481358" lon="2.659872"><ele></ele><time>2017-9-17T12:51:17Z</time></trkpt>
<trkpt lat="48.481330" lon="2.659778"><ele></ele><time>2017-9-17T12:51:20Z</time></trkpt>
<trkpt lat="48.481300" lon="2.659692"><ele></ele><time>2017-9-17T12:51:23Z</time></trkpt>
<trkpt lat="48.481270" lon="2.659608"><ele></ele><time>2017-9-17T12:51:26Z</time></trkpt>
<trkpt lat="48.481242" lon="2.659513"><ele></ele><time>2017-9-17T12:51:29Z</time></trkpt>
<trkpt lat="48.481215" lon="2.659430"><ele></ele><time>2017-9-17T12:51:32Z</time></trkpt>
<trkpt lat="48.481190" lon="2.659353"><ele></ele><time>2017-9-17T12:51:35Z</time></trkpt>
<trkpt lat="48.481173" lon="2.659282"><ele></ele><time>2017-9-17T12:51:38Z</time></trkpt>
<trkpt lat="48.481153" lon="2.659212"><ele></ele><time>2017-9-17T12:51:41Z</time></trkpt>
<trkpt lat="48.481132" lon="2.659145"><ele></ele><time>2017-9-17T12:51:44Z</time></trkpt>
<trkpt lat="48.481098" lon="2.659058"><ele></ele><time>2017-9-17T12:51:47Z</time></trkpt>
<trkpt lat="48.481072" lon="2.658980"><ele></ele><time>2017-9-17T12:51:50Z</time></trkpt>
<trkpt lat="48.481043" lon="2.658900"><ele></ele><time>2017-9-17T12:51:53Z</time></trkpt>
<trkpt lat="48.481018" lon="2.658820"><ele></ele><time>2017-9-17T12:51:56Z</time></trkpt>
<trkpt lat="48.480993" lon="2.658748"><ele></ele><time>2017-9-17T12:51:59Z</time></trkpt>
<trkpt lat="48.480972" lon="2.658672"><ele></ele><time>2017-9-17T12:52:2Z</time></trkpt>
<trkpt lat="48.480948" lon="2.658598"><ele></ele><time>2017-9-17T12:52:5Z</time></trkpt>
<trkpt lat="48.480928" lon="2.658535"><ele></ele><time>2017-9-17T12:52:8Z</time></trkpt>
<trkpt lat="48.480908" lon="2.658468"><ele></ele><time>2017-9-17T12:52:11Z</time></trkpt>
<trkpt lat="48.480885" lon="2.658398"><ele></ele><time>2017-9-17T12:52:14Z</time></trkpt>
<trkpt lat="48.480863" lon="2.658320"><ele></ele><time>2017-9-17T12:52:17Z</time></trkpt>
<trkpt lat="48.480840" lon="2.658243"><ele></ele><time>2017-9-17T12:52:20Z</time></trkpt>
<trkpt lat="48.480795" lon="2.658097"><ele></ele><time>2017-9-17T12:52:23Z</time></trkpt>
<trkpt lat="48.480745" lon="2.657958"><ele></ele><time>2017-9-17T12:52:26Z</time></trkpt>
<trkpt lat="48.480697" lon="2.657815"><ele></ele><time>2017-9-17T12:52:29Z</time></trkpt>
<trkpt lat="48.480645" lon="2.657667"><ele></ele><time>2017-9-17T12:52:32Z</time></trkpt>
<trkpt lat="48.480622" lon="2.657595"><ele></ele><time>2017-9-17T12:52:35Z</time></trkpt>
<trkpt lat="48.480598" lon="2.657525"><ele></ele><time>2017-9-17T12:52:38Z</time></trkpt>
<trkpt lat="48.480553" lon="2.657387"><ele></ele><time>2017-9-17T12:52:41Z</time></trkpt>
<trkpt lat="48.480505" lon="2.657243"><ele></ele><time>2017-9-17T12:52:44Z</time></trkpt>
<trkpt lat="48.480482" lon="2.657173"><ele></ele><time>2017-9-17T12:52:47Z</time></trkpt>
<trkpt lat="48.480460" lon="2.657107"><ele></ele><time>2017-9-17T12:52:50Z</time></trkpt>
<trkpt lat="48.480422" lon="2.656995"><ele></ele><time>2017-9-17T12:52:53Z</time></trkpt>
<trkpt lat="48.480390" lon="2.656895"><ele></ele><time>2017-9-17T12:52:56Z</time></trkpt>
<trkpt lat="48.480352" lon="2.656790"><ele></ele><time>2017-9-17T12:52:59Z</time></trkpt>
<trkpt lat="48.480313" lon="2.656688"><ele></ele><time>2017-9-17T12:53:2Z</time></trkpt>
<trkpt lat="48.480277" lon="2.656578"><ele></ele><time>2017-9-17T12:53:5Z</time></trkpt>
<trkpt lat="48.480250" lon="2.656497"><ele></ele><time>2017-9-17T12:53:8Z</time></trkpt>
<trkpt lat="48.480225" lon="2.656410"><ele></ele><time>2017-9-17T12:53:11Z</time></trkpt>
<trkpt lat="48.480202" lon="2.656325"><ele></ele><time>2017-9-17T12:53:14Z</time></trkpt>
<trkpt lat="48.480172" lon="2.656240"><ele></ele><time>2017-9-17T12:53:17Z</time></trkpt>
<trkpt lat="48.480135" lon="2.656142"><ele></ele><time>2017-9-17T12:53:20Z</time></trkpt>
<trkpt lat="48.480105" lon="2.656047"><ele></ele><time>2017-9-17T12:53:23Z</time></trkpt>
<trkpt lat="48.480063" lon="2.655927"><ele></ele><time>2017-9-17T12:53:26Z</time></trkpt>
<trkpt lat="48.480030" lon="2.655838"><ele></ele><time>2017-9-17T12:53:29Z</time></trkpt>
<trkpt lat="48.479995" lon="2.655757"><ele></ele><time>2017-9-17T12:53:32Z</time></trkpt>
<trkpt lat="48.479958" lon="2.655672"><ele></ele><time>2017-9-17T12:53:35Z</time></trkpt>
<trkpt lat="48.479925" lon="2.655573"><ele></ele><time>2017-9-17T12:53:38Z</time></trkpt>
<trkpt lat="48.479930" lon="2.655445"><ele></ele><time>2017-9-17T12:53:41Z</time></trkpt>
<trkpt lat="48.479927" lon="2.655318"><ele></ele><time>2017-9-17T12:53:44Z</time></trkpt>
<trkpt lat="48.479888" lon="2.655277"><ele></ele><time>2017-9-17T12:53:47Z</time></trkpt>
<trkpt lat="48.479808" lon="2.655240"><ele></ele><time>2017-9-17T12:53:50Z</time></trkpt>
<trkpt lat="48.479772" lon="2.655140"><ele></ele><time>2017-9-17T12:53:53Z</time></trkpt>
<trkpt lat="48.479737" lon="2.655020"><ele></ele><time>2017-9-17T12:53:56Z</time></trkpt>
<trkpt lat="48.479727" lon="2.654982"><ele></ele><time>2017-9-17T12:53:59Z</time></trkpt>
<trkpt lat="48.479697" lon="2.654842"><ele></ele><time>2017-9-17T12:54:2Z</time></trkpt>
<trkpt lat="48.479672" lon="2.654725"><ele></ele><time>2017-9-17T12:54:5Z</time></trkpt>
<trkpt lat="48.479638" lon="2.654612"><ele></ele><time>2017-9-17T12:54:8Z</time></trkpt>
<trkpt lat="48.479602" lon="2.654508"><ele></ele><time>2017-9-17T12:54:11Z</time></trkpt>
<trkpt lat="48.479568" lon="2.654417"><ele></ele><time>2017-9-17T12:54:14Z</time></trkpt>
<trkpt lat="48.479548" lon="2.654328"><ele></ele><time>2017-9-17T12:54:17Z</time></trkpt>
<trkpt lat="48.479517" lon="2.654223"><ele></ele><time>2017-9-17T12:54:20Z</time></trkpt>
<trkpt lat="48.479497" lon="2.654163"><ele></ele><time>2017-9-17T12:54:23Z</time></trkpt>
<trkpt lat="48.479478" lon="2.654097"><ele></ele><time>2017-9-17T12:54:26Z</time></trkpt>
<trkpt lat="48.479437" lon="2.653982"><ele></ele><time>2017-9-17T12:54:29Z</time></trkpt>
<trkpt lat="48.479395" lon="2.653877"><ele></ele><time>2017-9-17T12:54:32Z</time></trkpt>
<trkpt lat="48.479358" lon="2.653762"><ele></ele><time>2017-9-17T12:54:35Z</time></trkpt>
<trkpt lat="48.479318" lon="2.653663"><ele></ele><time>2017-9-17T12:54:38Z</time></trkpt>
<trkpt lat="48.479283" lon="2.653562"><ele></ele><time>2017-9-17T12:54:41Z</time></trkpt>
<trkpt lat="48.479253" lon="2.653467"><ele></ele><time>2017-9-17T12:54:44Z</time></trkpt>
<trkpt lat="48.479240" lon="2.653422"><ele></ele><time>2017-9-17T12:54:47Z</time></trkpt>
<trkpt lat="48.479205" lon="2.653340"><ele></ele><time>2017-9-17T12:54:50Z</time></trkpt>
<trkpt lat="48.479177" lon="2.653250"><ele></ele><time>2017-9-17T12:54:53Z</time></trkpt>
<trkpt lat="48.479150" lon="2.653148"><ele></ele><time>2017-9-17T12:54:56Z</time></trkpt>
<trkpt lat="48.479117" lon="2.653065"><ele></ele><time>2017-9-17T12:54:59Z</time></trkpt>
<trkpt lat="48.479087" lon="2.652985"><ele></ele><time>2017-9-17T12:55:2Z</time></trkpt>
<trkpt lat="48.479067" lon="2.652902"><ele></ele><time>2017-9-17T12:55:5Z</time></trkpt>
<trkpt lat="48.479038" lon="2.652797"><ele></ele><time>2017-9-17T12:55:8Z</time></trkpt>
<trkpt lat="48.479008" lon="2.652683"><ele></ele><time>2017-9-17T12:55:11Z</time></trkpt>
<trkpt lat="48.478938" lon="2.652610"><ele></ele><time>2017-9-17T12:55:14Z</time></trkpt>
<trkpt lat="48.478872" lon="2.652530"><ele></ele><time>2017-9-17T12:55:17Z</time></trkpt>
<trkpt lat="48.478832" lon="2.652462"><ele></ele><time>2017-9-17T12:55:20Z</time></trkpt>
<trkpt lat="48.478805" lon="2.652430"><ele></ele><time>2017-9-17T12:55:23Z</time></trkpt>
<trkpt lat="48.478712" lon="2.652377"><ele></ele><time>2017-9-17T12:55:26Z</time></trkpt>
<trkpt lat="48.478643" lon="2.652385"><ele></ele><time>2017-9-17T12:55:29Z</time></trkpt>
<trkpt lat="48.478587" lon="2.652433"><ele></ele><time>2017-9-17T12:55:32Z</time></trkpt>
<trkpt lat="48.478530" lon="2.652498"><ele></ele><time>2017-9-17T12:55:35Z</time></trkpt>
<trkpt lat="48.478457" lon="2.652560"><ele></ele><time>2017-9-17T12:55:38Z</time></trkpt>
<trkpt lat="48.478420" lon="2.652597"><ele></ele><time>2017-9-17T12:55:41Z</time></trkpt>
<trkpt lat="48.478378" lon="2.652635"><ele></ele><time>2017-9-17T12:55:44Z</time></trkpt>
<trkpt lat="48.478335" lon="2.652673"><ele></ele><time>2017-9-17T12:55:47Z</time></trkpt>
<trkpt lat="48.478290" lon="2.652713"><ele></ele><time>2017-9-17T12:55:50Z</time></trkpt>
<trkpt lat="48.478250" lon="2.652760"><ele></ele><time>2017-9-17T12:55:53Z</time></trkpt>
<trkpt lat="48.478207" lon="2.652802"><ele></ele><time>2017-9-17T12:55:56Z</time></trkpt>
<trkpt lat="48.478167" lon="2.652842"><ele></ele><time>2017-9-17T12:55:59Z</time></trkpt>
<trkpt lat="48.478123" lon="2.652878"><ele></ele><time>2017-9-17T12:56:2Z</time></trkpt>
<trkpt lat="48.478080" lon="2.652913"><ele></ele><time>2017-9-17T12:56:5Z</time></trkpt>
<trkpt lat="48.478037" lon="2.652947"><ele></ele><time>2017-9-17T12:56:8Z</time></trkpt>
<trkpt lat="48.477993" lon="2.652983"><ele></ele><time>2017-9-17T12:56:11Z</time></trkpt>
<trkpt lat="48.477947" lon="2.653020"><ele></ele><time>2017-9-17T12:56:14Z</time></trkpt>
<trkpt lat="48.477902" lon="2.653052"><ele></ele><time>2017-9-17T12:56:17Z</time></trkpt>
<trkpt lat="48.477852" lon="2.653088"><ele></ele><time>2017-9-17T12:56:20Z</time></trkpt>
<trkpt lat="48.477803" lon="2.653125"><ele></ele><time>2017-9-17T12:56:23Z</time></trkpt>
<trkpt lat="48.477763" lon="2.653157"><ele></ele><time>2017-9-17T12:56:26Z</time></trkpt>
<trkpt lat="48.477722" lon="2.653188"><ele></ele><time>2017-9-17T12:56:29Z</time></trkpt>
<trkpt lat="48.477678" lon="2.653235"><ele></ele><time>2017-9-17T12:56:32Z</time></trkpt>
<trkpt lat="48.477635" lon="2.653277"><ele></ele><time>2017-9-17T12:56:35Z</time></trkpt>
<trkpt lat="48.477593" lon="2.653318"><ele></ele><time>2017-9-17T12:56:38Z</time></trkpt>
<trkpt lat="48.477510" lon="2.653400"><ele></ele><time>2017-9-17T12:56:41Z</time></trkpt>
<trkpt lat="48.477470" lon="2.653432"><ele></ele><time>2017-9-17T12:56:44Z</time></trkpt>
<trkpt lat="48.477428" lon="2.653465"><ele></ele><time>2017-9-17T12:56:47Z</time></trkpt>
<trkpt lat="48.477332" lon="2.653562"><ele></ele><time>2017-9-17T12:56:50Z</time></trkpt>
<trkpt lat="48.477248" lon="2.653637"><ele></ele><time>2017-9-17T12:56:53Z</time></trkpt>
<trkpt lat="48.477208" lon="2.653675"><ele></ele><time>2017-9-17T12:56:56Z</time></trkpt>
<trkpt lat="48.477165" lon="2.653710"><ele></ele><time>2017-9-17T12:56:59Z</time></trkpt>
<trkpt lat="48.477125" lon="2.653747"><ele></ele><time>2017-9-17T12:57:2Z</time></trkpt>
<trkpt lat="48.477088" lon="2.653787"><ele></ele><time>2017-9-17T12:57:5Z</time></trkpt>
<trkpt lat="48.477047" lon="2.653827"><ele></ele><time>2017-9-17T12:57:8Z</time></trkpt>
<trkpt lat="48.476968" lon="2.653892"><ele></ele><time>2017-9-17T12:57:11Z</time></trkpt>
<trkpt lat="48.476927" lon="2.653938"><ele></ele><time>2017-9-17T12:57:14Z</time></trkpt>
<trkpt lat="48.476883" lon="2.653975"><ele></ele><time>2017-9-17T12:57:17Z</time></trkpt>
<trkpt lat="48.476838" lon="2.654002"><ele></ele><time>2017-9-17T12:57:20Z</time></trkpt>
<trkpt lat="48.476785" lon="2.654048"><ele></ele><time>2017-9-17T12:57:23Z</time></trkpt>
<trkpt lat="48.476707" lon="2.654108"><ele></ele><time>2017-9-17T12:57:26Z</time></trkpt>
<trkpt lat="48.476667" lon="2.654137"><ele></ele><time>2017-9-17T12:57:29Z</time></trkpt>
<trkpt lat="48.476625" lon="2.654173"><ele></ele><time>2017-9-17T12:57:32Z</time></trkpt>
<trkpt lat="48.476580" lon="2.654210"><ele></ele><time>2017-9-17T12:57:35Z</time></trkpt>
<trkpt lat="48.476538" lon="2.654243"><ele></ele><time>2017-9-17T12:57:38Z</time></trkpt>
<trkpt lat="48.476495" lon="2.654277"><ele></ele><time>2017-9-17T12:57:41Z</time></trkpt>
<trkpt lat="48.476452" lon="2.654308"><ele></ele><time>2017-9-17T12:57:44Z</time></trkpt>
<trkpt lat="48.476412" lon="2.654343"><ele></ele><time>2017-9-17T12:57:47Z</time></trkpt>
<trkpt lat="48.476373" lon="2.654378"><ele></ele><time>2017-9-17T12:57:50Z</time></trkpt>
<trkpt lat="48.476335" lon="2.654415"><ele></ele><time>2017-9-17T12:57:53Z</time></trkpt>
<trkpt lat="48.476227" lon="2.654510"><ele></ele><time>2017-9-17T12:57:56Z</time></trkpt>
<trkpt lat="48.476158" lon="2.654555"><ele></ele><time>2017-9-17T12:57:59Z</time></trkpt>
<trkpt lat="48.476083" lon="2.654605"><ele></ele><time>2017-9-17T12:58:2Z</time></trkpt>
<trkpt lat="48.476005" lon="2.654667"><ele></ele><time>2017-9-17T12:58:5Z</time></trkpt>
<trkpt lat="48.475965" lon="2.654695"><ele></ele><time>2017-9-17T12:58:8Z</time></trkpt>
<trkpt lat="48.475925" lon="2.654732"><ele></ele><time>2017-9-17T12:58:11Z</time></trkpt>
<trkpt lat="48.475848" lon="2.654802"><ele></ele><time>2017-9-17T12:58:14Z</time></trkpt>
<trkpt lat="48.475772" lon="2.654872"><ele></ele><time>2017-9-17T12:58:17Z</time></trkpt>
<trkpt lat="48.475700" lon="2.654937"><ele></ele><time>2017-9-17T12:58:20Z</time></trkpt>
<trkpt lat="48.475660" lon="2.654980"><ele></ele><time>2017-9-17T12:58:23Z</time></trkpt>
<trkpt lat="48.475618" lon="2.655023"><ele></ele><time>2017-9-17T12:58:26Z</time></trkpt>
<trkpt lat="48.475583" lon="2.655057"><ele></ele><time>2017-9-17T12:58:29Z</time></trkpt>
<trkpt lat="48.475540" lon="2.655103"><ele></ele><time>2017-9-17T12:58:32Z</time></trkpt>
<trkpt lat="48.475497" lon="2.655143"><ele></ele><time>2017-9-17T12:58:35Z</time></trkpt>
<trkpt lat="48.475458" lon="2.655182"><ele></ele><time>2017-9-17T12:58:38Z</time></trkpt>
<trkpt lat="48.475415" lon="2.655227"><ele></ele><time>2017-9-17T12:58:41Z</time></trkpt>
<trkpt lat="48.475337" lon="2.655288"><ele></ele><time>2017-9-17T12:58:44Z</time></trkpt>
<trkpt lat="48.475292" lon="2.655327"><ele></ele><time>2017-9-17T12:58:47Z</time></trkpt>
<trkpt lat="48.475210" lon="2.655392"><ele></ele><time>2017-9-17T12:58:50Z</time></trkpt>
<trkpt lat="48.475118" lon="2.655472"><ele></ele><time>2017-9-17T12:58:53Z</time></trkpt>
<trkpt lat="48.475030" lon="2.655545"><ele></ele><time>2017-9-17T12:58:56Z</time></trkpt>
<trkpt lat="48.474945" lon="2.655617"><ele></ele><time>2017-9-17T12:58:59Z</time></trkpt>
<trkpt lat="48.474903" lon="2.655640"><ele></ele><time>2017-9-17T12:59:2Z</time></trkpt>
<trkpt lat="48.474860" lon="2.655667"><ele></ele><time>2017-9-17T12:59:5Z</time></trkpt>
<trkpt lat="48.474817" lon="2.655705"><ele></ele><time>2017-9-17T12:59:8Z</time></trkpt>
<trkpt lat="48.474775" lon="2.655747"><ele></ele><time>2017-9-17T12:59:11Z</time></trkpt>
<trkpt lat="48.474735" lon="2.655783"><ele></ele><time>2017-9-17T12:59:14Z</time></trkpt>
<trkpt lat="48.474693" lon="2.655822"><ele></ele><time>2017-9-17T12:59:17Z</time></trkpt>
<trkpt lat="48.474648" lon="2.655872"><ele></ele><time>2017-9-17T12:59:20Z</time></trkpt>
<trkpt lat="48.474602" lon="2.655920"><ele></ele><time>2017-9-17T12:59:23Z</time></trkpt>
<trkpt lat="48.474558" lon="2.655963"><ele></ele><time>2017-9-17T12:59:26Z</time></trkpt>
<trkpt lat="48.474515" lon="2.656000"><ele></ele><time>2017-9-17T12:59:29Z</time></trkpt>
<trkpt lat="48.474468" lon="2.656042"><ele></ele><time>2017-9-17T12:59:32Z</time></trkpt>
<trkpt lat="48.474423" lon="2.656078"><ele></ele><time>2017-9-17T12:59:35Z</time></trkpt>
<trkpt lat="48.474383" lon="2.656107"><ele></ele><time>2017-9-17T12:59:38Z</time></trkpt>
<trkpt lat="48.474342" lon="2.656147"><ele></ele><time>2017-9-17T12:59:41Z</time></trkpt>
<trkpt lat="48.474302" lon="2.656187"><ele></ele><time>2017-9-17T12:59:44Z</time></trkpt>
<trkpt lat="48.474262" lon="2.656220"><ele></ele><time>2017-9-17T12:59:47Z</time></trkpt>
<trkpt lat="48.474222" lon="2.656252"><ele></ele><time>2017-9-17T12:59:50Z</time></trkpt>
<trkpt lat="48.474182" lon="2.656283"><ele></ele><time>2017-9-17T12:59:53Z</time></trkpt>
<trkpt lat="48.474137" lon="2.656317"><ele></ele><time>2017-9-17T12:59:56Z</time></trkpt>
<trkpt lat="48.474093" lon="2.656358"><ele></ele><time>2017-9-17T12:59:59Z</time></trkpt>
<trkpt lat="48.474050" lon="2.656395"><ele></ele><time>2017-9-17T13:0:2Z</time></trkpt>
<trkpt lat="48.474005" lon="2.656435"><ele></ele><time>2017-9-17T13:0:5Z</time></trkpt>
<trkpt lat="48.473965" lon="2.656470"><ele></ele><time>2017-9-17T13:0:8Z</time></trkpt>
<trkpt lat="48.473920" lon="2.656505"><ele></ele><time>2017-9-17T13:0:11Z</time></trkpt>
<trkpt lat="48.473877" lon="2.656542"><ele></ele><time>2017-9-17T13:0:14Z</time></trkpt>
<trkpt lat="48.473833" lon="2.656580"><ele></ele><time>2017-9-17T13:0:17Z</time></trkpt>
<trkpt lat="48.473792" lon="2.656620"><ele></ele><time>2017-9-17T13:0:20Z</time></trkpt>
<trkpt lat="48.473748" lon="2.656653"><ele></ele><time>2017-9-17T13:0:23Z</time></trkpt>
<trkpt lat="48.473705" lon="2.656687"><ele></ele><time>2017-9-17T13:0:26Z</time></trkpt>
<trkpt lat="48.473625" lon="2.656735"><ele></ele><time>2017-9-17T13:0:29Z</time></trkpt>
<trkpt lat="48.473583" lon="2.656758"><ele></ele><time>2017-9-17T13:0:32Z</time></trkpt>
<trkpt lat="48.473540" lon="2.656780"><ele></ele><time>2017-9-17T13:0:35Z</time></trkpt>
<trkpt lat="48.473497" lon="2.656807"><ele></ele><time>2017-9-17T13:0:38Z</time></trkpt>
<trkpt lat="48.473418" lon="2.656863"><ele></ele><time>2017-9-17T13:0:41Z</time></trkpt>
<trkpt lat="48.473375" lon="2.656902"><ele></ele><time>2017-9-17T13:0:44Z</time></trkpt>
<trkpt lat="48.473335" lon="2.656940"><ele></ele><time>2017-9-17T13:0:47Z</time></trkpt>
<trkpt lat="48.473293" lon="2.656977"><ele></ele><time>2017-9-17T13:0:50Z</time></trkpt>
<trkpt lat="48.473255" lon="2.657008"><ele></ele><time>2017-9-17T13:0:53Z</time></trkpt>
<trkpt lat="48.473213" lon="2.657040"><ele></ele><time>2017-9-17T13:0:56Z</time></trkpt>
<trkpt lat="48.473167" lon="2.657080"><ele></ele><time>2017-9-17T13:0:59Z</time></trkpt>
<trkpt lat="48.473122" lon="2.657117"><ele></ele><time>2017-9-17T13:1:2Z</time></trkpt>
<trkpt lat="48.473073" lon="2.657157"><ele></ele><time>2017-9-17T13:1:5Z</time></trkpt>
<trkpt lat="48.473028" lon="2.657192"><ele></ele><time>2017-9-17T13:1:8Z</time></trkpt>
<trkpt lat="48.472983" lon="2.657232"><ele></ele><time>2017-9-17T13:1:11Z</time></trkpt>
<trkpt lat="48.472937" lon="2.657270"><ele></ele><time>2017-9-17T13:1:14Z</time></trkpt>
<trkpt lat="48.472887" lon="2.657308"><ele></ele><time>2017-9-17T13:1:17Z</time></trkpt>
<trkpt lat="48.472832" lon="2.657345"><ele></ele><time>2017-9-17T13:1:20Z</time></trkpt>
<trkpt lat="48.472730" lon="2.657440"><ele></ele><time>2017-9-17T13:1:23Z</time></trkpt>
<trkpt lat="48.472632" lon="2.657512"><ele></ele><time>2017-9-17T13:1:26Z</time></trkpt>
<trkpt lat="48.472535" lon="2.657583"><ele></ele><time>2017-9-17T13:1:29Z</time></trkpt>
<trkpt lat="48.472445" lon="2.657670"><ele></ele><time>2017-9-17T13:1:32Z</time></trkpt>
<trkpt lat="48.472397" lon="2.657713"><ele></ele><time>2017-9-17T13:1:35Z</time></trkpt>
<trkpt lat="48.472348" lon="2.657755"><ele></ele><time>2017-9-17T13:1:38Z</time></trkpt>
<trkpt lat="48.472298" lon="2.657798"><ele></ele><time>2017-9-17T13:1:41Z</time></trkpt>
<trkpt lat="48.472247" lon="2.657840"><ele></ele><time>2017-9-17T13:1:44Z</time></trkpt>
<trkpt lat="48.472195" lon="2.657878"><ele></ele><time>2017-9-17T13:1:47Z</time></trkpt>
<trkpt lat="48.472147" lon="2.657915"><ele></ele><time>2017-9-17T13:1:50Z</time></trkpt>
<trkpt lat="48.472100" lon="2.657952"><ele></ele><time>2017-9-17T13:1:53Z</time></trkpt>
<trkpt lat="48.472053" lon="2.657995"><ele></ele><time>2017-9-17T13:1:56Z</time></trkpt>
<trkpt lat="48.472008" lon="2.658032"><ele></ele><time>2017-9-17T13:1:59Z</time></trkpt>
<trkpt lat="48.471963" lon="2.658072"><ele></ele><time>2017-9-17T13:2:2Z</time></trkpt>
<trkpt lat="48.471920" lon="2.658112"><ele></ele><time>2017-9-17T13:2:5Z</time></trkpt>
<trkpt lat="48.471878" lon="2.658147"><ele></ele><time>2017-9-17T13:2:8Z</time></trkpt>
<trkpt lat="48.471832" lon="2.658187"><ele></ele><time>2017-9-17T13:2:11Z</time></trkpt>
<trkpt lat="48.471788" lon="2.658223"><ele></ele><time>2017-9-17T13:2:14Z</time></trkpt>
<trkpt lat="48.471742" lon="2.658263"><ele></ele><time>2017-9-17T13:2:17Z</time></trkpt>
<trkpt lat="48.471695" lon="2.658303"><ele></ele><time>2017-9-17T13:2:20Z</time></trkpt>
<trkpt lat="48.471650" lon="2.658350"><ele></ele><time>2017-9-17T13:2:23Z</time></trkpt>
<trkpt lat="48.471608" lon="2.658385"><ele></ele><time>2017-9-17T13:2:26Z</time></trkpt>
<trkpt lat="48.471565" lon="2.658427"><ele></ele><time>2017-9-17T13:2:29Z</time></trkpt>
<trkpt lat="48.471522" lon="2.658468"><ele></ele><time>2017-9-17T13:2:32Z</time></trkpt>
<trkpt lat="48.471480" lon="2.658502"><ele></ele><time>2017-9-17T13:2:35Z</time></trkpt>
<trkpt lat="48.471440" lon="2.658540"><ele></ele><time>2017-9-17T13:2:38Z</time></trkpt>
<trkpt lat="48.471395" lon="2.658580"><ele></ele><time>2017-9-17T13:2:41Z</time></trkpt>
<trkpt lat="48.471353" lon="2.658615"><ele></ele><time>2017-9-17T13:2:44Z</time></trkpt>
<trkpt lat="48.471312" lon="2.658645"><ele></ele><time>2017-9-17T13:2:47Z</time></trkpt>
<trkpt lat="48.471268" lon="2.658682"><ele></ele><time>2017-9-17T13:2:50Z</time></trkpt>
<trkpt lat="48.471227" lon="2.658710"><ele></ele><time>2017-9-17T13:2:53Z</time></trkpt>
<trkpt lat="48.471182" lon="2.658740"><ele></ele><time>2017-9-17T13:2:56Z</time></trkpt>
<trkpt lat="48.471132" lon="2.658775"><ele></ele><time>2017-9-17T13:2:59Z</time></trkpt>
<trkpt lat="48.471082" lon="2.658812"><ele></ele><time>2017-9-17T13:3:2Z</time></trkpt>
<trkpt lat="48.471033" lon="2.658835"><ele></ele><time>2017-9-17T13:3:5Z</time></trkpt>
<trkpt lat="48.470947" lon="2.658847"><ele></ele><time>2017-9-17T13:3:8Z</time></trkpt>
<trkpt lat="48.470858" lon="2.658845"><ele></ele><time>2017-9-17T13:3:11Z</time></trkpt>
<trkpt lat="48.470777" lon="2.658823"><ele></ele><time>2017-9-17T13:3:14Z</time></trkpt>
<trkpt lat="48.470688" lon="2.658805"><ele></ele><time>2017-9-17T13:3:17Z</time></trkpt>
<trkpt lat="48.470595" lon="2.658808"><ele></ele><time>2017-9-17T13:3:20Z</time></trkpt>
<trkpt lat="48.470543" lon="2.658808"><ele></ele><time>2017-9-17T13:3:23Z</time></trkpt>
<trkpt lat="48.470490" lon="2.658815"><ele></ele><time>2017-9-17T13:3:26Z</time></trkpt>
<trkpt lat="48.470438" lon="2.658808"><ele></ele><time>2017-9-17T13:3:29Z</time></trkpt>
<trkpt lat="48.470387" lon="2.658807"><ele></ele><time>2017-9-17T13:3:32Z</time></trkpt>
<trkpt lat="48.470338" lon="2.658802"><ele></ele><time>2017-9-17T13:3:35Z</time></trkpt>
<trkpt lat="48.470253" lon="2.658785"><ele></ele><time>2017-9-17T13:3:38Z</time></trkpt>
<trkpt lat="48.470208" lon="2.658780"><ele></ele><time>2017-9-17T13:3:41Z</time></trkpt>
<trkpt lat="48.470157" lon="2.658777"><ele></ele><time>2017-9-17T13:3:44Z</time></trkpt>
<trkpt lat="48.470105" lon="2.658765"><ele></ele><time>2017-9-17T13:3:47Z</time></trkpt>
<trkpt lat="48.470053" lon="2.658765"><ele></ele><time>2017-9-17T13:3:50Z</time></trkpt>
<trkpt lat="48.470003" lon="2.658757"><ele></ele><time>2017-9-17T13:3:53Z</time></trkpt>
<trkpt lat="48.469952" lon="2.658748"><ele></ele><time>2017-9-17T13:3:56Z</time></trkpt>
<trkpt lat="48.469905" lon="2.658738"><ele></ele><time>2017-9-17T13:3:59Z</time></trkpt>
<trkpt lat="48.469857" lon="2.658728"><ele></ele><time>2017-9-17T13:4:2Z</time></trkpt>
<trkpt lat="48.469807" lon="2.658720"><ele></ele><time>2017-9-17T13:4:5Z</time></trkpt>
<trkpt lat="48.469755" lon="2.658715"><ele></ele><time>2017-9-17T13:4:8Z</time></trkpt>
<trkpt lat="48.469703" lon="2.658703"><ele></ele><time>2017-9-17T13:4:11Z</time></trkpt>
<trkpt lat="48.469652" lon="2.658698"><ele></ele><time>2017-9-17T13:4:14Z</time></trkpt>
<trkpt lat="48.469603" lon="2.658693"><ele></ele><time>2017-9-17T13:4:17Z</time></trkpt>
<trkpt lat="48.469553" lon="2.658690"><ele></ele><time>2017-9-17T13:4:20Z</time></trkpt>
<trkpt lat="48.469453" lon="2.658677"><ele></ele><time>2017-9-17T13:4:23Z</time></trkpt>
<trkpt lat="48.469350" lon="2.658665"><ele></ele><time>2017-9-17T13:4:26Z</time></trkpt>
<trkpt lat="48.469300" lon="2.658657"><ele></ele><time>2017-9-17T13:4:29Z</time></trkpt>
<trkpt lat="48.469250" lon="2.658648"><ele></ele><time>2017-9-17T13:4:32Z</time></trkpt>
<trkpt lat="48.469202" lon="2.658642"><ele></ele><time>2017-9-17T13:4:35Z</time></trkpt>
<trkpt lat="48.469117" lon="2.658628"><ele></ele><time>2017-9-17T13:4:38Z</time></trkpt>
<trkpt lat="48.469040" lon="2.658617"><ele></ele><time>2017-9-17T13:4:41Z</time></trkpt>
<trkpt lat="48.468963" lon="2.658607"><ele></ele><time>2017-9-17T13:4:44Z</time></trkpt>
<trkpt lat="48.468888" lon="2.658595"><ele></ele><time>2017-9-17T13:4:47Z</time></trkpt>
<trkpt lat="48.468815" lon="2.658590"><ele></ele><time>2017-9-17T13:4:50Z</time></trkpt>
<trkpt lat="48.468732" lon="2.658592"><ele></ele><time>2017-9-17T13:4:53Z</time></trkpt>
<trkpt lat="48.468687" lon="2.658593"><ele></ele><time>2017-9-17T13:4:56Z</time></trkpt>
<trkpt lat="48.468642" lon="2.658592"><ele></ele><time>2017-9-17T13:4:59Z</time></trkpt>
<trkpt lat="48.468597" lon="2.658583"><ele></ele><time>2017-9-17T13:5:2Z</time></trkpt>
<trkpt lat="48.468550" lon="2.658582"><ele></ele><time>2017-9-17T13:5:5Z</time></trkpt>
<trkpt lat="48.468460" lon="2.658567"><ele></ele><time>2017-9-17T13:5:8Z</time></trkpt>
<trkpt lat="48.468373" lon="2.658552"><ele></ele><time>2017-9-17T13:5:11Z</time></trkpt>
<trkpt lat="48.468287" lon="2.658533"><ele></ele><time>2017-9-17T13:5:14Z</time></trkpt>
<trkpt lat="48.468242" lon="2.658525"><ele></ele><time>2017-9-17T13:5:17Z</time></trkpt>
<trkpt lat="48.468197" lon="2.658517"><ele></ele><time>2017-9-17T13:5:20Z</time></trkpt>
<trkpt lat="48.468150" lon="2.658508"><ele></ele><time>2017-9-17T13:5:23Z</time></trkpt>
<trkpt lat="48.468100" lon="2.658505"><ele></ele><time>2017-9-17T13:5:26Z</time></trkpt>
<trkpt lat="48.468052" lon="2.658498"><ele></ele><time>2017-9-17T13:5:29Z</time></trkpt>
<trkpt lat="48.468003" lon="2.658497"><ele></ele><time>2017-9-17T13:5:32Z</time></trkpt>
<trkpt lat="48.467957" lon="2.658492"><ele></ele><time>2017-9-17T13:5:35Z</time></trkpt>
<trkpt lat="48.467872" lon="2.658493"><ele></ele><time>2017-9-17T13:5:38Z</time></trkpt>
<trkpt lat="48.467808" lon="2.658507"><ele></ele><time>2017-9-17T13:5:41Z</time></trkpt>
<trkpt lat="48.467748" lon="2.658513"><ele></ele><time>2017-9-17T13:5:44Z</time></trkpt>
<trkpt lat="48.467685" lon="2.658500"><ele></ele><time>2017-9-17T13:5:47Z</time></trkpt>
<trkpt lat="48.467630" lon="2.658478"><ele></ele><time>2017-9-17T13:5:50Z</time></trkpt>
<trkpt lat="48.467580" lon="2.658463"><ele></ele><time>2017-9-17T13:5:53Z</time></trkpt>
<trkpt lat="48.467512" lon="2.658462"><ele></ele><time>2017-9-17T13:5:56Z</time></trkpt>
<trkpt lat="48.467443" lon="2.658452"><ele></ele><time>2017-9-17T13:5:59Z</time></trkpt>
<trkpt lat="48.467372" lon="2.658453"><ele></ele><time>2017-9-17T13:6:2Z</time></trkpt>
<trkpt lat="48.467297" lon="2.658450"><ele></ele><time>2017-9-17T13:6:5Z</time></trkpt>
<trkpt lat="48.467220" lon="2.658447"><ele></ele><time>2017-9-17T13:6:8Z</time></trkpt>
<trkpt lat="48.467138" lon="2.658428"><ele></ele><time>2017-9-17T13:6:11Z</time></trkpt>
<trkpt lat="48.467057" lon="2.658415"><ele></ele><time>2017-9-17T13:6:14Z</time></trkpt>
<trkpt lat="48.466975" lon="2.658400"><ele></ele><time>2017-9-17T13:6:17Z</time></trkpt>
<trkpt lat="48.466890" lon="2.658373"><ele></ele><time>2017-9-17T13:6:20Z</time></trkpt>
<trkpt lat="48.466818" lon="2.658377"><ele></ele><time>2017-9-17T13:6:23Z</time></trkpt>
<trkpt lat="48.466732" lon="2.658380"><ele></ele><time>2017-9-17T13:6:26Z</time></trkpt>
<trkpt lat="48.466683" lon="2.658373"><ele></ele><time>2017-9-17T13:6:29Z</time></trkpt>
<trkpt lat="48.466587" lon="2.658360"><ele></ele><time>2017-9-17T13:6:32Z</time></trkpt>
<trkpt lat="48.466493" lon="2.658348"><ele></ele><time>2017-9-17T13:6:35Z</time></trkpt>
<trkpt lat="48.466408" lon="2.658338"><ele></ele><time>2017-9-17T13:6:38Z</time></trkpt>
<trkpt lat="48.466325" lon="2.658315"><ele></ele><time>2017-9-17T13:6:41Z</time></trkpt>
<trkpt lat="48.466243" lon="2.658305"><ele></ele><time>2017-9-17T13:6:44Z</time></trkpt>
<trkpt lat="48.466160" lon="2.658295"><ele></ele><time>2017-9-17T13:6:47Z</time></trkpt>
<trkpt lat="48.466120" lon="2.658292"><ele></ele><time>2017-9-17T13:6:50Z</time></trkpt>
<trkpt lat="48.465972" lon="2.658330"><ele></ele><time>2017-9-17T13:6:53Z</time></trkpt>
<trkpt lat="48.465895" lon="2.658372"><ele></ele><time>2017-9-17T13:6:56Z</time></trkpt>
<trkpt lat="48.465853" lon="2.658392"><ele></ele><time>2017-9-17T13:6:59Z</time></trkpt>
<trkpt lat="48.465730" lon="2.658468"><ele></ele><time>2017-9-17T13:7:2Z</time></trkpt>
<trkpt lat="48.465652" lon="2.658497"><ele></ele><time>2017-9-17T13:7:5Z</time></trkpt>
<trkpt lat="48.465572" lon="2.658477"><ele></ele><time>2017-9-17T13:7:8Z</time></trkpt>
<trkpt lat="48.465510" lon="2.658408"><ele></ele><time>2017-9-17T13:7:11Z</time></trkpt>
<trkpt lat="48.465455" lon="2.658357"><ele></ele><time>2017-9-17T13:7:14Z</time></trkpt>
<trkpt lat="48.465387" lon="2.658353"><ele></ele><time>2017-9-17T13:7:17Z</time></trkpt>
<trkpt lat="48.465312" lon="2.658372"><ele></ele><time>2017-9-17T13:7:20Z</time></trkpt>
<trkpt lat="48.465232" lon="2.658380"><ele></ele><time>2017-9-17T13:7:23Z</time></trkpt>
<trkpt lat="48.465143" lon="2.658395"><ele></ele><time>2017-9-17T13:7:26Z</time></trkpt>
<trkpt lat="48.465098" lon="2.658400"><ele></ele><time>2017-9-17T13:7:29Z</time></trkpt>
<trkpt lat="48.465012" lon="2.658422"><ele></ele><time>2017-9-17T13:7:32Z</time></trkpt>
<trkpt lat="48.464833" lon="2.658463"><ele></ele><time>2017-9-17T13:7:35Z</time></trkpt>
<trkpt lat="48.464748" lon="2.658448"><ele></ele><time>2017-9-17T13:7:38Z</time></trkpt>
<trkpt lat="48.464678" lon="2.658415"><ele></ele><time>2017-9-17T13:7:41Z</time></trkpt>
<trkpt lat="48.464603" lon="2.658418"><ele></ele><time>2017-9-17T13:7:44Z</time></trkpt>
<trkpt lat="48.464527" lon="2.658435"><ele></ele><time>2017-9-17T13:7:47Z</time></trkpt>
<trkpt lat="48.464447" lon="2.658473"><ele></ele><time>2017-9-17T13:7:50Z</time></trkpt>
<trkpt lat="48.464368" lon="2.658533"><ele></ele><time>2017-9-17T13:7:53Z</time></trkpt>
<trkpt lat="48.464295" lon="2.658597"><ele></ele><time>2017-9-17T13:7:56Z</time></trkpt>
<trkpt lat="48.464220" lon="2.658670"><ele></ele><time>2017-9-17T13:7:59Z</time></trkpt>
<trkpt lat="48.464180" lon="2.658698"><ele></ele><time>2017-9-17T13:8:2Z</time></trkpt>
<trkpt lat="48.464103" lon="2.658758"><ele></ele><time>2017-9-17T13:8:5Z</time></trkpt>
<trkpt lat="48.464018" lon="2.658832"><ele></ele><time>2017-9-17T13:8:8Z</time></trkpt>
<trkpt lat="48.463940" lon="2.658883"><ele></ele><time>2017-9-17T13:8:11Z</time></trkpt>
<trkpt lat="48.463872" lon="2.658948"><ele></ele><time>2017-9-17T13:8:14Z</time></trkpt>
<trkpt lat="48.463827" lon="2.658992"><ele></ele><time>2017-9-17T13:8:17Z</time></trkpt>
<trkpt lat="48.463785" lon="2.659033"><ele></ele><time>2017-9-17T13:8:20Z</time></trkpt>
<trkpt lat="48.463715" lon="2.659093"><ele></ele><time>2017-9-17T13:8:23Z</time></trkpt>
<trkpt lat="48.463655" lon="2.659147"><ele></ele><time>2017-9-17T13:8:26Z</time></trkpt>
<trkpt lat="48.463587" lon="2.659228"><ele></ele><time>2017-9-17T13:8:29Z</time></trkpt>
<trkpt lat="48.463520" lon="2.659275"><ele></ele><time>2017-9-17T13:8:32Z</time></trkpt>
<trkpt lat="48.463488" lon="2.659297"><ele></ele><time>2017-9-17T13:8:35Z</time></trkpt>
<trkpt lat="48.463405" lon="2.659362"><ele></ele><time>2017-9-17T13:8:38Z</time></trkpt>
<trkpt lat="48.463342" lon="2.659413"><ele></ele><time>2017-9-17T13:8:41Z</time></trkpt>
<trkpt lat="48.463265" lon="2.659462"><ele></ele><time>2017-9-17T13:8:44Z</time></trkpt>
<trkpt lat="48.463190" lon="2.659495"><ele></ele><time>2017-9-17T13:8:47Z</time></trkpt>
<trkpt lat="48.463163" lon="2.659517"><ele></ele><time>2017-9-17T13:8:50Z</time></trkpt>
<trkpt lat="48.463092" lon="2.659587"><ele></ele><time>2017-9-17T13:8:53Z</time></trkpt>
<trkpt lat="48.463025" lon="2.659647"><ele></ele><time>2017-9-17T13:8:56Z</time></trkpt>
<trkpt lat="48.462962" lon="2.659705"><ele></ele><time>2017-9-17T13:8:59Z</time></trkpt>
<trkpt lat="48.462908" lon="2.659742"><ele></ele><time>2017-9-17T13:9:2Z</time></trkpt>
<trkpt lat="48.462852" lon="2.659793"><ele></ele><time>2017-9-17T13:9:5Z</time></trkpt>
<trkpt lat="48.462797" lon="2.659825"><ele></ele><time>2017-9-17T13:9:8Z</time></trkpt>
<trkpt lat="48.462738" lon="2.659872"><ele></ele><time>2017-9-17T13:9:11Z</time></trkpt>
<trkpt lat="48.462685" lon="2.659920"><ele></ele><time>2017-9-17T13:9:14Z</time></trkpt>
<trkpt lat="48.462623" lon="2.659970"><ele></ele><time>2017-9-17T13:9:17Z</time></trkpt>
<trkpt lat="48.462553" lon="2.660022"><ele></ele><time>2017-9-17T13:9:20Z</time></trkpt>
<trkpt lat="48.462495" lon="2.660060"><ele></ele><time>2017-9-17T13:9:23Z</time></trkpt>
<trkpt lat="48.462430" lon="2.660122"><ele></ele><time>2017-9-17T13:9:26Z</time></trkpt>
<trkpt lat="48.462372" lon="2.660167"><ele></ele><time>2017-9-17T13:9:29Z</time></trkpt>
<trkpt lat="48.462308" lon="2.660252"><ele></ele><time>2017-9-17T13:9:32Z</time></trkpt>
<trkpt lat="48.462240" lon="2.660332"><ele></ele><time>2017-9-17T13:9:35Z</time></trkpt>
<trkpt lat="48.462168" lon="2.660333"><ele></ele><time>2017-9-17T13:9:38Z</time></trkpt>
<trkpt lat="48.462092" lon="2.660333"><ele></ele><time>2017-9-17T13:9:41Z</time></trkpt>
<trkpt lat="48.462022" lon="2.660358"><ele></ele><time>2017-9-17T13:9:44Z</time></trkpt>
<trkpt lat="48.461947" lon="2.660378"><ele></ele><time>2017-9-17T13:9:47Z</time></trkpt>
<trkpt lat="48.461875" lon="2.660407"><ele></ele><time>2017-9-17T13:9:50Z</time></trkpt>
<trkpt lat="48.461850" lon="2.660413"><ele></ele><time>2017-9-17T13:9:53Z</time></trkpt>
<trkpt lat="48.461720" lon="2.660455"><ele></ele><time>2017-9-17T13:9:56Z</time></trkpt>
<trkpt lat="48.461638" lon="2.660465"><ele></ele><time>2017-9-17T13:9:59Z</time></trkpt>
<trkpt lat="48.461558" lon="2.660502"><ele></ele><time>2017-9-17T13:10:2Z</time></trkpt>
<trkpt lat="48.461477" lon="2.660480"><ele></ele><time>2017-9-17T13:10:5Z</time></trkpt>
<trkpt lat="48.461398" lon="2.660445"><ele></ele><time>2017-9-17T13:10:8Z</time></trkpt>
<trkpt lat="48.461328" lon="2.660387"><ele></ele><time>2017-9-17T13:10:11Z</time></trkpt>
<trkpt lat="48.461247" lon="2.660350"><ele></ele><time>2017-9-17T13:10:14Z</time></trkpt>
<trkpt lat="48.461158" lon="2.660353"><ele></ele><time>2017-9-17T13:10:17Z</time></trkpt>
<trkpt lat="48.461140" lon="2.660363"><ele></ele><time>2017-9-17T13:10:20Z</time></trkpt>
<trkpt lat="48.461020" lon="2.660473"><ele></ele><time>2017-9-17T13:10:23Z</time></trkpt>
<trkpt lat="48.460952" lon="2.660527"><ele></ele><time>2017-9-17T13:10:26Z</time></trkpt>
<trkpt lat="48.460892" lon="2.660523"><ele></ele><time>2017-9-17T13:10:29Z</time></trkpt>
<trkpt lat="48.460820" lon="2.660562"><ele></ele><time>2017-9-17T13:10:32Z</time></trkpt>
<trkpt lat="48.460757" lon="2.660635"><ele></ele><time>2017-9-17T13:10:35Z</time></trkpt>
<trkpt lat="48.460692" lon="2.660720"><ele></ele><time>2017-9-17T13:10:38Z</time></trkpt>
<trkpt lat="48.460627" lon="2.660798"><ele></ele><time>2017-9-17T13:10:41Z</time></trkpt>
<trkpt lat="48.460573" lon="2.660867"><ele></ele><time>2017-9-17T13:10:44Z</time></trkpt>
<trkpt lat="48.460525" lon="2.660947"><ele></ele><time>2017-9-17T13:10:47Z</time></trkpt>
<trkpt lat="48.460485" lon="2.661027"><ele></ele><time>2017-9-17T13:10:50Z</time></trkpt>
<trkpt lat="48.460457" lon="2.661105"><ele></ele><time>2017-9-17T13:10:53Z</time></trkpt>
<trkpt lat="48.460410" lon="2.661198"><ele></ele><time>2017-9-17T13:10:56Z</time></trkpt>
<trkpt lat="48.460347" lon="2.661247"><ele></ele><time>2017-9-17T13:10:59Z</time></trkpt>
<trkpt lat="48.460278" lon="2.661280"><ele></ele><time>2017-9-17T13:11:2Z</time></trkpt>
<trkpt lat="48.460220" lon="2.661283"><ele></ele><time>2017-9-17T13:11:5Z</time></trkpt>
<trkpt lat="48.460157" lon="2.661300"><ele></ele><time>2017-9-17T13:11:8Z</time></trkpt>
<trkpt lat="48.460092" lon="2.661328"><ele></ele><time>2017-9-17T13:11:11Z</time></trkpt>
<trkpt lat="48.460022" lon="2.661382"><ele></ele><time>2017-9-17T13:11:14Z</time></trkpt>
<trkpt lat="48.459953" lon="2.661413"><ele></ele><time>2017-9-17T13:11:17Z</time></trkpt>
<trkpt lat="48.459880" lon="2.661420"><ele></ele><time>2017-9-17T13:11:20Z</time></trkpt>
<trkpt lat="48.459798" lon="2.661410"><ele></ele><time>2017-9-17T13:11:23Z</time></trkpt>
<trkpt lat="48.459755" lon="2.661393"><ele></ele><time>2017-9-17T13:11:26Z</time></trkpt>
<trkpt lat="48.459710" lon="2.661370"><ele></ele><time>2017-9-17T13:11:29Z</time></trkpt>
<trkpt lat="48.459630" lon="2.661317"><ele></ele><time>2017-9-17T13:11:32Z</time></trkpt>
<trkpt lat="48.459557" lon="2.661265"><ele></ele><time>2017-9-17T13:11:35Z</time></trkpt>
<trkpt lat="48.459475" lon="2.661212"><ele></ele><time>2017-9-17T13:11:38Z</time></trkpt>
<trkpt lat="48.459448" lon="2.661193"><ele></ele><time>2017-9-17T13:11:41Z</time></trkpt>
<trkpt lat="48.459362" lon="2.661133"><ele></ele><time>2017-9-17T13:11:44Z</time></trkpt>
<trkpt lat="48.459305" lon="2.661093"><ele></ele><time>2017-9-17T13:11:47Z</time></trkpt>
<trkpt lat="48.459250" lon="2.661058"><ele></ele><time>2017-9-17T13:11:50Z</time></trkpt>
<trkpt lat="48.459195" lon="2.661013"><ele></ele><time>2017-9-17T13:11:53Z</time></trkpt>
<trkpt lat="48.459118" lon="2.660960"><ele></ele><time>2017-9-17T13:11:56Z</time></trkpt>
<trkpt lat="48.459045" lon="2.660917"><ele></ele><time>2017-9-17T13:11:59Z</time></trkpt>
<trkpt lat="48.458977" lon="2.660863"><ele></ele><time>2017-9-17T13:12:2Z</time></trkpt>
<trkpt lat="48.458915" lon="2.660812"><ele></ele><time>2017-9-17T13:12:5Z</time></trkpt>
<trkpt lat="48.458833" lon="2.660758"><ele></ele><time>2017-9-17T13:12:8Z</time></trkpt>
<trkpt lat="48.458752" lon="2.660708"><ele></ele><time>2017-9-17T13:12:11Z</time></trkpt>
<trkpt lat="48.458673" lon="2.660664"><ele></ele><time>2017-9-17T13:12:14Z</time></trkpt>
<trkpt lat="48.458615" lon="2.660597"><ele></ele><time>2017-9-17T13:12:17Z</time></trkpt>
<trkpt lat="48.458567" lon="2.660488"><ele></ele><time>2017-9-17T13:12:20Z</time></trkpt>
<trkpt lat="48.458542" lon="2.660375"><ele></ele><time>2017-9-17T13:12:23Z</time></trkpt>
<trkpt lat="48.458532" lon="2.660262"><ele></ele><time>2017-9-17T13:12:26Z</time></trkpt>
<trkpt lat="48.458512" lon="2.660155"><ele></ele><time>2017-9-17T13:12:29Z</time></trkpt>
<trkpt lat="48.458507" lon="2.660030"><ele></ele><time>2017-9-17T13:12:32Z</time></trkpt>
<trkpt lat="48.458513" lon="2.660010"><ele></ele><time>2017-9-17T13:12:35Z</time></trkpt>
<trkpt lat="48.458535" lon="2.659798"><ele></ele><time>2017-9-17T13:12:38Z</time></trkpt>
<trkpt lat="48.458542" lon="2.659675"><ele></ele><time>2017-9-17T13:12:41Z</time></trkpt>
<trkpt lat="48.458538" lon="2.659548"><ele></ele><time>2017-9-17T13:12:44Z</time></trkpt>
<trkpt lat="48.458518" lon="2.659425"><ele></ele><time>2017-9-17T13:12:47Z</time></trkpt>
<trkpt lat="48.458497" lon="2.659307"><ele></ele><time>2017-9-17T13:12:50Z</time></trkpt>
<trkpt lat="48.458465" lon="2.659190"><ele></ele><time>2017-9-17T13:12:53Z</time></trkpt>
<trkpt lat="48.458410" lon="2.659085"><ele></ele><time>2017-9-17T13:12:56Z</time></trkpt>
<trkpt lat="48.458368" lon="2.659002"><ele></ele><time>2017-9-17T13:12:59Z</time></trkpt>
<trkpt lat="48.458350" lon="2.658977"><ele></ele><time>2017-9-17T13:13:2Z</time></trkpt>
<trkpt lat="48.458255" lon="2.658845"><ele></ele><time>2017-9-17T13:13:5Z</time></trkpt>
<trkpt lat="48.458200" lon="2.658740"><ele></ele><time>2017-9-17T13:13:8Z</time></trkpt>
<trkpt lat="48.458157" lon="2.658622"><ele></ele><time>2017-9-17T13:13:11Z</time></trkpt>
<trkpt lat="48.458103" lon="2.658543"><ele></ele><time>2017-9-17T13:13:14Z</time></trkpt>
<trkpt lat="48.458055" lon="2.658452"><ele></ele><time>2017-9-17T13:13:17Z</time></trkpt>
<trkpt lat="48.458017" lon="2.658333"><ele></ele><time>2017-9-17T13:13:20Z</time></trkpt>
<trkpt lat="48.457970" lon="2.658235"><ele></ele><time>2017-9-17T13:13:23Z</time></trkpt>
<trkpt lat="48.457903" lon="2.658155"><ele></ele><time>2017-9-17T13:13:26Z</time></trkpt>
<trkpt lat="48.457892" lon="2.658147"><ele></ele><time>2017-9-17T13:13:29Z</time></trkpt>
<trkpt lat="48.457740" lon="2.658083"><ele></ele><time>2017-9-17T13:13:32Z</time></trkpt>
<trkpt lat="48.457657" lon="2.658043"><ele></ele><time>2017-9-17T13:13:35Z</time></trkpt>
<trkpt lat="48.457583" lon="2.657967"><ele></ele><time>2017-9-17T13:13:38Z</time></trkpt>
<trkpt lat="48.457542" lon="2.657860"><ele></ele><time>2017-9-17T13:13:41Z</time></trkpt>
<trkpt lat="48.457513" lon="2.657747"><ele></ele><time>2017-9-17T13:13:44Z</time></trkpt>
<trkpt lat="48.457503" lon="2.657620"><ele></ele><time>2017-9-17T13:13:47Z</time></trkpt>
<trkpt lat="48.457562" lon="2.657533"><ele></ele><time>2017-9-17T13:13:50Z</time></trkpt>
<trkpt lat="48.457592" lon="2.657520"><ele></ele><time>2017-9-17T13:13:53Z</time></trkpt>
<trkpt lat="48.457707" lon="2.657463"><ele></ele><time>2017-9-17T13:13:56Z</time></trkpt>
<trkpt lat="48.457778" lon="2.657457"><ele></ele><time>2017-9-17T13:13:59Z</time></trkpt>
<trkpt lat="48.457863" lon="2.657427"><ele></ele><time>2017-9-17T13:14:2Z</time></trkpt>
<trkpt lat="48.457923" lon="2.657415"><ele></ele><time>2017-9-17T13:14:5Z</time></trkpt>
<trkpt lat="48.458002" lon="2.657403"><ele></ele><time>2017-9-17T13:14:8Z</time></trkpt>
<trkpt lat="48.458067" lon="2.657393"><ele></ele><time>2017-9-17T13:14:11Z</time></trkpt>
<trkpt lat="48.458140" lon="2.657370"><ele></ele><time>2017-9-17T13:14:14Z</time></trkpt>
<trkpt lat="48.458210" lon="2.657360"><ele></ele><time>2017-9-17T13:14:17Z</time></trkpt>
<trkpt lat="48.458280" lon="2.657347"><ele></ele><time>2017-9-17T13:14:20Z</time></trkpt>
<trkpt lat="48.458363" lon="2.657302"><ele></ele><time>2017-9-17T13:14:23Z</time></trkpt>
<trkpt lat="48.458425" lon="2.657240"><ele></ele><time>2017-9-17T13:14:26Z</time></trkpt>
<trkpt lat="48.458458" lon="2.657195"><ele></ele><time>2017-9-17T13:14:29Z</time></trkpt>
<trkpt lat="48.458493" lon="2.657130"><ele></ele><time>2017-9-17T13:14:32Z</time></trkpt>
<trkpt lat="48.458548" lon="2.657028"><ele></ele><time>2017-9-17T13:14:35Z</time></trkpt>
<trkpt lat="48.458590" lon="2.656958"><ele></ele><time>2017-9-17T13:14:38Z</time></trkpt>
<trkpt lat="48.458628" lon="2.656888"><ele></ele><time>2017-9-17T13:14:41Z</time></trkpt>
<trkpt lat="48.458673" lon="2.656775"><ele></ele><time>2017-9-17T13:14:44Z</time></trkpt>
<trkpt lat="48.458727" lon="2.656677"><ele></ele><time>2017-9-17T13:14:47Z</time></trkpt>
<trkpt lat="48.458770" lon="2.656597"><ele></ele><time>2017-9-17T13:14:50Z</time></trkpt>
<trkpt lat="48.458812" lon="2.656512"><ele></ele><time>2017-9-17T13:14:53Z</time></trkpt>
<trkpt lat="48.458858" lon="2.656427"><ele></ele><time>2017-9-17T13:14:56Z</time></trkpt>
<trkpt lat="48.458880" lon="2.656380"><ele></ele><time>2017-9-17T13:14:59Z</time></trkpt>
<trkpt lat="48.458953" lon="2.656240"><ele></ele><time>2017-9-17T13:15:2Z</time></trkpt>
<trkpt lat="48.459008" lon="2.656152"><ele></ele><time>2017-9-17T13:15:5Z</time></trkpt>
<trkpt lat="48.459063" lon="2.656055"><ele></ele><time>2017-9-17T13:15:8Z</time></trkpt>
<trkpt lat="48.459117" lon="2.655957"><ele></ele><time>2017-9-17T13:15:11Z</time></trkpt>
<trkpt lat="48.459172" lon="2.655865"><ele></ele><time>2017-9-17T13:15:14Z</time></trkpt>
<trkpt lat="48.459223" lon="2.655765"><ele></ele><time>2017-9-17T13:15:17Z</time></trkpt>
<trkpt lat="48.459273" lon="2.655658"><ele></ele><time>2017-9-17T13:15:20Z</time></trkpt>
<trkpt lat="48.459315" lon="2.655543"><ele></ele><time>2017-9-17T13:15:23Z</time></trkpt>
<trkpt lat="48.459357" lon="2.655427"><ele></ele><time>2017-9-17T13:15:26Z</time></trkpt>
<trkpt lat="48.459392" lon="2.655302"><ele></ele><time>2017-9-17T13:15:29Z</time></trkpt>
<trkpt lat="48.459430" lon="2.655177"><ele></ele><time>2017-9-17T13:15:32Z</time></trkpt>
<trkpt lat="48.459465" lon="2.655045"><ele></ele><time>2017-9-17T13:15:35Z</time></trkpt>
<trkpt lat="48.459480" lon="2.654982"><ele></ele><time>2017-9-17T13:15:38Z</time></trkpt>
<trkpt lat="48.459493" lon="2.654915"><ele></ele><time>2017-9-17T13:15:41Z</time></trkpt>
<trkpt lat="48.459507" lon="2.654847"><ele></ele><time>2017-9-17T13:15:44Z</time></trkpt>
<trkpt lat="48.459532" lon="2.654720"><ele></ele><time>2017-9-17T13:15:47Z</time></trkpt>
<trkpt lat="48.459545" lon="2.654655"><ele></ele><time>2017-9-17T13:15:50Z</time></trkpt>
<trkpt lat="48.459558" lon="2.654590"><ele></ele><time>2017-9-17T13:15:53Z</time></trkpt>
<trkpt lat="48.459572" lon="2.654522"><ele></ele><time>2017-9-17T13:15:56Z</time></trkpt>
<trkpt lat="48.459582" lon="2.654452"><ele></ele><time>2017-9-17T13:15:59Z</time></trkpt>
<trkpt lat="48.459590" lon="2.654380"><ele></ele><time>2017-9-17T13:16:2Z</time></trkpt>
<trkpt lat="48.459602" lon="2.654312"><ele></ele><time>2017-9-17T13:16:5Z</time></trkpt>
<trkpt lat="48.459612" lon="2.654243"><ele></ele><time>2017-9-17T13:16:8Z</time></trkpt>
<trkpt lat="48.459627" lon="2.654117"><ele></ele><time>2017-9-17T13:16:11Z</time></trkpt>
<trkpt lat="48.459647" lon="2.654007"><ele></ele><time>2017-9-17T13:16:14Z</time></trkpt>
<trkpt lat="48.459650" lon="2.653893"><ele></ele><time>2017-9-17T13:16:17Z</time></trkpt>
<trkpt lat="48.459620" lon="2.653783"><ele></ele><time>2017-9-17T13:16:20Z</time></trkpt>
<trkpt lat="48.459590" lon="2.653733"><ele></ele><time>2017-9-17T13:16:23Z</time></trkpt>
<trkpt lat="48.459553" lon="2.653683"><ele></ele><time>2017-9-17T13:16:26Z</time></trkpt>
<trkpt lat="48.459508" lon="2.653630"><ele></ele><time>2017-9-17T13:16:29Z</time></trkpt>
<trkpt lat="48.459458" lon="2.653577"><ele></ele><time>2017-9-17T13:16:32Z</time></trkpt>
<trkpt lat="48.459405" lon="2.653528"><ele></ele><time>2017-9-17T13:16:35Z</time></trkpt>
<trkpt lat="48.459348" lon="2.653480"><ele></ele><time>2017-9-17T13:16:38Z</time></trkpt>
<trkpt lat="48.459292" lon="2.653437"><ele></ele><time>2017-9-17T13:16:41Z</time></trkpt>
<trkpt lat="48.459238" lon="2.653398"><ele></ele><time>2017-9-17T13:16:44Z</time></trkpt>
<trkpt lat="48.459185" lon="2.653365"><ele></ele><time>2017-9-17T13:16:47Z</time></trkpt>
<trkpt lat="48.459130" lon="2.653343"><ele></ele><time>2017-9-17T13:16:50Z</time></trkpt>
<trkpt lat="48.459075" lon="2.653333"><ele></ele><time>2017-9-17T13:16:53Z</time></trkpt>
<trkpt lat="48.459020" lon="2.653335"><ele></ele><time>2017-9-17T13:16:56Z</time></trkpt>
<trkpt lat="48.458963" lon="2.653343"><ele></ele><time>2017-9-17T13:16:59Z</time></trkpt>
<trkpt lat="48.458852" lon="2.653353"><ele></ele><time>2017-9-17T13:17:2Z</time></trkpt>
<trkpt lat="48.458795" lon="2.653358"><ele></ele><time>2017-9-17T13:17:5Z</time></trkpt>
<trkpt lat="48.458738" lon="2.653365"><ele></ele><time>2017-9-17T13:17:8Z</time></trkpt>
<trkpt lat="48.458632" lon="2.653363"><ele></ele><time>2017-9-17T13:17:11Z</time></trkpt>
<trkpt lat="48.458520" lon="2.653373"><ele></ele><time>2017-9-17T13:17:14Z</time></trkpt>
<trkpt lat="48.458412" lon="2.653387"><ele></ele><time>2017-9-17T13:17:17Z</time></trkpt>
<trkpt lat="48.458300" lon="2.653400"><ele></ele><time>2017-9-17T13:17:20Z</time></trkpt>
<trkpt lat="48.458185" lon="2.653393"><ele></ele><time>2017-9-17T13:17:23Z</time></trkpt>
<trkpt lat="48.458075" lon="2.653350"><ele></ele><time>2017-9-17T13:17:26Z</time></trkpt>
<trkpt lat="48.457965" lon="2.653287"><ele></ele><time>2017-9-17T13:17:29Z</time></trkpt>
<trkpt lat="48.457872" lon="2.653200"><ele></ele><time>2017-9-17T13:17:32Z</time></trkpt>
<trkpt lat="48.457833" lon="2.653147"><ele></ele><time>2017-9-17T13:17:35Z</time></trkpt>
<trkpt lat="48.457798" lon="2.653092"><ele></ele><time>2017-9-17T13:17:38Z</time></trkpt>
<trkpt lat="48.457765" lon="2.653035"><ele></ele><time>2017-9-17T13:17:41Z</time></trkpt>
<trkpt lat="48.457737" lon="2.652978"><ele></ele><time>2017-9-17T13:17:44Z</time></trkpt>
<trkpt lat="48.457687" lon="2.652867"><ele></ele><time>2017-9-17T13:17:47Z</time></trkpt>
<trkpt lat="48.457637" lon="2.652768"><ele></ele><time>2017-9-17T13:17:50Z</time></trkpt>
<trkpt lat="48.457610" lon="2.652712"><ele></ele><time>2017-9-17T13:17:53Z</time></trkpt>
<trkpt lat="48.457588" lon="2.652645"><ele></ele><time>2017-9-17T13:17:56Z</time></trkpt>
<trkpt lat="48.457580" lon="2.652573"><ele></ele><time>2017-9-17T13:17:59Z</time></trkpt>
<trkpt lat="48.457580" lon="2.652497"><ele></ele><time>2017-9-17T13:18:2Z</time></trkpt>
<trkpt lat="48.457588" lon="2.652420"><ele></ele><time>2017-9-17T13:18:5Z</time></trkpt>
<trkpt lat="48.457600" lon="2.652343"><ele></ele><time>2017-9-17T13:18:8Z</time></trkpt>
<trkpt lat="48.457613" lon="2.652262"><ele></ele><time>2017-9-17T13:18:11Z</time></trkpt>
<trkpt lat="48.457630" lon="2.652183"><ele></ele><time>2017-9-17T13:18:14Z</time></trkpt>
<trkpt lat="48.457650" lon="2.652093"><ele></ele><time>2017-9-17T13:18:17Z</time></trkpt>
<trkpt lat="48.457687" lon="2.652017"><ele></ele><time>2017-9-17T13:18:20Z</time></trkpt>
<trkpt lat="48.457725" lon="2.651949"><ele></ele><time>2017-9-17T13:18:23Z</time></trkpt>
<trkpt lat="48.457762" lon="2.651877"><ele></ele><time>2017-9-17T13:18:26Z</time></trkpt>
<trkpt lat="48.457798" lon="2.651810"><ele></ele><time>2017-9-17T13:18:29Z</time></trkpt>
<trkpt lat="48.457840" lon="2.651745"><ele></ele><time>2017-9-17T13:18:32Z</time></trkpt>
<trkpt lat="48.457885" lon="2.651687"><ele></ele><time>2017-9-17T13:18:35Z</time></trkpt>
<trkpt lat="48.457933" lon="2.651635"><ele></ele><time>2017-9-17T13:18:38Z</time></trkpt>
<trkpt lat="48.457985" lon="2.651593"><ele></ele><time>2017-9-17T13:18:41Z</time></trkpt>
<trkpt lat="48.458035" lon="2.651560"><ele></ele><time>2017-9-17T13:18:44Z</time></trkpt>
<trkpt lat="48.458085" lon="2.651530"><ele></ele><time>2017-9-17T13:18:47Z</time></trkpt>
<trkpt lat="48.458142" lon="2.651502"><ele></ele><time>2017-9-17T13:18:50Z</time></trkpt>
<trkpt lat="48.458195" lon="2.651477"><ele></ele><time>2017-9-17T13:18:53Z</time></trkpt>
<trkpt lat="48.458243" lon="2.651452"><ele></ele><time>2017-9-17T13:18:56Z</time></trkpt>
<trkpt lat="48.458292" lon="2.651427"><ele></ele><time>2017-9-17T13:18:59Z</time></trkpt>
<trkpt lat="48.458338" lon="2.651398"><ele></ele><time>2017-9-17T13:19:2Z</time></trkpt>
<trkpt lat="48.458385" lon="2.651368"><ele></ele><time>2017-9-17T13:19:5Z</time></trkpt>
<trkpt lat="48.458480" lon="2.651303"><ele></ele><time>2017-9-17T13:19:8Z</time></trkpt>
<trkpt lat="48.458573" lon="2.651208"><ele></ele><time>2017-9-17T13:19:11Z</time></trkpt>
<trkpt lat="48.458635" lon="2.651078"><ele></ele><time>2017-9-17T13:19:14Z</time></trkpt>
<trkpt lat="48.458667" lon="2.650937"><ele></ele><time>2017-9-17T13:19:17Z</time></trkpt>
<trkpt lat="48.458650" lon="2.650787"><ele></ele><time>2017-9-17T13:19:20Z</time></trkpt>
<trkpt lat="48.458632" lon="2.650657"><ele></ele><time>2017-9-17T13:19:23Z</time></trkpt>
<trkpt lat="48.458617" lon="2.650588"><ele></ele><time>2017-9-17T13:19:26Z</time></trkpt>
<trkpt lat="48.458597" lon="2.650520"><ele></ele><time>2017-9-17T13:19:29Z</time></trkpt>
<trkpt lat="48.458575" lon="2.650460"><ele></ele><time>2017-9-17T13:19:32Z</time></trkpt>
<trkpt lat="48.458552" lon="2.650398"><ele></ele><time>2017-9-17T13:19:35Z</time></trkpt>
<trkpt lat="48.458523" lon="2.650340"><ele></ele><time>2017-9-17T13:19:38Z</time></trkpt>
<trkpt lat="48.458493" lon="2.650280"><ele></ele><time>2017-9-17T13:19:41Z</time></trkpt>
<trkpt lat="48.458468" lon="2.650217"><ele></ele><time>2017-9-17T13:19:44Z</time></trkpt>
<trkpt lat="48.458447" lon="2.650157"><ele></ele><time>2017-9-17T13:19:47Z</time></trkpt>
<trkpt lat="48.458422" lon="2.650097"><ele></ele><time>2017-9-17T13:19:50Z</time></trkpt>
<trkpt lat="48.458370" lon="2.649993"><ele></ele><time>2017-9-17T13:19:53Z</time></trkpt>
<trkpt lat="48.458340" lon="2.649938"><ele></ele><time>2017-9-17T13:19:56Z</time></trkpt>
<trkpt lat="48.458315" lon="2.649880"><ele></ele><time>2017-9-17T13:19:59Z</time></trkpt>
<trkpt lat="48.458287" lon="2.649827"><ele></ele><time>2017-9-17T13:20:2Z</time></trkpt>
<trkpt lat="48.458260" lon="2.649772"><ele></ele><time>2017-9-17T13:20:5Z</time></trkpt>
<trkpt lat="48.458230" lon="2.649715"><ele></ele><time>2017-9-17T13:20:8Z</time></trkpt>
<trkpt lat="48.458200" lon="2.649655"><ele></ele><time>2017-9-17T13:20:11Z</time></trkpt>
<trkpt lat="48.458173" lon="2.649588"><ele></ele><time>2017-9-17T13:20:14Z</time></trkpt>
<trkpt lat="48.458148" lon="2.649525"><ele></ele><time>2017-9-17T13:20:17Z</time></trkpt>
<trkpt lat="48.458110" lon="2.649423"><ele></ele><time>2017-9-17T13:20:20Z</time></trkpt>
<trkpt lat="48.458083" lon="2.649318"><ele></ele><time>2017-9-17T13:20:23Z</time></trkpt>
<trkpt lat="48.458065" lon="2.649202"><ele></ele><time>2017-9-17T13:20:26Z</time></trkpt>
<trkpt lat="48.458057" lon="2.649123"><ele></ele><time>2017-9-17T13:20:29Z</time></trkpt>
<trkpt lat="48.458057" lon="2.648998"><ele></ele><time>2017-9-17T13:20:32Z</time></trkpt>
<trkpt lat="48.458073" lon="2.648870"><ele></ele><time>2017-9-17T13:20:35Z</time></trkpt>
<trkpt lat="48.458085" lon="2.648802"><ele></ele><time>2017-9-17T13:20:38Z</time></trkpt>
<trkpt lat="48.458100" lon="2.648730"><ele></ele><time>2017-9-17T13:20:41Z</time></trkpt>
<trkpt lat="48.458113" lon="2.648658"><ele></ele><time>2017-9-17T13:20:44Z</time></trkpt>
<trkpt lat="48.458133" lon="2.648597"><ele></ele><time>2017-9-17T13:20:47Z</time></trkpt>
<trkpt lat="48.458198" lon="2.648487"><ele></ele><time>2017-9-17T13:20:50Z</time></trkpt>
<trkpt lat="48.458285" lon="2.648408"><ele></ele><time>2017-9-17T13:20:53Z</time></trkpt>
<trkpt lat="48.458393" lon="2.648348"><ele></ele><time>2017-9-17T13:20:56Z</time></trkpt>
<trkpt lat="48.458452" lon="2.648325"><ele></ele><time>2017-9-17T13:20:59Z</time></trkpt>
<trkpt lat="48.458520" lon="2.648297"><ele></ele><time>2017-9-17T13:21:2Z</time></trkpt>
<trkpt lat="48.458652" lon="2.648238"><ele></ele><time>2017-9-17T13:21:5Z</time></trkpt>
<trkpt lat="48.458715" lon="2.648217"><ele></ele><time>2017-9-17T13:21:8Z</time></trkpt>
<trkpt lat="48.458762" lon="2.648190"><ele></ele><time>2017-9-17T13:21:11Z</time></trkpt>
<trkpt lat="48.458820" lon="2.648167"><ele></ele><time>2017-9-17T13:21:14Z</time></trkpt>
<trkpt lat="48.458872" lon="2.648145"><ele></ele><time>2017-9-17T13:21:17Z</time></trkpt>
<trkpt lat="48.458920" lon="2.648122"><ele></ele><time>2017-9-17T13:21:20Z</time></trkpt>
<trkpt lat="48.458965" lon="2.648110"><ele></ele><time>2017-9-17T13:21:23Z</time></trkpt>
<trkpt lat="48.459017" lon="2.648092"><ele></ele><time>2017-9-17T13:21:26Z</time></trkpt>
<trkpt lat="48.459067" lon="2.648072"><ele></ele><time>2017-9-17T13:21:29Z</time></trkpt>
<trkpt lat="48.459120" lon="2.648058"><ele></ele><time>2017-9-17T13:21:32Z</time></trkpt>
<trkpt lat="48.459170" lon="2.648050"><ele></ele><time>2017-9-17T13:21:35Z</time></trkpt>
<trkpt lat="48.459225" lon="2.648033"><ele></ele><time>2017-9-17T13:21:38Z</time></trkpt>
<trkpt lat="48.459298" lon="2.647970"><ele></ele><time>2017-9-17T13:21:41Z</time></trkpt>
<trkpt lat="48.459340" lon="2.647920"><ele></ele><time>2017-9-17T13:21:44Z</time></trkpt>
<trkpt lat="48.459377" lon="2.647862"><ele></ele><time>2017-9-17T13:21:47Z</time></trkpt>
<trkpt lat="48.459408" lon="2.647797"><ele></ele><time>2017-9-17T13:21:50Z</time></trkpt>
<trkpt lat="48.459435" lon="2.647728"><ele></ele><time>2017-9-17T13:21:53Z</time></trkpt>
<trkpt lat="48.459455" lon="2.647657"><ele></ele><time>2017-9-17T13:21:56Z</time></trkpt>
<trkpt lat="48.459472" lon="2.647587"><ele></ele><time>2017-9-17T13:21:59Z</time></trkpt>
<trkpt lat="48.459487" lon="2.647515"><ele></ele><time>2017-9-17T13:22:2Z</time></trkpt>
<trkpt lat="48.459497" lon="2.647438"><ele></ele><time>2017-9-17T13:22:5Z</time></trkpt>
<trkpt lat="48.459505" lon="2.647363"><ele></ele><time>2017-9-17T13:22:8Z</time></trkpt>
<trkpt lat="48.459512" lon="2.647290"><ele></ele><time>2017-9-17T13:22:11Z</time></trkpt>
<trkpt lat="48.459518" lon="2.647218"><ele></ele><time>2017-9-17T13:22:14Z</time></trkpt>
<trkpt lat="48.459525" lon="2.647143"><ele></ele><time>2017-9-17T13:22:17Z</time></trkpt>
<trkpt lat="48.459527" lon="2.647063"><ele></ele><time>2017-9-17T13:22:20Z</time></trkpt>
<trkpt lat="48.459523" lon="2.646988"><ele></ele><time>2017-9-17T13:22:23Z</time></trkpt>
<trkpt lat="48.459518" lon="2.646913"><ele></ele><time>2017-9-17T13:22:26Z</time></trkpt>
<trkpt lat="48.459513" lon="2.646838"><ele></ele><time>2017-9-17T13:22:29Z</time></trkpt>
<trkpt lat="48.459513" lon="2.646760"><ele></ele><time>2017-9-17T13:22:32Z</time></trkpt>
<trkpt lat="48.459513" lon="2.646685"><ele></ele><time>2017-9-17T13:22:35Z</time></trkpt>
<trkpt lat="48.459510" lon="2.646608"><ele></ele><time>2017-9-17T13:22:38Z</time></trkpt>
<trkpt lat="48.459505" lon="2.646525"><ele></ele><time>2017-9-17T13:22:41Z</time></trkpt>
<trkpt lat="48.459500" lon="2.646445"><ele></ele><time>2017-9-17T13:22:44Z</time></trkpt>
<trkpt lat="48.459495" lon="2.646363"><ele></ele><time>2017-9-17T13:22:47Z</time></trkpt>
<trkpt lat="48.459485" lon="2.646277"><ele></ele><time>2017-9-17T13:22:50Z</time></trkpt>
<trkpt lat="48.459468" lon="2.646202"><ele></ele><time>2017-9-17T13:22:53Z</time></trkpt>
<trkpt lat="48.459430" lon="2.646048"><ele></ele><time>2017-9-17T13:22:56Z</time></trkpt>
<trkpt lat="48.459393" lon="2.645915"><ele></ele><time>2017-9-17T13:22:59Z</time></trkpt>
<trkpt lat="48.459350" lon="2.645797"><ele></ele><time>2017-9-17T13:23:2Z</time></trkpt>
<trkpt lat="48.459300" lon="2.645703"><ele></ele><time>2017-9-17T13:23:5Z</time></trkpt>
<trkpt lat="48.459247" lon="2.645603"><ele></ele><time>2017-9-17T13:23:8Z</time></trkpt>
<trkpt lat="48.459195" lon="2.645498"><ele></ele><time>2017-9-17T13:23:11Z</time></trkpt>
<trkpt lat="48.459148" lon="2.645383"><ele></ele><time>2017-9-17T13:23:14Z</time></trkpt>
<trkpt lat="48.459110" lon="2.645262"><ele></ele><time>2017-9-17T13:23:17Z</time></trkpt>
<trkpt lat="48.459093" lon="2.645187"><ele></ele><time>2017-9-17T13:23:20Z</time></trkpt>
<trkpt lat="48.459078" lon="2.645108"><ele></ele><time>2017-9-17T13:23:23Z</time></trkpt>
<trkpt lat="48.459065" lon="2.645030"><ele></ele><time>2017-9-17T13:23:26Z</time></trkpt>
<trkpt lat="48.459052" lon="2.644945"><ele></ele><time>2017-9-17T13:23:29Z</time></trkpt>
<trkpt lat="48.459038" lon="2.644865"><ele></ele><time>2017-9-17T13:23:32Z</time></trkpt>
<trkpt lat="48.459027" lon="2.644785"><ele></ele><time>2017-9-17T13:23:35Z</time></trkpt>
<trkpt lat="48.459017" lon="2.644707"><ele></ele><time>2017-9-17T13:23:38Z</time></trkpt>
<trkpt lat="48.459007" lon="2.644623"><ele></ele><time>2017-9-17T13:23:41Z</time></trkpt>
<trkpt lat="48.459002" lon="2.644537"><ele></ele><time>2017-9-17T13:23:44Z</time></trkpt>
<trkpt lat="48.458997" lon="2.644443"><ele></ele><time>2017-9-17T13:23:47Z</time></trkpt>
<trkpt lat="48.458995" lon="2.644355"><ele></ele><time>2017-9-17T13:23:50Z</time></trkpt>
<trkpt lat="48.458995" lon="2.644268"><ele></ele><time>2017-9-17T13:23:53Z</time></trkpt>
<trkpt lat="48.458997" lon="2.644182"><ele></ele><time>2017-9-17T13:23:56Z</time></trkpt>
<trkpt lat="48.458998" lon="2.644098"><ele></ele><time>2017-9-17T13:23:59Z</time></trkpt>
<trkpt lat="48.459003" lon="2.644028"><ele></ele><time>2017-9-17T13:24:2Z</time></trkpt>
<trkpt lat="48.459010" lon="2.643963"><ele></ele><time>2017-9-17T13:24:5Z</time></trkpt>
<trkpt lat="48.459018" lon="2.643892"><ele></ele><time>2017-9-17T13:24:8Z</time></trkpt>
<trkpt lat="48.459028" lon="2.643820"><ele></ele><time>2017-9-17T13:24:11Z</time></trkpt>
<trkpt lat="48.459038" lon="2.643743"><ele></ele><time>2017-9-17T13:24:14Z</time></trkpt>
<trkpt lat="48.459055" lon="2.643670"><ele></ele><time>2017-9-17T13:24:17Z</time></trkpt>
<trkpt lat="48.459078" lon="2.643607"><ele></ele><time>2017-9-17T13:24:20Z</time></trkpt>
<trkpt lat="48.459102" lon="2.643540"><ele></ele><time>2017-9-17T13:24:23Z</time></trkpt>
<trkpt lat="48.459125" lon="2.643475"><ele></ele><time>2017-9-17T13:24:26Z</time></trkpt>
<trkpt lat="48.459160" lon="2.643363"><ele></ele><time>2017-9-17T13:24:29Z</time></trkpt>
<trkpt lat="48.459192" lon="2.643275"><ele></ele><time>2017-9-17T13:24:32Z</time></trkpt>
<trkpt lat="48.459223" lon="2.643182"><ele></ele><time>2017-9-17T13:24:35Z</time></trkpt>
<trkpt lat="48.459253" lon="2.643058"><ele></ele><time>2017-9-17T13:24:38Z</time></trkpt>
<trkpt lat="48.459293" lon="2.642920"><ele></ele><time>2017-9-17T13:24:41Z</time></trkpt>
<trkpt lat="48.459315" lon="2.642842"><ele></ele><time>2017-9-17T13:24:44Z</time></trkpt>
<trkpt lat="48.459330" lon="2.642762"><ele></ele><time>2017-9-17T13:24:47Z</time></trkpt>
<trkpt lat="48.459340" lon="2.642640"><ele></ele><time>2017-9-17T13:24:50Z</time></trkpt>
<trkpt lat="48.459342" lon="2.642535"><ele></ele><time>2017-9-17T13:24:53Z</time></trkpt>
<trkpt lat="48.459353" lon="2.642435"><ele></ele><time>2017-9-17T13:24:56Z</time></trkpt>
<trkpt lat="48.459357" lon="2.642330"><ele></ele><time>2017-9-17T13:24:59Z</time></trkpt>
<trkpt lat="48.459362" lon="2.642213"><ele></ele><time>2017-9-17T13:25:2Z</time></trkpt>
<trkpt lat="48.459365" lon="2.642092"><ele></ele><time>2017-9-17T13:25:5Z</time></trkpt>
<trkpt lat="48.459390" lon="2.641978"><ele></ele><time>2017-9-17T13:25:8Z</time></trkpt>
<trkpt lat="48.459420" lon="2.641855"><ele></ele><time>2017-9-17T13:25:11Z</time></trkpt>
<trkpt lat="48.459432" lon="2.641788"><ele></ele><time>2017-9-17T13:25:14Z</time></trkpt>
<trkpt lat="48.459437" lon="2.641653"><ele></ele><time>2017-9-17T13:25:17Z</time></trkpt>
<trkpt lat="48.459438" lon="2.641537"><ele></ele><time>2017-9-17T13:25:20Z</time></trkpt>
<trkpt lat="48.459420" lon="2.641412"><ele></ele><time>2017-9-17T13:25:23Z</time></trkpt>
<trkpt lat="48.459373" lon="2.641310"><ele></ele><time>2017-9-17T13:25:26Z</time></trkpt>
<trkpt lat="48.459308" lon="2.641250"><ele></ele><time>2017-9-17T13:25:29Z</time></trkpt>
<trkpt lat="48.459250" lon="2.641230"><ele></ele><time>2017-9-17T13:25:32Z</time></trkpt>
<trkpt lat="48.459162" lon="2.641208"><ele></ele><time>2017-9-17T13:25:35Z</time></trkpt>
<trkpt lat="48.459083" lon="2.641180"><ele></ele><time>2017-9-17T13:25:38Z</time></trkpt>
<trkpt lat="48.459012" lon="2.641158"><ele></ele><time>2017-9-17T13:25:41Z</time></trkpt>
<trkpt lat="48.458937" lon="2.641140"><ele></ele><time>2017-9-17T13:25:44Z</time></trkpt>
<trkpt lat="48.458865" lon="2.641130"><ele></ele><time>2017-9-17T13:25:47Z</time></trkpt>
<trkpt lat="48.458842" lon="2.641125"><ele></ele><time>2017-9-17T13:25:50Z</time></trkpt>
<trkpt lat="48.458727" lon="2.641112"><ele></ele><time>2017-9-17T13:25:53Z</time></trkpt>
<trkpt lat="48.458650" lon="2.641103"><ele></ele><time>2017-9-17T13:25:56Z</time></trkpt>
<trkpt lat="48.458570" lon="2.641105"><ele></ele><time>2017-9-17T13:25:59Z</time></trkpt>
<trkpt lat="48.458512" lon="2.641105"><ele></ele><time>2017-9-17T13:26:2Z</time></trkpt>
<trkpt lat="48.458448" lon="2.641112"><ele></ele><time>2017-9-17T13:26:5Z</time></trkpt>
<trkpt lat="48.458380" lon="2.641115"><ele></ele><time>2017-9-17T13:26:8Z</time></trkpt>
<trkpt lat="48.458312" lon="2.641120"><ele></ele><time>2017-9-17T13:26:11Z</time></trkpt>
<trkpt lat="48.458240" lon="2.641120"><ele></ele><time>2017-9-17T13:26:14Z</time></trkpt>
<trkpt lat="48.458160" lon="2.641110"><ele></ele><time>2017-9-17T13:26:17Z</time></trkpt>
<trkpt lat="48.458085" lon="2.641087"><ele></ele><time>2017-9-17T13:26:20Z</time></trkpt>
<trkpt lat="48.458015" lon="2.641043"><ele></ele><time>2017-9-17T13:26:23Z</time></trkpt>
<trkpt lat="48.457950" lon="2.640980"><ele></ele><time>2017-9-17T13:26:26Z</time></trkpt>
<trkpt lat="48.457895" lon="2.640898"><ele></ele><time>2017-9-17T13:26:29Z</time></trkpt>
<trkpt lat="48.457855" lon="2.640805"><ele></ele><time>2017-9-17T13:26:32Z</time></trkpt>
<trkpt lat="48.457818" lon="2.640708"><ele></ele><time>2017-9-17T13:26:35Z</time></trkpt>
<trkpt lat="48.457777" lon="2.640605"><ele></ele><time>2017-9-17T13:26:38Z</time></trkpt>
<trkpt lat="48.457735" lon="2.640507"><ele></ele><time>2017-9-17T13:26:41Z</time></trkpt>
<trkpt lat="48.457693" lon="2.640410"><ele></ele><time>2017-9-17T13:26:44Z</time></trkpt>
<trkpt lat="48.457657" lon="2.640318"><ele></ele><time>2017-9-17T13:26:47Z</time></trkpt>
<trkpt lat="48.457618" lon="2.640227"><ele></ele><time>2017-9-17T13:26:50Z</time></trkpt>
<trkpt lat="48.457577" lon="2.640107"><ele></ele><time>2017-9-17T13:26:53Z</time></trkpt>
<trkpt lat="48.457547" lon="2.639983"><ele></ele><time>2017-9-17T13:26:56Z</time></trkpt>
<trkpt lat="48.457528" lon="2.639863"><ele></ele><time>2017-9-17T13:26:59Z</time></trkpt>
<trkpt lat="48.457517" lon="2.639740"><ele></ele><time>2017-9-17T13:27:2Z</time></trkpt>
<trkpt lat="48.457513" lon="2.639670"><ele></ele><time>2017-9-17T13:27:5Z</time></trkpt>
<trkpt lat="48.457512" lon="2.639595"><ele></ele><time>2017-9-17T13:27:8Z</time></trkpt>
<trkpt lat="48.457513" lon="2.639527"><ele></ele><time>2017-9-17T13:27:11Z</time></trkpt>
<trkpt lat="48.457517" lon="2.639453"><ele></ele><time>2017-9-17T13:27:14Z</time></trkpt>
<trkpt lat="48.457525" lon="2.639318"><ele></ele><time>2017-9-17T13:27:17Z</time></trkpt>
<trkpt lat="48.457540" lon="2.639190"><ele></ele><time>2017-9-17T13:27:20Z</time></trkpt>
<trkpt lat="48.457547" lon="2.639128"><ele></ele><time>2017-9-17T13:27:23Z</time></trkpt>
<trkpt lat="48.457560" lon="2.638933"><ele></ele><time>2017-9-17T13:27:26Z</time></trkpt>
<trkpt lat="48.457575" lon="2.638872"><ele></ele><time>2017-9-17T13:27:29Z</time></trkpt>
<trkpt lat="48.457593" lon="2.638805"><ele></ele><time>2017-9-17T13:27:32Z</time></trkpt>
<trkpt lat="48.457610" lon="2.638737"><ele></ele><time>2017-9-17T13:27:35Z</time></trkpt>
<trkpt lat="48.457637" lon="2.638593"><ele></ele><time>2017-9-17T13:27:38Z</time></trkpt>
<trkpt lat="48.457623" lon="2.638442"><ele></ele><time>2017-9-17T13:27:41Z</time></trkpt>
<trkpt lat="48.457585" lon="2.638305"><ele></ele><time>2017-9-17T13:27:44Z</time></trkpt>
<trkpt lat="48.457512" lon="2.638213"><ele></ele><time>2017-9-17T13:27:47Z</time></trkpt>
<trkpt lat="48.457417" lon="2.638225"><ele></ele><time>2017-9-17T13:27:50Z</time></trkpt>
<trkpt lat="48.457333" lon="2.638310"><ele></ele><time>2017-9-17T13:27:53Z</time></trkpt>
<trkpt lat="48.457298" lon="2.638377"><ele></ele><time>2017-9-17T13:27:56Z</time></trkpt>
<trkpt lat="48.457270" lon="2.638452"><ele></ele><time>2017-9-17T13:27:59Z</time></trkpt>
<trkpt lat="48.457248" lon="2.638520"><ele></ele><time>2017-9-17T13:28:2Z</time></trkpt>
<trkpt lat="48.457215" lon="2.638635"><ele></ele><time>2017-9-17T13:28:5Z</time></trkpt>
<trkpt lat="48.457185" lon="2.638748"><ele></ele><time>2017-9-17T13:28:8Z</time></trkpt>
<trkpt lat="48.457153" lon="2.638857"><ele></ele><time>2017-9-17T13:28:11Z</time></trkpt>
<trkpt lat="48.457113" lon="2.638957"><ele></ele><time>2017-9-17T13:28:14Z</time></trkpt>
<trkpt lat="48.457062" lon="2.639045"><ele></ele><time>2017-9-17T13:28:17Z</time></trkpt>
<trkpt lat="48.457000" lon="2.639115"><ele></ele><time>2017-9-17T13:28:20Z</time></trkpt>
<trkpt lat="48.456937" lon="2.639163"><ele></ele><time>2017-9-17T13:28:23Z</time></trkpt>
<trkpt lat="48.456862" lon="2.639208"><ele></ele><time>2017-9-17T13:28:26Z</time></trkpt>
<trkpt lat="48.456782" lon="2.639235"><ele></ele><time>2017-9-17T13:28:29Z</time></trkpt>
<trkpt lat="48.456702" lon="2.639247"><ele></ele><time>2017-9-17T13:28:32Z</time></trkpt>
<trkpt lat="48.456615" lon="2.639258"><ele></ele><time>2017-9-17T13:28:35Z</time></trkpt>
<trkpt lat="48.456570" lon="2.639262"><ele></ele><time>2017-9-17T13:28:38Z</time></trkpt>
<trkpt lat="48.456525" lon="2.639257"><ele></ele><time>2017-9-17T13:28:41Z</time></trkpt>
<trkpt lat="48.456440" lon="2.639233"><ele></ele><time>2017-9-17T13:28:44Z</time></trkpt>
<trkpt lat="48.456360" lon="2.639202"><ele></ele><time>2017-9-17T13:28:47Z</time></trkpt>
<trkpt lat="48.456292" lon="2.639128"><ele></ele><time>2017-9-17T13:28:50Z</time></trkpt>
<trkpt lat="48.456262" lon="2.639077"><ele></ele><time>2017-9-17T13:28:53Z</time></trkpt>
<trkpt lat="48.456237" lon="2.639017"><ele></ele><time>2017-9-17T13:28:56Z</time></trkpt>
<trkpt lat="48.456212" lon="2.638953"><ele></ele><time>2017-9-17T13:28:59Z</time></trkpt>
<trkpt lat="48.456190" lon="2.638890"><ele></ele><time>2017-9-17T13:29:2Z</time></trkpt>
<trkpt lat="48.456168" lon="2.638825"><ele></ele><time>2017-9-17T13:29:5Z</time></trkpt>
<trkpt lat="48.456140" lon="2.638768"><ele></ele><time>2017-9-17T13:29:8Z</time></trkpt>
<trkpt lat="48.456068" lon="2.638687"><ele></ele><time>2017-9-17T13:29:11Z</time></trkpt>
<trkpt lat="48.456022" lon="2.638658"><ele></ele><time>2017-9-17T13:29:14Z</time></trkpt>
<trkpt lat="48.455973" lon="2.638650"><ele></ele><time>2017-9-17T13:29:17Z</time></trkpt>
<trkpt lat="48.455923" lon="2.638662"><ele></ele><time>2017-9-17T13:29:20Z</time></trkpt>
<trkpt lat="48.455875" lon="2.638682"><ele></ele><time>2017-9-17T13:29:23Z</time></trkpt>
<trkpt lat="48.455828" lon="2.638705"><ele></ele><time>2017-9-17T13:29:26Z</time></trkpt>
<trkpt lat="48.455782" lon="2.638730"><ele></ele><time>2017-9-17T13:29:29Z</time></trkpt>
<trkpt lat="48.455695" lon="2.638748"><ele></ele><time>2017-9-17T13:29:32Z</time></trkpt>
<trkpt lat="48.455622" lon="2.638720"><ele></ele><time>2017-9-17T13:29:35Z</time></trkpt>
<trkpt lat="48.455555" lon="2.638668"><ele></ele><time>2017-9-17T13:29:38Z</time></trkpt>
<trkpt lat="48.455498" lon="2.638603"><ele></ele><time>2017-9-17T13:29:41Z</time></trkpt>
<trkpt lat="48.455443" lon="2.638535"><ele></ele><time>2017-9-17T13:29:44Z</time></trkpt>
<trkpt lat="48.455382" lon="2.638482"><ele></ele><time>2017-9-17T13:29:47Z</time></trkpt>
<trkpt lat="48.455303" lon="2.638457"><ele></ele><time>2017-9-17T13:29:50Z</time></trkpt>
<trkpt lat="48.455218" lon="2.638448"><ele></ele><time>2017-9-17T13:29:53Z</time></trkpt>
<trkpt lat="48.455132" lon="2.638452"><ele></ele><time>2017-9-17T13:29:56Z</time></trkpt>
<trkpt lat="48.455045" lon="2.638455"><ele></ele><time>2017-9-17T13:29:59Z</time></trkpt>
<trkpt lat="48.454958" lon="2.638453"><ele></ele><time>2017-9-17T13:30:2Z</time></trkpt>
<trkpt lat="48.454873" lon="2.638425"><ele></ele><time>2017-9-17T13:30:5Z</time></trkpt>
<trkpt lat="48.454807" lon="2.638365"><ele></ele><time>2017-9-17T13:30:8Z</time></trkpt>
<trkpt lat="48.454757" lon="2.638278"><ele></ele><time>2017-9-17T13:30:11Z</time></trkpt>
<trkpt lat="48.454705" lon="2.638190"><ele></ele><time>2017-9-17T13:30:14Z</time></trkpt>
<trkpt lat="48.454653" lon="2.638100"><ele></ele><time>2017-9-17T13:30:17Z</time></trkpt>
<trkpt lat="48.454605" lon="2.637993"><ele></ele><time>2017-9-17T13:30:20Z</time></trkpt>
<trkpt lat="48.454575" lon="2.637937"><ele></ele><time>2017-9-17T13:30:23Z</time></trkpt>
<trkpt lat="48.454545" lon="2.637888"><ele></ele><time>2017-9-17T13:30:26Z</time></trkpt>
<trkpt lat="48.454510" lon="2.637832"><ele></ele><time>2017-9-17T13:30:29Z</time></trkpt>
<trkpt lat="48.454473" lon="2.637777"><ele></ele><time>2017-9-17T13:30:32Z</time></trkpt>
<trkpt lat="48.454438" lon="2.637718"><ele></ele><time>2017-9-17T13:30:35Z</time></trkpt>
<trkpt lat="48.454405" lon="2.637655"><ele></ele><time>2017-9-17T13:30:38Z</time></trkpt>
<trkpt lat="48.454380" lon="2.637593"><ele></ele><time>2017-9-17T13:30:41Z</time></trkpt>
<trkpt lat="48.454348" lon="2.637477"><ele></ele><time>2017-9-17T13:30:44Z</time></trkpt>
<trkpt lat="48.454335" lon="2.637403"><ele></ele><time>2017-9-17T13:30:47Z</time></trkpt>
<trkpt lat="48.454328" lon="2.637338"><ele></ele><time>2017-9-17T13:30:50Z</time></trkpt>
<trkpt lat="48.454315" lon="2.637205"><ele></ele><time>2017-9-17T13:30:53Z</time></trkpt>
<trkpt lat="48.454307" lon="2.637125"><ele></ele><time>2017-9-17T13:30:56Z</time></trkpt>
<trkpt lat="48.454297" lon="2.637050"><ele></ele><time>2017-9-17T13:30:59Z</time></trkpt>
<trkpt lat="48.454283" lon="2.636968"><ele></ele><time>2017-9-17T13:31:2Z</time></trkpt>
<trkpt lat="48.454268" lon="2.636895"><ele></ele><time>2017-9-17T13:31:5Z</time></trkpt>
<trkpt lat="48.454243" lon="2.636773"><ele></ele><time>2017-9-17T13:31:8Z</time></trkpt>
<trkpt lat="48.454227" lon="2.636707"><ele></ele><time>2017-9-17T13:31:11Z</time></trkpt>
<trkpt lat="48.454185" lon="2.636588"><ele></ele><time>2017-9-17T13:31:14Z</time></trkpt>
<trkpt lat="48.454160" lon="2.636540"><ele></ele><time>2017-9-17T13:31:17Z</time></trkpt>
<trkpt lat="48.454107" lon="2.636447"><ele></ele><time>2017-9-17T13:31:20Z</time></trkpt>
<trkpt lat="48.454047" lon="2.636370"><ele></ele><time>2017-9-17T13:31:23Z</time></trkpt>
<trkpt lat="48.453980" lon="2.636310"><ele></ele><time>2017-9-17T13:31:26Z</time></trkpt>
<trkpt lat="48.453905" lon="2.636262"><ele></ele><time>2017-9-17T13:31:29Z</time></trkpt>
<trkpt lat="48.453823" lon="2.636240"><ele></ele><time>2017-9-17T13:31:32Z</time></trkpt>
<trkpt lat="48.453743" lon="2.636258"><ele></ele><time>2017-9-17T13:31:35Z</time></trkpt>
<trkpt lat="48.453660" lon="2.636297"><ele></ele><time>2017-9-17T13:31:38Z</time></trkpt>
<trkpt lat="48.453572" lon="2.636345"><ele></ele><time>2017-9-17T13:31:41Z</time></trkpt>
<trkpt lat="48.453527" lon="2.636368"><ele></ele><time>2017-9-17T13:31:44Z</time></trkpt>
<trkpt lat="48.453483" lon="2.636390"><ele></ele><time>2017-9-17T13:31:47Z</time></trkpt>
<trkpt lat="48.453438" lon="2.636418"><ele></ele><time>2017-9-17T13:31:50Z</time></trkpt>
<trkpt lat="48.453357" lon="2.636455"><ele></ele><time>2017-9-17T13:31:53Z</time></trkpt>
<trkpt lat="48.453315" lon="2.636478"><ele></ele><time>2017-9-17T13:31:56Z</time></trkpt>
<trkpt lat="48.453273" lon="2.636508"><ele></ele><time>2017-9-17T13:31:59Z</time></trkpt>
<trkpt lat="48.453190" lon="2.636558"><ele></ele><time>2017-9-17T13:32:2Z</time></trkpt>
<trkpt lat="48.453108" lon="2.636598"><ele></ele><time>2017-9-17T13:32:5Z</time></trkpt>
<trkpt lat="48.453025" lon="2.636612"><ele></ele><time>2017-9-17T13:32:8Z</time></trkpt>
<trkpt lat="48.452947" lon="2.636580"><ele></ele><time>2017-9-17T13:32:11Z</time></trkpt>
<trkpt lat="48.452877" lon="2.636510"><ele></ele><time>2017-9-17T13:32:14Z</time></trkpt>
<trkpt lat="48.452845" lon="2.636462"><ele></ele><time>2017-9-17T13:32:17Z</time></trkpt>
<trkpt lat="48.452783" lon="2.636365"><ele></ele><time>2017-9-17T13:32:20Z</time></trkpt>
<trkpt lat="48.452753" lon="2.636312"><ele></ele><time>2017-9-17T13:32:23Z</time></trkpt>
<trkpt lat="48.452723" lon="2.636258"><ele></ele><time>2017-9-17T13:32:26Z</time></trkpt>
<trkpt lat="48.452693" lon="2.636203"><ele></ele><time>2017-9-17T13:32:29Z</time></trkpt>
<trkpt lat="48.452635" lon="2.636102"><ele></ele><time>2017-9-17T13:32:32Z</time></trkpt>
<trkpt lat="48.452568" lon="2.636017"><ele></ele><time>2017-9-17T13:32:35Z</time></trkpt>
<trkpt lat="48.452485" lon="2.635985"><ele></ele><time>2017-9-17T13:32:38Z</time></trkpt>
<trkpt lat="48.452400" lon="2.635992"><ele></ele><time>2017-9-17T13:32:41Z</time></trkpt>
<trkpt lat="48.452312" lon="2.636008"><ele></ele><time>2017-9-17T13:32:44Z</time></trkpt>
<trkpt lat="48.452263" lon="2.636015"><ele></ele><time>2017-9-17T13:32:47Z</time></trkpt>
<trkpt lat="48.452213" lon="2.636025"><ele></ele><time>2017-9-17T13:32:50Z</time></trkpt>
<trkpt lat="48.452162" lon="2.636025"><ele></ele><time>2017-9-17T13:32:53Z</time></trkpt>
<trkpt lat="48.452112" lon="2.636017"><ele></ele><time>2017-9-17T13:32:56Z</time></trkpt>
<trkpt lat="48.452030" lon="2.635947"><ele></ele><time>2017-9-17T13:32:59Z</time></trkpt>
<trkpt lat="48.451980" lon="2.635842"><ele></ele><time>2017-9-17T13:33:2Z</time></trkpt>
<trkpt lat="48.451945" lon="2.635720"><ele></ele><time>2017-9-17T13:33:5Z</time></trkpt>
<trkpt lat="48.451933" lon="2.635583"><ele></ele><time>2017-9-17T13:33:8Z</time></trkpt>
<trkpt lat="48.451932" lon="2.635440"><ele></ele><time>2017-9-17T13:33:11Z</time></trkpt>
<trkpt lat="48.451935" lon="2.635367"><ele></ele><time>2017-9-17T13:33:14Z</time></trkpt>
<trkpt lat="48.451937" lon="2.635292"><ele></ele><time>2017-9-17T13:33:17Z</time></trkpt>
<trkpt lat="48.451938" lon="2.635217"><ele></ele><time>2017-9-17T13:33:20Z</time></trkpt>
<trkpt lat="48.451937" lon="2.635142"><ele></ele><time>2017-9-17T13:33:23Z</time></trkpt>
<trkpt lat="48.451937" lon="2.635070"><ele></ele><time>2017-9-17T13:33:26Z</time></trkpt>
<trkpt lat="48.451938" lon="2.634995"><ele></ele><time>2017-9-17T13:33:29Z</time></trkpt>
<trkpt lat="48.451945" lon="2.634923"><ele></ele><time>2017-9-17T13:33:32Z</time></trkpt>
<trkpt lat="48.451963" lon="2.634795"><ele></ele><time>2017-9-17T13:33:35Z</time></trkpt>
<trkpt lat="48.451977" lon="2.634667"><ele></ele><time>2017-9-17T13:33:38Z</time></trkpt>
<trkpt lat="48.451987" lon="2.634542"><ele></ele><time>2017-9-17T13:33:41Z</time></trkpt>
<trkpt lat="48.451995" lon="2.634423"><ele></ele><time>2017-9-17T13:33:44Z</time></trkpt>
<trkpt lat="48.452013" lon="2.634303"><ele></ele><time>2017-9-17T13:33:47Z</time></trkpt>
<trkpt lat="48.452012" lon="2.634182"><ele></ele><time>2017-9-17T13:33:50Z</time></trkpt>
<trkpt lat="48.452005" lon="2.634062"><ele></ele><time>2017-9-17T13:33:53Z</time></trkpt>
<trkpt lat="48.452010" lon="2.633952"><ele></ele><time>2017-9-17T13:33:56Z</time></trkpt>
<trkpt lat="48.452025" lon="2.633857"><ele></ele><time>2017-9-17T13:33:59Z</time></trkpt>
<trkpt lat="48.452057" lon="2.633737"><ele></ele><time>2017-9-17T13:34:2Z</time></trkpt>
<trkpt lat="48.452010" lon="2.633827"><ele></ele><time>2017-9-17T13:34:5Z</time></trkpt>
<trkpt lat="48.452003" lon="2.633860"><ele></ele><time>2017-9-17T13:34:8Z</time></trkpt>
<trkpt lat="48.451988" lon="2.634040"><ele></ele><time>2017-9-17T13:34:11Z</time></trkpt>
<trkpt lat="48.451990" lon="2.634142"><ele></ele><time>2017-9-17T13:34:14Z</time></trkpt>
<trkpt lat="48.451988" lon="2.634253"><ele></ele><time>2017-9-17T13:34:17Z</time></trkpt>
<trkpt lat="48.451987" lon="2.634368"><ele></ele><time>2017-9-17T13:34:20Z</time></trkpt>
<trkpt lat="48.451973" lon="2.634475"><ele></ele><time>2017-9-17T13:34:23Z</time></trkpt>
<trkpt lat="48.451968" lon="2.634592"><ele></ele><time>2017-9-17T13:34:26Z</time></trkpt>
<trkpt lat="48.451957" lon="2.634712"><ele></ele><time>2017-9-17T13:34:29Z</time></trkpt>
<trkpt lat="48.451943" lon="2.634832"><ele></ele><time>2017-9-17T13:34:32Z</time></trkpt>
<trkpt lat="48.451925" lon="2.634950"><ele></ele><time>2017-9-17T13:34:35Z</time></trkpt>
<trkpt lat="48.451917" lon="2.635073"><ele></ele><time>2017-9-17T13:34:38Z</time></trkpt>
<trkpt lat="48.451918" lon="2.635193"><ele></ele><time>2017-9-17T13:34:41Z</time></trkpt>
<trkpt lat="48.451920" lon="2.635310"><ele></ele><time>2017-9-17T13:34:44Z</time></trkpt>
<trkpt lat="48.451913" lon="2.635420"><ele></ele><time>2017-9-17T13:34:47Z</time></trkpt>
<trkpt lat="48.451912" lon="2.635528"><ele></ele><time>2017-9-17T13:34:50Z</time></trkpt>
<trkpt lat="48.451877" lon="2.635633"><ele></ele><time>2017-9-17T13:34:53Z</time></trkpt>
<trkpt lat="48.451827" lon="2.635623"><ele></ele><time>2017-9-17T13:34:56Z</time></trkpt>
<trkpt lat="48.451777" lon="2.635633"><ele></ele><time>2017-9-17T13:34:59Z</time></trkpt>
<trkpt lat="48.451730" lon="2.635697"><ele></ele><time>2017-9-17T13:35:2Z</time></trkpt>
<trkpt lat="48.451717" lon="2.635790"><ele></ele><time>2017-9-17T13:35:5Z</time></trkpt>
<trkpt lat="48.451735" lon="2.635875"><ele></ele><time>2017-9-17T13:35:8Z</time></trkpt>
<trkpt lat="48.451760" lon="2.635972"><ele></ele><time>2017-9-17T13:35:11Z</time></trkpt>
<trkpt lat="48.451763" lon="2.636075"><ele></ele><time>2017-9-17T13:35:14Z</time></trkpt>
<trkpt lat="48.451723" lon="2.636157"><ele></ele><time>2017-9-17T13:35:17Z</time></trkpt>
<trkpt lat="48.451665" lon="2.636220"><ele></ele><time>2017-9-17T13:35:20Z</time></trkpt>
<trkpt lat="48.451603" lon="2.636280"><ele></ele><time>2017-9-17T13:35:23Z</time></trkpt>
<trkpt lat="48.451537" lon="2.636338"><ele></ele><time>2017-9-17T13:35:26Z</time></trkpt>
<trkpt lat="48.451468" lon="2.636387"><ele></ele><time>2017-9-17T13:35:29Z</time></trkpt>
<trkpt lat="48.451400" lon="2.636440"><ele></ele><time>2017-9-17T13:35:32Z</time></trkpt>
<trkpt lat="48.451333" lon="2.636495"><ele></ele><time>2017-9-17T13:35:35Z</time></trkpt>
<trkpt lat="48.451307" lon="2.636525"><ele></ele><time>2017-9-17T13:35:38Z</time></trkpt>
<trkpt lat="48.451240" lon="2.636652"><ele></ele><time>2017-9-17T13:35:41Z</time></trkpt>
<trkpt lat="48.451208" lon="2.636757"><ele></ele><time>2017-9-17T13:35:44Z</time></trkpt>
<trkpt lat="48.451175" lon="2.636848"><ele></ele><time>2017-9-17T13:35:47Z</time></trkpt>
<trkpt lat="48.451132" lon="2.636942"><ele></ele><time>2017-9-17T13:35:50Z</time></trkpt>
<trkpt lat="48.451078" lon="2.637048"><ele></ele><time>2017-9-17T13:35:53Z</time></trkpt>
<trkpt lat="48.451032" lon="2.637132"><ele></ele><time>2017-9-17T13:35:56Z</time></trkpt>
<trkpt lat="48.450973" lon="2.637227"><ele></ele><time>2017-9-17T13:35:59Z</time></trkpt>
<trkpt lat="48.450940" lon="2.637325"><ele></ele><time>2017-9-17T13:36:2Z</time></trkpt>
<trkpt lat="48.450917" lon="2.637425"><ele></ele><time>2017-9-17T13:36:5Z</time></trkpt>
<trkpt lat="48.450892" lon="2.637527"><ele></ele><time>2017-9-17T13:36:8Z</time></trkpt>
<trkpt lat="48.450870" lon="2.637648"><ele></ele><time>2017-9-17T13:36:11Z</time></trkpt>
<trkpt lat="48.450852" lon="2.637765"><ele></ele><time>2017-9-17T13:36:14Z</time></trkpt>
<trkpt lat="48.450838" lon="2.637890"><ele></ele><time>2017-9-17T13:36:17Z</time></trkpt>
<trkpt lat="48.450822" lon="2.638013"><ele></ele><time>2017-9-17T13:36:20Z</time></trkpt>
<trkpt lat="48.450817" lon="2.638123"><ele></ele><time>2017-9-17T13:36:23Z</time></trkpt>
<trkpt lat="48.450823" lon="2.638237"><ele></ele><time>2017-9-17T13:36:26Z</time></trkpt>
<trkpt lat="48.450820" lon="2.638353"><ele></ele><time>2017-9-17T13:36:29Z</time></trkpt>
<trkpt lat="48.450823" lon="2.638465"><ele></ele><time>2017-9-17T13:36:32Z</time></trkpt>
<trkpt lat="48.450807" lon="2.638593"><ele></ele><time>2017-9-17T13:36:35Z</time></trkpt>
<trkpt lat="48.450803" lon="2.638718"><ele></ele><time>2017-9-17T13:36:38Z</time></trkpt>
<trkpt lat="48.450822" lon="2.638845"><ele></ele><time>2017-9-17T13:36:41Z</time></trkpt>
<trkpt lat="48.450842" lon="2.638973"><ele></ele><time>2017-9-17T13:36:44Z</time></trkpt>
<trkpt lat="48.450848" lon="2.639042"><ele></ele><time>2017-9-17T13:36:47Z</time></trkpt>
<trkpt lat="48.450853" lon="2.639113"><ele></ele><time>2017-9-17T13:36:50Z</time></trkpt>
<trkpt lat="48.450857" lon="2.639188"><ele></ele><time>2017-9-17T13:36:53Z</time></trkpt>
<trkpt lat="48.450863" lon="2.639265"><ele></ele><time>2017-9-17T13:36:56Z</time></trkpt>
<trkpt lat="48.450870" lon="2.639340"><ele></ele><time>2017-9-17T13:36:59Z</time></trkpt>
<trkpt lat="48.450877" lon="2.639412"><ele></ele><time>2017-9-17T13:37:2Z</time></trkpt>
<trkpt lat="48.450887" lon="2.639482"><ele></ele><time>2017-9-17T13:37:5Z</time></trkpt>
<trkpt lat="48.450903" lon="2.639547"><ele></ele><time>2017-9-17T13:37:8Z</time></trkpt>
<trkpt lat="48.450947" lon="2.639662"><ele></ele><time>2017-9-17T13:37:11Z</time></trkpt>
<trkpt lat="48.450987" lon="2.639782"><ele></ele><time>2017-9-17T13:37:14Z</time></trkpt>
<trkpt lat="48.451002" lon="2.639847"><ele></ele><time>2017-9-17T13:37:17Z</time></trkpt>
<trkpt lat="48.451035" lon="2.639985"><ele></ele><time>2017-9-17T13:37:20Z</time></trkpt>
<trkpt lat="48.451027" lon="2.640163"><ele></ele><time>2017-9-17T13:37:23Z</time></trkpt>
<trkpt lat="48.450967" lon="2.640360"><ele></ele><time>2017-9-17T13:37:26Z</time></trkpt>
<trkpt lat="48.450933" lon="2.640455"><ele></ele><time>2017-9-17T13:37:29Z</time></trkpt>
<trkpt lat="48.450900" lon="2.640552"><ele></ele><time>2017-9-17T13:37:32Z</time></trkpt>
<trkpt lat="48.450842" lon="2.640725"><ele></ele><time>2017-9-17T13:37:35Z</time></trkpt>
<trkpt lat="48.450810" lon="2.640805"><ele></ele><time>2017-9-17T13:37:38Z</time></trkpt>
<trkpt lat="48.450780" lon="2.640875"><ele></ele><time>2017-9-17T13:37:41Z</time></trkpt>
<trkpt lat="48.450753" lon="2.640935"><ele></ele><time>2017-9-17T13:37:44Z</time></trkpt>
<trkpt lat="48.450727" lon="2.640990"><ele></ele><time>2017-9-17T13:37:47Z</time></trkpt>
<trkpt lat="48.450695" lon="2.641042"><ele></ele><time>2017-9-17T13:37:50Z</time></trkpt>
<trkpt lat="48.450660" lon="2.641093"><ele></ele><time>2017-9-17T13:37:53Z</time></trkpt>
<trkpt lat="48.450628" lon="2.641143"><ele></ele><time>2017-9-17T13:37:56Z</time></trkpt>
<trkpt lat="48.450597" lon="2.641190"><ele></ele><time>2017-9-17T13:37:59Z</time></trkpt>
<trkpt lat="48.450562" lon="2.641238"><ele></ele><time>2017-9-17T13:38:2Z</time></trkpt>
<trkpt lat="48.450527" lon="2.641287"><ele></ele><time>2017-9-17T13:38:5Z</time></trkpt>
<trkpt lat="48.450487" lon="2.641333"><ele></ele><time>2017-9-17T13:38:8Z</time></trkpt>
<trkpt lat="48.450448" lon="2.641373"><ele></ele><time>2017-9-17T13:38:11Z</time></trkpt>
<trkpt lat="48.450407" lon="2.641415"><ele></ele><time>2017-9-17T13:38:14Z</time></trkpt>
<trkpt lat="48.450367" lon="2.641457"><ele></ele><time>2017-9-17T13:38:17Z</time></trkpt>
<trkpt lat="48.450327" lon="2.641497"><ele></ele><time>2017-9-17T13:38:20Z</time></trkpt>
<trkpt lat="48.450290" lon="2.641540"><ele></ele><time>2017-9-17T13:38:23Z</time></trkpt>
<trkpt lat="48.450253" lon="2.641587"><ele></ele><time>2017-9-17T13:38:26Z</time></trkpt>
<trkpt lat="48.450195" lon="2.641665"><ele></ele><time>2017-9-17T13:38:29Z</time></trkpt>
<trkpt lat="48.450147" lon="2.641737"><ele></ele><time>2017-9-17T13:38:32Z</time></trkpt>
<trkpt lat="48.450087" lon="2.641823"><ele></ele><time>2017-9-17T13:38:35Z</time></trkpt>
<trkpt lat="48.450027" lon="2.641917"><ele></ele><time>2017-9-17T13:38:38Z</time></trkpt>
<trkpt lat="48.449985" lon="2.641982"><ele></ele><time>2017-9-17T13:38:41Z</time></trkpt>
<trkpt lat="48.449937" lon="2.642055"><ele></ele><time>2017-9-17T13:38:44Z</time></trkpt>
<trkpt lat="48.449887" lon="2.642135"><ele></ele><time>2017-9-17T13:38:47Z</time></trkpt>
<trkpt lat="48.449835" lon="2.642220"><ele></ele><time>2017-9-17T13:38:50Z</time></trkpt>
<trkpt lat="48.449780" lon="2.642308"><ele></ele><time>2017-9-17T13:38:53Z</time></trkpt>
<trkpt lat="48.449720" lon="2.642398"><ele></ele><time>2017-9-17T13:38:56Z</time></trkpt>
<trkpt lat="48.449688" lon="2.642443"><ele></ele><time>2017-9-17T13:38:59Z</time></trkpt>
<trkpt lat="48.449653" lon="2.642493"><ele></ele><time>2017-9-17T13:39:2Z</time></trkpt>
<trkpt lat="48.449620" lon="2.642545"><ele></ele><time>2017-9-17T13:39:5Z</time></trkpt>
<trkpt lat="48.449587" lon="2.642598"><ele></ele><time>2017-9-17T13:39:8Z</time></trkpt>
<trkpt lat="48.449528" lon="2.642688"><ele></ele><time>2017-9-17T13:39:11Z</time></trkpt>
<trkpt lat="48.449468" lon="2.642780"><ele></ele><time>2017-9-17T13:39:14Z</time></trkpt>
<trkpt lat="48.449408" lon="2.642873"><ele></ele><time>2017-9-17T13:39:17Z</time></trkpt>
<trkpt lat="48.449375" lon="2.642923"><ele></ele><time>2017-9-17T13:39:20Z</time></trkpt>
<trkpt lat="48.449343" lon="2.642977"><ele></ele><time>2017-9-17T13:39:23Z</time></trkpt>
<trkpt lat="48.449293" lon="2.643092"><ele></ele><time>2017-9-17T13:39:26Z</time></trkpt>
<trkpt lat="48.449265" lon="2.643218"><ele></ele><time>2017-9-17T13:39:29Z</time></trkpt>
<trkpt lat="48.449267" lon="2.643353"><ele></ele><time>2017-9-17T13:39:32Z</time></trkpt>
<trkpt lat="48.449297" lon="2.643482"><ele></ele><time>2017-9-17T13:39:35Z</time></trkpt>
<trkpt lat="48.449345" lon="2.643597"><ele></ele><time>2017-9-17T13:39:38Z</time></trkpt>
<trkpt lat="48.449403" lon="2.643707"><ele></ele><time>2017-9-17T13:39:41Z</time></trkpt>
<trkpt lat="48.449465" lon="2.643815"><ele></ele><time>2017-9-17T13:39:44Z</time></trkpt>
<trkpt lat="48.449500" lon="2.643868"><ele></ele><time>2017-9-17T13:39:47Z</time></trkpt>
<trkpt lat="48.449535" lon="2.643922"><ele></ele><time>2017-9-17T13:39:50Z</time></trkpt>
<trkpt lat="48.449563" lon="2.643982"><ele></ele><time>2017-9-17T13:39:53Z</time></trkpt>
<trkpt lat="48.449583" lon="2.644047"><ele></ele><time>2017-9-17T13:39:56Z</time></trkpt>
<trkpt lat="48.449592" lon="2.644115"><ele></ele><time>2017-9-17T13:39:59Z</time></trkpt>
<trkpt lat="48.449592" lon="2.644183"><ele></ele><time>2017-9-17T13:40:2Z</time></trkpt>
<trkpt lat="48.449585" lon="2.644253"><ele></ele><time>2017-9-17T13:40:5Z</time></trkpt>
<trkpt lat="48.449575" lon="2.644327"><ele></ele><time>2017-9-17T13:40:8Z</time></trkpt>
<trkpt lat="48.449567" lon="2.644398"><ele></ele><time>2017-9-17T13:40:11Z</time></trkpt>
<trkpt lat="48.449562" lon="2.644477"><ele></ele><time>2017-9-17T13:40:14Z</time></trkpt>
<trkpt lat="48.449550" lon="2.644553"><ele></ele><time>2017-9-17T13:40:17Z</time></trkpt>
<trkpt lat="48.449543" lon="2.644633"><ele></ele><time>2017-9-17T13:40:20Z</time></trkpt>
<trkpt lat="48.449542" lon="2.644712"><ele></ele><time>2017-9-17T13:40:23Z</time></trkpt>
<trkpt lat="48.449545" lon="2.644785"><ele></ele><time>2017-9-17T13:40:26Z</time></trkpt>
<trkpt lat="48.449553" lon="2.644863"><ele></ele><time>2017-9-17T13:40:29Z</time></trkpt>
<trkpt lat="48.449557" lon="2.644942"><ele></ele><time>2017-9-17T13:40:32Z</time></trkpt>
<trkpt lat="48.449560" lon="2.645013"><ele></ele><time>2017-9-17T13:40:35Z</time></trkpt>
<trkpt lat="48.449565" lon="2.645083"><ele></ele><time>2017-9-17T13:40:38Z</time></trkpt>
<trkpt lat="48.449575" lon="2.645153"><ele></ele><time>2017-9-17T13:40:41Z</time></trkpt>
<trkpt lat="48.449583" lon="2.645225"><ele></ele><time>2017-9-17T13:40:44Z</time></trkpt>
<trkpt lat="48.449590" lon="2.645297"><ele></ele><time>2017-9-17T13:40:47Z</time></trkpt>
<trkpt lat="48.449597" lon="2.645430"><ele></ele><time>2017-9-17T13:40:50Z</time></trkpt>
<trkpt lat="48.449603" lon="2.645563"><ele></ele><time>2017-9-17T13:40:53Z</time></trkpt>
<trkpt lat="48.449608" lon="2.645633"><ele></ele><time>2017-9-17T13:40:56Z</time></trkpt>
<trkpt lat="48.449613" lon="2.645768"><ele></ele><time>2017-9-17T13:40:59Z</time></trkpt>
<trkpt lat="48.449608" lon="2.645840"><ele></ele><time>2017-9-17T13:41:2Z</time></trkpt>
<trkpt lat="48.449598" lon="2.645980"><ele></ele><time>2017-9-17T13:41:5Z</time></trkpt>
<trkpt lat="48.449582" lon="2.646103"><ele></ele><time>2017-9-17T13:41:8Z</time></trkpt>
<trkpt lat="48.449562" lon="2.646222"><ele></ele><time>2017-9-17T13:41:11Z</time></trkpt>
<trkpt lat="48.449545" lon="2.646337"><ele></ele><time>2017-9-17T13:41:14Z</time></trkpt>
<trkpt lat="48.449540" lon="2.646447"><ele></ele><time>2017-9-17T13:41:17Z</time></trkpt>
<trkpt lat="48.449540" lon="2.646577"><ele></ele><time>2017-9-17T13:41:20Z</time></trkpt>
<trkpt lat="48.449545" lon="2.646707"><ele></ele><time>2017-9-17T13:41:23Z</time></trkpt>
<trkpt lat="48.449548" lon="2.646773"><ele></ele><time>2017-9-17T13:41:26Z</time></trkpt>
<trkpt lat="48.449552" lon="2.646903"><ele></ele><time>2017-9-17T13:41:29Z</time></trkpt>
<trkpt lat="48.449550" lon="2.647032"><ele></ele><time>2017-9-17T13:41:32Z</time></trkpt>
<trkpt lat="48.449545" lon="2.647157"><ele></ele><time>2017-9-17T13:41:35Z</time></trkpt>
<trkpt lat="48.449555" lon="2.647273"><ele></ele><time>2017-9-17T13:41:38Z</time></trkpt>
<trkpt lat="48.449582" lon="2.647398"><ele></ele><time>2017-9-17T13:41:41Z</time></trkpt>
<trkpt lat="48.449608" lon="2.647522"><ele></ele><time>2017-9-17T13:41:44Z</time></trkpt>
<trkpt lat="48.449638" lon="2.647643"><ele></ele><time>2017-9-17T13:41:47Z</time></trkpt>
<trkpt lat="48.449662" lon="2.647768"><ele></ele><time>2017-9-17T13:41:50Z</time></trkpt>
<trkpt lat="48.449678" lon="2.647832"><ele></ele><time>2017-9-17T13:41:53Z</time></trkpt>
<trkpt lat="48.449708" lon="2.647958"><ele></ele><time>2017-9-17T13:41:56Z</time></trkpt>
<trkpt lat="48.449733" lon="2.648077"><ele></ele><time>2017-9-17T13:41:59Z</time></trkpt>
<trkpt lat="48.449760" lon="2.648198"><ele></ele><time>2017-9-17T13:42:2Z</time></trkpt>
<trkpt lat="48.449787" lon="2.648325"><ele></ele><time>2017-9-17T13:42:5Z</time></trkpt>
<trkpt lat="48.449798" lon="2.648392"><ele></ele><time>2017-9-17T13:42:8Z</time></trkpt>
<trkpt lat="48.449830" lon="2.648515"><ele></ele><time>2017-9-17T13:42:11Z</time></trkpt>
<trkpt lat="48.449845" lon="2.648580"><ele></ele><time>2017-9-17T13:42:14Z</time></trkpt>
<trkpt lat="48.449855" lon="2.648648"><ele></ele><time>2017-9-17T13:42:17Z</time></trkpt>
<trkpt lat="48.449865" lon="2.648718"><ele></ele><time>2017-9-17T13:42:20Z</time></trkpt>
<trkpt lat="48.449873" lon="2.648788"><ele></ele><time>2017-9-17T13:42:23Z</time></trkpt>
<trkpt lat="48.449885" lon="2.648852"><ele></ele><time>2017-9-17T13:42:26Z</time></trkpt>
<trkpt lat="48.449900" lon="2.648918"><ele></ele><time>2017-9-17T13:42:29Z</time></trkpt>
<trkpt lat="48.449923" lon="2.649047"><ele></ele><time>2017-9-17T13:42:32Z</time></trkpt>
<trkpt lat="48.449937" lon="2.649118"><ele></ele><time>2017-9-17T13:42:35Z</time></trkpt>
<trkpt lat="48.449950" lon="2.649185"><ele></ele><time>2017-9-17T13:42:38Z</time></trkpt>
<trkpt lat="48.449965" lon="2.649253"><ele></ele><time>2017-9-17T13:42:41Z</time></trkpt>
<trkpt lat="48.449980" lon="2.649322"><ele></ele><time>2017-9-17T13:42:44Z</time></trkpt>
<trkpt lat="48.450008" lon="2.649445"><ele></ele><time>2017-9-17T13:42:47Z</time></trkpt>
<trkpt lat="48.450028" lon="2.649575"><ele></ele><time>2017-9-17T13:42:50Z</time></trkpt>
<trkpt lat="48.450043" lon="2.649690"><ele></ele><time>2017-9-17T13:42:53Z</time></trkpt>
<trkpt lat="48.450063" lon="2.649808"><ele></ele><time>2017-9-17T13:42:56Z</time></trkpt>
<trkpt lat="48.450098" lon="2.649928"><ele></ele><time>2017-9-17T13:42:59Z</time></trkpt>
<trkpt lat="48.450127" lon="2.650048"><ele></ele><time>2017-9-17T13:43:2Z</time></trkpt>
<trkpt lat="48.450162" lon="2.650167"><ele></ele><time>2017-9-17T13:43:5Z</time></trkpt>
<trkpt lat="48.450182" lon="2.650292"><ele></ele><time>2017-9-17T13:43:8Z</time></trkpt>
<trkpt lat="48.450198" lon="2.650357"><ele></ele><time>2017-9-17T13:43:11Z</time></trkpt>
<trkpt lat="48.450238" lon="2.650542"><ele></ele><time>2017-9-17T13:43:14Z</time></trkpt>
<trkpt lat="48.450258" lon="2.650610"><ele></ele><time>2017-9-17T13:43:17Z</time></trkpt>
<trkpt lat="48.450285" lon="2.650738"><ele></ele><time>2017-9-17T13:43:20Z</time></trkpt>
<trkpt lat="48.450300" lon="2.650803"><ele></ele><time>2017-9-17T13:43:23Z</time></trkpt>
<trkpt lat="48.450312" lon="2.650870"><ele></ele><time>2017-9-17T13:43:26Z</time></trkpt>
<trkpt lat="48.450322" lon="2.650937"><ele></ele><time>2017-9-17T13:43:29Z</time></trkpt>
<trkpt lat="48.450333" lon="2.651003"><ele></ele><time>2017-9-17T13:43:32Z</time></trkpt>
<trkpt lat="48.450345" lon="2.651073"><ele></ele><time>2017-9-17T13:43:35Z</time></trkpt>
<trkpt lat="48.450353" lon="2.651142"><ele></ele><time>2017-9-17T13:43:38Z</time></trkpt>
<trkpt lat="48.450365" lon="2.651210"><ele></ele><time>2017-9-17T13:43:41Z</time></trkpt>
<trkpt lat="48.450380" lon="2.651277"><ele></ele><time>2017-9-17T13:43:44Z</time></trkpt>
<trkpt lat="48.450397" lon="2.651353"><ele></ele><time>2017-9-17T13:43:47Z</time></trkpt>
<trkpt lat="48.450405" lon="2.651425"><ele></ele><time>2017-9-17T13:43:50Z</time></trkpt>
<trkpt lat="48.450413" lon="2.651493"><ele></ele><time>2017-9-17T13:43:53Z</time></trkpt>
<trkpt lat="48.450427" lon="2.651563"><ele></ele><time>2017-9-17T13:43:56Z</time></trkpt>
<trkpt lat="48.450438" lon="2.651630"><ele></ele><time>2017-9-17T13:43:59Z</time></trkpt>
<trkpt lat="48.450467" lon="2.651757"><ele></ele><time>2017-9-17T13:44:2Z</time></trkpt>
<trkpt lat="48.450480" lon="2.651825"><ele></ele><time>2017-9-17T13:44:5Z</time></trkpt>
<trkpt lat="48.450493" lon="2.651893"><ele></ele><time>2017-9-17T13:44:8Z</time></trkpt>
<trkpt lat="48.450508" lon="2.651957"><ele></ele><time>2017-9-17T13:44:11Z</time></trkpt>
<trkpt lat="48.450523" lon="2.652022"><ele></ele><time>2017-9-17T13:44:14Z</time></trkpt>
<trkpt lat="48.450533" lon="2.652093"><ele></ele><time>2017-9-17T13:44:17Z</time></trkpt>
<trkpt lat="48.450562" lon="2.652222"><ele></ele><time>2017-9-17T13:44:20Z</time></trkpt>
<trkpt lat="48.450583" lon="2.652353"><ele></ele><time>2017-9-17T13:44:23Z</time></trkpt>
<trkpt lat="48.450602" lon="2.652478"><ele></ele><time>2017-9-17T13:44:26Z</time></trkpt>
<trkpt lat="48.450630" lon="2.652608"><ele></ele><time>2017-9-17T13:44:29Z</time></trkpt>
<trkpt lat="48.450653" lon="2.652727"><ele></ele><time>2017-9-17T13:44:32Z</time></trkpt>
<trkpt lat="48.450685" lon="2.652850"><ele></ele><time>2017-9-17T13:44:35Z</time></trkpt>
<trkpt lat="48.450715" lon="2.652975"><ele></ele><time>2017-9-17T13:44:38Z</time></trkpt>
<trkpt lat="48.450748" lon="2.653087"><ele></ele><time>2017-9-17T13:44:41Z</time></trkpt>
<trkpt lat="48.450753" lon="2.653202"><ele></ele><time>2017-9-17T13:44:44Z</time></trkpt>
<trkpt lat="48.450777" lon="2.653312"><ele></ele><time>2017-9-17T13:44:47Z</time></trkpt>
<trkpt lat="48.450805" lon="2.653425"><ele></ele><time>2017-9-17T13:44:50Z</time></trkpt>
<trkpt lat="48.450835" lon="2.653545"><ele></ele><time>2017-9-17T13:44:53Z</time></trkpt>
<trkpt lat="48.450857" lon="2.653667"><ele></ele><time>2017-9-17T13:44:56Z</time></trkpt>
<trkpt lat="48.450888" lon="2.653792"><ele></ele><time>2017-9-17T13:44:59Z</time></trkpt>
<trkpt lat="48.450903" lon="2.653857"><ele></ele><time>2017-9-17T13:45:2Z</time></trkpt>
<trkpt lat="48.450918" lon="2.653923"><ele></ele><time>2017-9-17T13:45:5Z</time></trkpt>
<trkpt lat="48.450927" lon="2.653990"><ele></ele><time>2017-9-17T13:45:8Z</time></trkpt>
<trkpt lat="48.450940" lon="2.654057"><ele></ele><time>2017-9-17T13:45:11Z</time></trkpt>
<trkpt lat="48.450955" lon="2.654125"><ele></ele><time>2017-9-17T13:45:14Z</time></trkpt>
<trkpt lat="48.450967" lon="2.654192"><ele></ele><time>2017-9-17T13:45:17Z</time></trkpt>
<trkpt lat="48.450977" lon="2.654260"><ele></ele><time>2017-9-17T13:45:20Z</time></trkpt>
<trkpt lat="48.450990" lon="2.654328"><ele></ele><time>2017-9-17T13:45:23Z</time></trkpt>
<trkpt lat="48.451013" lon="2.654457"><ele></ele><time>2017-9-17T13:45:26Z</time></trkpt>
<trkpt lat="48.451040" lon="2.654578"><ele></ele><time>2017-9-17T13:45:29Z</time></trkpt>
<trkpt lat="48.451054" lon="2.654703"><ele></ele><time>2017-9-17T13:45:32Z</time></trkpt>
<trkpt lat="48.451085" lon="2.654825"><ele></ele><time>2017-9-17T13:45:35Z</time></trkpt>
<trkpt lat="48.451093" lon="2.654888"><ele></ele><time>2017-9-17T13:45:38Z</time></trkpt>
<trkpt lat="48.451102" lon="2.654958"><ele></ele><time>2017-9-17T13:45:41Z</time></trkpt>
<trkpt lat="48.451123" lon="2.655090"><ele></ele><time>2017-9-17T13:45:44Z</time></trkpt>
<trkpt lat="48.451135" lon="2.655158"><ele></ele><time>2017-9-17T13:45:47Z</time></trkpt>
<trkpt lat="48.451162" lon="2.655285"><ele></ele><time>2017-9-17T13:45:50Z</time></trkpt>
<trkpt lat="48.451182" lon="2.655408"><ele></ele><time>2017-9-17T13:45:53Z</time></trkpt>
<trkpt lat="48.451212" lon="2.655533"><ele></ele><time>2017-9-17T13:45:56Z</time></trkpt>
<trkpt lat="48.451233" lon="2.655593"><ele></ele><time>2017-9-17T13:45:59Z</time></trkpt>
<trkpt lat="48.451257" lon="2.655660"><ele></ele><time>2017-9-17T13:46:2Z</time></trkpt>
<trkpt lat="48.451278" lon="2.655730"><ele></ele><time>2017-9-17T13:46:5Z</time></trkpt>
<trkpt lat="48.451308" lon="2.655855"><ele></ele><time>2017-9-17T13:46:8Z</time></trkpt>
<trkpt lat="48.451318" lon="2.655912"><ele></ele><time>2017-9-17T13:46:11Z</time></trkpt>
<trkpt lat="48.451357" lon="2.656038"><ele></ele><time>2017-9-17T13:46:14Z</time></trkpt>
<trkpt lat="48.451382" lon="2.656180"><ele></ele><time>2017-9-17T13:46:17Z</time></trkpt>
<trkpt lat="48.451412" lon="2.656323"><ele></ele><time>2017-9-17T13:46:20Z</time></trkpt>
<trkpt lat="48.451435" lon="2.656460"><ele></ele><time>2017-9-17T13:46:23Z</time></trkpt>
<trkpt lat="48.451448" lon="2.656527"><ele></ele><time>2017-9-17T13:46:26Z</time></trkpt>
<trkpt lat="48.451463" lon="2.656592"><ele></ele><time>2017-9-17T13:46:29Z</time></trkpt>
<trkpt lat="48.451480" lon="2.656657"><ele></ele><time>2017-9-17T13:46:32Z</time></trkpt>
<trkpt lat="48.451490" lon="2.656725"><ele></ele><time>2017-9-17T13:46:35Z</time></trkpt>
<trkpt lat="48.451502" lon="2.656795"><ele></ele><time>2017-9-17T13:46:38Z</time></trkpt>
<trkpt lat="48.451510" lon="2.656863"><ele></ele><time>2017-9-17T13:46:41Z</time></trkpt>
<trkpt lat="48.451518" lon="2.656935"><ele></ele><time>2017-9-17T13:46:44Z</time></trkpt>
<trkpt lat="48.451530" lon="2.657060"><ele></ele><time>2017-9-17T13:46:47Z</time></trkpt>
<trkpt lat="48.451540" lon="2.657128"><ele></ele><time>2017-9-17T13:46:50Z</time></trkpt>
<trkpt lat="48.451555" lon="2.657198"><ele></ele><time>2017-9-17T13:46:53Z</time></trkpt>
<trkpt lat="48.451570" lon="2.657265"><ele></ele><time>2017-9-17T13:46:56Z</time></trkpt>
<trkpt lat="48.451585" lon="2.657328"><ele></ele><time>2017-9-17T13:46:59Z</time></trkpt>
<trkpt lat="48.451610" lon="2.657458"><ele></ele><time>2017-9-17T13:47:2Z</time></trkpt>
<trkpt lat="48.451615" lon="2.657528"><ele></ele><time>2017-9-17T13:47:5Z</time></trkpt>
<trkpt lat="48.451623" lon="2.657597"><ele></ele><time>2017-9-17T13:47:8Z</time></trkpt>
<trkpt lat="48.451637" lon="2.657668"><ele></ele><time>2017-9-17T13:47:11Z</time></trkpt>
<trkpt lat="48.451653" lon="2.657742"><ele></ele><time>2017-9-17T13:47:14Z</time></trkpt>
<trkpt lat="48.451670" lon="2.657813"><ele></ele><time>2017-9-17T13:47:17Z</time></trkpt>
<trkpt lat="48.451683" lon="2.657885"><ele></ele><time>2017-9-17T13:47:20Z</time></trkpt>
<trkpt lat="48.451698" lon="2.657950"><ele></ele><time>2017-9-17T13:47:23Z</time></trkpt>
<trkpt lat="48.451717" lon="2.658013"><ele></ele><time>2017-9-17T13:47:26Z</time></trkpt>
<trkpt lat="48.451732" lon="2.658082"><ele></ele><time>2017-9-17T13:47:29Z</time></trkpt>
<trkpt lat="48.451747" lon="2.658152"><ele></ele><time>2017-9-17T13:47:32Z</time></trkpt>
<trkpt lat="48.451762" lon="2.658220"><ele></ele><time>2017-9-17T13:47:35Z</time></trkpt>
<trkpt lat="48.451777" lon="2.658288"><ele></ele><time>2017-9-17T13:47:38Z</time></trkpt>
<trkpt lat="48.451793" lon="2.658357"><ele></ele><time>2017-9-17T13:47:41Z</time></trkpt>
<trkpt lat="48.451808" lon="2.658425"><ele></ele><time>2017-9-17T13:47:44Z</time></trkpt>
<trkpt lat="48.451827" lon="2.658495"><ele></ele><time>2017-9-17T13:47:47Z</time></trkpt>
<trkpt lat="48.451838" lon="2.658570"><ele></ele><time>2017-9-17T13:47:50Z</time></trkpt>
<trkpt lat="48.451863" lon="2.658717"><ele></ele><time>2017-9-17T13:47:53Z</time></trkpt>
<trkpt lat="48.451888" lon="2.658853"><ele></ele><time>2017-9-17T13:47:56Z</time></trkpt>
<trkpt lat="48.451915" lon="2.658983"><ele></ele><time>2017-9-17T13:47:59Z</time></trkpt>
<trkpt lat="48.451927" lon="2.659052"><ele></ele><time>2017-9-17T13:48:2Z</time></trkpt>
<trkpt lat="48.451942" lon="2.659118"><ele></ele><time>2017-9-17T13:48:5Z</time></trkpt>
<trkpt lat="48.451968" lon="2.659252"><ele></ele><time>2017-9-17T13:48:8Z</time></trkpt>
<trkpt lat="48.451983" lon="2.659375"><ele></ele><time>2017-9-17T13:48:11Z</time></trkpt>
<trkpt lat="48.451977" lon="2.659500"><ele></ele><time>2017-9-17T13:48:14Z</time></trkpt>
<trkpt lat="48.451968" lon="2.659567"><ele></ele><time>2017-9-17T13:48:17Z</time></trkpt>
<trkpt lat="48.451957" lon="2.659633"><ele></ele><time>2017-9-17T13:48:20Z</time></trkpt>
<trkpt lat="48.451937" lon="2.659700"><ele></ele><time>2017-9-17T13:48:23Z</time></trkpt>
<trkpt lat="48.451913" lon="2.659768"><ele></ele><time>2017-9-17T13:48:26Z</time></trkpt>
<trkpt lat="48.451888" lon="2.659845"><ele></ele><time>2017-9-17T13:48:29Z</time></trkpt>
<trkpt lat="48.451862" lon="2.659927"><ele></ele><time>2017-9-17T13:48:32Z</time></trkpt>
<trkpt lat="48.451843" lon="2.660000"><ele></ele><time>2017-9-17T13:48:35Z</time></trkpt>
<trkpt lat="48.451825" lon="2.660065"><ele></ele><time>2017-9-17T13:48:38Z</time></trkpt>
<trkpt lat="48.451808" lon="2.660132"><ele></ele><time>2017-9-17T13:48:41Z</time></trkpt>
<trkpt lat="48.451795" lon="2.660198"><ele></ele><time>2017-9-17T13:48:44Z</time></trkpt>
<trkpt lat="48.451767" lon="2.660280"><ele></ele><time>2017-9-17T13:48:47Z</time></trkpt>
<trkpt lat="48.451745" lon="2.660348"><ele></ele><time>2017-9-17T13:48:50Z</time></trkpt>
<trkpt lat="48.451725" lon="2.660412"><ele></ele><time>2017-9-17T13:48:53Z</time></trkpt>
<trkpt lat="48.451690" lon="2.660527"><ele></ele><time>2017-9-17T13:48:56Z</time></trkpt>
<trkpt lat="48.451670" lon="2.660600"><ele></ele><time>2017-9-17T13:48:59Z</time></trkpt>
<trkpt lat="48.451652" lon="2.660670"><ele></ele><time>2017-9-17T13:49:2Z</time></trkpt>
<trkpt lat="48.451618" lon="2.660795"><ele></ele><time>2017-9-17T13:49:5Z</time></trkpt>
<trkpt lat="48.451588" lon="2.660913"><ele></ele><time>2017-9-17T13:49:8Z</time></trkpt>
<trkpt lat="48.451568" lon="2.660980"><ele></ele><time>2017-9-17T13:49:11Z</time></trkpt>
<trkpt lat="48.451545" lon="2.661058"><ele></ele><time>2017-9-17T13:49:14Z</time></trkpt>
<trkpt lat="48.451525" lon="2.661130"><ele></ele><time>2017-9-17T13:49:17Z</time></trkpt>
<trkpt lat="48.451508" lon="2.661200"><ele></ele><time>2017-9-17T13:49:20Z</time></trkpt>
<trkpt lat="48.451493" lon="2.661265"><ele></ele><time>2017-9-17T13:49:23Z</time></trkpt>
<trkpt lat="48.451477" lon="2.661330"><ele></ele><time>2017-9-17T13:49:26Z</time></trkpt>
<trkpt lat="48.451447" lon="2.661453"><ele></ele><time>2017-9-17T13:49:29Z</time></trkpt>
<trkpt lat="48.451415" lon="2.661575"><ele></ele><time>2017-9-17T13:49:32Z</time></trkpt>
<trkpt lat="48.451385" lon="2.661693"><ele></ele><time>2017-9-17T13:49:35Z</time></trkpt>
<trkpt lat="48.451343" lon="2.661828"><ele></ele><time>2017-9-17T13:49:38Z</time></trkpt>
<trkpt lat="48.451310" lon="2.661950"><ele></ele><time>2017-9-17T13:49:41Z</time></trkpt>
<trkpt lat="48.451280" lon="2.662073"><ele></ele><time>2017-9-17T13:49:44Z</time></trkpt>
<trkpt lat="48.451238" lon="2.662190"><ele></ele><time>2017-9-17T13:49:47Z</time></trkpt>
<trkpt lat="48.451198" lon="2.662297"><ele></ele><time>2017-9-17T13:49:50Z</time></trkpt>
<trkpt lat="48.451182" lon="2.662355"><ele></ele><time>2017-9-17T13:49:53Z</time></trkpt>
<trkpt lat="48.451140" lon="2.662543"><ele></ele><time>2017-9-17T13:49:56Z</time></trkpt>
<trkpt lat="48.451112" lon="2.662670"><ele></ele><time>2017-9-17T13:49:59Z</time></trkpt>
<trkpt lat="48.451082" lon="2.662795"><ele></ele><time>2017-9-17T13:50:2Z</time></trkpt>
<trkpt lat="48.451060" lon="2.662892"><ele></ele><time>2017-9-17T13:50:5Z</time></trkpt>
<trkpt lat="48.451048" lon="2.662950"><ele></ele><time>2017-9-17T13:50:8Z</time></trkpt>
<trkpt lat="48.451030" lon="2.663020"><ele></ele><time>2017-9-17T13:50:11Z</time></trkpt>
<trkpt lat="48.451008" lon="2.663092"><ele></ele><time>2017-9-17T13:50:14Z</time></trkpt>
<trkpt lat="48.450992" lon="2.663157"><ele></ele><time>2017-9-17T13:50:17Z</time></trkpt>
<trkpt lat="48.450973" lon="2.663225"><ele></ele><time>2017-9-17T13:50:20Z</time></trkpt>
<trkpt lat="48.450952" lon="2.663300"><ele></ele><time>2017-9-17T13:50:23Z</time></trkpt>
<trkpt lat="48.450932" lon="2.663368"><ele></ele><time>2017-9-17T13:50:26Z</time></trkpt>
<trkpt lat="48.450915" lon="2.663433"><ele></ele><time>2017-9-17T13:50:29Z</time></trkpt>
<trkpt lat="48.450898" lon="2.663503"><ele></ele><time>2017-9-17T13:50:32Z</time></trkpt>
<trkpt lat="48.450878" lon="2.663573"><ele></ele><time>2017-9-17T13:50:35Z</time></trkpt>
<trkpt lat="48.450857" lon="2.663652"><ele></ele><time>2017-9-17T13:50:38Z</time></trkpt>
<trkpt lat="48.450837" lon="2.663720"><ele></ele><time>2017-9-17T13:50:41Z</time></trkpt>
<trkpt lat="48.450802" lon="2.663843"><ele></ele><time>2017-9-17T13:50:44Z</time></trkpt>
<trkpt lat="48.450768" lon="2.663963"><ele></ele><time>2017-9-17T13:50:47Z</time></trkpt>
<trkpt lat="48.450740" lon="2.664083"><ele></ele><time>2017-9-17T13:50:50Z</time></trkpt>
<trkpt lat="48.450723" lon="2.664140"><ele></ele><time>2017-9-17T13:50:53Z</time></trkpt>
<trkpt lat="48.450683" lon="2.664272"><ele></ele><time>2017-9-17T13:50:56Z</time></trkpt>
<trkpt lat="48.450635" lon="2.664412"><ele></ele><time>2017-9-17T13:50:59Z</time></trkpt>
<trkpt lat="48.450590" lon="2.664570"><ele></ele><time>2017-9-17T13:51:2Z</time></trkpt>
<trkpt lat="48.450568" lon="2.664648"><ele></ele><time>2017-9-17T13:51:5Z</time></trkpt>
<trkpt lat="48.450548" lon="2.664720"><ele></ele><time>2017-9-17T13:51:8Z</time></trkpt>
<trkpt lat="48.450515" lon="2.664860"><ele></ele><time>2017-9-17T13:51:11Z</time></trkpt>
<trkpt lat="48.450498" lon="2.664930"><ele></ele><time>2017-9-17T13:51:14Z</time></trkpt>
<trkpt lat="48.450487" lon="2.664992"><ele></ele><time>2017-9-17T13:51:17Z</time></trkpt>
<trkpt lat="48.450463" lon="2.665057"><ele></ele><time>2017-9-17T13:51:20Z</time></trkpt>
<trkpt lat="48.450440" lon="2.665125"><ele></ele><time>2017-9-17T13:51:23Z</time></trkpt>
<trkpt lat="48.450407" lon="2.665250"><ele></ele><time>2017-9-17T13:51:26Z</time></trkpt>
<trkpt lat="48.450373" lon="2.665370"><ele></ele><time>2017-9-17T13:51:29Z</time></trkpt>
<trkpt lat="48.450340" lon="2.665490"><ele></ele><time>2017-9-17T13:51:32Z</time></trkpt>
<trkpt lat="48.450307" lon="2.665612"><ele></ele><time>2017-9-17T13:51:35Z</time></trkpt>
<trkpt lat="48.450273" lon="2.665735"><ele></ele><time>2017-9-17T13:51:38Z</time></trkpt>
<trkpt lat="48.450255" lon="2.665798"><ele></ele><time>2017-9-17T13:51:41Z</time></trkpt>
<trkpt lat="48.450240" lon="2.665863"><ele></ele><time>2017-9-17T13:51:44Z</time></trkpt>
<trkpt lat="48.450198" lon="2.665983"><ele></ele><time>2017-9-17T13:51:47Z</time></trkpt>
<trkpt lat="48.450170" lon="2.666100"><ele></ele><time>2017-9-17T13:51:50Z</time></trkpt>
<trkpt lat="48.450140" lon="2.666205"><ele></ele><time>2017-9-17T13:51:53Z</time></trkpt>
<trkpt lat="48.450122" lon="2.666262"><ele></ele><time>2017-9-17T13:51:56Z</time></trkpt>
<trkpt lat="48.450132" lon="2.666410"><ele></ele><time>2017-9-17T13:51:59Z</time></trkpt>
<trkpt lat="48.450198" lon="2.666482"><ele></ele><time>2017-9-17T13:52:2Z</time></trkpt>
<trkpt lat="48.450273" lon="2.666555"><ele></ele><time>2017-9-17T13:52:5Z</time></trkpt>
<trkpt lat="48.450318" lon="2.666593"><ele></ele><time>2017-9-17T13:52:8Z</time></trkpt>
<trkpt lat="48.450387" lon="2.666663"><ele></ele><time>2017-9-17T13:52:11Z</time></trkpt>
<trkpt lat="48.450450" lon="2.666738"><ele></ele><time>2017-9-17T13:52:14Z</time></trkpt>
<trkpt lat="48.450508" lon="2.666810"><ele></ele><time>2017-9-17T13:52:17Z</time></trkpt>
<trkpt lat="48.450552" lon="2.666850"><ele></ele><time>2017-9-17T13:52:20Z</time></trkpt>
<trkpt lat="48.450595" lon="2.666890"><ele></ele><time>2017-9-17T13:52:23Z</time></trkpt>
<trkpt lat="48.450635" lon="2.666928"><ele></ele><time>2017-9-17T13:52:26Z</time></trkpt>
<trkpt lat="48.450673" lon="2.666967"><ele></ele><time>2017-9-17T13:52:29Z</time></trkpt>
<trkpt lat="48.450742" lon="2.667047"><ele></ele><time>2017-9-17T13:52:32Z</time></trkpt>
<trkpt lat="48.450780" lon="2.667087"><ele></ele><time>2017-9-17T13:52:35Z</time></trkpt>
<trkpt lat="48.450820" lon="2.667128"><ele></ele><time>2017-9-17T13:52:38Z</time></trkpt>
<trkpt lat="48.450863" lon="2.667170"><ele></ele><time>2017-9-17T13:52:41Z</time></trkpt>
<trkpt lat="48.450913" lon="2.667215"><ele></ele><time>2017-9-17T13:52:44Z</time></trkpt>
<trkpt lat="48.450965" lon="2.667258"><ele></ele><time>2017-9-17T13:52:47Z</time></trkpt>
<trkpt lat="48.451005" lon="2.667302"><ele></ele><time>2017-9-17T13:52:50Z</time></trkpt>
<trkpt lat="48.451052" lon="2.667343"><ele></ele><time>2017-9-17T13:52:53Z</time></trkpt>
<trkpt lat="48.451092" lon="2.667385"><ele></ele><time>2017-9-17T13:52:56Z</time></trkpt>
<trkpt lat="48.451138" lon="2.667427"><ele></ele><time>2017-9-17T13:52:59Z</time></trkpt>
<trkpt lat="48.451183" lon="2.667468"><ele></ele><time>2017-9-17T13:53:2Z</time></trkpt>
<trkpt lat="48.451248" lon="2.667547"><ele></ele><time>2017-9-17T13:53:5Z</time></trkpt>
<trkpt lat="48.451315" lon="2.667625"><ele></ele><time>2017-9-17T13:53:8Z</time></trkpt>
<trkpt lat="48.451385" lon="2.667703"><ele></ele><time>2017-9-17T13:53:11Z</time></trkpt>
<trkpt lat="48.451452" lon="2.667777"><ele></ele><time>2017-9-17T13:53:14Z</time></trkpt>
<trkpt lat="48.451543" lon="2.667848"><ele></ele><time>2017-9-17T13:53:17Z</time></trkpt>
<trkpt lat="48.451612" lon="2.667918"><ele></ele><time>2017-9-17T13:53:20Z</time></trkpt>
<trkpt lat="48.451685" lon="2.667990"><ele></ele><time>2017-9-17T13:53:23Z</time></trkpt>
<trkpt lat="48.451748" lon="2.668057"><ele></ele><time>2017-9-17T13:53:26Z</time></trkpt>
<trkpt lat="48.451822" lon="2.668115"><ele></ele><time>2017-9-17T13:53:29Z</time></trkpt>
<trkpt lat="48.451875" lon="2.668175"><ele></ele><time>2017-9-17T13:53:32Z</time></trkpt>
<trkpt lat="48.451945" lon="2.668237"><ele></ele><time>2017-9-17T13:53:35Z</time></trkpt>
<trkpt lat="48.452007" lon="2.668308"><ele></ele><time>2017-9-17T13:53:38Z</time></trkpt>
<trkpt lat="48.452072" lon="2.668385"><ele></ele><time>2017-9-17T13:53:41Z</time></trkpt>
<trkpt lat="48.452113" lon="2.668425"><ele></ele><time>2017-9-17T13:53:44Z</time></trkpt>
<trkpt lat="48.452185" lon="2.668503"><ele></ele><time>2017-9-17T13:53:47Z</time></trkpt>
<trkpt lat="48.452225" lon="2.668542"><ele></ele><time>2017-9-17T13:53:50Z</time></trkpt>
<trkpt lat="48.452265" lon="2.668578"><ele></ele><time>2017-9-17T13:53:53Z</time></trkpt>
<trkpt lat="48.452303" lon="2.668617"><ele></ele><time>2017-9-17T13:53:56Z</time></trkpt>
<trkpt lat="48.452342" lon="2.668658"><ele></ele><time>2017-9-17T13:53:59Z</time></trkpt>
<trkpt lat="48.452385" lon="2.668703"><ele></ele><time>2017-9-17T13:54:2Z</time></trkpt>
<trkpt lat="48.452495" lon="2.668752"><ele></ele><time>2017-9-17T13:54:5Z</time></trkpt>
<trkpt lat="48.452545" lon="2.668797"><ele></ele><time>2017-9-17T13:54:8Z</time></trkpt>
<trkpt lat="48.452593" lon="2.668840"><ele></ele><time>2017-9-17T13:54:11Z</time></trkpt>
<trkpt lat="48.452640" lon="2.668877"><ele></ele><time>2017-9-17T13:54:14Z</time></trkpt>
<trkpt lat="48.452688" lon="2.668910"><ele></ele><time>2017-9-17T13:54:17Z</time></trkpt>
<trkpt lat="48.452767" lon="2.668947"><ele></ele><time>2017-9-17T13:54:20Z</time></trkpt>
<trkpt lat="48.452833" lon="2.668900"><ele></ele><time>2017-9-17T13:54:23Z</time></trkpt>
<trkpt lat="48.452837" lon="2.668768"><ele></ele><time>2017-9-17T13:54:26Z</time></trkpt>
<trkpt lat="48.452852" lon="2.668673"><ele></ele><time>2017-9-17T13:54:29Z</time></trkpt>
<trkpt lat="48.452880" lon="2.668575"><ele></ele><time>2017-9-17T13:54:32Z</time></trkpt>
<trkpt lat="48.452917" lon="2.668468"><ele></ele><time>2017-9-17T13:54:35Z</time></trkpt>
<trkpt lat="48.452965" lon="2.668360"><ele></ele><time>2017-9-17T13:54:38Z</time></trkpt>
<trkpt lat="48.452992" lon="2.668303"><ele></ele><time>2017-9-17T13:54:41Z</time></trkpt>
<trkpt lat="48.453023" lon="2.668252"><ele></ele><time>2017-9-17T13:54:44Z</time></trkpt>
<trkpt lat="48.453058" lon="2.668197"><ele></ele><time>2017-9-17T13:54:47Z</time></trkpt>
<trkpt lat="48.453095" lon="2.668143"><ele></ele><time>2017-9-17T13:54:50Z</time></trkpt>
<trkpt lat="48.453138" lon="2.668093"><ele></ele><time>2017-9-17T13:54:53Z</time></trkpt>
<trkpt lat="48.453182" lon="2.668042"><ele></ele><time>2017-9-17T13:54:56Z</time></trkpt>
<trkpt lat="48.453228" lon="2.667992"><ele></ele><time>2017-9-17T13:54:59Z</time></trkpt>
<trkpt lat="48.453277" lon="2.667943"><ele></ele><time>2017-9-17T13:55:2Z</time></trkpt>
<trkpt lat="48.453322" lon="2.667898"><ele></ele><time>2017-9-17T13:55:5Z</time></trkpt>
<trkpt lat="48.453398" lon="2.667833"><ele></ele><time>2017-9-17T13:55:8Z</time></trkpt>
<trkpt lat="48.453455" lon="2.667792"><ele></ele><time>2017-9-17T13:55:11Z</time></trkpt>
<trkpt lat="48.453520" lon="2.667752"><ele></ele><time>2017-9-17T13:55:14Z</time></trkpt>
<trkpt lat="48.453593" lon="2.667695"><ele></ele><time>2017-9-17T13:55:17Z</time></trkpt>
<trkpt lat="48.453633" lon="2.667670"><ele></ele><time>2017-9-17T13:55:20Z</time></trkpt>
<trkpt lat="48.453678" lon="2.667648"><ele></ele><time>2017-9-17T13:55:23Z</time></trkpt>
<trkpt lat="48.453767" lon="2.667632"><ele></ele><time>2017-9-17T13:55:26Z</time></trkpt>
<trkpt lat="48.453840" lon="2.667652"><ele></ele><time>2017-9-17T13:55:29Z</time></trkpt>
<trkpt lat="48.453910" lon="2.667693"><ele></ele><time>2017-9-17T13:55:32Z</time></trkpt>
<trkpt lat="48.453980" lon="2.667755"><ele></ele><time>2017-9-17T13:55:35Z</time></trkpt>
<trkpt lat="48.454052" lon="2.667822"><ele></ele><time>2017-9-17T13:55:38Z</time></trkpt>
<trkpt lat="48.454115" lon="2.667912"><ele></ele><time>2017-9-17T13:55:41Z</time></trkpt>
<trkpt lat="48.454147" lon="2.667960"><ele></ele><time>2017-9-17T13:55:44Z</time></trkpt>
<trkpt lat="48.454178" lon="2.668008"><ele></ele><time>2017-9-17T13:55:47Z</time></trkpt>
<trkpt lat="48.454210" lon="2.668060"><ele></ele><time>2017-9-17T13:55:50Z</time></trkpt>
<trkpt lat="48.454237" lon="2.668112"><ele></ele><time>2017-9-17T13:55:53Z</time></trkpt>
<trkpt lat="48.454270" lon="2.668162"><ele></ele><time>2017-9-17T13:55:56Z</time></trkpt>
<trkpt lat="48.454312" lon="2.668200"><ele></ele><time>2017-9-17T13:55:59Z</time></trkpt>
<trkpt lat="48.454353" lon="2.668215"><ele></ele><time>2017-9-17T13:56:2Z</time></trkpt>
<trkpt lat="48.454405" lon="2.668212"><ele></ele><time>2017-9-17T13:56:5Z</time></trkpt>
<trkpt lat="48.454493" lon="2.668150"><ele></ele><time>2017-9-17T13:56:8Z</time></trkpt>
<trkpt lat="48.454550" lon="2.668032"><ele></ele><time>2017-9-17T13:56:11Z</time></trkpt>
<trkpt lat="48.454558" lon="2.667895"><ele></ele><time>2017-9-17T13:56:14Z</time></trkpt>
<trkpt lat="48.454533" lon="2.667762"><ele></ele><time>2017-9-17T13:56:17Z</time></trkpt>
<trkpt lat="48.454522" lon="2.667695"><ele></ele><time>2017-9-17T13:56:20Z</time></trkpt>
<trkpt lat="48.454508" lon="2.667627"><ele></ele><time>2017-9-17T13:56:23Z</time></trkpt>
<trkpt lat="48.454493" lon="2.667558"><ele></ele><time>2017-9-17T13:56:26Z</time></trkpt>
<trkpt lat="48.454475" lon="2.667492"><ele></ele><time>2017-9-17T13:56:29Z</time></trkpt>
<trkpt lat="48.454452" lon="2.667430"><ele></ele><time>2017-9-17T13:56:32Z</time></trkpt>
<trkpt lat="48.454398" lon="2.667322"><ele></ele><time>2017-9-17T13:56:35Z</time></trkpt>
<trkpt lat="48.454342" lon="2.667222"><ele></ele><time>2017-9-17T13:56:38Z</time></trkpt>
<trkpt lat="48.454312" lon="2.667168"><ele></ele><time>2017-9-17T13:56:41Z</time></trkpt>
<trkpt lat="48.454255" lon="2.667067"><ele></ele><time>2017-9-17T13:56:44Z</time></trkpt>
<trkpt lat="48.454205" lon="2.666972"><ele></ele><time>2017-9-17T13:56:47Z</time></trkpt>
<trkpt lat="48.454158" lon="2.666885"><ele></ele><time>2017-9-17T13:56:50Z</time></trkpt>
<trkpt lat="48.454113" lon="2.666798"><ele></ele><time>2017-9-17T13:56:53Z</time></trkpt>
<trkpt lat="48.454070" lon="2.666715"><ele></ele><time>2017-9-17T13:56:56Z</time></trkpt>
<trkpt lat="48.454033" lon="2.666632"><ele></ele><time>2017-9-17T13:56:59Z</time></trkpt>
<trkpt lat="48.454002" lon="2.666545"><ele></ele><time>2017-9-17T13:57:2Z</time></trkpt>
<trkpt lat="48.453970" lon="2.666465"><ele></ele><time>2017-9-17T13:57:5Z</time></trkpt>
<trkpt lat="48.453940" lon="2.666377"><ele></ele><time>2017-9-17T13:57:8Z</time></trkpt>
<trkpt lat="48.453917" lon="2.666280"><ele></ele><time>2017-9-17T13:57:11Z</time></trkpt>
<trkpt lat="48.453903" lon="2.666172"><ele></ele><time>2017-9-17T13:57:14Z</time></trkpt>
<trkpt lat="48.453897" lon="2.666057"><ele></ele><time>2017-9-17T13:57:17Z</time></trkpt>
<trkpt lat="48.453898" lon="2.665957"><ele></ele><time>2017-9-17T13:57:20Z</time></trkpt>
<trkpt lat="48.453903" lon="2.665905"><ele></ele><time>2017-9-17T13:57:23Z</time></trkpt>
<trkpt lat="48.453928" lon="2.665800"><ele></ele><time>2017-9-17T13:57:26Z</time></trkpt>
<trkpt lat="48.453968" lon="2.665695"><ele></ele><time>2017-9-17T13:57:29Z</time></trkpt>
<trkpt lat="48.454015" lon="2.665585"><ele></ele><time>2017-9-17T13:57:32Z</time></trkpt>
<trkpt lat="48.454075" lon="2.665480"><ele></ele><time>2017-9-17T13:57:35Z</time></trkpt>
<trkpt lat="48.454122" lon="2.665367"><ele></ele><time>2017-9-17T13:57:38Z</time></trkpt>
<trkpt lat="48.454133" lon="2.665308"><ele></ele><time>2017-9-17T13:57:41Z</time></trkpt>
<trkpt lat="48.454107" lon="2.665143"><ele></ele><time>2017-9-17T13:57:44Z</time></trkpt>
<trkpt lat="48.454060" lon="2.665063"><ele></ele><time>2017-9-17T13:57:47Z</time></trkpt>
<trkpt lat="48.454017" lon="2.664995"><ele></ele><time>2017-9-17T13:57:50Z</time></trkpt>
<trkpt lat="48.453978" lon="2.664925"><ele></ele><time>2017-9-17T13:57:53Z</time></trkpt>
<trkpt lat="48.453937" lon="2.664848"><ele></ele><time>2017-9-17T13:57:56Z</time></trkpt>
<trkpt lat="48.453885" lon="2.664738"><ele></ele><time>2017-9-17T13:57:59Z</time></trkpt>
<trkpt lat="48.453837" lon="2.664633"><ele></ele><time>2017-9-17T13:58:2Z</time></trkpt>
<trkpt lat="48.453802" lon="2.664562"><ele></ele><time>2017-9-17T13:58:5Z</time></trkpt>
<trkpt lat="48.453762" lon="2.664487"><ele></ele><time>2017-9-17T13:58:8Z</time></trkpt>
<trkpt lat="48.453707" lon="2.664380"><ele></ele><time>2017-9-17T13:58:11Z</time></trkpt>
<trkpt lat="48.453655" lon="2.664270"><ele></ele><time>2017-9-17T13:58:14Z</time></trkpt>
<trkpt lat="48.453612" lon="2.664167"><ele></ele><time>2017-9-17T13:58:17Z</time></trkpt>
<trkpt lat="48.453577" lon="2.664063"><ele></ele><time>2017-9-17T13:58:20Z</time></trkpt>
<trkpt lat="48.453560" lon="2.663943"><ele></ele><time>2017-9-17T13:58:23Z</time></trkpt>
<trkpt lat="48.453565" lon="2.663853"><ele></ele><time>2017-9-17T13:58:26Z</time></trkpt>
<trkpt lat="48.453572" lon="2.663755"><ele></ele><time>2017-9-17T13:58:29Z</time></trkpt>
<trkpt lat="48.453582" lon="2.663650"><ele></ele><time>2017-9-17T13:58:32Z</time></trkpt>
<trkpt lat="48.453592" lon="2.663540"><ele></ele><time>2017-9-17T13:58:35Z</time></trkpt>
<trkpt lat="48.453602" lon="2.663427"><ele></ele><time>2017-9-17T13:58:38Z</time></trkpt>
<trkpt lat="48.453608" lon="2.663310"><ele></ele><time>2017-9-17T13:58:41Z</time></trkpt>
<trkpt lat="48.453608" lon="2.663192"><ele></ele><time>2017-9-17T13:58:44Z</time></trkpt>
<trkpt lat="48.453610" lon="2.663070"><ele></ele><time>2017-9-17T13:58:47Z</time></trkpt>
<trkpt lat="48.453615" lon="2.662952"><ele></ele><time>2017-9-17T13:58:50Z</time></trkpt>
<trkpt lat="48.453623" lon="2.662837"><ele></ele><time>2017-9-17T13:58:53Z</time></trkpt>
<trkpt lat="48.453628" lon="2.662722"><ele></ele><time>2017-9-17T13:58:56Z</time></trkpt>
<trkpt lat="48.453628" lon="2.662610"><ele></ele><time>2017-9-17T13:58:59Z</time></trkpt>
<trkpt lat="48.453627" lon="2.662553"><ele></ele><time>2017-9-17T13:59:2Z</time></trkpt>
<trkpt lat="48.453620" lon="2.662365"><ele></ele><time>2017-9-17T13:59:5Z</time></trkpt>
<trkpt lat="48.453702" lon="2.662373"><ele></ele><time>2017-9-17T13:59:8Z</time></trkpt>
<trkpt lat="48.453738" lon="2.662415"><ele></ele><time>2017-9-17T13:59:11Z</time></trkpt>
<trkpt lat="48.453782" lon="2.662463"><ele></ele><time>2017-9-17T13:59:14Z</time></trkpt>
<trkpt lat="48.453827" lon="2.662520"><ele></ele><time>2017-9-17T13:59:17Z</time></trkpt>
<trkpt lat="48.453867" lon="2.662587"><ele></ele><time>2017-9-17T13:59:20Z</time></trkpt>
<trkpt lat="48.453900" lon="2.662667"><ele></ele><time>2017-9-17T13:59:23Z</time></trkpt>
<trkpt lat="48.453933" lon="2.662752"><ele></ele><time>2017-9-17T13:59:26Z</time></trkpt>
<trkpt lat="48.453970" lon="2.662832"><ele></ele><time>2017-9-17T13:59:29Z</time></trkpt>
<trkpt lat="48.454005" lon="2.662915"><ele></ele><time>2017-9-17T13:59:32Z</time></trkpt>
<trkpt lat="48.454030" lon="2.663002"><ele></ele><time>2017-9-17T13:59:35Z</time></trkpt>
<trkpt lat="48.454048" lon="2.663088"><ele></ele><time>2017-9-17T13:59:38Z</time></trkpt>
<trkpt lat="48.454065" lon="2.663177"><ele></ele><time>2017-9-17T13:59:41Z</time></trkpt>
<trkpt lat="48.454102" lon="2.663358"><ele></ele><time>2017-9-17T13:59:44Z</time></trkpt>
<trkpt lat="48.454138" lon="2.663542"><ele></ele><time>2017-9-17T13:59:47Z</time></trkpt>
<trkpt lat="48.454162" lon="2.663640"><ele></ele><time>2017-9-17T13:59:50Z</time></trkpt>
<trkpt lat="48.454187" lon="2.663743"><ele></ele><time>2017-9-17T13:59:53Z</time></trkpt>
<trkpt lat="48.454212" lon="2.663850"><ele></ele><time>2017-9-17T13:59:56Z</time></trkpt>
<trkpt lat="48.454238" lon="2.663955"><ele></ele><time>2017-9-17T13:59:59Z</time></trkpt>
<trkpt lat="48.454272" lon="2.664058"><ele></ele><time>2017-9-17T14:0:2Z</time></trkpt>
<trkpt lat="48.454303" lon="2.664162"><ele></ele><time>2017-9-17T14:0:5Z</time></trkpt>
<trkpt lat="48.454337" lon="2.664263"><ele></ele><time>2017-9-17T14:0:8Z</time></trkpt>
<trkpt lat="48.454373" lon="2.664363"><ele></ele><time>2017-9-17T14:0:11Z</time></trkpt>
<trkpt lat="48.454408" lon="2.664457"><ele></ele><time>2017-9-17T14:0:14Z</time></trkpt>
<trkpt lat="48.454443" lon="2.664547"><ele></ele><time>2017-9-17T14:0:17Z</time></trkpt>
<trkpt lat="48.454477" lon="2.664628"><ele></ele><time>2017-9-17T14:0:20Z</time></trkpt>
<trkpt lat="48.454512" lon="2.664712"><ele></ele><time>2017-9-17T14:0:23Z</time></trkpt>
<trkpt lat="48.454550" lon="2.664783"><ele></ele><time>2017-9-17T14:0:26Z</time></trkpt>
<trkpt lat="48.454590" lon="2.664857"><ele></ele><time>2017-9-17T14:0:29Z</time></trkpt>
<trkpt lat="48.454638" lon="2.664930"><ele></ele><time>2017-9-17T14:0:32Z</time></trkpt>
<trkpt lat="48.454693" lon="2.665008"><ele></ele><time>2017-9-17T14:0:35Z</time></trkpt>
<trkpt lat="48.454740" lon="2.665090"><ele></ele><time>2017-9-17T14:0:38Z</time></trkpt>
<trkpt lat="48.454780" lon="2.665170"><ele></ele><time>2017-9-17T14:0:41Z</time></trkpt>
<trkpt lat="48.454830" lon="2.665260"><ele></ele><time>2017-9-17T14:0:44Z</time></trkpt>
<trkpt lat="48.454875" lon="2.665347"><ele></ele><time>2017-9-17T14:0:47Z</time></trkpt>
<trkpt lat="48.454898" lon="2.665440"><ele></ele><time>2017-9-17T14:0:50Z</time></trkpt>
<trkpt lat="48.454942" lon="2.665550"><ele></ele><time>2017-9-17T14:0:53Z</time></trkpt>
<trkpt lat="48.454963" lon="2.665663"><ele></ele><time>2017-9-17T14:0:56Z</time></trkpt>
<trkpt lat="48.455000" lon="2.665768"><ele></ele><time>2017-9-17T14:0:59Z</time></trkpt>
<trkpt lat="48.455032" lon="2.665887"><ele></ele><time>2017-9-17T14:1:2Z</time></trkpt>
<trkpt lat="48.455045" lon="2.666003"><ele></ele><time>2017-9-17T14:1:5Z</time></trkpt>
<trkpt lat="48.455065" lon="2.666123"><ele></ele><time>2017-9-17T14:1:8Z</time></trkpt>
<trkpt lat="48.455090" lon="2.666237"><ele></ele><time>2017-9-17T14:1:11Z</time></trkpt>
<trkpt lat="48.455127" lon="2.666333"><ele></ele><time>2017-9-17T14:1:14Z</time></trkpt>
<trkpt lat="48.455177" lon="2.666418"><ele></ele><time>2017-9-17T14:1:17Z</time></trkpt>
<trkpt lat="48.455238" lon="2.666490"><ele></ele><time>2017-9-17T14:1:20Z</time></trkpt>
<trkpt lat="48.455310" lon="2.666542"><ele></ele><time>2017-9-17T14:1:23Z</time></trkpt>
<trkpt lat="48.455380" lon="2.666582"><ele></ele><time>2017-9-17T14:1:26Z</time></trkpt>
<trkpt lat="48.455457" lon="2.666618"><ele></ele><time>2017-9-17T14:1:29Z</time></trkpt>
<trkpt lat="48.455532" lon="2.666653"><ele></ele><time>2017-9-17T14:1:32Z</time></trkpt>
<trkpt lat="48.455603" lon="2.666688"><ele></ele><time>2017-9-17T14:1:35Z</time></trkpt>
<trkpt lat="48.455675" lon="2.666735"><ele></ele><time>2017-9-17T14:1:38Z</time></trkpt>
<trkpt lat="48.455735" lon="2.666793"><ele></ele><time>2017-9-17T14:1:41Z</time></trkpt>
<trkpt lat="48.455790" lon="2.666858"><ele></ele><time>2017-9-17T14:1:44Z</time></trkpt>
<trkpt lat="48.455902" lon="2.667005"><ele></ele><time>2017-9-17T14:1:47Z</time></trkpt>
<trkpt lat="48.455997" lon="2.667170"><ele></ele><time>2017-9-17T14:1:50Z</time></trkpt>
<trkpt lat="48.456083" lon="2.667342"><ele></ele><time>2017-9-17T14:1:53Z</time></trkpt>
<trkpt lat="48.456158" lon="2.667522"><ele></ele><time>2017-9-17T14:1:56Z</time></trkpt>
<trkpt lat="48.456198" lon="2.667613"><ele></ele><time>2017-9-17T14:1:59Z</time></trkpt>
<trkpt lat="48.456235" lon="2.667703"><ele></ele><time>2017-9-17T14:2:2Z</time></trkpt>
<trkpt lat="48.456292" lon="2.667868"><ele></ele><time>2017-9-17T14:2:5Z</time></trkpt>
<trkpt lat="48.456322" lon="2.667943"><ele></ele><time>2017-9-17T14:2:8Z</time></trkpt>
<trkpt lat="48.456352" lon="2.668022"><ele></ele><time>2017-9-17T14:2:11Z</time></trkpt>
<trkpt lat="48.456378" lon="2.668103"><ele></ele><time>2017-9-17T14:2:14Z</time></trkpt>
<trkpt lat="48.456408" lon="2.668183"><ele></ele><time>2017-9-17T14:2:17Z</time></trkpt>
<trkpt lat="48.456437" lon="2.668265"><ele></ele><time>2017-9-17T14:2:20Z</time></trkpt>
<trkpt lat="48.456467" lon="2.668350"><ele></ele><time>2017-9-17T14:2:23Z</time></trkpt>
<trkpt lat="48.456502" lon="2.668438"><ele></ele><time>2017-9-17T14:2:26Z</time></trkpt>
<trkpt lat="48.456532" lon="2.668528"><ele></ele><time>2017-9-17T14:2:29Z</time></trkpt>
<trkpt lat="48.456560" lon="2.668622"><ele></ele><time>2017-9-17T14:2:32Z</time></trkpt>
<trkpt lat="48.456585" lon="2.668717"><ele></ele><time>2017-9-17T14:2:35Z</time></trkpt>
<trkpt lat="48.456607" lon="2.668813"><ele></ele><time>2017-9-17T14:2:38Z</time></trkpt>
<trkpt lat="48.456627" lon="2.668913"><ele></ele><time>2017-9-17T14:2:41Z</time></trkpt>
<trkpt lat="48.456648" lon="2.669015"><ele></ele><time>2017-9-17T14:2:44Z</time></trkpt>
<trkpt lat="48.456677" lon="2.669115"><ele></ele><time>2017-9-17T14:2:47Z</time></trkpt>
<trkpt lat="48.456710" lon="2.669210"><ele></ele><time>2017-9-17T14:2:50Z</time></trkpt>
<trkpt lat="48.456747" lon="2.669302"><ele></ele><time>2017-9-17T14:2:53Z</time></trkpt>
<trkpt lat="48.456788" lon="2.669387"><ele></ele><time>2017-9-17T14:2:56Z</time></trkpt>
<trkpt lat="48.456830" lon="2.669467"><ele></ele><time>2017-9-17T14:2:59Z</time></trkpt>
<trkpt lat="48.456873" lon="2.669545"><ele></ele><time>2017-9-17T14:3:2Z</time></trkpt>
<trkpt lat="48.456920" lon="2.669623"><ele></ele><time>2017-9-17T14:3:5Z</time></trkpt>
<trkpt lat="48.456967" lon="2.669695"><ele></ele><time>2017-9-17T14:3:8Z</time></trkpt>
<trkpt lat="48.457013" lon="2.669753"><ele></ele><time>2017-9-17T14:3:11Z</time></trkpt>
<trkpt lat="48.457058" lon="2.669795"><ele></ele><time>2017-9-17T14:3:14Z</time></trkpt>
<trkpt lat="48.457107" lon="2.669815"><ele></ele><time>2017-9-17T14:3:17Z</time></trkpt>
<trkpt lat="48.457165" lon="2.669812"><ele></ele><time>2017-9-17T14:3:20Z</time></trkpt>
<trkpt lat="48.457217" lon="2.669825"><ele></ele><time>2017-9-17T14:3:23Z</time></trkpt>
<trkpt lat="48.457267" lon="2.669847"><ele></ele><time>2017-9-17T14:3:26Z</time></trkpt>
<trkpt lat="48.457330" lon="2.669922"><ele></ele><time>2017-9-17T14:3:29Z</time></trkpt>
<trkpt lat="48.457335" lon="2.670048"><ele></ele><time>2017-9-17T14:3:32Z</time></trkpt>
<trkpt lat="48.457337" lon="2.670155"><ele></ele><time>2017-9-17T14:3:35Z</time></trkpt>
<trkpt lat="48.457378" lon="2.670272"><ele></ele><time>2017-9-17T14:3:38Z</time></trkpt>
<trkpt lat="48.457445" lon="2.670315"><ele></ele><time>2017-9-17T14:3:41Z</time></trkpt>
<trkpt lat="48.457513" lon="2.670357"><ele></ele><time>2017-9-17T14:3:44Z</time></trkpt>
<trkpt lat="48.457625" lon="2.670395"><ele></ele><time>2017-9-17T14:3:47Z</time></trkpt>
<trkpt lat="48.457722" lon="2.670448"><ele></ele><time>2017-9-17T14:3:50Z</time></trkpt>
<trkpt lat="48.457767" lon="2.670482"><ele></ele><time>2017-9-17T14:3:53Z</time></trkpt>
<trkpt lat="48.457815" lon="2.670518"><ele></ele><time>2017-9-17T14:3:56Z</time></trkpt>
<trkpt lat="48.457855" lon="2.670553"><ele></ele><time>2017-9-17T14:3:59Z</time></trkpt>
<trkpt lat="48.457897" lon="2.670588"><ele></ele><time>2017-9-17T14:4:2Z</time></trkpt>
<trkpt lat="48.457953" lon="2.670622"><ele></ele><time>2017-9-17T14:4:5Z</time></trkpt>
<trkpt lat="48.458015" lon="2.670652"><ele></ele><time>2017-9-17T14:4:8Z</time></trkpt>
<trkpt lat="48.458098" lon="2.670698"><ele></ele><time>2017-9-17T14:4:11Z</time></trkpt>
<trkpt lat="48.458138" lon="2.670725"><ele></ele><time>2017-9-17T14:4:14Z</time></trkpt>
<trkpt lat="48.458187" lon="2.670753"><ele></ele><time>2017-9-17T14:4:17Z</time></trkpt>
<trkpt lat="48.458232" lon="2.670783"><ele></ele><time>2017-9-17T14:4:20Z</time></trkpt>
<trkpt lat="48.458275" lon="2.670815"><ele></ele><time>2017-9-17T14:4:23Z</time></trkpt>
<trkpt lat="48.458355" lon="2.670875"><ele></ele><time>2017-9-17T14:4:26Z</time></trkpt>
<trkpt lat="48.458420" lon="2.670928"><ele></ele><time>2017-9-17T14:4:29Z</time></trkpt>
<trkpt lat="48.458465" lon="2.670955"><ele></ele><time>2017-9-17T14:4:32Z</time></trkpt>
<trkpt lat="48.458508" lon="2.670983"><ele></ele><time>2017-9-17T14:4:35Z</time></trkpt>
<trkpt lat="48.458548" lon="2.671015"><ele></ele><time>2017-9-17T14:4:38Z</time></trkpt>
<trkpt lat="48.458590" lon="2.671047"><ele></ele><time>2017-9-17T14:4:41Z</time></trkpt>
<trkpt lat="48.458637" lon="2.671080"><ele></ele><time>2017-9-17T14:4:44Z</time></trkpt>
<trkpt lat="48.458720" lon="2.671155"><ele></ele><time>2017-9-17T14:4:47Z</time></trkpt>
<trkpt lat="48.458758" lon="2.671198"><ele></ele><time>2017-9-17T14:4:50Z</time></trkpt>
<trkpt lat="48.458808" lon="2.671238"><ele></ele><time>2017-9-17T14:4:53Z</time></trkpt>
<trkpt lat="48.458932" lon="2.671302"><ele></ele><time>2017-9-17T14:4:56Z</time></trkpt>
<trkpt lat="48.458985" lon="2.671333"><ele></ele><time>2017-9-17T14:4:59Z</time></trkpt>
<trkpt lat="48.459022" lon="2.671365"><ele></ele><time>2017-9-17T14:5:2Z</time></trkpt>
<trkpt lat="48.459100" lon="2.671428"><ele></ele><time>2017-9-17T14:5:5Z</time></trkpt>
<trkpt lat="48.459165" lon="2.671495"><ele></ele><time>2017-9-17T14:5:8Z</time></trkpt>
<trkpt lat="48.459217" lon="2.671532"><ele></ele><time>2017-9-17T14:5:11Z</time></trkpt>
<trkpt lat="48.459268" lon="2.671567"><ele></ele><time>2017-9-17T14:5:14Z</time></trkpt>
<trkpt lat="48.459323" lon="2.671602"><ele></ele><time>2017-9-17T14:5:17Z</time></trkpt>
<trkpt lat="48.459375" lon="2.671637"><ele></ele><time>2017-9-17T14:5:20Z</time></trkpt>
<trkpt lat="48.459428" lon="2.671672"><ele></ele><time>2017-9-17T14:5:23Z</time></trkpt>
<trkpt lat="48.459473" lon="2.671717"><ele></ele><time>2017-9-17T14:5:26Z</time></trkpt>
<trkpt lat="48.459518" lon="2.671762"><ele></ele><time>2017-9-17T14:5:29Z</time></trkpt>
<trkpt lat="48.459560" lon="2.671798"><ele></ele><time>2017-9-17T14:5:32Z</time></trkpt>
<trkpt lat="48.459613" lon="2.671832"><ele></ele><time>2017-9-17T14:5:35Z</time></trkpt>
<trkpt lat="48.459680" lon="2.671863"><ele></ele><time>2017-9-17T14:5:38Z</time></trkpt>
<trkpt lat="48.459727" lon="2.671892"><ele></ele><time>2017-9-17T14:5:41Z</time></trkpt>
<trkpt lat="48.459805" lon="2.671952"><ele></ele><time>2017-9-17T14:5:44Z</time></trkpt>
<trkpt lat="48.459872" lon="2.672008"><ele></ele><time>2017-9-17T14:5:47Z</time></trkpt>
<trkpt lat="48.459937" lon="2.672047"><ele></ele><time>2017-9-17T14:5:50Z</time></trkpt>
<trkpt lat="48.459998" lon="2.672087"><ele></ele><time>2017-9-17T14:5:53Z</time></trkpt>
<trkpt lat="48.460082" lon="2.672132"><ele></ele><time>2017-9-17T14:5:56Z</time></trkpt>
<trkpt lat="48.460095" lon="2.672137"><ele></ele><time>2017-9-17T14:5:59Z</time></trkpt>
<trkpt lat="48.460203" lon="2.672282"><ele></ele><time>2017-9-17T14:6:2Z</time></trkpt>
<trkpt lat="48.460275" lon="2.672322"><ele></ele><time>2017-9-17T14:6:5Z</time></trkpt>
<trkpt lat="48.460352" lon="2.672373"><ele></ele><time>2017-9-17T14:6:8Z</time></trkpt>
<trkpt lat="48.460412" lon="2.672428"><ele></ele><time>2017-9-17T14:6:11Z</time></trkpt>
<trkpt lat="48.460492" lon="2.672485"><ele></ele><time>2017-9-17T14:6:14Z</time></trkpt>
<trkpt lat="48.460580" lon="2.672545"><ele></ele><time>2017-9-17T14:6:17Z</time></trkpt>
<trkpt lat="48.460628" lon="2.672578"><ele></ele><time>2017-9-17T14:6:20Z</time></trkpt>
<trkpt lat="48.460672" lon="2.672610"><ele></ele><time>2017-9-17T14:6:23Z</time></trkpt>
<trkpt lat="48.460747" lon="2.672675"><ele></ele><time>2017-9-17T14:6:26Z</time></trkpt>
<trkpt lat="48.460788" lon="2.672712"><ele></ele><time>2017-9-17T14:6:29Z</time></trkpt>
<trkpt lat="48.460840" lon="2.672747"><ele></ele><time>2017-9-17T14:6:32Z</time></trkpt>
<trkpt lat="48.460903" lon="2.672785"><ele></ele><time>2017-9-17T14:6:35Z</time></trkpt>
<trkpt lat="48.460960" lon="2.672820"><ele></ele><time>2017-9-17T14:6:38Z</time></trkpt>
<trkpt lat="48.461025" lon="2.672857"><ele></ele><time>2017-9-17T14:6:41Z</time></trkpt>
<trkpt lat="48.461077" lon="2.672893"><ele></ele><time>2017-9-17T14:6:44Z</time></trkpt>
<trkpt lat="48.461135" lon="2.672928"><ele></ele><time>2017-9-17T14:6:47Z</time></trkpt>
<trkpt lat="48.461190" lon="2.672963"><ele></ele><time>2017-9-17T14:6:50Z</time></trkpt>
<trkpt lat="48.461245" lon="2.672998"><ele></ele><time>2017-9-17T14:6:53Z</time></trkpt>
<trkpt lat="48.461288" lon="2.673030"><ele></ele><time>2017-9-17T14:6:56Z</time></trkpt>
<trkpt lat="48.461328" lon="2.673060"><ele></ele><time>2017-9-17T14:6:59Z</time></trkpt>
<trkpt lat="48.461375" lon="2.673090"><ele></ele><time>2017-9-17T14:7:2Z</time></trkpt>
<trkpt lat="48.461417" lon="2.673118"><ele></ele><time>2017-9-17T14:7:5Z</time></trkpt>
<trkpt lat="48.461458" lon="2.673152"><ele></ele><time>2017-9-17T14:7:8Z</time></trkpt>
<trkpt lat="48.461538" lon="2.673212"><ele></ele><time>2017-9-17T14:7:11Z</time></trkpt>
<trkpt lat="48.461572" lon="2.673237"><ele></ele><time>2017-9-17T14:7:14Z</time></trkpt>
<trkpt lat="48.461635" lon="2.673292"><ele></ele><time>2017-9-17T14:7:17Z</time></trkpt>
<trkpt lat="48.461725" lon="2.673350"><ele></ele><time>2017-9-17T14:7:20Z</time></trkpt>
<trkpt lat="48.461812" lon="2.673430"><ele></ele><time>2017-9-17T14:7:23Z</time></trkpt>
<trkpt lat="48.461853" lon="2.673468"><ele></ele><time>2017-9-17T14:7:26Z</time></trkpt>
<trkpt lat="48.461898" lon="2.673502"><ele></ele><time>2017-9-17T14:7:29Z</time></trkpt>
<trkpt lat="48.461942" lon="2.673537"><ele></ele><time>2017-9-17T14:7:32Z</time></trkpt>
<trkpt lat="48.461985" lon="2.673572"><ele></ele><time>2017-9-17T14:7:35Z</time></trkpt>
<trkpt lat="48.462063" lon="2.673637"><ele></ele><time>2017-9-17T14:7:38Z</time></trkpt>
<trkpt lat="48.462112" lon="2.673670"><ele></ele><time>2017-9-17T14:7:41Z</time></trkpt>
<trkpt lat="48.462158" lon="2.673705"><ele></ele><time>2017-9-17T14:7:44Z</time></trkpt>
<trkpt lat="48.462202" lon="2.673740"><ele></ele><time>2017-9-17T14:7:47Z</time></trkpt>
<trkpt lat="48.462258" lon="2.673777"><ele></ele><time>2017-9-17T14:7:50Z</time></trkpt>
<trkpt lat="48.462312" lon="2.673813"><ele></ele><time>2017-9-17T14:7:53Z</time></trkpt>
<trkpt lat="48.462362" lon="2.673852"><ele></ele><time>2017-9-17T14:7:56Z</time></trkpt>
<trkpt lat="48.462398" lon="2.673883"><ele></ele><time>2017-9-17T14:7:59Z</time></trkpt>
<trkpt lat="48.462453" lon="2.673918"><ele></ele><time>2017-9-17T14:8:2Z</time></trkpt>
<trkpt lat="48.462502" lon="2.673952"><ele></ele><time>2017-9-17T14:8:5Z</time></trkpt>
<trkpt lat="48.462550" lon="2.673985"><ele></ele><time>2017-9-17T14:8:8Z</time></trkpt>
<trkpt lat="48.462592" lon="2.674018"><ele></ele><time>2017-9-17T14:8:11Z</time></trkpt>
<trkpt lat="48.462632" lon="2.674050"><ele></ele><time>2017-9-17T14:8:14Z</time></trkpt>
<trkpt lat="48.462675" lon="2.674083"><ele></ele><time>2017-9-17T14:8:17Z</time></trkpt>
<trkpt lat="48.462760" lon="2.674148"><ele></ele><time>2017-9-17T14:8:20Z</time></trkpt>
<trkpt lat="48.462808" lon="2.674178"><ele></ele><time>2017-9-17T14:8:23Z</time></trkpt>
<trkpt lat="48.462853" lon="2.674207"><ele></ele><time>2017-9-17T14:8:26Z</time></trkpt>
<trkpt lat="48.462900" lon="2.674235"><ele></ele><time>2017-9-17T14:8:29Z</time></trkpt>
<trkpt lat="48.462942" lon="2.674265"><ele></ele><time>2017-9-17T14:8:32Z</time></trkpt>
<trkpt lat="48.462982" lon="2.674297"><ele></ele><time>2017-9-17T14:8:35Z</time></trkpt>
<trkpt lat="48.463028" lon="2.674328"><ele></ele><time>2017-9-17T14:8:38Z</time></trkpt>
<trkpt lat="48.463070" lon="2.674362"><ele></ele><time>2017-9-17T14:8:41Z</time></trkpt>
<trkpt lat="48.463120" lon="2.674395"><ele></ele><time>2017-9-17T14:8:44Z</time></trkpt>
<trkpt lat="48.463170" lon="2.674430"><ele></ele><time>2017-9-17T14:8:47Z</time></trkpt>
<trkpt lat="48.463217" lon="2.674465"><ele></ele><time>2017-9-17T14:8:50Z</time></trkpt>
<trkpt lat="48.463257" lon="2.674500"><ele></ele><time>2017-9-17T14:8:53Z</time></trkpt>
<trkpt lat="48.463302" lon="2.674537"><ele></ele><time>2017-9-17T14:8:56Z</time></trkpt>
<trkpt lat="48.463342" lon="2.674570"><ele></ele><time>2017-9-17T14:8:59Z</time></trkpt>
<trkpt lat="48.463383" lon="2.674603"><ele></ele><time>2017-9-17T14:9:2Z</time></trkpt>
<trkpt lat="48.463430" lon="2.674635"><ele></ele><time>2017-9-17T14:9:5Z</time></trkpt>
<trkpt lat="48.463487" lon="2.674667"><ele></ele><time>2017-9-17T14:9:8Z</time></trkpt>
<trkpt lat="48.463533" lon="2.674697"><ele></ele><time>2017-9-17T14:9:11Z</time></trkpt>
<trkpt lat="48.463578" lon="2.674725"><ele></ele><time>2017-9-17T14:9:14Z</time></trkpt>
<trkpt lat="48.463652" lon="2.674783"><ele></ele><time>2017-9-17T14:9:17Z</time></trkpt>
<trkpt lat="48.463685" lon="2.674812"><ele></ele><time>2017-9-17T14:9:20Z</time></trkpt>
<trkpt lat="48.463773" lon="2.674872"><ele></ele><time>2017-9-17T14:9:23Z</time></trkpt>
<trkpt lat="48.463817" lon="2.674905"><ele></ele><time>2017-9-17T14:9:26Z</time></trkpt>
<trkpt lat="48.463860" lon="2.674935"><ele></ele><time>2017-9-17T14:9:29Z</time></trkpt>
<trkpt lat="48.463907" lon="2.674962"><ele></ele><time>2017-9-17T14:9:32Z</time></trkpt>
<trkpt lat="48.463955" lon="2.674988"><ele></ele><time>2017-9-17T14:9:35Z</time></trkpt>
<trkpt lat="48.463997" lon="2.675013"><ele></ele><time>2017-9-17T14:9:38Z</time></trkpt>
<trkpt lat="48.464038" lon="2.675042"><ele></ele><time>2017-9-17T14:9:41Z</time></trkpt>
<trkpt lat="48.464080" lon="2.675068"><ele></ele><time>2017-9-17T14:9:44Z</time></trkpt>
<trkpt lat="48.464135" lon="2.675097"><ele></ele><time>2017-9-17T14:9:47Z</time></trkpt>
<trkpt lat="48.464183" lon="2.675125"><ele></ele><time>2017-9-17T14:9:50Z</time></trkpt>
<trkpt lat="48.464265" lon="2.675173"><ele></ele><time>2017-9-17T14:9:53Z</time></trkpt>
<trkpt lat="48.464337" lon="2.675217"><ele></ele><time>2017-9-17T14:9:56Z</time></trkpt>
<trkpt lat="48.464367" lon="2.675243"><ele></ele><time>2017-9-17T14:9:59Z</time></trkpt>
<trkpt lat="48.464422" lon="2.675400"><ele></ele><time>2017-9-17T14:10:2Z</time></trkpt>
<trkpt lat="48.464443" lon="2.675503"><ele></ele><time>2017-9-17T14:10:5Z</time></trkpt>
<trkpt lat="48.464460" lon="2.675563"><ele></ele><time>2017-9-17T14:10:8Z</time></trkpt>
<trkpt lat="48.464503" lon="2.675687"><ele></ele><time>2017-9-17T14:10:11Z</time></trkpt>
<trkpt lat="48.464545" lon="2.675815"><ele></ele><time>2017-9-17T14:10:14Z</time></trkpt>
<trkpt lat="48.464593" lon="2.675948"><ele></ele><time>2017-9-17T14:10:17Z</time></trkpt>
<trkpt lat="48.464643" lon="2.676083"><ele></ele><time>2017-9-17T14:10:20Z</time></trkpt>
<trkpt lat="48.464697" lon="2.676217"><ele></ele><time>2017-9-17T14:10:23Z</time></trkpt>
<trkpt lat="48.464755" lon="2.676355"><ele></ele><time>2017-9-17T14:10:26Z</time></trkpt>
<trkpt lat="48.464810" lon="2.676498"><ele></ele><time>2017-9-17T14:10:29Z</time></trkpt>
<trkpt lat="48.464838" lon="2.676570"><ele></ele><time>2017-9-17T14:10:32Z</time></trkpt>
<trkpt lat="48.464868" lon="2.676642"><ele></ele><time>2017-9-17T14:10:35Z</time></trkpt>
<trkpt lat="48.464900" lon="2.676715"><ele></ele><time>2017-9-17T14:10:38Z</time></trkpt>
<trkpt lat="48.464930" lon="2.676788"><ele></ele><time>2017-9-17T14:10:41Z</time></trkpt>
<trkpt lat="48.464958" lon="2.676862"><ele></ele><time>2017-9-17T14:10:44Z</time></trkpt>
<trkpt lat="48.464988" lon="2.676937"><ele></ele><time>2017-9-17T14:10:47Z</time></trkpt>
<trkpt lat="48.465020" lon="2.677010"><ele></ele><time>2017-9-17T14:10:50Z</time></trkpt>
<trkpt lat="48.465048" lon="2.677083"><ele></ele><time>2017-9-17T14:10:53Z</time></trkpt>
<trkpt lat="48.465080" lon="2.677157"><ele></ele><time>2017-9-17T14:10:56Z</time></trkpt>
<trkpt lat="48.465113" lon="2.677230"><ele></ele><time>2017-9-17T14:10:59Z</time></trkpt>
<trkpt lat="48.465143" lon="2.677305"><ele></ele><time>2017-9-17T14:11:2Z</time></trkpt>
<trkpt lat="48.465173" lon="2.677378"><ele></ele><time>2017-9-17T14:11:5Z</time></trkpt>
<trkpt lat="48.465202" lon="2.677452"><ele></ele><time>2017-9-17T14:11:8Z</time></trkpt>
<trkpt lat="48.465233" lon="2.677523"><ele></ele><time>2017-9-17T14:11:11Z</time></trkpt>
<trkpt lat="48.465265" lon="2.677593"><ele></ele><time>2017-9-17T14:11:14Z</time></trkpt>
<trkpt lat="48.465293" lon="2.677665"><ele></ele><time>2017-9-17T14:11:17Z</time></trkpt>
<trkpt lat="48.465323" lon="2.677735"><ele></ele><time>2017-9-17T14:11:20Z</time></trkpt>
<trkpt lat="48.465353" lon="2.677808"><ele></ele><time>2017-9-17T14:11:23Z</time></trkpt>
<trkpt lat="48.465388" lon="2.677882"><ele></ele><time>2017-9-17T14:11:26Z</time></trkpt>
<trkpt lat="48.465423" lon="2.677955"><ele></ele><time>2017-9-17T14:11:29Z</time></trkpt>
<trkpt lat="48.465452" lon="2.678027"><ele></ele><time>2017-9-17T14:11:32Z</time></trkpt>
<trkpt lat="48.465480" lon="2.678097"><ele></ele><time>2017-9-17T14:11:35Z</time></trkpt>
<trkpt lat="48.465512" lon="2.678170"><ele></ele><time>2017-9-17T14:11:38Z</time></trkpt>
<trkpt lat="48.465538" lon="2.678242"><ele></ele><time>2017-9-17T14:11:41Z</time></trkpt>
<trkpt lat="48.465570" lon="2.678313"><ele></ele><time>2017-9-17T14:11:44Z</time></trkpt>
<trkpt lat="48.465602" lon="2.678385"><ele></ele><time>2017-9-17T14:11:47Z</time></trkpt>
<trkpt lat="48.465632" lon="2.678457"><ele></ele><time>2017-9-17T14:11:50Z</time></trkpt>
<trkpt lat="48.465660" lon="2.678528"><ele></ele><time>2017-9-17T14:11:53Z</time></trkpt>
<trkpt lat="48.465688" lon="2.678602"><ele></ele><time>2017-9-17T14:11:56Z</time></trkpt>
<trkpt lat="48.465718" lon="2.678673"><ele></ele><time>2017-9-17T14:11:59Z</time></trkpt>
<trkpt lat="48.465747" lon="2.678745"><ele></ele><time>2017-9-17T14:12:2Z</time></trkpt>
<trkpt lat="48.465777" lon="2.678817"><ele></ele><time>2017-9-17T14:12:5Z</time></trkpt>
<trkpt lat="48.465808" lon="2.678890"><ele></ele><time>2017-9-17T14:12:8Z</time></trkpt>
<trkpt lat="48.465838" lon="2.678960"><ele></ele><time>2017-9-17T14:12:11Z</time></trkpt>
<trkpt lat="48.465870" lon="2.679030"><ele></ele><time>2017-9-17T14:12:14Z</time></trkpt>
<trkpt lat="48.465905" lon="2.679097"><ele></ele><time>2017-9-17T14:12:17Z</time></trkpt>
<trkpt lat="48.465935" lon="2.679163"><ele></ele><time>2017-9-17T14:12:20Z</time></trkpt>
<trkpt lat="48.465965" lon="2.679230"><ele></ele><time>2017-9-17T14:12:23Z</time></trkpt>
<trkpt lat="48.465993" lon="2.679302"><ele></ele><time>2017-9-17T14:12:26Z</time></trkpt>
<trkpt lat="48.466022" lon="2.679373"><ele></ele><time>2017-9-17T14:12:29Z</time></trkpt>
<trkpt lat="48.466050" lon="2.679443"><ele></ele><time>2017-9-17T14:12:32Z</time></trkpt>
<trkpt lat="48.466082" lon="2.679513"><ele></ele><time>2017-9-17T14:12:35Z</time></trkpt>
<trkpt lat="48.466120" lon="2.679585"><ele></ele><time>2017-9-17T14:12:38Z</time></trkpt>
<trkpt lat="48.466150" lon="2.679657"><ele></ele><time>2017-9-17T14:12:41Z</time></trkpt>
<trkpt lat="48.466180" lon="2.679728"><ele></ele><time>2017-9-17T14:12:44Z</time></trkpt>
<trkpt lat="48.466210" lon="2.679797"><ele></ele><time>2017-9-17T14:12:47Z</time></trkpt>
<trkpt lat="48.466258" lon="2.679862"><ele></ele><time>2017-9-17T14:12:50Z</time></trkpt>
<trkpt lat="48.466295" lon="2.679925"><ele></ele><time>2017-9-17T14:12:53Z</time></trkpt>
<trkpt lat="48.466333" lon="2.679988"><ele></ele><time>2017-9-17T14:12:56Z</time></trkpt>
<trkpt lat="48.466362" lon="2.680057"><ele></ele><time>2017-9-17T14:12:59Z</time></trkpt>
<trkpt lat="48.466392" lon="2.680125"><ele></ele><time>2017-9-17T14:13:2Z</time></trkpt>
<trkpt lat="48.466423" lon="2.680193"><ele></ele><time>2017-9-17T14:13:5Z</time></trkpt>
<trkpt lat="48.466460" lon="2.680257"><ele></ele><time>2017-9-17T14:13:8Z</time></trkpt>
<trkpt lat="48.466525" lon="2.680392"><ele></ele><time>2017-9-17T14:13:11Z</time></trkpt>
<trkpt lat="48.466578" lon="2.680523"><ele></ele><time>2017-9-17T14:13:14Z</time></trkpt>
<trkpt lat="48.466625" lon="2.680643"><ele></ele><time>2017-9-17T14:13:17Z</time></trkpt>
<trkpt lat="48.466685" lon="2.680735"><ele></ele><time>2017-9-17T14:13:20Z</time></trkpt>
<trkpt lat="48.466713" lon="2.680792"><ele></ele><time>2017-9-17T14:13:23Z</time></trkpt>
<trkpt lat="48.466733" lon="2.680922"><ele></ele><time>2017-9-17T14:13:26Z</time></trkpt>
<trkpt lat="48.466777" lon="2.681008"><ele></ele><time>2017-9-17T14:13:29Z</time></trkpt>
<trkpt lat="48.466827" lon="2.681057"><ele></ele><time>2017-9-17T14:13:32Z</time></trkpt>
<trkpt lat="48.466883" lon="2.681110"><ele></ele><time>2017-9-17T14:13:35Z</time></trkpt>
<trkpt lat="48.466943" lon="2.681198"><ele></ele><time>2017-9-17T14:13:38Z</time></trkpt>
<trkpt lat="48.467002" lon="2.681288"><ele></ele><time>2017-9-17T14:13:41Z</time></trkpt>
<trkpt lat="48.467042" lon="2.681380"><ele></ele><time>2017-9-17T14:13:44Z</time></trkpt>
<trkpt lat="48.467078" lon="2.681475"><ele></ele><time>2017-9-17T14:13:47Z</time></trkpt>
<trkpt lat="48.467128" lon="2.681585"><ele></ele><time>2017-9-17T14:13:50Z</time></trkpt>
<trkpt lat="48.467178" lon="2.681687"><ele></ele><time>2017-9-17T14:13:53Z</time></trkpt>
<trkpt lat="48.467233" lon="2.681792"><ele></ele><time>2017-9-17T14:13:56Z</time></trkpt>
<trkpt lat="48.467260" lon="2.681845"><ele></ele><time>2017-9-17T14:13:59Z</time></trkpt>
<trkpt lat="48.467293" lon="2.681900"><ele></ele><time>2017-9-17T14:14:2Z</time></trkpt>
<trkpt lat="48.467352" lon="2.682005"><ele></ele><time>2017-9-17T14:14:5Z</time></trkpt>
<trkpt lat="48.467432" lon="2.682103"><ele></ele><time>2017-9-17T14:14:8Z</time></trkpt>
<trkpt lat="48.467467" lon="2.682153"><ele></ele><time>2017-9-17T14:14:11Z</time></trkpt>
<trkpt lat="48.467503" lon="2.682205"><ele></ele><time>2017-9-17T14:14:14Z</time></trkpt>
<trkpt lat="48.467558" lon="2.682303"><ele></ele><time>2017-9-17T14:14:17Z</time></trkpt>
<trkpt lat="48.467612" lon="2.682407"><ele></ele><time>2017-9-17T14:14:20Z</time></trkpt>
<trkpt lat="48.467668" lon="2.682508"><ele></ele><time>2017-9-17T14:14:23Z</time></trkpt>
<trkpt lat="48.467720" lon="2.682608"><ele></ele><time>2017-9-17T14:14:26Z</time></trkpt>
<trkpt lat="48.467762" lon="2.682703"><ele></ele><time>2017-9-17T14:14:29Z</time></trkpt>
<trkpt lat="48.467795" lon="2.682810"><ele></ele><time>2017-9-17T14:14:32Z</time></trkpt>
<trkpt lat="48.467780" lon="2.682927"><ele></ele><time>2017-9-17T14:14:35Z</time></trkpt>
<trkpt lat="48.467738" lon="2.683022"><ele></ele><time>2017-9-17T14:14:38Z</time></trkpt>
<trkpt lat="48.467668" lon="2.683095"><ele></ele><time>2017-9-17T14:14:41Z</time></trkpt>
<trkpt lat="48.467593" lon="2.683135"><ele></ele><time>2017-9-17T14:14:44Z</time></trkpt>
<trkpt lat="48.467515" lon="2.683180"><ele></ele><time>2017-9-17T14:14:47Z</time></trkpt>
<trkpt lat="48.467435" lon="2.683228"><ele></ele><time>2017-9-17T14:14:50Z</time></trkpt>
<trkpt lat="48.467392" lon="2.683260"><ele></ele><time>2017-9-17T14:14:53Z</time></trkpt>
<trkpt lat="48.467308" lon="2.683323"><ele></ele><time>2017-9-17T14:14:56Z</time></trkpt>
<trkpt lat="48.467210" lon="2.683398"><ele></ele><time>2017-9-17T14:14:59Z</time></trkpt>
<trkpt lat="48.467152" lon="2.683452"><ele></ele><time>2017-9-17T14:15:2Z</time></trkpt>
<trkpt lat="48.467100" lon="2.683493"><ele></ele><time>2017-9-17T14:15:5Z</time></trkpt>
<trkpt lat="48.467048" lon="2.683537"><ele></ele><time>2017-9-17T14:15:8Z</time></trkpt>
<trkpt lat="48.466990" lon="2.683588"><ele></ele><time>2017-9-17T14:15:11Z</time></trkpt>
<trkpt lat="48.466933" lon="2.683645"><ele></ele><time>2017-9-17T14:15:14Z</time></trkpt>
<trkpt lat="48.466882" lon="2.683688"><ele></ele><time>2017-9-17T14:15:17Z</time></trkpt>
<trkpt lat="48.466833" lon="2.683730"><ele></ele><time>2017-9-17T14:15:20Z</time></trkpt>
<trkpt lat="48.466780" lon="2.683773"><ele></ele><time>2017-9-17T14:15:23Z</time></trkpt>
<trkpt lat="48.466720" lon="2.683825"><ele></ele><time>2017-9-17T14:15:26Z</time></trkpt>
<trkpt lat="48.466660" lon="2.683873"><ele></ele><time>2017-9-17T14:15:29Z</time></trkpt>
<trkpt lat="48.466607" lon="2.683923"><ele></ele><time>2017-9-17T14:15:32Z</time></trkpt>
<trkpt lat="48.466528" lon="2.683973"><ele></ele><time>2017-9-17T14:15:35Z</time></trkpt>
<trkpt lat="48.466478" lon="2.684010"><ele></ele><time>2017-9-17T14:15:38Z</time></trkpt>
<trkpt lat="48.466432" lon="2.684052"><ele></ele><time>2017-9-17T14:15:41Z</time></trkpt>
<trkpt lat="48.466352" lon="2.684108"><ele></ele><time>2017-9-17T14:15:44Z</time></trkpt>
<trkpt lat="48.466307" lon="2.684143"><ele></ele><time>2017-9-17T14:15:47Z</time></trkpt>
<trkpt lat="48.466263" lon="2.684178"><ele></ele><time>2017-9-17T14:15:50Z</time></trkpt>
<trkpt lat="48.466222" lon="2.684215"><ele></ele><time>2017-9-17T14:15:53Z</time></trkpt>
<trkpt lat="48.466175" lon="2.684252"><ele></ele><time>2017-9-17T14:15:56Z</time></trkpt>
<trkpt lat="48.466128" lon="2.684288"><ele></ele><time>2017-9-17T14:15:59Z</time></trkpt>
<trkpt lat="48.466083" lon="2.684322"><ele></ele><time>2017-9-17T14:16:2Z</time></trkpt>
<trkpt lat="48.465995" lon="2.684392"><ele></ele><time>2017-9-17T14:16:5Z</time></trkpt>
<trkpt lat="48.465940" lon="2.684443"><ele></ele><time>2017-9-17T14:16:8Z</time></trkpt>
<trkpt lat="48.465888" lon="2.684493"><ele></ele><time>2017-9-17T14:16:11Z</time></trkpt>
<trkpt lat="48.465843" lon="2.684527"><ele></ele><time>2017-9-17T14:16:14Z</time></trkpt>
<trkpt lat="48.465793" lon="2.684572"><ele></ele><time>2017-9-17T14:16:17Z</time></trkpt>
<trkpt lat="48.465715" lon="2.684628"><ele></ele><time>2017-9-17T14:16:20Z</time></trkpt>
<trkpt lat="48.465668" lon="2.684657"><ele></ele><time>2017-9-17T14:16:23Z</time></trkpt>
<trkpt lat="48.465587" lon="2.684697"><ele></ele><time>2017-9-17T14:16:26Z</time></trkpt>
<trkpt lat="48.465542" lon="2.684733"><ele></ele><time>2017-9-17T14:16:29Z</time></trkpt>
<trkpt lat="48.465498" lon="2.684767"><ele></ele><time>2017-9-17T14:16:32Z</time></trkpt>
<trkpt lat="48.465452" lon="2.684800"><ele></ele><time>2017-9-17T14:16:35Z</time></trkpt>
<trkpt lat="48.465403" lon="2.684830"><ele></ele><time>2017-9-17T14:16:38Z</time></trkpt>
<trkpt lat="48.465355" lon="2.684863"><ele></ele><time>2017-9-17T14:16:41Z</time></trkpt>
<trkpt lat="48.465308" lon="2.684897"><ele></ele><time>2017-9-17T14:16:44Z</time></trkpt>
<trkpt lat="48.465252" lon="2.684953"><ele></ele><time>2017-9-17T14:16:47Z</time></trkpt>
<trkpt lat="48.465198" lon="2.685002"><ele></ele><time>2017-9-17T14:16:50Z</time></trkpt>
<trkpt lat="48.465118" lon="2.685055"><ele></ele><time>2017-9-17T14:16:53Z</time></trkpt>
<trkpt lat="48.465075" lon="2.685087"><ele></ele><time>2017-9-17T14:16:56Z</time></trkpt>
<trkpt lat="48.465030" lon="2.685110"><ele></ele><time>2017-9-17T14:16:59Z</time></trkpt>
<trkpt lat="48.464930" lon="2.685175"><ele></ele><time>2017-9-17T14:17:2Z</time></trkpt>
<trkpt lat="48.464873" lon="2.685220"><ele></ele><time>2017-9-17T14:17:5Z</time></trkpt>
<trkpt lat="48.464822" lon="2.685262"><ele></ele><time>2017-9-17T14:17:8Z</time></trkpt>
<trkpt lat="48.464767" lon="2.685318"><ele></ele><time>2017-9-17T14:17:11Z</time></trkpt>
<trkpt lat="48.464710" lon="2.685373"><ele></ele><time>2017-9-17T14:17:14Z</time></trkpt>
<trkpt lat="48.464658" lon="2.685418"><ele></ele><time>2017-9-17T14:17:17Z</time></trkpt>
<trkpt lat="48.464613" lon="2.685455"><ele></ele><time>2017-9-17T14:17:20Z</time></trkpt>
<trkpt lat="48.464563" lon="2.685508"><ele></ele><time>2017-9-17T14:17:23Z</time></trkpt>
<trkpt lat="48.464512" lon="2.685557"><ele></ele><time>2017-9-17T14:17:26Z</time></trkpt>
<trkpt lat="48.464468" lon="2.685590"><ele></ele><time>2017-9-17T14:17:29Z</time></trkpt>
<trkpt lat="48.464413" lon="2.685640"><ele></ele><time>2017-9-17T14:17:32Z</time></trkpt>
<trkpt lat="48.464372" lon="2.685663"><ele></ele><time>2017-9-17T14:17:35Z</time></trkpt>
<trkpt lat="48.464325" lon="2.685695"><ele></ele><time>2017-9-17T14:17:38Z</time></trkpt>
<trkpt lat="48.464272" lon="2.685750"><ele></ele><time>2017-9-17T14:17:41Z</time></trkpt>
<trkpt lat="48.464192" lon="2.685805"><ele></ele><time>2017-9-17T14:17:44Z</time></trkpt>
<trkpt lat="48.464112" lon="2.685863"><ele></ele><time>2017-9-17T14:17:47Z</time></trkpt>
<trkpt lat="48.464072" lon="2.685900"><ele></ele><time>2017-9-17T14:17:50Z</time></trkpt>
<trkpt lat="48.464027" lon="2.685933"><ele></ele><time>2017-9-17T14:17:53Z</time></trkpt>
<trkpt lat="48.463975" lon="2.685972"><ele></ele><time>2017-9-17T14:17:56Z</time></trkpt>
<trkpt lat="48.463895" lon="2.686013"><ele></ele><time>2017-9-17T14:17:59Z</time></trkpt>
<trkpt lat="48.463850" lon="2.686035"><ele></ele><time>2017-9-17T14:18:2Z</time></trkpt>
<trkpt lat="48.463768" lon="2.686082"><ele></ele><time>2017-9-17T14:18:5Z</time></trkpt>
<trkpt lat="48.463677" lon="2.686145"><ele></ele><time>2017-9-17T14:18:8Z</time></trkpt>
<trkpt lat="48.463628" lon="2.686180"><ele></ele><time>2017-9-17T14:18:11Z</time></trkpt>
<trkpt lat="48.463558" lon="2.686237"><ele></ele><time>2017-9-17T14:18:14Z</time></trkpt>
<trkpt lat="48.463490" lon="2.686285"><ele></ele><time>2017-9-17T14:18:17Z</time></trkpt>
<trkpt lat="48.463430" lon="2.686343"><ele></ele><time>2017-9-17T14:18:20Z</time></trkpt>
<trkpt lat="48.463378" lon="2.686395"><ele></ele><time>2017-9-17T14:18:23Z</time></trkpt>
<trkpt lat="48.463307" lon="2.686448"><ele></ele><time>2017-9-17T14:18:26Z</time></trkpt>
<trkpt lat="48.463265" lon="2.686480"><ele></ele><time>2017-9-17T14:18:29Z</time></trkpt>
<trkpt lat="48.463223" lon="2.686517"><ele></ele><time>2017-9-17T14:18:32Z</time></trkpt>
<trkpt lat="48.463187" lon="2.686550"><ele></ele><time>2017-9-17T14:18:35Z</time></trkpt>
<trkpt lat="48.463140" lon="2.686588"><ele></ele><time>2017-9-17T14:18:38Z</time></trkpt>
<trkpt lat="48.463088" lon="2.686633"><ele></ele><time>2017-9-17T14:18:41Z</time></trkpt>
<trkpt lat="48.463010" lon="2.686698"><ele></ele><time>2017-9-17T14:18:44Z</time></trkpt>
<trkpt lat="48.462977" lon="2.686722"><ele></ele><time>2017-9-17T14:18:47Z</time></trkpt>
<trkpt lat="48.462900" lon="2.686792"><ele></ele><time>2017-9-17T14:18:50Z</time></trkpt>
<trkpt lat="48.462862" lon="2.686825"><ele></ele><time>2017-9-17T14:18:53Z</time></trkpt>
<trkpt lat="48.462758" lon="2.686887"><ele></ele><time>2017-9-17T14:18:56Z</time></trkpt>
<trkpt lat="48.462677" lon="2.686942"><ele></ele><time>2017-9-17T14:18:59Z</time></trkpt>
<trkpt lat="48.462597" lon="2.687002"><ele></ele><time>2017-9-17T14:19:2Z</time></trkpt>
<trkpt lat="48.462528" lon="2.687050"><ele></ele><time>2017-9-17T14:19:5Z</time></trkpt>
<trkpt lat="48.462460" lon="2.687098"><ele></ele><time>2017-9-17T14:19:8Z</time></trkpt>
<trkpt lat="48.462387" lon="2.687153"><ele></ele><time>2017-9-17T14:19:11Z</time></trkpt>
<trkpt lat="48.462348" lon="2.687183"><ele></ele><time>2017-9-17T14:19:14Z</time></trkpt>
<trkpt lat="48.462307" lon="2.687220"><ele></ele><time>2017-9-17T14:19:17Z</time></trkpt>
<trkpt lat="48.462228" lon="2.687285"><ele></ele><time>2017-9-17T14:19:20Z</time></trkpt>
<trkpt lat="48.462192" lon="2.687313"><ele></ele><time>2017-9-17T14:19:23Z</time></trkpt>
<trkpt lat="48.462115" lon="2.687368"><ele></ele><time>2017-9-17T14:19:26Z</time></trkpt>
<trkpt lat="48.462050" lon="2.687418"><ele></ele><time>2017-9-17T14:19:29Z</time></trkpt>
<trkpt lat="48.461975" lon="2.687470"><ele></ele><time>2017-9-17T14:19:32Z</time></trkpt>
<trkpt lat="48.461895" lon="2.687527"><ele></ele><time>2017-9-17T14:19:35Z</time></trkpt>
<trkpt lat="48.461825" lon="2.687582"><ele></ele><time>2017-9-17T14:19:38Z</time></trkpt>
<trkpt lat="48.461747" lon="2.687645"><ele></ele><time>2017-9-17T14:19:41Z</time></trkpt>
<trkpt lat="48.461668" lon="2.687705"><ele></ele><time>2017-9-17T14:19:44Z</time></trkpt>
<trkpt lat="48.461593" lon="2.687758"><ele></ele><time>2017-9-17T14:19:47Z</time></trkpt>
<trkpt lat="48.461555" lon="2.687788"><ele></ele><time>2017-9-17T14:19:50Z</time></trkpt>
<trkpt lat="48.461510" lon="2.687825"><ele></ele><time>2017-9-17T14:19:53Z</time></trkpt>
<trkpt lat="48.461433" lon="2.687883"><ele></ele><time>2017-9-17T14:19:56Z</time></trkpt>
<trkpt lat="48.461392" lon="2.687917"><ele></ele><time>2017-9-17T14:19:59Z</time></trkpt>
<trkpt lat="48.461317" lon="2.687975"><ele></ele><time>2017-9-17T14:20:2Z</time></trkpt>
<trkpt lat="48.461230" lon="2.688040"><ele></ele><time>2017-9-17T14:20:5Z</time></trkpt>
<trkpt lat="48.461183" lon="2.688082"><ele></ele><time>2017-9-17T14:20:8Z</time></trkpt>
<trkpt lat="48.461137" lon="2.688127"><ele></ele><time>2017-9-17T14:20:11Z</time></trkpt>
<trkpt lat="48.461055" lon="2.688183"><ele></ele><time>2017-9-17T14:20:14Z</time></trkpt>
<trkpt lat="48.461008" lon="2.688213"><ele></ele><time>2017-9-17T14:20:17Z</time></trkpt>
<trkpt lat="48.460965" lon="2.688230"><ele></ele><time>2017-9-17T14:20:20Z</time></trkpt>
<trkpt lat="48.460920" lon="2.688262"><ele></ele><time>2017-9-17T14:20:23Z</time></trkpt>
<trkpt lat="48.460878" lon="2.688298"><ele></ele><time>2017-9-17T14:20:26Z</time></trkpt>
<trkpt lat="48.460842" lon="2.688343"><ele></ele><time>2017-9-17T14:20:29Z</time></trkpt>
<trkpt lat="48.460803" lon="2.688385"><ele></ele><time>2017-9-17T14:20:32Z</time></trkpt>
<trkpt lat="48.460760" lon="2.688420"><ele></ele><time>2017-9-17T14:20:35Z</time></trkpt>
<trkpt lat="48.460678" lon="2.688472"><ele></ele><time>2017-9-17T14:20:38Z</time></trkpt>
<trkpt lat="48.460612" lon="2.688527"><ele></ele><time>2017-9-17T14:20:41Z</time></trkpt>
<trkpt lat="48.460543" lon="2.688587"><ele></ele><time>2017-9-17T14:20:44Z</time></trkpt>
<trkpt lat="48.460505" lon="2.688610"><ele></ele><time>2017-9-17T14:20:47Z</time></trkpt>
<trkpt lat="48.460390" lon="2.688683"><ele></ele><time>2017-9-17T14:20:50Z</time></trkpt>
<trkpt lat="48.460310" lon="2.688733"><ele></ele><time>2017-9-17T14:20:53Z</time></trkpt>
<trkpt lat="48.460232" lon="2.688787"><ele></ele><time>2017-9-17T14:20:56Z</time></trkpt>
<trkpt lat="48.460158" lon="2.688828"><ele></ele><time>2017-9-17T14:20:59Z</time></trkpt>
<trkpt lat="48.460088" lon="2.688863"><ele></ele><time>2017-9-17T14:21:2Z</time></trkpt>
<trkpt lat="48.460025" lon="2.688902"><ele></ele><time>2017-9-17T14:21:5Z</time></trkpt>
<trkpt lat="48.459952" lon="2.688968"><ele></ele><time>2017-9-17T14:21:8Z</time></trkpt>
<trkpt lat="48.459893" lon="2.689013"><ele></ele><time>2017-9-17T14:21:11Z</time></trkpt>
<trkpt lat="48.459833" lon="2.689063"><ele></ele><time>2017-9-17T14:21:14Z</time></trkpt>
<trkpt lat="48.459775" lon="2.689137"><ele></ele><time>2017-9-17T14:21:17Z</time></trkpt>
<trkpt lat="48.459712" lon="2.689212"><ele></ele><time>2017-9-17T14:21:20Z</time></trkpt>
<trkpt lat="48.459645" lon="2.689282"><ele></ele><time>2017-9-17T14:21:23Z</time></trkpt>
<trkpt lat="48.459613" lon="2.689315"><ele></ele><time>2017-9-17T14:21:26Z</time></trkpt>
<trkpt lat="48.459537" lon="2.689395"><ele></ele><time>2017-9-17T14:21:29Z</time></trkpt>
<trkpt lat="48.459462" lon="2.689477"><ele></ele><time>2017-9-17T14:21:32Z</time></trkpt>
<trkpt lat="48.459385" lon="2.689560"><ele></ele><time>2017-9-17T14:21:35Z</time></trkpt>
<trkpt lat="48.459347" lon="2.689602"><ele></ele><time>2017-9-17T14:21:38Z</time></trkpt>
<trkpt lat="48.459308" lon="2.689645"><ele></ele><time>2017-9-17T14:21:41Z</time></trkpt>
<trkpt lat="48.459268" lon="2.689688"><ele></ele><time>2017-9-17T14:21:44Z</time></trkpt>
<trkpt lat="48.459227" lon="2.689735"><ele></ele><time>2017-9-17T14:21:47Z</time></trkpt>
<trkpt lat="48.459187" lon="2.689780"><ele></ele><time>2017-9-17T14:21:50Z</time></trkpt>
<trkpt lat="48.459148" lon="2.689823"><ele></ele><time>2017-9-17T14:21:53Z</time></trkpt>
<trkpt lat="48.459110" lon="2.689865"><ele></ele><time>2017-9-17T14:21:56Z</time></trkpt>
<trkpt lat="48.459068" lon="2.689908"><ele></ele><time>2017-9-17T14:21:59Z</time></trkpt>
<trkpt lat="48.459030" lon="2.689952"><ele></ele><time>2017-9-17T14:22:2Z</time></trkpt>
<trkpt lat="48.458992" lon="2.689993"><ele></ele><time>2017-9-17T14:22:5Z</time></trkpt>
<trkpt lat="48.458955" lon="2.690035"><ele></ele><time>2017-9-17T14:22:8Z</time></trkpt>
<trkpt lat="48.458883" lon="2.690117"><ele></ele><time>2017-9-17T14:22:11Z</time></trkpt>
<trkpt lat="48.458812" lon="2.690197"><ele></ele><time>2017-9-17T14:22:14Z</time></trkpt>
<trkpt lat="48.458748" lon="2.690262"><ele></ele><time>2017-9-17T14:22:17Z</time></trkpt>
<trkpt lat="48.458683" lon="2.690327"><ele></ele><time>2017-9-17T14:22:20Z</time></trkpt>
<trkpt lat="48.458620" lon="2.690393"><ele></ele><time>2017-9-17T14:22:23Z</time></trkpt>
<trkpt lat="48.458560" lon="2.690455"><ele></ele><time>2017-9-17T14:22:26Z</time></trkpt>
<trkpt lat="48.458503" lon="2.690515"><ele></ele><time>2017-9-17T14:22:29Z</time></trkpt>
<trkpt lat="48.458448" lon="2.690568"><ele></ele><time>2017-9-17T14:22:32Z</time></trkpt>
<trkpt lat="48.458395" lon="2.690623"><ele></ele><time>2017-9-17T14:22:35Z</time></trkpt>
<trkpt lat="48.458368" lon="2.690653"><ele></ele><time>2017-9-17T14:22:38Z</time></trkpt>
<trkpt lat="48.458295" lon="2.690740"><ele></ele><time>2017-9-17T14:22:41Z</time></trkpt>
<trkpt lat="48.458243" lon="2.690795"><ele></ele><time>2017-9-17T14:22:44Z</time></trkpt>
<trkpt lat="48.458193" lon="2.690843"><ele></ele><time>2017-9-17T14:22:47Z</time></trkpt>
<trkpt lat="48.458140" lon="2.690900"><ele></ele><time>2017-9-17T14:22:50Z</time></trkpt>
<trkpt lat="48.458068" lon="2.690975"><ele></ele><time>2017-9-17T14:22:53Z</time></trkpt>
<trkpt lat="48.458020" lon="2.691027"><ele></ele><time>2017-9-17T14:22:56Z</time></trkpt>
<trkpt lat="48.457970" lon="2.691075"><ele></ele><time>2017-9-17T14:22:59Z</time></trkpt>
<trkpt lat="48.457917" lon="2.691130"><ele></ele><time>2017-9-17T14:23:2Z</time></trkpt>
<trkpt lat="48.457865" lon="2.691185"><ele></ele><time>2017-9-17T14:23:5Z</time></trkpt>
<trkpt lat="48.457813" lon="2.691238"><ele></ele><time>2017-9-17T14:23:8Z</time></trkpt>
<trkpt lat="48.457762" lon="2.691292"><ele></ele><time>2017-9-17T14:23:11Z</time></trkpt>
<trkpt lat="48.457705" lon="2.691353"><ele></ele><time>2017-9-17T14:23:14Z</time></trkpt>
<trkpt lat="48.457652" lon="2.691413"><ele></ele><time>2017-9-17T14:23:17Z</time></trkpt>
<trkpt lat="48.457593" lon="2.691478"><ele></ele><time>2017-9-17T14:23:20Z</time></trkpt>
<trkpt lat="48.457532" lon="2.691535"><ele></ele><time>2017-9-17T14:23:23Z</time></trkpt>
<trkpt lat="48.457453" lon="2.691598"><ele></ele><time>2017-9-17T14:23:26Z</time></trkpt>
<trkpt lat="48.457385" lon="2.691652"><ele></ele><time>2017-9-17T14:23:29Z</time></trkpt>
<trkpt lat="48.457320" lon="2.691705"><ele></ele><time>2017-9-17T14:23:32Z</time></trkpt>
<trkpt lat="48.457252" lon="2.691765"><ele></ele><time>2017-9-17T14:23:35Z</time></trkpt>
<trkpt lat="48.457175" lon="2.691822"><ele></ele><time>2017-9-17T14:23:38Z</time></trkpt>
<trkpt lat="48.457117" lon="2.691867"><ele></ele><time>2017-9-17T14:23:41Z</time></trkpt>
<trkpt lat="48.457050" lon="2.691922"><ele></ele><time>2017-9-17T14:23:44Z</time></trkpt>
<trkpt lat="48.456980" lon="2.691983"><ele></ele><time>2017-9-17T14:23:47Z</time></trkpt>
<trkpt lat="48.456915" lon="2.692030"><ele></ele><time>2017-9-17T14:23:50Z</time></trkpt>
<trkpt lat="48.456877" lon="2.692067"><ele></ele><time>2017-9-17T14:23:53Z</time></trkpt>
<trkpt lat="48.456830" lon="2.692112"><ele></ele><time>2017-9-17T14:23:56Z</time></trkpt>
<trkpt lat="48.456788" lon="2.692145"><ele></ele><time>2017-9-17T14:23:59Z</time></trkpt>
<trkpt lat="48.456742" lon="2.692188"><ele></ele><time>2017-9-17T14:24:2Z</time></trkpt>
<trkpt lat="48.456697" lon="2.692228"><ele></ele><time>2017-9-17T14:24:5Z</time></trkpt>
<trkpt lat="48.456640" lon="2.692282"><ele></ele><time>2017-9-17T14:24:8Z</time></trkpt>
<trkpt lat="48.456575" lon="2.692342"><ele></ele><time>2017-9-17T14:24:11Z</time></trkpt>
<trkpt lat="48.456437" lon="2.692475"><ele></ele><time>2017-9-17T14:24:14Z</time></trkpt>
<trkpt lat="48.456367" lon="2.692543"><ele></ele><time>2017-9-17T14:24:17Z</time></trkpt>
<trkpt lat="48.456298" lon="2.692610"><ele></ele><time>2017-9-17T14:24:20Z</time></trkpt>
<trkpt lat="48.456230" lon="2.692678"><ele></ele><time>2017-9-17T14:24:23Z</time></trkpt>
<trkpt lat="48.456163" lon="2.692748"><ele></ele><time>2017-9-17T14:24:26Z</time></trkpt>
<trkpt lat="48.456097" lon="2.692817"><ele></ele><time>2017-9-17T14:24:29Z</time></trkpt>
<trkpt lat="48.456018" lon="2.692895"><ele></ele><time>2017-9-17T14:24:32Z</time></trkpt>
<trkpt lat="48.455943" lon="2.692968"><ele></ele><time>2017-9-17T14:24:35Z</time></trkpt>
<trkpt lat="48.455873" lon="2.693032"><ele></ele><time>2017-9-17T14:24:38Z</time></trkpt>
<trkpt lat="48.455803" lon="2.693103"><ele></ele><time>2017-9-17T14:24:41Z</time></trkpt>
<trkpt lat="48.455738" lon="2.693170"><ele></ele><time>2017-9-17T14:24:44Z</time></trkpt>
<trkpt lat="48.455677" lon="2.693230"><ele></ele><time>2017-9-17T14:24:47Z</time></trkpt>
<trkpt lat="48.455617" lon="2.693292"><ele></ele><time>2017-9-17T14:24:50Z</time></trkpt>
<trkpt lat="48.455563" lon="2.693342"><ele></ele><time>2017-9-17T14:24:53Z</time></trkpt>
<trkpt lat="48.455508" lon="2.693393"><ele></ele><time>2017-9-17T14:24:56Z</time></trkpt>
<trkpt lat="48.455455" lon="2.693445"><ele></ele><time>2017-9-17T14:24:59Z</time></trkpt>
<trkpt lat="48.455405" lon="2.693497"><ele></ele><time>2017-9-17T14:25:2Z</time></trkpt>
<trkpt lat="48.455355" lon="2.693547"><ele></ele><time>2017-9-17T14:25:5Z</time></trkpt>
<trkpt lat="48.455308" lon="2.693598"><ele></ele><time>2017-9-17T14:25:8Z</time></trkpt>
<trkpt lat="48.455268" lon="2.693647"><ele></ele><time>2017-9-17T14:25:11Z</time></trkpt>
<trkpt lat="48.455227" lon="2.693690"><ele></ele><time>2017-9-17T14:25:14Z</time></trkpt>
<trkpt lat="48.455185" lon="2.693732"><ele></ele><time>2017-9-17T14:25:17Z</time></trkpt>
<trkpt lat="48.455108" lon="2.693805"><ele></ele><time>2017-9-17T14:25:20Z</time></trkpt>
<trkpt lat="48.455072" lon="2.693847"><ele></ele><time>2017-9-17T14:25:23Z</time></trkpt>
<trkpt lat="48.455033" lon="2.693887"><ele></ele><time>2017-9-17T14:25:26Z</time></trkpt>
<trkpt lat="48.454957" lon="2.693960"><ele></ele><time>2017-9-17T14:25:29Z</time></trkpt>
<trkpt lat="48.454918" lon="2.693993"><ele></ele><time>2017-9-17T14:25:32Z</time></trkpt>
<trkpt lat="48.454878" lon="2.694033"><ele></ele><time>2017-9-17T14:25:35Z</time></trkpt>
<trkpt lat="48.454808" lon="2.694105"><ele></ele><time>2017-9-17T14:25:38Z</time></trkpt>
<trkpt lat="48.454740" lon="2.694162"><ele></ele><time>2017-9-17T14:25:41Z</time></trkpt>
<trkpt lat="48.454670" lon="2.694227"><ele></ele><time>2017-9-17T14:25:44Z</time></trkpt>
<trkpt lat="48.454597" lon="2.694283"><ele></ele><time>2017-9-17T14:25:47Z</time></trkpt>
<trkpt lat="48.454530" lon="2.694362"><ele></ele><time>2017-9-17T14:25:50Z</time></trkpt>
<trkpt lat="48.454467" lon="2.694455"><ele></ele><time>2017-9-17T14:25:53Z</time></trkpt>
<trkpt lat="48.454435" lon="2.694507"><ele></ele><time>2017-9-17T14:25:56Z</time></trkpt>
<trkpt lat="48.454400" lon="2.694563"><ele></ele><time>2017-9-17T14:25:59Z</time></trkpt>
<trkpt lat="48.454368" lon="2.694618"><ele></ele><time>2017-9-17T14:26:2Z</time></trkpt>
<trkpt lat="48.454318" lon="2.694713"><ele></ele><time>2017-9-17T14:26:5Z</time></trkpt>
<trkpt lat="48.454265" lon="2.694807"><ele></ele><time>2017-9-17T14:26:8Z</time></trkpt>
<trkpt lat="48.454218" lon="2.694885"><ele></ele><time>2017-9-17T14:26:11Z</time></trkpt>
<trkpt lat="48.454177" lon="2.694955"><ele></ele><time>2017-9-17T14:26:14Z</time></trkpt>
<trkpt lat="48.454120" lon="2.695010"><ele></ele><time>2017-9-17T14:26:17Z</time></trkpt>
<trkpt lat="48.454065" lon="2.695100"><ele></ele><time>2017-9-17T14:26:20Z</time></trkpt>
<trkpt lat="48.454032" lon="2.695152"><ele></ele><time>2017-9-17T14:26:23Z</time></trkpt>
<trkpt lat="48.453997" lon="2.695208"><ele></ele><time>2017-9-17T14:26:26Z</time></trkpt>
<trkpt lat="48.453962" lon="2.695268"><ele></ele><time>2017-9-17T14:26:29Z</time></trkpt>
<trkpt lat="48.453925" lon="2.695332"><ele></ele><time>2017-9-17T14:26:32Z</time></trkpt>
<trkpt lat="48.453890" lon="2.695395"><ele></ele><time>2017-9-17T14:26:35Z</time></trkpt>
<trkpt lat="48.453855" lon="2.695457"><ele></ele><time>2017-9-17T14:26:38Z</time></trkpt>
<trkpt lat="48.453820" lon="2.695517"><ele></ele><time>2017-9-17T14:26:41Z</time></trkpt>
<trkpt lat="48.453785" lon="2.695575"><ele></ele><time>2017-9-17T14:26:44Z</time></trkpt>
<trkpt lat="48.453748" lon="2.695632"><ele></ele><time>2017-9-17T14:26:47Z</time></trkpt>
<trkpt lat="48.453715" lon="2.695688"><ele></ele><time>2017-9-17T14:26:50Z</time></trkpt>
<trkpt lat="48.453680" lon="2.695747"><ele></ele><time>2017-9-17T14:26:53Z</time></trkpt>
<trkpt lat="48.453648" lon="2.695803"><ele></ele><time>2017-9-17T14:26:56Z</time></trkpt>
<trkpt lat="48.453618" lon="2.695862"><ele></ele><time>2017-9-17T14:26:59Z</time></trkpt>
<trkpt lat="48.453587" lon="2.695920"><ele></ele><time>2017-9-17T14:27:2Z</time></trkpt>
<trkpt lat="48.453553" lon="2.695977"><ele></ele><time>2017-9-17T14:27:5Z</time></trkpt>
<trkpt lat="48.453518" lon="2.696033"><ele></ele><time>2017-9-17T14:27:8Z</time></trkpt>
<trkpt lat="48.453483" lon="2.696090"><ele></ele><time>2017-9-17T14:27:11Z</time></trkpt>
<trkpt lat="48.453448" lon="2.696147"><ele></ele><time>2017-9-17T14:27:14Z</time></trkpt>
<trkpt lat="48.453412" lon="2.696203"><ele></ele><time>2017-9-17T14:27:17Z</time></trkpt>
<trkpt lat="48.453377" lon="2.696262"><ele></ele><time>2017-9-17T14:27:20Z</time></trkpt>
<trkpt lat="48.453343" lon="2.696317"><ele></ele><time>2017-9-17T14:27:23Z</time></trkpt>
<trkpt lat="48.453277" lon="2.696433"><ele></ele><time>2017-9-17T14:27:26Z</time></trkpt>
<trkpt lat="48.453243" lon="2.696492"><ele></ele><time>2017-9-17T14:27:29Z</time></trkpt>
<trkpt lat="48.453212" lon="2.696550"><ele></ele><time>2017-9-17T14:27:32Z</time></trkpt>
<trkpt lat="48.453143" lon="2.696653"><ele></ele><time>2017-9-17T14:27:35Z</time></trkpt>
<trkpt lat="48.453075" lon="2.696755"><ele></ele><time>2017-9-17T14:27:38Z</time></trkpt>
<trkpt lat="48.453010" lon="2.696860"><ele></ele><time>2017-9-17T14:27:41Z</time></trkpt>
<trkpt lat="48.452947" lon="2.696965"><ele></ele><time>2017-9-17T14:27:44Z</time></trkpt>
<trkpt lat="48.452885" lon="2.697068"><ele></ele><time>2017-9-17T14:27:47Z</time></trkpt>
<trkpt lat="48.452853" lon="2.697118"><ele></ele><time>2017-9-17T14:27:50Z</time></trkpt>
<trkpt lat="48.452823" lon="2.697170"><ele></ele><time>2017-9-17T14:27:53Z</time></trkpt>
<trkpt lat="48.452792" lon="2.697220"><ele></ele><time>2017-9-17T14:27:56Z</time></trkpt>
<trkpt lat="48.452760" lon="2.697272"><ele></ele><time>2017-9-17T14:27:59Z</time></trkpt>
<trkpt lat="48.452728" lon="2.697325"><ele></ele><time>2017-9-17T14:28:2Z</time></trkpt>
<trkpt lat="48.452695" lon="2.697377"><ele></ele><time>2017-9-17T14:28:5Z</time></trkpt>
<trkpt lat="48.452663" lon="2.697428"><ele></ele><time>2017-9-17T14:28:8Z</time></trkpt>
<trkpt lat="48.452632" lon="2.697482"><ele></ele><time>2017-9-17T14:28:11Z</time></trkpt>
<trkpt lat="48.452600" lon="2.697532"><ele></ele><time>2017-9-17T14:28:14Z</time></trkpt>
<trkpt lat="48.452538" lon="2.697625"><ele></ele><time>2017-9-17T14:28:17Z</time></trkpt>
<trkpt lat="48.452487" lon="2.697702"><ele></ele><time>2017-9-17T14:28:20Z</time></trkpt>
<trkpt lat="48.452433" lon="2.697785"><ele></ele><time>2017-9-17T14:28:23Z</time></trkpt>
<trkpt lat="48.452387" lon="2.697873"><ele></ele><time>2017-9-17T14:28:26Z</time></trkpt>
<trkpt lat="48.452342" lon="2.697962"><ele></ele><time>2017-9-17T14:28:29Z</time></trkpt>
<trkpt lat="48.452290" lon="2.698050"><ele></ele><time>2017-9-17T14:28:32Z</time></trkpt>
<trkpt lat="48.452245" lon="2.698128"><ele></ele><time>2017-9-17T14:28:35Z</time></trkpt>
<trkpt lat="48.452192" lon="2.698223"><ele></ele><time>2017-9-17T14:28:38Z</time></trkpt>
<trkpt lat="48.452152" lon="2.698277"><ele></ele><time>2017-9-17T14:28:41Z</time></trkpt>
<trkpt lat="48.452115" lon="2.698328"><ele></ele><time>2017-9-17T14:28:44Z</time></trkpt>
<trkpt lat="48.452045" lon="2.698428"><ele></ele><time>2017-9-17T14:28:47Z</time></trkpt>
<trkpt lat="48.451995" lon="2.698523"><ele></ele><time>2017-9-17T14:28:50Z</time></trkpt>
<trkpt lat="48.451940" lon="2.698620"><ele></ele><time>2017-9-17T14:28:53Z</time></trkpt>
<trkpt lat="48.451887" lon="2.698708"><ele></ele><time>2017-9-17T14:28:56Z</time></trkpt>
<trkpt lat="48.451840" lon="2.698785"><ele></ele><time>2017-9-17T14:28:59Z</time></trkpt>
<trkpt lat="48.451792" lon="2.698860"><ele></ele><time>2017-9-17T14:29:2Z</time></trkpt>
<trkpt lat="48.451738" lon="2.698942"><ele></ele><time>2017-9-17T14:29:5Z</time></trkpt>
<trkpt lat="48.451705" lon="2.698993"><ele></ele><time>2017-9-17T14:29:8Z</time></trkpt>
<trkpt lat="48.451672" lon="2.699043"><ele></ele><time>2017-9-17T14:29:11Z</time></trkpt>
<trkpt lat="48.451610" lon="2.699133"><ele></ele><time>2017-9-17T14:29:14Z</time></trkpt>
<trkpt lat="48.451578" lon="2.699185"><ele></ele><time>2017-9-17T14:29:17Z</time></trkpt>
<trkpt lat="48.451522" lon="2.699285"><ele></ele><time>2017-9-17T14:29:20Z</time></trkpt>
<trkpt lat="48.451492" lon="2.699333"><ele></ele><time>2017-9-17T14:29:23Z</time></trkpt>
<trkpt lat="48.451458" lon="2.699383"><ele></ele><time>2017-9-17T14:29:26Z</time></trkpt>
<trkpt lat="48.451395" lon="2.699493"><ele></ele><time>2017-9-17T14:29:29Z</time></trkpt>
<trkpt lat="48.451332" lon="2.699597"><ele></ele><time>2017-9-17T14:29:32Z</time></trkpt>
<trkpt lat="48.451295" lon="2.699655"><ele></ele><time>2017-9-17T14:29:35Z</time></trkpt>
<trkpt lat="48.451262" lon="2.699707"><ele></ele><time>2017-9-17T14:29:38Z</time></trkpt>
<trkpt lat="48.451230" lon="2.699762"><ele></ele><time>2017-9-17T14:29:41Z</time></trkpt>
<trkpt lat="48.451202" lon="2.699818"><ele></ele><time>2017-9-17T14:29:44Z</time></trkpt>
<trkpt lat="48.451173" lon="2.699870"><ele></ele><time>2017-9-17T14:29:47Z</time></trkpt>
<trkpt lat="48.451142" lon="2.699925"><ele></ele><time>2017-9-17T14:29:50Z</time></trkpt>
<trkpt lat="48.451112" lon="2.699975"><ele></ele><time>2017-9-17T14:29:53Z</time></trkpt>
<trkpt lat="48.451054" lon="2.700063"><ele></ele><time>2017-9-17T14:29:56Z</time></trkpt>
<trkpt lat="48.451002" lon="2.700155"><ele></ele><time>2017-9-17T14:29:59Z</time></trkpt>
<trkpt lat="48.450968" lon="2.700217"><ele></ele><time>2017-9-17T14:30:2Z</time></trkpt>
<trkpt lat="48.450933" lon="2.700277"><ele></ele><time>2017-9-17T14:30:5Z</time></trkpt>
<trkpt lat="48.450895" lon="2.700337"><ele></ele><time>2017-9-17T14:30:8Z</time></trkpt>
<trkpt lat="48.450860" lon="2.700398"><ele></ele><time>2017-9-17T14:30:11Z</time></trkpt>
<trkpt lat="48.450822" lon="2.700460"><ele></ele><time>2017-9-17T14:30:14Z</time></trkpt>
<trkpt lat="48.450785" lon="2.700520"><ele></ele><time>2017-9-17T14:30:17Z</time></trkpt>
<trkpt lat="48.450713" lon="2.700643"><ele></ele><time>2017-9-17T14:30:20Z</time></trkpt>
<trkpt lat="48.450680" lon="2.700702"><ele></ele><time>2017-9-17T14:30:23Z</time></trkpt>
<trkpt lat="48.450643" lon="2.700758"><ele></ele><time>2017-9-17T14:30:26Z</time></trkpt>
<trkpt lat="48.450612" lon="2.700818"><ele></ele><time>2017-9-17T14:30:29Z</time></trkpt>
<trkpt lat="48.450577" lon="2.700870"><ele></ele><time>2017-9-17T14:30:32Z</time></trkpt>
<trkpt lat="48.450542" lon="2.700927"><ele></ele><time>2017-9-17T14:30:35Z</time></trkpt>
<trkpt lat="48.450507" lon="2.700987"><ele></ele><time>2017-9-17T14:30:38Z</time></trkpt>
<trkpt lat="48.450470" lon="2.701045"><ele></ele><time>2017-9-17T14:30:41Z</time></trkpt>
<trkpt lat="48.450433" lon="2.701095"><ele></ele><time>2017-9-17T14:30:44Z</time></trkpt>
<trkpt lat="48.450395" lon="2.701148"><ele></ele><time>2017-9-17T14:30:47Z</time></trkpt>
<trkpt lat="48.450363" lon="2.701203"><ele></ele><time>2017-9-17T14:30:50Z</time></trkpt>
<trkpt lat="48.450315" lon="2.701300"><ele></ele><time>2017-9-17T14:30:53Z</time></trkpt>
<trkpt lat="48.450262" lon="2.701388"><ele></ele><time>2017-9-17T14:30:56Z</time></trkpt>
<trkpt lat="48.450212" lon="2.701467"><ele></ele><time>2017-9-17T14:30:59Z</time></trkpt>
<trkpt lat="48.450163" lon="2.701563"><ele></ele><time>2017-9-17T14:31:2Z</time></trkpt>
<trkpt lat="48.450138" lon="2.701610"><ele></ele><time>2017-9-17T14:31:5Z</time></trkpt>
<trkpt lat="48.450083" lon="2.701713"><ele></ele><time>2017-9-17T14:31:8Z</time></trkpt>
<trkpt lat="48.450053" lon="2.701768"><ele></ele><time>2017-9-17T14:31:11Z</time></trkpt>
<trkpt lat="48.450022" lon="2.701823"><ele></ele><time>2017-9-17T14:31:14Z</time></trkpt>
<trkpt lat="48.449965" lon="2.701923"><ele></ele><time>2017-9-17T14:31:17Z</time></trkpt>
<trkpt lat="48.449908" lon="2.701985"><ele></ele><time>2017-9-17T14:31:20Z</time></trkpt>
<trkpt lat="48.449862" lon="2.702070"><ele></ele><time>2017-9-17T14:31:23Z</time></trkpt>
<trkpt lat="48.449812" lon="2.702148"><ele></ele><time>2017-9-17T14:31:26Z</time></trkpt>
<trkpt lat="48.449762" lon="2.702245"><ele></ele><time>2017-9-17T14:31:29Z</time></trkpt>
<trkpt lat="48.449717" lon="2.702325"><ele></ele><time>2017-9-17T14:31:32Z</time></trkpt>
<trkpt lat="48.449658" lon="2.702410"><ele></ele><time>2017-9-17T14:31:35Z</time></trkpt>
<trkpt lat="48.449600" lon="2.702482"><ele></ele><time>2017-9-17T14:31:38Z</time></trkpt>
<trkpt lat="48.449547" lon="2.702562"><ele></ele><time>2017-9-17T14:31:41Z</time></trkpt>
<trkpt lat="48.449507" lon="2.702647"><ele></ele><time>2017-9-17T14:31:44Z</time></trkpt>
<trkpt lat="48.449457" lon="2.702730"><ele></ele><time>2017-9-17T14:31:47Z</time></trkpt>
<trkpt lat="48.449410" lon="2.702805"><ele></ele><time>2017-9-17T14:31:50Z</time></trkpt>
<trkpt lat="48.449363" lon="2.702878"><ele></ele><time>2017-9-17T14:31:53Z</time></trkpt>
<trkpt lat="48.449308" lon="2.702982"><ele></ele><time>2017-9-17T14:31:56Z</time></trkpt>
<trkpt lat="48.449252" lon="2.703080"><ele></ele><time>2017-9-17T14:31:59Z</time></trkpt>
<trkpt lat="48.449210" lon="2.703162"><ele></ele><time>2017-9-17T14:32:2Z</time></trkpt>
<trkpt lat="48.449157" lon="2.703250"><ele></ele><time>2017-9-17T14:32:5Z</time></trkpt>
<trkpt lat="48.449100" lon="2.703338"><ele></ele><time>2017-9-17T14:32:8Z</time></trkpt>
<trkpt lat="48.449043" lon="2.703425"><ele></ele><time>2017-9-17T14:32:11Z</time></trkpt>
<trkpt lat="48.448980" lon="2.703517"><ele></ele><time>2017-9-17T14:32:14Z</time></trkpt>
<trkpt lat="48.448945" lon="2.703577"><ele></ele><time>2017-9-17T14:32:17Z</time></trkpt>
<trkpt lat="48.448890" lon="2.703668"><ele></ele><time>2017-9-17T14:32:20Z</time></trkpt>
<trkpt lat="48.448840" lon="2.703747"><ele></ele><time>2017-9-17T14:32:23Z</time></trkpt>
<trkpt lat="48.448795" lon="2.703820"><ele></ele><time>2017-9-17T14:32:26Z</time></trkpt>
<trkpt lat="48.448750" lon="2.703893"><ele></ele><time>2017-9-17T14:32:29Z</time></trkpt>
<trkpt lat="48.448700" lon="2.703962"><ele></ele><time>2017-9-17T14:32:32Z</time></trkpt>
<trkpt lat="48.448653" lon="2.704033"><ele></ele><time>2017-9-17T14:32:35Z</time></trkpt>
<trkpt lat="48.448628" lon="2.704070"><ele></ele><time>2017-9-17T14:32:38Z</time></trkpt>
<trkpt lat="48.448555" lon="2.704160"><ele></ele><time>2017-9-17T14:32:41Z</time></trkpt>
<trkpt lat="48.448503" lon="2.704242"><ele></ele><time>2017-9-17T14:32:44Z</time></trkpt>
<trkpt lat="48.448450" lon="2.704338"><ele></ele><time>2017-9-17T14:32:47Z</time></trkpt>
<trkpt lat="48.448393" lon="2.704440"><ele></ele><time>2017-9-17T14:32:50Z</time></trkpt>
<trkpt lat="48.448362" lon="2.704492"><ele></ele><time>2017-9-17T14:32:53Z</time></trkpt>
<trkpt lat="48.448330" lon="2.704542"><ele></ele><time>2017-9-17T14:32:56Z</time></trkpt>
<trkpt lat="48.448298" lon="2.704590"><ele></ele><time>2017-9-17T14:32:59Z</time></trkpt>
<trkpt lat="48.448240" lon="2.704687"><ele></ele><time>2017-9-17T14:33:2Z</time></trkpt>
<trkpt lat="48.448185" lon="2.704772"><ele></ele><time>2017-9-17T14:33:5Z</time></trkpt>
<trkpt lat="48.448160" lon="2.704812"><ele></ele><time>2017-9-17T14:33:8Z</time></trkpt>
<trkpt lat="48.448115" lon="2.704898"><ele></ele><time>2017-9-17T14:33:11Z</time></trkpt>
<trkpt lat="48.448068" lon="2.704968"><ele></ele><time>2017-9-17T14:33:14Z</time></trkpt>
<trkpt lat="48.448007" lon="2.705065"><ele></ele><time>2017-9-17T14:33:17Z</time></trkpt>
<trkpt lat="48.447945" lon="2.705162"><ele></ele><time>2017-9-17T14:33:20Z</time></trkpt>
<trkpt lat="48.447897" lon="2.705243"><ele></ele><time>2017-9-17T14:33:23Z</time></trkpt>
<trkpt lat="48.447838" lon="2.705335"><ele></ele><time>2017-9-17T14:33:26Z</time></trkpt>
<trkpt lat="48.447780" lon="2.705408"><ele></ele><time>2017-9-17T14:33:29Z</time></trkpt>
<trkpt lat="48.447720" lon="2.705503"><ele></ele><time>2017-9-17T14:33:32Z</time></trkpt>
<trkpt lat="48.447665" lon="2.705598"><ele></ele><time>2017-9-17T14:33:35Z</time></trkpt>
<trkpt lat="48.447605" lon="2.705697"><ele></ele><time>2017-9-17T14:33:38Z</time></trkpt>
<trkpt lat="48.447563" lon="2.705770"><ele></ele><time>2017-9-17T14:33:41Z</time></trkpt>
<trkpt lat="48.447522" lon="2.705840"><ele></ele><time>2017-9-17T14:33:44Z</time></trkpt>
<trkpt lat="48.447480" lon="2.705912"><ele></ele><time>2017-9-17T14:33:47Z</time></trkpt>
<trkpt lat="48.447437" lon="2.705982"><ele></ele><time>2017-9-17T14:33:50Z</time></trkpt>
<trkpt lat="48.447387" lon="2.706052"><ele></ele><time>2017-9-17T14:33:53Z</time></trkpt>
<trkpt lat="48.447335" lon="2.706140"><ele></ele><time>2017-9-17T14:33:56Z</time></trkpt>
<trkpt lat="48.447308" lon="2.706190"><ele></ele><time>2017-9-17T14:33:59Z</time></trkpt>
<trkpt lat="48.447277" lon="2.706243"><ele></ele><time>2017-9-17T14:34:2Z</time></trkpt>
<trkpt lat="48.447243" lon="2.706298"><ele></ele><time>2017-9-17T14:34:5Z</time></trkpt>
<trkpt lat="48.447207" lon="2.706357"><ele></ele><time>2017-9-17T14:34:8Z</time></trkpt>
<trkpt lat="48.447170" lon="2.706417"><ele></ele><time>2017-9-17T14:34:11Z</time></trkpt>
<trkpt lat="48.447132" lon="2.706477"><ele></ele><time>2017-9-17T14:34:14Z</time></trkpt>
<trkpt lat="48.447095" lon="2.706537"><ele></ele><time>2017-9-17T14:34:17Z</time></trkpt>
<trkpt lat="48.447058" lon="2.706595"><ele></ele><time>2017-9-17T14:34:20Z</time></trkpt>
<trkpt lat="48.447025" lon="2.706650"><ele></ele><time>2017-9-17T14:34:23Z</time></trkpt>
<trkpt lat="48.446968" lon="2.706748"><ele></ele><time>2017-9-17T14:34:26Z</time></trkpt>
<trkpt lat="48.446927" lon="2.706830"><ele></ele><time>2017-9-17T14:34:29Z</time></trkpt>
<trkpt lat="48.446870" lon="2.706922"><ele></ele><time>2017-9-17T14:34:32Z</time></trkpt>
<trkpt lat="48.446818" lon="2.706997"><ele></ele><time>2017-9-17T14:34:35Z</time></trkpt>
<trkpt lat="48.446763" lon="2.707085"><ele></ele><time>2017-9-17T14:34:38Z</time></trkpt>
<trkpt lat="48.446715" lon="2.707155"><ele></ele><time>2017-9-17T14:34:41Z</time></trkpt>
<trkpt lat="48.446662" lon="2.707233"><ele></ele><time>2017-9-17T14:34:44Z</time></trkpt>
<trkpt lat="48.446607" lon="2.707323"><ele></ele><time>2017-9-17T14:34:47Z</time></trkpt>
<trkpt lat="48.446550" lon="2.707415"><ele></ele><time>2017-9-17T14:34:50Z</time></trkpt>
<trkpt lat="48.446523" lon="2.707460"><ele></ele><time>2017-9-17T14:34:53Z</time></trkpt>
<trkpt lat="48.446472" lon="2.707550"><ele></ele><time>2017-9-17T14:34:56Z</time></trkpt>
<trkpt lat="48.446418" lon="2.707642"><ele></ele><time>2017-9-17T14:34:59Z</time></trkpt>
<trkpt lat="48.446363" lon="2.707727"><ele></ele><time>2017-9-17T14:35:2Z</time></trkpt>
<trkpt lat="48.446305" lon="2.707820"><ele></ele><time>2017-9-17T14:35:5Z</time></trkpt>
<trkpt lat="48.446248" lon="2.707917"><ele></ele><time>2017-9-17T14:35:8Z</time></trkpt>
<trkpt lat="48.446190" lon="2.708015"><ele></ele><time>2017-9-17T14:35:11Z</time></trkpt>
<trkpt lat="48.446132" lon="2.708113"><ele></ele><time>2017-9-17T14:35:14Z</time></trkpt>
<trkpt lat="48.446073" lon="2.708213"><ele></ele><time>2017-9-17T14:35:17Z</time></trkpt>
<trkpt lat="48.446018" lon="2.708308"><ele></ele><time>2017-9-17T14:35:20Z</time></trkpt>
<trkpt lat="48.445960" lon="2.708400"><ele></ele><time>2017-9-17T14:35:23Z</time></trkpt>
<trkpt lat="48.445910" lon="2.708500"><ele></ele><time>2017-9-17T14:35:26Z</time></trkpt>
<trkpt lat="48.445887" lon="2.708558"><ele></ele><time>2017-9-17T14:35:29Z</time></trkpt>
<trkpt lat="48.445865" lon="2.708620"><ele></ele><time>2017-9-17T14:35:32Z</time></trkpt>
<trkpt lat="48.445848" lon="2.708685"><ele></ele><time>2017-9-17T14:35:35Z</time></trkpt>
<trkpt lat="48.445835" lon="2.708755"><ele></ele><time>2017-9-17T14:35:38Z</time></trkpt>
<trkpt lat="48.445825" lon="2.708825"><ele></ele><time>2017-9-17T14:35:41Z</time></trkpt>
<trkpt lat="48.445818" lon="2.708957"><ele></ele><time>2017-9-17T14:35:44Z</time></trkpt>
<trkpt lat="48.445818" lon="2.709090"><ele></ele><time>2017-9-17T14:35:47Z</time></trkpt>
<trkpt lat="48.445803" lon="2.709223"><ele></ele><time>2017-9-17T14:35:50Z</time></trkpt>
<trkpt lat="48.445793" lon="2.709290"><ele></ele><time>2017-9-17T14:35:53Z</time></trkpt>
<trkpt lat="48.445782" lon="2.709475"><ele></ele><time>2017-9-17T14:35:56Z</time></trkpt>
<trkpt lat="48.445775" lon="2.709595"><ele></ele><time>2017-9-17T14:35:59Z</time></trkpt>
<trkpt lat="48.445777" lon="2.709688"><ele></ele><time>2017-9-17T14:36:2Z</time></trkpt>
<trkpt lat="48.445773" lon="2.709812"><ele></ele><time>2017-9-17T14:36:5Z</time></trkpt>
<trkpt lat="48.445760" lon="2.709880"><ele></ele><time>2017-9-17T14:36:8Z</time></trkpt>
<trkpt lat="48.445745" lon="2.709952"><ele></ele><time>2017-9-17T14:36:11Z</time></trkpt>
<trkpt lat="48.445733" lon="2.710028"><ele></ele><time>2017-9-17T14:36:14Z</time></trkpt>
<trkpt lat="48.445718" lon="2.710097"><ele></ele><time>2017-9-17T14:36:17Z</time></trkpt>
<trkpt lat="48.445707" lon="2.710227"><ele></ele><time>2017-9-17T14:36:20Z</time></trkpt>
<trkpt lat="48.445695" lon="2.710360"><ele></ele><time>2017-9-17T14:36:23Z</time></trkpt>
<trkpt lat="48.445682" lon="2.710420"><ele></ele><time>2017-9-17T14:36:26Z</time></trkpt>
<trkpt lat="48.445665" lon="2.710488"><ele></ele><time>2017-9-17T14:36:29Z</time></trkpt>
<trkpt lat="48.445653" lon="2.710558"><ele></ele><time>2017-9-17T14:36:32Z</time></trkpt>
<trkpt lat="48.445628" lon="2.710693"><ele></ele><time>2017-9-17T14:36:35Z</time></trkpt>
<trkpt lat="48.445617" lon="2.710762"><ele></ele><time>2017-9-17T14:36:38Z</time></trkpt>
<trkpt lat="48.445603" lon="2.710833"><ele></ele><time>2017-9-17T14:36:41Z</time></trkpt>
<trkpt lat="48.445590" lon="2.710952"><ele></ele><time>2017-9-17T14:36:44Z</time></trkpt>
<trkpt lat="48.445610" lon="2.711038"><ele></ele><time>2017-9-17T14:36:47Z</time></trkpt>
<trkpt lat="48.445602" lon="2.711113"><ele></ele><time>2017-9-17T14:36:50Z</time></trkpt>
<trkpt lat="48.445600" lon="2.711173"><ele></ele><time>2017-9-17T14:36:53Z</time></trkpt>
<trkpt lat="48.445575" lon="2.711328"><ele></ele><time>2017-9-17T14:36:56Z</time></trkpt>
<trkpt lat="48.445568" lon="2.711393"><ele></ele><time>2017-9-17T14:36:59Z</time></trkpt>
<trkpt lat="48.445557" lon="2.711463"><ele></ele><time>2017-9-17T14:37:2Z</time></trkpt>
<trkpt lat="48.445545" lon="2.711535"><ele></ele><time>2017-9-17T14:37:5Z</time></trkpt>
<trkpt lat="48.445535" lon="2.711668"><ele></ele><time>2017-9-17T14:37:8Z</time></trkpt>
<trkpt lat="48.445525" lon="2.711737"><ele></ele><time>2017-9-17T14:37:11Z</time></trkpt>
<trkpt lat="48.445517" lon="2.711807"><ele></ele><time>2017-9-17T14:37:14Z</time></trkpt>
<trkpt lat="48.445505" lon="2.711880"><ele></ele><time>2017-9-17T14:37:17Z</time></trkpt>
<trkpt lat="48.445495" lon="2.711948"><ele></ele><time>2017-9-17T14:37:20Z</time></trkpt>
<trkpt lat="48.445477" lon="2.712078"><ele></ele><time>2017-9-17T14:37:23Z</time></trkpt>
<trkpt lat="48.445468" lon="2.712143"><ele></ele><time>2017-9-17T14:37:26Z</time></trkpt>
<trkpt lat="48.445453" lon="2.712215"><ele></ele><time>2017-9-17T14:37:29Z</time></trkpt>
<trkpt lat="48.445443" lon="2.712288"><ele></ele><time>2017-9-17T14:37:32Z</time></trkpt>
<trkpt lat="48.445430" lon="2.712365"><ele></ele><time>2017-9-17T14:37:35Z</time></trkpt>
<trkpt lat="48.445427" lon="2.712427"><ele></ele><time>2017-9-17T14:37:38Z</time></trkpt>
<trkpt lat="48.445417" lon="2.712500"><ele></ele><time>2017-9-17T14:37:41Z</time></trkpt>
<trkpt lat="48.445395" lon="2.712618"><ele></ele><time>2017-9-17T14:37:44Z</time></trkpt>
<trkpt lat="48.445313" lon="2.712627"><ele></ele><time>2017-9-17T14:37:47Z</time></trkpt>
<trkpt lat="48.445297" lon="2.712613"><ele></ele><time>2017-9-17T14:37:50Z</time></trkpt>
<trkpt lat="48.445178" lon="2.712505"><ele></ele><time>2017-9-17T14:37:53Z</time></trkpt>
<trkpt lat="48.445112" lon="2.712422"><ele></ele><time>2017-9-17T14:37:56Z</time></trkpt>
<trkpt lat="48.445047" lon="2.712347"><ele></ele><time>2017-9-17T14:37:59Z</time></trkpt>
<trkpt lat="48.444983" lon="2.712282"><ele></ele><time>2017-9-17T14:38:2Z</time></trkpt>
<trkpt lat="48.444917" lon="2.712220"><ele></ele><time>2017-9-17T14:38:5Z</time></trkpt>
<trkpt lat="48.444847" lon="2.712157"><ele></ele><time>2017-9-17T14:38:8Z</time></trkpt>
<trkpt lat="48.444778" lon="2.712088"><ele></ele><time>2017-9-17T14:38:11Z</time></trkpt>
<trkpt lat="48.444715" lon="2.712020"><ele></ele><time>2017-9-17T14:38:14Z</time></trkpt>
<trkpt lat="48.444647" lon="2.711960"><ele></ele><time>2017-9-17T14:38:17Z</time></trkpt>
<trkpt lat="48.444577" lon="2.711897"><ele></ele><time>2017-9-17T14:38:20Z</time></trkpt>
<trkpt lat="48.444508" lon="2.711835"><ele></ele><time>2017-9-17T14:38:23Z</time></trkpt>
<trkpt lat="48.444430" lon="2.711772"><ele></ele><time>2017-9-17T14:38:26Z</time></trkpt>
<trkpt lat="48.444363" lon="2.711712"><ele></ele><time>2017-9-17T14:38:29Z</time></trkpt>
<trkpt lat="48.444295" lon="2.711648"><ele></ele><time>2017-9-17T14:38:32Z</time></trkpt>
<trkpt lat="48.444237" lon="2.711582"><ele></ele><time>2017-9-17T14:38:35Z</time></trkpt>
<trkpt lat="48.444183" lon="2.711503"><ele></ele><time>2017-9-17T14:38:38Z</time></trkpt>
<trkpt lat="48.444132" lon="2.711437"><ele></ele><time>2017-9-17T14:38:41Z</time></trkpt>
<trkpt lat="48.444082" lon="2.711362"><ele></ele><time>2017-9-17T14:38:44Z</time></trkpt>
<trkpt lat="48.444043" lon="2.711278"><ele></ele><time>2017-9-17T14:38:47Z</time></trkpt>
<trkpt lat="48.443997" lon="2.711190"><ele></ele><time>2017-9-17T14:38:50Z</time></trkpt>
<trkpt lat="48.443943" lon="2.711102"><ele></ele><time>2017-9-17T14:38:53Z</time></trkpt>
<trkpt lat="48.443893" lon="2.711017"><ele></ele><time>2017-9-17T14:38:56Z</time></trkpt>
<trkpt lat="48.443862" lon="2.710965"><ele></ele><time>2017-9-17T14:38:59Z</time></trkpt>
<trkpt lat="48.443827" lon="2.710897"><ele></ele><time>2017-9-17T14:39:2Z</time></trkpt>
<trkpt lat="48.443797" lon="2.710842"><ele></ele><time>2017-9-17T14:39:5Z</time></trkpt>
<trkpt lat="48.443768" lon="2.710787"><ele></ele><time>2017-9-17T14:39:8Z</time></trkpt>
<trkpt lat="48.443738" lon="2.710728"><ele></ele><time>2017-9-17T14:39:11Z</time></trkpt>
<trkpt lat="48.443710" lon="2.710670"><ele></ele><time>2017-9-17T14:39:14Z</time></trkpt>
<trkpt lat="48.443665" lon="2.710568"><ele></ele><time>2017-9-17T14:39:17Z</time></trkpt>
<trkpt lat="48.443628" lon="2.710473"><ele></ele><time>2017-9-17T14:39:20Z</time></trkpt>
<trkpt lat="48.443583" lon="2.710373"><ele></ele><time>2017-9-17T14:39:23Z</time></trkpt>
<trkpt lat="48.443558" lon="2.710322"><ele></ele><time>2017-9-17T14:39:26Z</time></trkpt>
<trkpt lat="48.443492" lon="2.710180"><ele></ele><time>2017-9-17T14:39:29Z</time></trkpt>
<trkpt lat="48.443438" lon="2.710080"><ele></ele><time>2017-9-17T14:39:32Z</time></trkpt>
<trkpt lat="48.443353" lon="2.710092"><ele></ele><time>2017-9-17T14:39:35Z</time></trkpt>
<trkpt lat="48.443318" lon="2.710135"><ele></ele><time>2017-9-17T14:39:38Z</time></trkpt>
<trkpt lat="48.443275" lon="2.710167"><ele></ele><time>2017-9-17T14:39:41Z</time></trkpt>
<trkpt lat="48.443193" lon="2.710212"><ele></ele><time>2017-9-17T14:39:44Z</time></trkpt>
<trkpt lat="48.443128" lon="2.710262"><ele></ele><time>2017-9-17T14:39:47Z</time></trkpt>
<trkpt lat="48.443060" lon="2.710303"><ele></ele><time>2017-9-17T14:39:50Z</time></trkpt>
<trkpt lat="48.442990" lon="2.710353"><ele></ele><time>2017-9-17T14:39:53Z</time></trkpt>
<trkpt lat="48.442915" lon="2.710412"><ele></ele><time>2017-9-17T14:39:56Z</time></trkpt>
<trkpt lat="48.442845" lon="2.710457"><ele></ele><time>2017-9-17T14:39:59Z</time></trkpt>
<trkpt lat="48.442772" lon="2.710483"><ele></ele><time>2017-9-17T14:40:2Z</time></trkpt>
<trkpt lat="48.442702" lon="2.710520"><ele></ele><time>2017-9-17T14:40:5Z</time></trkpt>
<trkpt lat="48.442632" lon="2.710560"><ele></ele><time>2017-9-17T14:40:8Z</time></trkpt>
<trkpt lat="48.442565" lon="2.710585"><ele></ele><time>2017-9-17T14:40:11Z</time></trkpt>
<trkpt lat="48.442492" lon="2.710620"><ele></ele><time>2017-9-17T14:40:14Z</time></trkpt>
<trkpt lat="48.442418" lon="2.710665"><ele></ele><time>2017-9-17T14:40:17Z</time></trkpt>
<trkpt lat="48.442347" lon="2.710705"><ele></ele><time>2017-9-17T14:40:20Z</time></trkpt>
<trkpt lat="48.442270" lon="2.710752"><ele></ele><time>2017-9-17T14:40:23Z</time></trkpt>
<trkpt lat="48.442202" lon="2.710793"><ele></ele><time>2017-9-17T14:40:26Z</time></trkpt>
<trkpt lat="48.442122" lon="2.710847"><ele></ele><time>2017-9-17T14:40:29Z</time></trkpt>
<trkpt lat="48.442082" lon="2.710885"><ele></ele><time>2017-9-17T14:40:32Z</time></trkpt>
<trkpt lat="48.441977" lon="2.710972"><ele></ele><time>2017-9-17T14:40:35Z</time></trkpt>
<trkpt lat="48.441908" lon="2.711013"><ele></ele><time>2017-9-17T14:40:38Z</time></trkpt>
<trkpt lat="48.441863" lon="2.711038"><ele></ele><time>2017-9-17T14:40:41Z</time></trkpt>
<trkpt lat="48.441817" lon="2.711068"><ele></ele><time>2017-9-17T14:40:44Z</time></trkpt>
<trkpt lat="48.441740" lon="2.711113"><ele></ele><time>2017-9-17T14:40:47Z</time></trkpt>
<trkpt lat="48.441695" lon="2.711143"><ele></ele><time>2017-9-17T14:40:50Z</time></trkpt>
<trkpt lat="48.441653" lon="2.711178"><ele></ele><time>2017-9-17T14:40:53Z</time></trkpt>
<trkpt lat="48.441572" lon="2.711230"><ele></ele><time>2017-9-17T14:40:56Z</time></trkpt>
<trkpt lat="48.441525" lon="2.711257"><ele></ele><time>2017-9-17T14:40:59Z</time></trkpt>
<trkpt lat="48.441485" lon="2.711278"><ele></ele><time>2017-9-17T14:41:2Z</time></trkpt>
<trkpt lat="48.441443" lon="2.711318"><ele></ele><time>2017-9-17T14:41:5Z</time></trkpt>
<trkpt lat="48.441365" lon="2.711377"><ele></ele><time>2017-9-17T14:41:8Z</time></trkpt>
<trkpt lat="48.441295" lon="2.711425"><ele></ele><time>2017-9-17T14:41:11Z</time></trkpt>
<trkpt lat="48.441223" lon="2.711467"><ele></ele><time>2017-9-17T14:41:14Z</time></trkpt>
<trkpt lat="48.441157" lon="2.711507"><ele></ele><time>2017-9-17T14:41:17Z</time></trkpt>
<trkpt lat="48.441087" lon="2.711572"><ele></ele><time>2017-9-17T14:41:20Z</time></trkpt>
<trkpt lat="48.441020" lon="2.711645"><ele></ele><time>2017-9-17T14:41:23Z</time></trkpt>
<trkpt lat="48.440967" lon="2.711695"><ele></ele><time>2017-9-17T14:41:26Z</time></trkpt>
<trkpt lat="48.440908" lon="2.711780"><ele></ele><time>2017-9-17T14:41:29Z</time></trkpt>
<trkpt lat="48.440855" lon="2.711872"><ele></ele><time>2017-9-17T14:41:32Z</time></trkpt>
<trkpt lat="48.440800" lon="2.711930"><ele></ele><time>2017-9-17T14:41:35Z</time></trkpt>
<trkpt lat="48.440733" lon="2.711938"><ele></ele><time>2017-9-17T14:41:38Z</time></trkpt>
<trkpt lat="48.440657" lon="2.711923"><ele></ele><time>2017-9-17T14:41:41Z</time></trkpt>
<trkpt lat="48.440575" lon="2.711867"><ele></ele><time>2017-9-17T14:41:44Z</time></trkpt>
<trkpt lat="48.440503" lon="2.711798"><ele></ele><time>2017-9-17T14:41:47Z</time></trkpt>
<trkpt lat="48.440415" lon="2.711788"><ele></ele><time>2017-9-17T14:41:50Z</time></trkpt>
<trkpt lat="48.440407" lon="2.711785"><ele></ele><time>2017-9-17T14:41:53Z</time></trkpt>
<trkpt lat="48.440278" lon="2.711660"><ele></ele><time>2017-9-17T14:41:56Z</time></trkpt>
<trkpt lat="48.440203" lon="2.711585"><ele></ele><time>2017-9-17T14:41:59Z</time></trkpt>
<trkpt lat="48.440118" lon="2.711545"><ele></ele><time>2017-9-17T14:42:2Z</time></trkpt>
<trkpt lat="48.440035" lon="2.711513"><ele></ele><time>2017-9-17T14:42:5Z</time></trkpt>
<trkpt lat="48.439948" lon="2.711530"><ele></ele><time>2017-9-17T14:42:8Z</time></trkpt>
<trkpt lat="48.439870" lon="2.711465"><ele></ele><time>2017-9-17T14:42:11Z</time></trkpt>
<trkpt lat="48.439867" lon="2.711450"><ele></ele><time>2017-9-17T14:42:14Z</time></trkpt>
<trkpt lat="48.439730" lon="2.711338"><ele></ele><time>2017-9-17T14:42:17Z</time></trkpt>
<trkpt lat="48.439655" lon="2.711358"><ele></ele><time>2017-9-17T14:42:20Z</time></trkpt>
<trkpt lat="48.439573" lon="2.711363"><ele></ele><time>2017-9-17T14:42:23Z</time></trkpt>
<trkpt lat="48.439492" lon="2.711352"><ele></ele><time>2017-9-17T14:42:26Z</time></trkpt>
<trkpt lat="48.439403" lon="2.711357"><ele></ele><time>2017-9-17T14:42:29Z</time></trkpt>
<trkpt lat="48.439318" lon="2.711350"><ele></ele><time>2017-9-17T14:42:32Z</time></trkpt>
<trkpt lat="48.439237" lon="2.711335"><ele></ele><time>2017-9-17T14:42:35Z</time></trkpt>
<trkpt lat="48.439225" lon="2.711330"><ele></ele><time>2017-9-17T14:42:38Z</time></trkpt>
<trkpt lat="48.439085" lon="2.711227"><ele></ele><time>2017-9-17T14:42:41Z</time></trkpt>
<trkpt lat="48.439008" lon="2.711193"><ele></ele><time>2017-9-17T14:42:44Z</time></trkpt>
<trkpt lat="48.438947" lon="2.711173"><ele></ele><time>2017-9-17T14:42:47Z</time></trkpt>
<trkpt lat="48.438888" lon="2.711138"><ele></ele><time>2017-9-17T14:42:50Z</time></trkpt>
<trkpt lat="48.438832" lon="2.711085"><ele></ele><time>2017-9-17T14:42:53Z</time></trkpt>
<trkpt lat="48.438785" lon="2.710970"><ele></ele><time>2017-9-17T14:42:56Z</time></trkpt>
<trkpt lat="48.438767" lon="2.710912"><ele></ele><time>2017-9-17T14:42:59Z</time></trkpt>
<trkpt lat="48.438742" lon="2.710850"><ele></ele><time>2017-9-17T14:43:2Z</time></trkpt>
<trkpt lat="48.438708" lon="2.710788"><ele></ele><time>2017-9-17T14:43:5Z</time></trkpt>
<trkpt lat="48.438673" lon="2.710725"><ele></ele><time>2017-9-17T14:43:8Z</time></trkpt>
<trkpt lat="48.438638" lon="2.710673"><ele></ele><time>2017-9-17T14:43:11Z</time></trkpt>
<trkpt lat="48.438600" lon="2.710627"><ele></ele><time>2017-9-17T14:43:14Z</time></trkpt>
<trkpt lat="48.438557" lon="2.710588"><ele></ele><time>2017-9-17T14:43:17Z</time></trkpt>
<trkpt lat="48.438510" lon="2.710553"><ele></ele><time>2017-9-17T14:43:20Z</time></trkpt>
<trkpt lat="48.438468" lon="2.710517"><ele></ele><time>2017-9-17T14:43:23Z</time></trkpt>
<trkpt lat="48.438432" lon="2.710470"><ele></ele><time>2017-9-17T14:43:26Z</time></trkpt>
<trkpt lat="48.438392" lon="2.710355"><ele></ele><time>2017-9-17T14:43:29Z</time></trkpt>
<trkpt lat="48.438352" lon="2.710255"><ele></ele><time>2017-9-17T14:43:32Z</time></trkpt>
<trkpt lat="48.438308" lon="2.710373"><ele></ele><time>2017-9-17T14:43:35Z</time></trkpt>
<trkpt lat="48.438298" lon="2.710490"><ele></ele><time>2017-9-17T14:43:38Z</time></trkpt>
<trkpt lat="48.438287" lon="2.710553"><ele></ele><time>2017-9-17T14:43:41Z</time></trkpt>
<trkpt lat="48.438273" lon="2.710623"><ele></ele><time>2017-9-17T14:43:44Z</time></trkpt>
<trkpt lat="48.438263" lon="2.710703"><ele></ele><time>2017-9-17T14:43:47Z</time></trkpt>
<trkpt lat="48.438192" lon="2.711003"><ele></ele><time>2017-9-17T14:43:50Z</time></trkpt>
<trkpt lat="48.438160" lon="2.711120"><ele></ele><time>2017-9-17T14:43:53Z</time></trkpt>
<trkpt lat="48.438107" lon="2.711355"><ele></ele><time>2017-9-17T14:43:56Z</time></trkpt>
<trkpt lat="48.438062" lon="2.711587"><ele></ele><time>2017-9-17T14:43:59Z</time></trkpt>
<trkpt lat="48.438040" lon="2.711702"><ele></ele><time>2017-9-17T14:44:2Z</time></trkpt>
<trkpt lat="48.438017" lon="2.711813"><ele></ele><time>2017-9-17T14:44:5Z</time></trkpt>
<trkpt lat="48.437998" lon="2.711925"><ele></ele><time>2017-9-17T14:44:8Z</time></trkpt>
<trkpt lat="48.437980" lon="2.712033"><ele></ele><time>2017-9-17T14:44:11Z</time></trkpt>
<trkpt lat="48.437965" lon="2.712142"><ele></ele><time>2017-9-17T14:44:14Z</time></trkpt>
<trkpt lat="48.437950" lon="2.712247"><ele></ele><time>2017-9-17T14:44:17Z</time></trkpt>
<trkpt lat="48.437937" lon="2.712345"><ele></ele><time>2017-9-17T14:44:20Z</time></trkpt>
<trkpt lat="48.437925" lon="2.712438"><ele></ele><time>2017-9-17T14:44:23Z</time></trkpt>
<trkpt lat="48.437913" lon="2.712528"><ele></ele><time>2017-9-17T14:44:26Z</time></trkpt>
<trkpt lat="48.437900" lon="2.712617"><ele></ele><time>2017-9-17T14:44:29Z</time></trkpt>
<trkpt lat="48.437885" lon="2.712703"><ele></ele><time>2017-9-17T14:44:32Z</time></trkpt>
<trkpt lat="48.437873" lon="2.712787"><ele></ele><time>2017-9-17T14:44:35Z</time></trkpt>
<trkpt lat="48.437865" lon="2.712867"><ele></ele><time>2017-9-17T14:44:38Z</time></trkpt>
<trkpt lat="48.437857" lon="2.712947"><ele></ele><time>2017-9-17T14:44:41Z</time></trkpt>
<trkpt lat="48.437845" lon="2.713027"><ele></ele><time>2017-9-17T14:44:44Z</time></trkpt>
<trkpt lat="48.437835" lon="2.713107"><ele></ele><time>2017-9-17T14:44:47Z</time></trkpt>
<trkpt lat="48.437825" lon="2.713183"><ele></ele><time>2017-9-17T14:44:50Z</time></trkpt>
<trkpt lat="48.437818" lon="2.713258"><ele></ele><time>2017-9-17T14:44:53Z</time></trkpt>
<trkpt lat="48.437808" lon="2.713332"><ele></ele><time>2017-9-17T14:44:56Z</time></trkpt>
<trkpt lat="48.437795" lon="2.713407"><ele></ele><time>2017-9-17T14:44:59Z</time></trkpt>
<trkpt lat="48.437783" lon="2.713482"><ele></ele><time>2017-9-17T14:45:2Z</time></trkpt>
<trkpt lat="48.437762" lon="2.713627"><ele></ele><time>2017-9-17T14:45:5Z</time></trkpt>
<trkpt lat="48.437743" lon="2.713770"><ele></ele><time>2017-9-17T14:45:8Z</time></trkpt>
<trkpt lat="48.437735" lon="2.713840"><ele></ele><time>2017-9-17T14:45:11Z</time></trkpt>
<trkpt lat="48.437727" lon="2.713908"><ele></ele><time>2017-9-17T14:45:14Z</time></trkpt>
<trkpt lat="48.437707" lon="2.714040"><ele></ele><time>2017-9-17T14:45:17Z</time></trkpt>
<trkpt lat="48.437698" lon="2.714107"><ele></ele><time>2017-9-17T14:45:20Z</time></trkpt>
<trkpt lat="48.437690" lon="2.714175"><ele></ele><time>2017-9-17T14:45:23Z</time></trkpt>
<trkpt lat="48.437677" lon="2.714305"><ele></ele><time>2017-9-17T14:45:26Z</time></trkpt>
<trkpt lat="48.437663" lon="2.714433"><ele></ele><time>2017-9-17T14:45:29Z</time></trkpt>
<trkpt lat="48.437645" lon="2.714557"><ele></ele><time>2017-9-17T14:45:32Z</time></trkpt>
<trkpt lat="48.437638" lon="2.714682"><ele></ele><time>2017-9-17T14:45:35Z</time></trkpt>
<trkpt lat="48.437632" lon="2.714798"><ele></ele><time>2017-9-17T14:45:38Z</time></trkpt>
<trkpt lat="48.437615" lon="2.714903"><ele></ele><time>2017-9-17T14:45:41Z</time></trkpt>
<trkpt lat="48.437613" lon="2.715030"><ele></ele><time>2017-9-17T14:45:44Z</time></trkpt>
<trkpt lat="48.437617" lon="2.715157"><ele></ele><time>2017-9-17T14:45:47Z</time></trkpt>
<trkpt lat="48.437603" lon="2.715250"><ele></ele><time>2017-9-17T14:45:50Z</time></trkpt>
<trkpt lat="48.437597" lon="2.715293"><ele></ele><time>2017-9-17T14:45:53Z</time></trkpt>
<trkpt lat="48.437570" lon="2.715458"><ele></ele><time>2017-9-17T14:45:56Z</time></trkpt>
<trkpt lat="48.437563" lon="2.715523"><ele></ele><time>2017-9-17T14:45:59Z</time></trkpt>
<trkpt lat="48.437538" lon="2.715633"><ele></ele><time>2017-9-17T14:46:2Z</time></trkpt>
<trkpt lat="48.437527" lon="2.715733"><ele></ele><time>2017-9-17T14:46:5Z</time></trkpt>
<trkpt lat="48.437503" lon="2.715862"><ele></ele><time>2017-9-17T14:46:8Z</time></trkpt>
<trkpt lat="48.437493" lon="2.715990"><ele></ele><time>2017-9-17T14:46:11Z</time></trkpt>
<trkpt lat="48.437485" lon="2.716060"><ele></ele><time>2017-9-17T14:46:14Z</time></trkpt>
<trkpt lat="48.437472" lon="2.716135"><ele></ele><time>2017-9-17T14:46:17Z</time></trkpt>
<trkpt lat="48.437458" lon="2.716212"><ele></ele><time>2017-9-17T14:46:20Z</time></trkpt>
<trkpt lat="48.437448" lon="2.716280"><ele></ele><time>2017-9-17T14:46:23Z</time></trkpt>
<trkpt lat="48.437430" lon="2.716408"><ele></ele><time>2017-9-17T14:46:26Z</time></trkpt>
<trkpt lat="48.437415" lon="2.716532"><ele></ele><time>2017-9-17T14:46:29Z</time></trkpt>
<trkpt lat="48.437395" lon="2.716660"><ele></ele><time>2017-9-17T14:46:32Z</time></trkpt>
<trkpt lat="48.437387" lon="2.716770"><ele></ele><time>2017-9-17T14:46:35Z</time></trkpt>
<trkpt lat="48.437375" lon="2.716887"><ele></ele><time>2017-9-17T14:46:38Z</time></trkpt>
<trkpt lat="48.437365" lon="2.716958"><ele></ele><time>2017-9-17T14:46:41Z</time></trkpt>
<trkpt lat="48.437350" lon="2.717048"><ele></ele><time>2017-9-17T14:46:44Z</time></trkpt>
<trkpt lat="48.437337" lon="2.717127"><ele></ele><time>2017-9-17T14:46:47Z</time></trkpt>
<trkpt lat="48.437322" lon="2.717203"><ele></ele><time>2017-9-17T14:46:50Z</time></trkpt>
<trkpt lat="48.437312" lon="2.717278"><ele></ele><time>2017-9-17T14:46:53Z</time></trkpt>
<trkpt lat="48.437302" lon="2.717352"><ele></ele><time>2017-9-17T14:46:56Z</time></trkpt>
<trkpt lat="48.437295" lon="2.717420"><ele></ele><time>2017-9-17T14:46:59Z</time></trkpt>
<trkpt lat="48.437287" lon="2.717487"><ele></ele><time>2017-9-17T14:47:2Z</time></trkpt>
<trkpt lat="48.437278" lon="2.717553"><ele></ele><time>2017-9-17T14:47:5Z</time></trkpt>
<trkpt lat="48.437270" lon="2.717630"><ele></ele><time>2017-9-17T14:47:8Z</time></trkpt>
<trkpt lat="48.437263" lon="2.717705"><ele></ele><time>2017-9-17T14:47:11Z</time></trkpt>
<trkpt lat="48.437253" lon="2.717783"><ele></ele><time>2017-9-17T14:47:14Z</time></trkpt>
<trkpt lat="48.437240" lon="2.717868"><ele></ele><time>2017-9-17T14:47:17Z</time></trkpt>
<trkpt lat="48.437233" lon="2.717947"><ele></ele><time>2017-9-17T14:47:20Z</time></trkpt>
<trkpt lat="48.437227" lon="2.718023"><ele></ele><time>2017-9-17T14:47:23Z</time></trkpt>
<trkpt lat="48.437218" lon="2.718097"><ele></ele><time>2017-9-17T14:47:26Z</time></trkpt>
<trkpt lat="48.437207" lon="2.718172"><ele></ele><time>2017-9-17T14:47:29Z</time></trkpt>
<trkpt lat="48.437198" lon="2.718245"><ele></ele><time>2017-9-17T14:47:32Z</time></trkpt>
<trkpt lat="48.437187" lon="2.718375"><ele></ele><time>2017-9-17T14:47:35Z</time></trkpt>
<trkpt lat="48.437172" lon="2.718493"><ele></ele><time>2017-9-17T14:47:38Z</time></trkpt>
<trkpt lat="48.437160" lon="2.718610"><ele></ele><time>2017-9-17T14:47:41Z</time></trkpt>
<trkpt lat="48.437115" lon="2.718722"><ele></ele><time>2017-9-17T14:47:44Z</time></trkpt>
<trkpt lat="48.437065" lon="2.718700"><ele></ele><time>2017-9-17T14:47:47Z</time></trkpt>
<trkpt lat="48.437017" lon="2.718672"><ele></ele><time>2017-9-17T14:47:50Z</time></trkpt>
<trkpt lat="48.436968" lon="2.718643"><ele></ele><time>2017-9-17T14:47:53Z</time></trkpt>
<trkpt lat="48.436920" lon="2.718622"><ele></ele><time>2017-9-17T14:47:56Z</time></trkpt>
<trkpt lat="48.436828" lon="2.718550"><ele></ele><time>2017-9-17T14:47:59Z</time></trkpt>
<trkpt lat="48.436768" lon="2.718530"><ele></ele><time>2017-9-17T14:48:2Z</time></trkpt>
<trkpt lat="48.436708" lon="2.718507"><ele></ele><time>2017-9-17T14:48:5Z</time></trkpt>
<trkpt lat="48.436638" lon="2.718477"><ele></ele><time>2017-9-17T14:48:8Z</time></trkpt>
<trkpt lat="48.436568" lon="2.718433"><ele></ele><time>2017-9-17T14:48:11Z</time></trkpt>
<trkpt lat="48.436512" lon="2.718402"><ele></ele><time>2017-9-17T14:48:14Z</time></trkpt>
<trkpt lat="48.436447" lon="2.718372"><ele></ele><time>2017-9-17T14:48:17Z</time></trkpt>
<trkpt lat="48.436390" lon="2.718340"><ele></ele><time>2017-9-17T14:48:20Z</time></trkpt>
<trkpt lat="48.436330" lon="2.718303"><ele></ele><time>2017-9-17T14:48:23Z</time></trkpt>
<trkpt lat="48.436272" lon="2.718278"><ele></ele><time>2017-9-17T14:48:26Z</time></trkpt>
<trkpt lat="48.436212" lon="2.718250"><ele></ele><time>2017-9-17T14:48:29Z</time></trkpt>
<trkpt lat="48.436147" lon="2.718228"><ele></ele><time>2017-9-17T14:48:32Z</time></trkpt>
<trkpt lat="48.436087" lon="2.718203"><ele></ele><time>2017-9-17T14:48:35Z</time></trkpt>
<trkpt lat="48.436028" lon="2.718165"><ele></ele><time>2017-9-17T14:48:38Z</time></trkpt>
<trkpt lat="48.435958" lon="2.718133"><ele></ele><time>2017-9-17T14:48:41Z</time></trkpt>
<trkpt lat="48.435890" lon="2.718112"><ele></ele><time>2017-9-17T14:48:44Z</time></trkpt>
<trkpt lat="48.435843" lon="2.718090"><ele></ele><time>2017-9-17T14:48:47Z</time></trkpt>
<trkpt lat="48.435800" lon="2.718068"><ele></ele><time>2017-9-17T14:48:50Z</time></trkpt>
<trkpt lat="48.435717" lon="2.718035"><ele></ele><time>2017-9-17T14:48:53Z</time></trkpt>
<trkpt lat="48.435637" lon="2.717983"><ele></ele><time>2017-9-17T14:48:56Z</time></trkpt>
<trkpt lat="48.435560" lon="2.717938"><ele></ele><time>2017-9-17T14:48:59Z</time></trkpt>
<trkpt lat="48.435485" lon="2.717892"><ele></ele><time>2017-9-17T14:49:2Z</time></trkpt>
<trkpt lat="48.435403" lon="2.717845"><ele></ele><time>2017-9-17T14:49:5Z</time></trkpt>
<trkpt lat="48.435387" lon="2.717840"><ele></ele><time>2017-9-17T14:49:8Z</time></trkpt>
<trkpt lat="48.435242" lon="2.717787"><ele></ele><time>2017-9-17T14:49:11Z</time></trkpt>
<trkpt lat="48.435173" lon="2.717750"><ele></ele><time>2017-9-17T14:49:14Z</time></trkpt>
<trkpt lat="48.435092" lon="2.717732"><ele></ele><time>2017-9-17T14:49:17Z</time></trkpt>
<trkpt lat="48.435007" lon="2.717693"><ele></ele><time>2017-9-17T14:49:20Z</time></trkpt>
<trkpt lat="48.434928" lon="2.717642"><ele></ele><time>2017-9-17T14:49:23Z</time></trkpt>
<trkpt lat="48.434863" lon="2.717568"><ele></ele><time>2017-9-17T14:49:26Z</time></trkpt>
<trkpt lat="48.434783" lon="2.717520"><ele></ele><time>2017-9-17T14:49:29Z</time></trkpt>
<trkpt lat="48.434702" lon="2.717522"><ele></ele><time>2017-9-17T14:49:32Z</time></trkpt>
<trkpt lat="48.434617" lon="2.717527"><ele></ele><time>2017-9-17T14:49:35Z</time></trkpt>
<trkpt lat="48.434540" lon="2.717522"><ele></ele><time>2017-9-17T14:49:38Z</time></trkpt>
<trkpt lat="48.434522" lon="2.717523"><ele></ele><time>2017-9-17T14:49:41Z</time></trkpt>
<trkpt lat="48.434385" lon="2.717567"><ele></ele><time>2017-9-17T14:49:44Z</time></trkpt>
<trkpt lat="48.434300" lon="2.717583"><ele></ele><time>2017-9-17T14:49:47Z</time></trkpt>
<trkpt lat="48.434257" lon="2.717588"><ele></ele><time>2017-9-17T14:49:50Z</time></trkpt>
<trkpt lat="48.434210" lon="2.717587"><ele></ele><time>2017-9-17T14:49:53Z</time></trkpt>
<trkpt lat="48.434155" lon="2.717583"><ele></ele><time>2017-9-17T14:49:56Z</time></trkpt>
<trkpt lat="48.434098" lon="2.717593"><ele></ele><time>2017-9-17T14:49:59Z</time></trkpt>
<trkpt lat="48.434045" lon="2.717602"><ele></ele><time>2017-9-17T14:50:2Z</time></trkpt>
<trkpt lat="48.433995" lon="2.717617"><ele></ele><time>2017-9-17T14:50:5Z</time></trkpt>
<trkpt lat="48.433943" lon="2.717633"><ele></ele><time>2017-9-17T14:50:8Z</time></trkpt>
<trkpt lat="48.433893" lon="2.717638"><ele></ele><time>2017-9-17T14:50:11Z</time></trkpt>
<trkpt lat="48.433848" lon="2.717648"><ele></ele><time>2017-9-17T14:50:14Z</time></trkpt>
<trkpt lat="48.433773" lon="2.717692"><ele></ele><time>2017-9-17T14:50:17Z</time></trkpt>
<trkpt lat="48.433700" lon="2.717727"><ele></ele><time>2017-9-17T14:50:20Z</time></trkpt>
<trkpt lat="48.433643" lon="2.717778"><ele></ele><time>2017-9-17T14:50:23Z</time></trkpt>
<trkpt lat="48.433573" lon="2.717837"><ele></ele><time>2017-9-17T14:50:26Z</time></trkpt>
<trkpt lat="48.433490" lon="2.717882"><ele></ele><time>2017-9-17T14:50:29Z</time></trkpt>
<trkpt lat="48.433405" lon="2.717922"><ele></ele><time>2017-9-17T14:50:32Z</time></trkpt>
<trkpt lat="48.433323" lon="2.717935"><ele></ele><time>2017-9-17T14:50:35Z</time></trkpt>
<trkpt lat="48.433247" lon="2.717970"><ele></ele><time>2017-9-17T14:50:38Z</time></trkpt>
<trkpt lat="48.433193" lon="2.717992"><ele></ele><time>2017-9-17T14:50:41Z</time></trkpt>
<trkpt lat="48.433142" lon="2.718005"><ele></ele><time>2017-9-17T14:50:44Z</time></trkpt>
<trkpt lat="48.433085" lon="2.718018"><ele></ele><time>2017-9-17T14:50:47Z</time></trkpt>
<trkpt lat="48.433035" lon="2.718030"><ele></ele><time>2017-9-17T14:50:50Z</time></trkpt>
<trkpt lat="48.432980" lon="2.718058"><ele></ele><time>2017-9-17T14:50:53Z</time></trkpt>
<trkpt lat="48.432907" lon="2.718087"><ele></ele><time>2017-9-17T14:50:56Z</time></trkpt>
<trkpt lat="48.432827" lon="2.718128"><ele></ele><time>2017-9-17T14:50:59Z</time></trkpt>
<trkpt lat="48.432745" lon="2.718157"><ele></ele><time>2017-9-17T14:51:2Z</time></trkpt>
<trkpt lat="48.432732" lon="2.718157"><ele></ele><time>2017-9-17T14:51:5Z</time></trkpt>
<trkpt lat="48.432573" lon="2.718187"><ele></ele><time>2017-9-17T14:51:8Z</time></trkpt>
<trkpt lat="48.432495" lon="2.718227"><ele></ele><time>2017-9-17T14:51:11Z</time></trkpt>
<trkpt lat="48.432418" lon="2.718262"><ele></ele><time>2017-9-17T14:51:14Z</time></trkpt>
<trkpt lat="48.432335" lon="2.718305"><ele></ele><time>2017-9-17T14:51:17Z</time></trkpt>
<trkpt lat="48.432255" lon="2.718337"><ele></ele><time>2017-9-17T14:51:20Z</time></trkpt>
<trkpt lat="48.432177" lon="2.718357"><ele></ele><time>2017-9-17T14:51:23Z</time></trkpt>
<trkpt lat="48.432090" lon="2.718370"><ele></ele><time>2017-9-17T14:51:26Z</time></trkpt>
<trkpt lat="48.432020" lon="2.718443"><ele></ele><time>2017-9-17T14:51:29Z</time></trkpt>
<trkpt lat="48.432067" lon="2.718548"><ele></ele><time>2017-9-17T14:51:32Z</time></trkpt>
<trkpt lat="48.432078" lon="2.718575"><ele></ele><time>2017-9-17T14:51:35Z</time></trkpt>
<trkpt lat="48.432138" lon="2.718735"><ele></ele><time>2017-9-17T14:51:38Z</time></trkpt>
<trkpt lat="48.432168" lon="2.718850"><ele></ele><time>2017-9-17T14:51:41Z</time></trkpt>
<trkpt lat="48.432210" lon="2.718960"><ele></ele><time>2017-9-17T14:51:44Z</time></trkpt>
<trkpt lat="48.432258" lon="2.719067"><ele></ele><time>2017-9-17T14:51:47Z</time></trkpt>
<trkpt lat="48.432292" lon="2.719182"><ele></ele><time>2017-9-17T14:51:50Z</time></trkpt>
<trkpt lat="48.432333" lon="2.719302"><ele></ele><time>2017-9-17T14:51:53Z</time></trkpt>
<trkpt lat="48.432372" lon="2.719400"><ele></ele><time>2017-9-17T14:51:56Z</time></trkpt>
<trkpt lat="48.432423" lon="2.719525"><ele></ele><time>2017-9-17T14:51:59Z</time></trkpt>
<trkpt lat="48.432452" lon="2.719595"><ele></ele><time>2017-9-17T14:52:2Z</time></trkpt>
<trkpt lat="48.432480" lon="2.719670"><ele></ele><time>2017-9-17T14:52:5Z</time></trkpt>
<trkpt lat="48.432508" lon="2.719745"><ele></ele><time>2017-9-17T14:52:8Z</time></trkpt>
<trkpt lat="48.432537" lon="2.719818"><ele></ele><time>2017-9-17T14:52:11Z</time></trkpt>
<trkpt lat="48.432563" lon="2.719892"><ele></ele><time>2017-9-17T14:52:14Z</time></trkpt>
<trkpt lat="48.432595" lon="2.719972"><ele></ele><time>2017-9-17T14:52:17Z</time></trkpt>
<trkpt lat="48.432630" lon="2.720050"><ele></ele><time>2017-9-17T14:52:20Z</time></trkpt>
<trkpt lat="48.432667" lon="2.720127"><ele></ele><time>2017-9-17T14:52:23Z</time></trkpt>
<trkpt lat="48.432703" lon="2.720198"><ele></ele><time>2017-9-17T14:52:26Z</time></trkpt>
<trkpt lat="48.432733" lon="2.720268"><ele></ele><time>2017-9-17T14:52:29Z</time></trkpt>
<trkpt lat="48.432758" lon="2.720332"><ele></ele><time>2017-9-17T14:52:32Z</time></trkpt>
<trkpt lat="48.432798" lon="2.720445"><ele></ele><time>2017-9-17T14:52:35Z</time></trkpt>
<trkpt lat="48.432837" lon="2.720542"><ele></ele><time>2017-9-17T14:52:38Z</time></trkpt>
<trkpt lat="48.432875" lon="2.720642"><ele></ele><time>2017-9-17T14:52:41Z</time></trkpt>
<trkpt lat="48.432912" lon="2.720752"><ele></ele><time>2017-9-17T14:52:44Z</time></trkpt>
<trkpt lat="48.432933" lon="2.720808"><ele></ele><time>2017-9-17T14:52:47Z</time></trkpt>
<trkpt lat="48.432958" lon="2.720870"><ele></ele><time>2017-9-17T14:52:50Z</time></trkpt>
<trkpt lat="48.432987" lon="2.720928"><ele></ele><time>2017-9-17T14:52:53Z</time></trkpt>
<trkpt lat="48.433017" lon="2.720982"><ele></ele><time>2017-9-17T14:52:56Z</time></trkpt>
<trkpt lat="48.433078" lon="2.721077"><ele></ele><time>2017-9-17T14:52:59Z</time></trkpt>
<trkpt lat="48.433103" lon="2.721192"><ele></ele><time>2017-9-17T14:53:2Z</time></trkpt>
<trkpt lat="48.433037" lon="2.721233"><ele></ele><time>2017-9-17T14:53:5Z</time></trkpt>
<trkpt lat="48.433015" lon="2.721233"><ele></ele><time>2017-9-17T14:53:8Z</time></trkpt>
<trkpt lat="48.432878" lon="2.721200"><ele></ele><time>2017-9-17T14:53:11Z</time></trkpt>
<trkpt lat="48.432815" lon="2.721183"><ele></ele><time>2017-9-17T14:53:14Z</time></trkpt>
<trkpt lat="48.432737" lon="2.721140"><ele></ele><time>2017-9-17T14:53:17Z</time></trkpt>
<trkpt lat="48.432658" lon="2.721108"><ele></ele><time>2017-9-17T14:53:20Z</time></trkpt>
<trkpt lat="48.432592" lon="2.721072"><ele></ele><time>2017-9-17T14:53:23Z</time></trkpt>
<trkpt lat="48.432518" lon="2.721018"><ele></ele><time>2017-9-17T14:53:26Z</time></trkpt>
<trkpt lat="48.432450" lon="2.720977"><ele></ele><time>2017-9-17T14:53:29Z</time></trkpt>
<trkpt lat="48.432378" lon="2.720932"><ele></ele><time>2017-9-17T14:53:32Z</time></trkpt>
<trkpt lat="48.432330" lon="2.720873"><ele></ele><time>2017-9-17T14:53:35Z</time></trkpt>
<trkpt lat="48.432268" lon="2.720803"><ele></ele><time>2017-9-17T14:53:38Z</time></trkpt>
<trkpt lat="48.432203" lon="2.720752"><ele></ele><time>2017-9-17T14:53:41Z</time></trkpt>
<trkpt lat="48.432128" lon="2.720710"><ele></ele><time>2017-9-17T14:53:44Z</time></trkpt>
<trkpt lat="48.432058" lon="2.720660"><ele></ele><time>2017-9-17T14:53:47Z</time></trkpt>
<trkpt lat="48.431988" lon="2.720578"><ele></ele><time>2017-9-17T14:53:50Z</time></trkpt>
<trkpt lat="48.431922" lon="2.720527"><ele></ele><time>2017-9-17T14:53:53Z</time></trkpt>
<trkpt lat="48.431902" lon="2.720513"><ele></ele><time>2017-9-17T14:53:56Z</time></trkpt>
<trkpt lat="48.431790" lon="2.720433"><ele></ele><time>2017-9-17T14:53:59Z</time></trkpt>
<trkpt lat="48.431707" lon="2.720413"><ele></ele><time>2017-9-17T14:54:2Z</time></trkpt>
<trkpt lat="48.431635" lon="2.720418"><ele></ele><time>2017-9-17T14:54:5Z</time></trkpt>
<trkpt lat="48.431550" lon="2.720442"><ele></ele><time>2017-9-17T14:54:8Z</time></trkpt>
<trkpt lat="48.431470" lon="2.720457"><ele></ele><time>2017-9-17T14:54:11Z</time></trkpt>
<trkpt lat="48.431393" lon="2.720460"><ele></ele><time>2017-9-17T14:54:14Z</time></trkpt>
<trkpt lat="48.431310" lon="2.720463"><ele></ele><time>2017-9-17T14:54:17Z</time></trkpt>
<trkpt lat="48.431228" lon="2.720458"><ele></ele><time>2017-9-17T14:54:20Z</time></trkpt>
<trkpt lat="48.431142" lon="2.720450"><ele></ele><time>2017-9-17T14:54:23Z</time></trkpt>
<trkpt lat="48.431073" lon="2.720420"><ele></ele><time>2017-9-17T14:54:26Z</time></trkpt>
<trkpt lat="48.431007" lon="2.720352"><ele></ele><time>2017-9-17T14:54:29Z</time></trkpt>
<trkpt lat="48.430995" lon="2.720345"><ele></ele><time>2017-9-17T14:54:32Z</time></trkpt>
<trkpt lat="48.430875" lon="2.720243"><ele></ele><time>2017-9-17T14:54:35Z</time></trkpt>
<trkpt lat="48.430810" lon="2.720165"><ele></ele><time>2017-9-17T14:54:38Z</time></trkpt>
<trkpt lat="48.430758" lon="2.720073"><ele></ele><time>2017-9-17T14:54:41Z</time></trkpt>
<trkpt lat="48.430702" lon="2.719972"><ele></ele><time>2017-9-17T14:54:44Z</time></trkpt>
<trkpt lat="48.430653" lon="2.719900"><ele></ele><time>2017-9-17T14:54:47Z</time></trkpt>
<trkpt lat="48.430603" lon="2.719828"><ele></ele><time>2017-9-17T14:54:50Z</time></trkpt>
<trkpt lat="48.430555" lon="2.719755"><ele></ele><time>2017-9-17T14:54:53Z</time></trkpt>
<trkpt lat="48.430505" lon="2.719702"><ele></ele><time>2017-9-17T14:54:56Z</time></trkpt>
<trkpt lat="48.430457" lon="2.719653"><ele></ele><time>2017-9-17T14:54:59Z</time></trkpt>
<trkpt lat="48.430403" lon="2.719590"><ele></ele><time>2017-9-17T14:55:2Z</time></trkpt>
<trkpt lat="48.430352" lon="2.719505"><ele></ele><time>2017-9-17T14:55:5Z</time></trkpt>
<trkpt lat="48.430290" lon="2.719427"><ele></ele><time>2017-9-17T14:55:8Z</time></trkpt>
<trkpt lat="48.430240" lon="2.719360"><ele></ele><time>2017-9-17T14:55:11Z</time></trkpt>
<trkpt lat="48.430180" lon="2.719268"><ele></ele><time>2017-9-17T14:55:14Z</time></trkpt>
<trkpt lat="48.430130" lon="2.719205"><ele></ele><time>2017-9-17T14:55:17Z</time></trkpt>
<trkpt lat="48.430088" lon="2.719145"><ele></ele><time>2017-9-17T14:55:20Z</time></trkpt>
<trkpt lat="48.430040" lon="2.719080"><ele></ele><time>2017-9-17T14:55:23Z</time></trkpt>
<trkpt lat="48.429983" lon="2.719005"><ele></ele><time>2017-9-17T14:55:26Z</time></trkpt>
<trkpt lat="48.429923" lon="2.718918"><ele></ele><time>2017-9-17T14:55:29Z</time></trkpt>
<trkpt lat="48.429910" lon="2.718903"><ele></ele><time>2017-9-17T14:55:32Z</time></trkpt>
<trkpt lat="48.429818" lon="2.718780"><ele></ele><time>2017-9-17T14:55:35Z</time></trkpt>
<trkpt lat="48.429777" lon="2.718762"><ele></ele><time>2017-9-17T14:55:38Z</time></trkpt>
<trkpt lat="48.429735" lon="2.718723"><ele></ele><time>2017-9-17T14:55:41Z</time></trkpt>
<trkpt lat="48.429698" lon="2.718683"><ele></ele><time>2017-9-17T14:55:44Z</time></trkpt>
<trkpt lat="48.429648" lon="2.718665"><ele></ele><time>2017-9-17T14:55:47Z</time></trkpt>
<trkpt lat="48.429605" lon="2.718652"><ele></ele><time>2017-9-17T14:55:50Z</time></trkpt>
<trkpt lat="48.429557" lon="2.718640"><ele></ele><time>2017-9-17T14:55:53Z</time></trkpt>
<trkpt lat="48.429488" lon="2.718627"><ele></ele><time>2017-9-17T14:55:56Z</time></trkpt>
<trkpt lat="48.429413" lon="2.718622"><ele></ele><time>2017-9-17T14:55:59Z</time></trkpt>
<trkpt lat="48.429348" lon="2.718562"><ele></ele><time>2017-9-17T14:56:2Z</time></trkpt>
<trkpt lat="48.429340" lon="2.718428"><ele></ele><time>2017-9-17T14:56:5Z</time></trkpt>
<trkpt lat="48.429317" lon="2.718330"><ele></ele><time>2017-9-17T14:56:8Z</time></trkpt>
<trkpt lat="48.429250" lon="2.718280"><ele></ele><time>2017-9-17T14:56:11Z</time></trkpt>
<trkpt lat="48.429190" lon="2.718253"><ele></ele><time>2017-9-17T14:56:14Z</time></trkpt>
<trkpt lat="48.429130" lon="2.718200"><ele></ele><time>2017-9-17T14:56:17Z</time></trkpt>
<trkpt lat="48.429067" lon="2.718147"><ele></ele><time>2017-9-17T14:56:20Z</time></trkpt>
<trkpt lat="48.429002" lon="2.718080"><ele></ele><time>2017-9-17T14:56:23Z</time></trkpt>
<trkpt lat="48.428930" lon="2.718052"><ele></ele><time>2017-9-17T14:56:26Z</time></trkpt>
<trkpt lat="48.428855" lon="2.718067"><ele></ele><time>2017-9-17T14:56:29Z</time></trkpt>
<trkpt lat="48.428773" lon="2.718070"><ele></ele><time>2017-9-17T14:56:32Z</time></trkpt>
<trkpt lat="48.428697" lon="2.718062"><ele></ele><time>2017-9-17T14:56:35Z</time></trkpt>
<trkpt lat="48.428660" lon="2.718048"><ele></ele><time>2017-9-17T14:56:38Z</time></trkpt>
<trkpt lat="48.428598" lon="2.718032"><ele></ele><time>2017-9-17T14:56:41Z</time></trkpt>
<trkpt lat="48.428532" lon="2.718060"><ele></ele><time>2017-9-17T14:56:44Z</time></trkpt>
<trkpt lat="48.428460" lon="2.718087"><ele></ele><time>2017-9-17T14:56:47Z</time></trkpt>
<trkpt lat="48.428385" lon="2.718077"><ele></ele><time>2017-9-17T14:56:50Z</time></trkpt>
<trkpt lat="48.428305" lon="2.718058"><ele></ele><time>2017-9-17T14:56:53Z</time></trkpt>
<trkpt lat="48.428225" lon="2.718077"><ele></ele><time>2017-9-17T14:56:56Z</time></trkpt>
<trkpt lat="48.428145" lon="2.718082"><ele></ele><time>2017-9-17T14:56:59Z</time></trkpt>
<trkpt lat="48.428067" lon="2.718082"><ele></ele><time>2017-9-17T14:57:2Z</time></trkpt>
<trkpt lat="48.427995" lon="2.718055"><ele></ele><time>2017-9-17T14:57:5Z</time></trkpt>
<trkpt lat="48.427937" lon="2.718020"><ele></ele><time>2017-9-17T14:57:8Z</time></trkpt>
<trkpt lat="48.427872" lon="2.717953"><ele></ele><time>2017-9-17T14:57:11Z</time></trkpt>
<trkpt lat="48.427788" lon="2.717903"><ele></ele><time>2017-9-17T14:57:14Z</time></trkpt>
<trkpt lat="48.427842" lon="2.717965"><ele></ele><time>2017-9-17T14:57:17Z</time></trkpt>
<trkpt lat="48.427907" lon="2.718038"><ele></ele><time>2017-9-17T14:57:20Z</time></trkpt>
<trkpt lat="48.427922" lon="2.717905"><ele></ele><time>2017-9-17T14:57:23Z</time></trkpt>
<trkpt lat="48.427892" lon="2.717795"><ele></ele><time>2017-9-17T14:57:26Z</time></trkpt>
<trkpt lat="48.427855" lon="2.717713"><ele></ele><time>2017-9-17T14:57:29Z</time></trkpt>
<trkpt lat="48.427838" lon="2.717618"><ele></ele><time>2017-9-17T14:57:32Z</time></trkpt>
<trkpt lat="48.427828" lon="2.717522"><ele></ele><time>2017-9-17T14:57:35Z</time></trkpt>
<trkpt lat="48.427820" lon="2.717418"><ele></ele><time>2017-9-17T14:57:38Z</time></trkpt>
<trkpt lat="48.427813" lon="2.717320"><ele></ele><time>2017-9-17T14:57:41Z</time></trkpt>
<trkpt lat="48.427802" lon="2.717215"><ele></ele><time>2017-9-17T14:57:44Z</time></trkpt>
<trkpt lat="48.427793" lon="2.717107"><ele></ele><time>2017-9-17T14:57:47Z</time></trkpt>
<trkpt lat="48.427815" lon="2.717008"><ele></ele><time>2017-9-17T14:57:50Z</time></trkpt>
<trkpt lat="48.427837" lon="2.716903"><ele></ele><time>2017-9-17T14:57:53Z</time></trkpt>
<trkpt lat="48.427837" lon="2.716812"><ele></ele><time>2017-9-17T14:57:56Z</time></trkpt>
<trkpt lat="48.427827" lon="2.716763"><ele></ele><time>2017-9-17T14:57:59Z</time></trkpt>
<trkpt lat="48.427778" lon="2.716620"><ele></ele><time>2017-9-17T14:58:2Z</time></trkpt>
<trkpt lat="48.427735" lon="2.716525"><ele></ele><time>2017-9-17T14:58:5Z</time></trkpt>
<trkpt lat="48.427688" lon="2.716442"><ele></ele><time>2017-9-17T14:58:8Z</time></trkpt>
<trkpt lat="48.427647" lon="2.716362"><ele></ele><time>2017-9-17T14:58:11Z</time></trkpt>
<trkpt lat="48.427595" lon="2.716292"><ele></ele><time>2017-9-17T14:58:14Z</time></trkpt>
<trkpt lat="48.427535" lon="2.716197"><ele></ele><time>2017-9-17T14:58:17Z</time></trkpt>
<trkpt lat="48.427492" lon="2.716130"><ele></ele><time>2017-9-17T14:58:20Z</time></trkpt>
<trkpt lat="48.427415" lon="2.716087"><ele></ele><time>2017-9-17T14:58:23Z</time></trkpt>
<trkpt lat="48.427343" lon="2.716057"><ele></ele><time>2017-9-17T14:58:26Z</time></trkpt>
<trkpt lat="48.427283" lon="2.716020"><ele></ele><time>2017-9-17T14:58:29Z</time></trkpt>
<trkpt lat="48.427225" lon="2.715968"><ele></ele><time>2017-9-17T14:58:32Z</time></trkpt>
<trkpt lat="48.427195" lon="2.715935"><ele></ele><time>2017-9-17T14:58:35Z</time></trkpt>
<trkpt lat="48.427142" lon="2.715863"><ele></ele><time>2017-9-17T14:58:38Z</time></trkpt>
<trkpt lat="48.427083" lon="2.715807"><ele></ele><time>2017-9-17T14:58:41Z</time></trkpt>
<trkpt lat="48.427028" lon="2.715765"><ele></ele><time>2017-9-17T14:58:44Z</time></trkpt>
<trkpt lat="48.426967" lon="2.715705"><ele></ele><time>2017-9-17T14:58:47Z</time></trkpt>
<trkpt lat="48.426905" lon="2.715613"><ele></ele><time>2017-9-17T14:58:50Z</time></trkpt>
<trkpt lat="48.426855" lon="2.715515"><ele></ele><time>2017-9-17T14:58:53Z</time></trkpt>
<trkpt lat="48.426820" lon="2.715418"><ele></ele><time>2017-9-17T14:58:56Z</time></trkpt>
<trkpt lat="48.426802" lon="2.715332"><ele></ele><time>2017-9-17T14:58:59Z</time></trkpt>
<trkpt lat="48.426783" lon="2.715213"><ele></ele><time>2017-9-17T14:59:2Z</time></trkpt>
<trkpt lat="48.426783" lon="2.715132"><ele></ele><time>2017-9-17T14:59:5Z</time></trkpt>
<trkpt lat="48.426758" lon="2.715015"><ele></ele><time>2017-9-17T14:59:8Z</time></trkpt>
<trkpt lat="48.426692" lon="2.714958"><ele></ele><time>2017-9-17T14:59:11Z</time></trkpt>
<trkpt lat="48.426628" lon="2.714930"><ele></ele><time>2017-9-17T14:59:14Z</time></trkpt>
<trkpt lat="48.426553" lon="2.714878"><ele></ele><time>2017-9-17T14:59:17Z</time></trkpt>
<trkpt lat="48.426492" lon="2.714813"><ele></ele><time>2017-9-17T14:59:20Z</time></trkpt>
<trkpt lat="48.426447" lon="2.714758"><ele></ele><time>2017-9-17T14:59:23Z</time></trkpt>
<trkpt lat="48.426417" lon="2.714725"><ele></ele><time>2017-9-17T14:59:26Z</time></trkpt>
<trkpt lat="48.426318" lon="2.714638"><ele></ele><time>2017-9-17T14:59:29Z</time></trkpt>
<trkpt lat="48.426258" lon="2.714582"><ele></ele><time>2017-9-17T14:59:32Z</time></trkpt>
<trkpt lat="48.426207" lon="2.714530"><ele></ele><time>2017-9-17T14:59:35Z</time></trkpt>
<trkpt lat="48.426152" lon="2.714478"><ele></ele><time>2017-9-17T14:59:38Z</time></trkpt>
<trkpt lat="48.426088" lon="2.714407"><ele></ele><time>2017-9-17T14:59:41Z</time></trkpt>
<trkpt lat="48.426035" lon="2.714357"><ele></ele><time>2017-9-17T14:59:44Z</time></trkpt>
<trkpt lat="48.425968" lon="2.714310"><ele></ele><time>2017-9-17T14:59:47Z</time></trkpt>
<trkpt lat="48.425900" lon="2.714270"><ele></ele><time>2017-9-17T14:59:50Z</time></trkpt>
<trkpt lat="48.425818" lon="2.714233"><ele></ele><time>2017-9-17T14:59:53Z</time></trkpt>
<trkpt lat="48.425760" lon="2.714210"><ele></ele><time>2017-9-17T14:59:56Z</time></trkpt>
<trkpt lat="48.425695" lon="2.714182"><ele></ele><time>2017-9-17T14:59:59Z</time></trkpt>
<trkpt lat="48.425612" lon="2.714137"><ele></ele><time>2017-9-17T15:0:2Z</time></trkpt>
<trkpt lat="48.425557" lon="2.714057"><ele></ele><time>2017-9-17T15:0:5Z</time></trkpt>
<trkpt lat="48.425515" lon="2.713995"><ele></ele><time>2017-9-17T15:0:8Z</time></trkpt>
<trkpt lat="48.425465" lon="2.713915"><ele></ele><time>2017-9-17T15:0:11Z</time></trkpt>
<trkpt lat="48.425422" lon="2.713833"><ele></ele><time>2017-9-17T15:0:14Z</time></trkpt>
<trkpt lat="48.425363" lon="2.713737"><ele></ele><time>2017-9-17T15:0:17Z</time></trkpt>
<trkpt lat="48.425348" lon="2.713870"><ele></ele><time>2017-9-17T15:0:20Z</time></trkpt>
<trkpt lat="48.425350" lon="2.713872"><ele></ele><time>2017-9-17T15:0:23Z</time></trkpt>
<trkpt lat="48.425272" lon="2.714073"><ele></ele><time>2017-9-17T15:0:26Z</time></trkpt>
<trkpt lat="48.425208" lon="2.714143"><ele></ele><time>2017-9-17T15:0:29Z</time></trkpt>
<trkpt lat="48.425163" lon="2.714237"><ele></ele><time>2017-9-17T15:0:32Z</time></trkpt>
<trkpt lat="48.425108" lon="2.714327"><ele></ele><time>2017-9-17T15:0:35Z</time></trkpt>
<trkpt lat="48.425052" lon="2.714412"><ele></ele><time>2017-9-17T15:0:38Z</time></trkpt>
<trkpt lat="48.425012" lon="2.714487"><ele></ele><time>2017-9-17T15:0:41Z</time></trkpt>
<trkpt lat="48.424972" lon="2.714573"><ele></ele><time>2017-9-17T15:0:44Z</time></trkpt>
<trkpt lat="48.424928" lon="2.714663"><ele></ele><time>2017-9-17T15:0:47Z</time></trkpt>
<trkpt lat="48.424872" lon="2.714742"><ele></ele><time>2017-9-17T15:0:50Z</time></trkpt>
<trkpt lat="48.424817" lon="2.714833"><ele></ele><time>2017-9-17T15:0:53Z</time></trkpt>
<trkpt lat="48.424767" lon="2.714925"><ele></ele><time>2017-9-17T15:0:56Z</time></trkpt>
<trkpt lat="48.424722" lon="2.715025"><ele></ele><time>2017-9-17T15:0:59Z</time></trkpt>
<trkpt lat="48.424670" lon="2.715113"><ele></ele><time>2017-9-17T15:1:2Z</time></trkpt>
<trkpt lat="48.424623" lon="2.715193"><ele></ele><time>2017-9-17T15:1:5Z</time></trkpt>
<trkpt lat="48.424573" lon="2.715273"><ele></ele><time>2017-9-17T15:1:8Z</time></trkpt>
<trkpt lat="48.424518" lon="2.715343"><ele></ele><time>2017-9-17T15:1:11Z</time></trkpt>
<trkpt lat="48.424453" lon="2.715377"><ele></ele><time>2017-9-17T15:1:14Z</time></trkpt>
<trkpt lat="48.424385" lon="2.715380"><ele></ele><time>2017-9-17T15:1:17Z</time></trkpt>
<trkpt lat="48.424312" lon="2.715360"><ele></ele><time>2017-9-17T15:1:20Z</time></trkpt>
<trkpt lat="48.424238" lon="2.715360"><ele></ele><time>2017-9-17T15:1:23Z</time></trkpt>
<trkpt lat="48.424200" lon="2.715370"><ele></ele><time>2017-9-17T15:1:26Z</time></trkpt>
<trkpt lat="48.424083" lon="2.715337"><ele></ele><time>2017-9-17T15:1:29Z</time></trkpt>
<trkpt lat="48.424017" lon="2.715278"><ele></ele><time>2017-9-17T15:1:32Z</time></trkpt>
<trkpt lat="48.424072" lon="2.715345"><ele></ele><time>2017-9-17T15:1:35Z</time></trkpt>
<trkpt lat="48.424128" lon="2.715425"><ele></ele><time>2017-9-17T15:1:38Z</time></trkpt>
<trkpt lat="48.424167" lon="2.715517"><ele></ele><time>2017-9-17T15:1:41Z</time></trkpt>
<trkpt lat="48.424192" lon="2.715612"><ele></ele><time>2017-9-17T15:1:44Z</time></trkpt>
<trkpt lat="48.424208" lon="2.715727"><ele></ele><time>2017-9-17T15:1:47Z</time></trkpt>
<trkpt lat="48.424215" lon="2.715807"><ele></ele><time>2017-9-17T15:1:50Z</time></trkpt>
<trkpt lat="48.424203" lon="2.715902"><ele></ele><time>2017-9-17T15:1:53Z</time></trkpt>
<trkpt lat="48.424167" lon="2.716002"><ele></ele><time>2017-9-17T15:1:56Z</time></trkpt>
<trkpt lat="48.424118" lon="2.716085"><ele></ele><time>2017-9-17T15:1:59Z</time></trkpt>
<trkpt lat="48.424068" lon="2.716183"><ele></ele><time>2017-9-17T15:2:2Z</time></trkpt>
<trkpt lat="48.424020" lon="2.716283"><ele></ele><time>2017-9-17T15:2:5Z</time></trkpt>
<trkpt lat="48.423972" lon="2.716382"><ele></ele><time>2017-9-17T15:2:8Z</time></trkpt>
<trkpt lat="48.423920" lon="2.716470"><ele></ele><time>2017-9-17T15:2:11Z</time></trkpt>
<trkpt lat="48.423852" lon="2.716550"><ele></ele><time>2017-9-17T15:2:14Z</time></trkpt>
<trkpt lat="48.423795" lon="2.716618"><ele></ele><time>2017-9-17T15:2:17Z</time></trkpt>
<trkpt lat="48.423730" lon="2.716712"><ele></ele><time>2017-9-17T15:2:20Z</time></trkpt>
<trkpt lat="48.423682" lon="2.716797"><ele></ele><time>2017-9-17T15:2:23Z</time></trkpt>
<trkpt lat="48.423623" lon="2.716892"><ele></ele><time>2017-9-17T15:2:26Z</time></trkpt>
<trkpt lat="48.423593" lon="2.716942"><ele></ele><time>2017-9-17T15:2:29Z</time></trkpt>
<trkpt lat="48.423530" lon="2.717042"><ele></ele><time>2017-9-17T15:2:32Z</time></trkpt>
<trkpt lat="48.423495" lon="2.717095"><ele></ele><time>2017-9-17T15:2:35Z</time></trkpt>
<trkpt lat="48.423462" lon="2.717145"><ele></ele><time>2017-9-17T15:2:38Z</time></trkpt>
<trkpt lat="48.423428" lon="2.717203"><ele></ele><time>2017-9-17T15:2:41Z</time></trkpt>
<trkpt lat="48.423397" lon="2.717257"><ele></ele><time>2017-9-17T15:2:44Z</time></trkpt>
<trkpt lat="48.423363" lon="2.717312"><ele></ele><time>2017-9-17T15:2:47Z</time></trkpt>
<trkpt lat="48.423330" lon="2.717363"><ele></ele><time>2017-9-17T15:2:50Z</time></trkpt>
<trkpt lat="48.423298" lon="2.717420"><ele></ele><time>2017-9-17T15:2:53Z</time></trkpt>
<trkpt lat="48.423267" lon="2.717478"><ele></ele><time>2017-9-17T15:2:56Z</time></trkpt>
<trkpt lat="48.423235" lon="2.717533"><ele></ele><time>2017-9-17T15:2:59Z</time></trkpt>
<trkpt lat="48.423203" lon="2.717590"><ele></ele><time>2017-9-17T15:3:2Z</time></trkpt>
<trkpt lat="48.423173" lon="2.717648"><ele></ele><time>2017-9-17T15:3:5Z</time></trkpt>
<trkpt lat="48.423140" lon="2.717702"><ele></ele><time>2017-9-17T15:3:8Z</time></trkpt>
<trkpt lat="48.423108" lon="2.717752"><ele></ele><time>2017-9-17T15:3:11Z</time></trkpt>
<trkpt lat="48.423075" lon="2.717805"><ele></ele><time>2017-9-17T15:3:14Z</time></trkpt>
<trkpt lat="48.423042" lon="2.717860"><ele></ele><time>2017-9-17T15:3:17Z</time></trkpt>
<trkpt lat="48.423007" lon="2.717913"><ele></ele><time>2017-9-17T15:3:20Z</time></trkpt>
<trkpt lat="48.422968" lon="2.717958"><ele></ele><time>2017-9-17T15:3:23Z</time></trkpt>
<trkpt lat="48.422930" lon="2.718000"><ele></ele><time>2017-9-17T15:3:26Z</time></trkpt>
<trkpt lat="48.422890" lon="2.718042"><ele></ele><time>2017-9-17T15:3:29Z</time></trkpt>
<trkpt lat="48.422822" lon="2.718118"><ele></ele><time>2017-9-17T15:3:32Z</time></trkpt>
<trkpt lat="48.422753" lon="2.718200"><ele></ele><time>2017-9-17T15:3:35Z</time></trkpt>
<trkpt lat="48.422722" lon="2.718250"><ele></ele><time>2017-9-17T15:3:38Z</time></trkpt>
<trkpt lat="48.422687" lon="2.718300"><ele></ele><time>2017-9-17T15:3:41Z</time></trkpt>
<trkpt lat="48.422643" lon="2.718342"><ele></ele><time>2017-9-17T15:3:44Z</time></trkpt>
<trkpt lat="48.422600" lon="2.718383"><ele></ele><time>2017-9-17T15:3:47Z</time></trkpt>
<trkpt lat="48.422557" lon="2.718433"><ele></ele><time>2017-9-17T15:3:50Z</time></trkpt>
<trkpt lat="48.422510" lon="2.718547"><ele></ele><time>2017-9-17T15:3:53Z</time></trkpt>
<trkpt lat="48.422493" lon="2.718618"><ele></ele><time>2017-9-17T15:3:56Z</time></trkpt>
<trkpt lat="48.422478" lon="2.718695"><ele></ele><time>2017-9-17T15:3:59Z</time></trkpt>
<trkpt lat="48.422462" lon="2.718785"><ele></ele><time>2017-9-17T15:4:2Z</time></trkpt>
<trkpt lat="48.422423" lon="2.718967"><ele></ele><time>2017-9-17T15:4:5Z</time></trkpt>
<trkpt lat="48.422413" lon="2.719062"><ele></ele><time>2017-9-17T15:4:8Z</time></trkpt>
<trkpt lat="48.422397" lon="2.719187"><ele></ele><time>2017-9-17T15:4:11Z</time></trkpt>
<trkpt lat="48.422388" lon="2.719315"><ele></ele><time>2017-9-17T15:4:14Z</time></trkpt>
<trkpt lat="48.422357" lon="2.719407"><ele></ele><time>2017-9-17T15:4:17Z</time></trkpt>
<trkpt lat="48.422323" lon="2.719488"><ele></ele><time>2017-9-17T15:4:20Z</time></trkpt>
<trkpt lat="48.422305" lon="2.719595"><ele></ele><time>2017-9-17T15:4:23Z</time></trkpt>
<trkpt lat="48.422293" lon="2.719693"><ele></ele><time>2017-9-17T15:4:26Z</time></trkpt>
<trkpt lat="48.422278" lon="2.719735"><ele></ele><time>2017-9-17T15:4:29Z</time></trkpt>
<trkpt lat="48.422233" lon="2.719825"><ele></ele><time>2017-9-17T15:4:32Z</time></trkpt>
<trkpt lat="48.422213" lon="2.719880"><ele></ele><time>2017-9-17T15:4:35Z</time></trkpt>
<trkpt lat="48.422143" lon="2.720040"><ele></ele><time>2017-9-17T15:4:38Z</time></trkpt>
<trkpt lat="48.422113" lon="2.720097"><ele></ele><time>2017-9-17T15:4:41Z</time></trkpt>
<trkpt lat="48.422083" lon="2.720150"><ele></ele><time>2017-9-17T15:4:44Z</time></trkpt>
<trkpt lat="48.422050" lon="2.720203"><ele></ele><time>2017-9-17T15:4:47Z</time></trkpt>
<trkpt lat="48.421990" lon="2.720292"><ele></ele><time>2017-9-17T15:4:50Z</time></trkpt>
<trkpt lat="48.421930" lon="2.720352"><ele></ele><time>2017-9-17T15:4:53Z</time></trkpt>
<trkpt lat="48.421892" lon="2.720383"><ele></ele><time>2017-9-17T15:4:56Z</time></trkpt>
<trkpt lat="48.421847" lon="2.720412"><ele></ele><time>2017-9-17T15:4:59Z</time></trkpt>
<trkpt lat="48.421763" lon="2.720442"><ele></ele><time>2017-9-17T15:5:2Z</time></trkpt>
<trkpt lat="48.421685" lon="2.720465"><ele></ele><time>2017-9-17T15:5:5Z</time></trkpt>
<trkpt lat="48.421620" lon="2.720487"><ele></ele><time>2017-9-17T15:5:8Z</time></trkpt>
<trkpt lat="48.421543" lon="2.720518"><ele></ele><time>2017-9-17T15:5:11Z</time></trkpt>
<trkpt lat="48.421482" lon="2.720585"><ele></ele><time>2017-9-17T15:5:14Z</time></trkpt>
<trkpt lat="48.421438" lon="2.720703"><ele></ele><time>2017-9-17T15:5:17Z</time></trkpt>
<trkpt lat="48.421413" lon="2.720800"><ele></ele><time>2017-9-17T15:5:20Z</time></trkpt>
<trkpt lat="48.421403" lon="2.720895"><ele></ele><time>2017-9-17T15:5:23Z</time></trkpt>
<trkpt lat="48.421428" lon="2.721018"><ele></ele><time>2017-9-17T15:5:26Z</time></trkpt>
<trkpt lat="48.421447" lon="2.721107"><ele></ele><time>2017-9-17T15:5:29Z</time></trkpt>
<trkpt lat="48.421497" lon="2.721215"><ele></ele><time>2017-9-17T15:5:32Z</time></trkpt>
<trkpt lat="48.421527" lon="2.721338"><ele></ele><time>2017-9-17T15:5:35Z</time></trkpt>
<trkpt lat="48.421553" lon="2.721457"><ele></ele><time>2017-9-17T15:5:38Z</time></trkpt>
<trkpt lat="48.421575" lon="2.721545"><ele></ele><time>2017-9-17T15:5:41Z</time></trkpt>
<trkpt lat="48.421567" lon="2.721625"><ele></ele><time>2017-9-17T15:5:44Z</time></trkpt>
<trkpt lat="48.421562" lon="2.721698"><ele></ele><time>2017-9-17T15:5:47Z</time></trkpt>
<trkpt lat="48.421568" lon="2.721818"><ele></ele><time>2017-9-17T15:5:50Z</time></trkpt>
<trkpt lat="48.421575" lon="2.721952"><ele></ele><time>2017-9-17T15:5:53Z</time></trkpt>
<trkpt lat="48.421583" lon="2.722028"><ele></ele><time>2017-9-17T15:5:56Z</time></trkpt>
<trkpt lat="48.421580" lon="2.722130"><ele></ele><time>2017-9-17T15:5:59Z</time></trkpt>
<trkpt lat="48.421577" lon="2.722228"><ele></ele><time>2017-9-17T15:6:2Z</time></trkpt>
<trkpt lat="48.421575" lon="2.722318"><ele></ele><time>2017-9-17T15:6:5Z</time></trkpt>
<trkpt lat="48.421575" lon="2.722392"><ele></ele><time>2017-9-17T15:6:8Z</time></trkpt>
<trkpt lat="48.421582" lon="2.722468"><ele></ele><time>2017-9-17T15:6:11Z</time></trkpt>
<trkpt lat="48.421582" lon="2.722545"><ele></ele><time>2017-9-17T15:6:14Z</time></trkpt>
<trkpt lat="48.421580" lon="2.722630"><ele></ele><time>2017-9-17T15:6:17Z</time></trkpt>
<trkpt lat="48.421575" lon="2.722703"><ele></ele><time>2017-9-17T15:6:20Z</time></trkpt>
<trkpt lat="48.421557" lon="2.722830"><ele></ele><time>2017-9-17T15:6:23Z</time></trkpt>
<trkpt lat="48.421542" lon="2.722952"><ele></ele><time>2017-9-17T15:6:26Z</time></trkpt>
<trkpt lat="48.421533" lon="2.723013"><ele></ele><time>2017-9-17T15:6:29Z</time></trkpt>
<trkpt lat="48.421522" lon="2.723087"><ele></ele><time>2017-9-17T15:6:32Z</time></trkpt>
<trkpt lat="48.421510" lon="2.723163"><ele></ele><time>2017-9-17T15:6:35Z</time></trkpt>
<trkpt lat="48.421497" lon="2.723232"><ele></ele><time>2017-9-17T15:6:38Z</time></trkpt>
<trkpt lat="48.421490" lon="2.723302"><ele></ele><time>2017-9-17T15:6:41Z</time></trkpt>
<trkpt lat="48.421490" lon="2.723370"><ele></ele><time>2017-9-17T15:6:44Z</time></trkpt>
<trkpt lat="48.421490" lon="2.723452"><ele></ele><time>2017-9-17T15:6:47Z</time></trkpt>
<trkpt lat="48.421488" lon="2.723523"><ele></ele><time>2017-9-17T15:6:50Z</time></trkpt>
<trkpt lat="48.421485" lon="2.723608"><ele></ele><time>2017-9-17T15:6:53Z</time></trkpt>
<trkpt lat="48.421477" lon="2.723685"><ele></ele><time>2017-9-17T15:6:56Z</time></trkpt>
<trkpt lat="48.421463" lon="2.723758"><ele></ele><time>2017-9-17T15:6:59Z</time></trkpt>
<trkpt lat="48.421453" lon="2.723843"><ele></ele><time>2017-9-17T15:7:2Z</time></trkpt>
<trkpt lat="48.421440" lon="2.723977"><ele></ele><time>2017-9-17T15:7:5Z</time></trkpt>
<trkpt lat="48.421438" lon="2.724098"><ele></ele><time>2017-9-17T15:7:8Z</time></trkpt>
<trkpt lat="48.421433" lon="2.724172"><ele></ele><time>2017-9-17T15:7:11Z</time></trkpt>
<trkpt lat="48.421422" lon="2.724305"><ele></ele><time>2017-9-17T15:7:14Z</time></trkpt>
<trkpt lat="48.421407" lon="2.724440"><ele></ele><time>2017-9-17T15:7:17Z</time></trkpt>
<trkpt lat="48.421387" lon="2.724583"><ele></ele><time>2017-9-17T15:7:20Z</time></trkpt>
<trkpt lat="48.421378" lon="2.724708"><ele></ele><time>2017-9-17T15:7:23Z</time></trkpt>
<trkpt lat="48.421375" lon="2.724773"><ele></ele><time>2017-9-17T15:7:26Z</time></trkpt>
<trkpt lat="48.421368" lon="2.724847"><ele></ele><time>2017-9-17T15:7:29Z</time></trkpt>
<trkpt lat="48.421353" lon="2.724987"><ele></ele><time>2017-9-17T15:7:32Z</time></trkpt>
<trkpt lat="48.421345" lon="2.725063"><ele></ele><time>2017-9-17T15:7:35Z</time></trkpt>
<trkpt lat="48.421338" lon="2.725145"><ele></ele><time>2017-9-17T15:7:38Z</time></trkpt>
<trkpt lat="48.421328" lon="2.725227"><ele></ele><time>2017-9-17T15:7:41Z</time></trkpt>
<trkpt lat="48.421313" lon="2.725305"><ele></ele><time>2017-9-17T15:7:44Z</time></trkpt>
<trkpt lat="48.421295" lon="2.725388"><ele></ele><time>2017-9-17T15:7:47Z</time></trkpt>
<trkpt lat="48.421273" lon="2.725463"><ele></ele><time>2017-9-17T15:7:50Z</time></trkpt>
<trkpt lat="48.421247" lon="2.725527"><ele></ele><time>2017-9-17T15:7:53Z</time></trkpt>
<trkpt lat="48.421222" lon="2.725592"><ele></ele><time>2017-9-17T15:7:56Z</time></trkpt>
<trkpt lat="48.421198" lon="2.725660"><ele></ele><time>2017-9-17T15:7:59Z</time></trkpt>
<trkpt lat="48.421150" lon="2.725772"><ele></ele><time>2017-9-17T15:8:2Z</time></trkpt>
<trkpt lat="48.421123" lon="2.725828"><ele></ele><time>2017-9-17T15:8:5Z</time></trkpt>
<trkpt lat="48.421067" lon="2.725933"><ele></ele><time>2017-9-17T15:8:8Z</time></trkpt>
<trkpt lat="48.421000" lon="2.726018"><ele></ele><time>2017-9-17T15:8:11Z</time></trkpt>
<trkpt lat="48.420965" lon="2.726070"><ele></ele><time>2017-9-17T15:8:14Z</time></trkpt>
<trkpt lat="48.420927" lon="2.726113"><ele></ele><time>2017-9-17T15:8:17Z</time></trkpt>
<trkpt lat="48.420890" lon="2.726155"><ele></ele><time>2017-9-17T15:8:20Z</time></trkpt>
<trkpt lat="48.420853" lon="2.726200"><ele></ele><time>2017-9-17T15:8:23Z</time></trkpt>
<trkpt lat="48.420817" lon="2.726247"><ele></ele><time>2017-9-17T15:8:26Z</time></trkpt>
<trkpt lat="48.420782" lon="2.726290"><ele></ele><time>2017-9-17T15:8:29Z</time></trkpt>
<trkpt lat="48.420748" lon="2.726338"><ele></ele><time>2017-9-17T15:8:32Z</time></trkpt>
<trkpt lat="48.420715" lon="2.726390"><ele></ele><time>2017-9-17T15:8:35Z</time></trkpt>
<trkpt lat="48.420680" lon="2.726440"><ele></ele><time>2017-9-17T15:8:38Z</time></trkpt>
<trkpt lat="48.420647" lon="2.726483"><ele></ele><time>2017-9-17T15:8:41Z</time></trkpt>
<trkpt lat="48.420612" lon="2.726532"><ele></ele><time>2017-9-17T15:8:44Z</time></trkpt>
<trkpt lat="48.420580" lon="2.726582"><ele></ele><time>2017-9-17T15:8:47Z</time></trkpt>
<trkpt lat="48.420545" lon="2.726632"><ele></ele><time>2017-9-17T15:8:50Z</time></trkpt>
<trkpt lat="48.420512" lon="2.726685"><ele></ele><time>2017-9-17T15:8:53Z</time></trkpt>
<trkpt lat="48.420443" lon="2.726772"><ele></ele><time>2017-9-17T15:8:56Z</time></trkpt>
<trkpt lat="48.420375" lon="2.726857"><ele></ele><time>2017-9-17T15:8:59Z</time></trkpt>
<trkpt lat="48.420342" lon="2.726900"><ele></ele><time>2017-9-17T15:9:2Z</time></trkpt>
<trkpt lat="48.420305" lon="2.726943"><ele></ele><time>2017-9-17T15:9:5Z</time></trkpt>
<trkpt lat="48.420265" lon="2.726983"><ele></ele><time>2017-9-17T15:9:8Z</time></trkpt>
<trkpt lat="48.420227" lon="2.727028"><ele></ele><time>2017-9-17T15:9:11Z</time></trkpt>
<trkpt lat="48.420193" lon="2.727075"><ele></ele><time>2017-9-17T15:9:14Z</time></trkpt>
<trkpt lat="48.420157" lon="2.727123"><ele></ele><time>2017-9-17T15:9:17Z</time></trkpt>
<trkpt lat="48.420118" lon="2.727177"><ele></ele><time>2017-9-17T15:9:20Z</time></trkpt>
<trkpt lat="48.420077" lon="2.727237"><ele></ele><time>2017-9-17T15:9:23Z</time></trkpt>
<trkpt lat="48.420035" lon="2.727297"><ele></ele><time>2017-9-17T15:9:26Z</time></trkpt>
<trkpt lat="48.419998" lon="2.727350"><ele></ele><time>2017-9-17T15:9:29Z</time></trkpt>
<trkpt lat="48.419965" lon="2.727398"><ele></ele><time>2017-9-17T15:9:32Z</time></trkpt>
<trkpt lat="48.419883" lon="2.727487"><ele></ele><time>2017-9-17T15:9:35Z</time></trkpt>
<trkpt lat="48.419808" lon="2.727580"><ele></ele><time>2017-9-17T15:9:38Z</time></trkpt>
<trkpt lat="48.419738" lon="2.727678"><ele></ele><time>2017-9-17T15:9:41Z</time></trkpt>
<trkpt lat="48.419672" lon="2.727763"><ele></ele><time>2017-9-17T15:9:44Z</time></trkpt>
<trkpt lat="48.419608" lon="2.727822"><ele></ele><time>2017-9-17T15:9:47Z</time></trkpt>
<trkpt lat="48.419562" lon="2.727890"><ele></ele><time>2017-9-17T15:9:50Z</time></trkpt>
<trkpt lat="48.419517" lon="2.727943"><ele></ele><time>2017-9-17T15:9:53Z</time></trkpt>
<trkpt lat="48.419455" lon="2.727965"><ele></ele><time>2017-9-17T15:9:56Z</time></trkpt>
<trkpt lat="48.419385" lon="2.727950"><ele></ele><time>2017-9-17T15:9:59Z</time></trkpt>
<trkpt lat="48.419322" lon="2.727892"><ele></ele><time>2017-9-17T15:10:2Z</time></trkpt>
<trkpt lat="48.419257" lon="2.727838"><ele></ele><time>2017-9-17T15:10:5Z</time></trkpt>
<trkpt lat="48.419197" lon="2.727782"><ele></ele><time>2017-9-17T15:10:8Z</time></trkpt>
<trkpt lat="48.419140" lon="2.727727"><ele></ele><time>2017-9-17T15:10:11Z</time></trkpt>
<trkpt lat="48.419083" lon="2.727677"><ele></ele><time>2017-9-17T15:10:14Z</time></trkpt>
<trkpt lat="48.419030" lon="2.727630"><ele></ele><time>2017-9-17T15:10:17Z</time></trkpt>
<trkpt lat="48.418973" lon="2.727580"><ele></ele><time>2017-9-17T15:10:20Z</time></trkpt>
<trkpt lat="48.418913" lon="2.727535"><ele></ele><time>2017-9-17T15:10:23Z</time></trkpt>
<trkpt lat="48.418845" lon="2.727483"><ele></ele><time>2017-9-17T15:10:26Z</time></trkpt>
<trkpt lat="48.418767" lon="2.727427"><ele></ele><time>2017-9-17T15:10:29Z</time></trkpt>
<trkpt lat="48.418690" lon="2.727367"><ele></ele><time>2017-9-17T15:10:32Z</time></trkpt>
<trkpt lat="48.418652" lon="2.727340"><ele></ele><time>2017-9-17T15:10:35Z</time></trkpt>
<trkpt lat="48.418607" lon="2.727310"><ele></ele><time>2017-9-17T15:10:38Z</time></trkpt>
<trkpt lat="48.418563" lon="2.727282"><ele></ele><time>2017-9-17T15:10:41Z</time></trkpt>
<trkpt lat="48.418522" lon="2.727252"><ele></ele><time>2017-9-17T15:10:44Z</time></trkpt>
<trkpt lat="48.418477" lon="2.727215"><ele></ele><time>2017-9-17T15:10:47Z</time></trkpt>
<trkpt lat="48.418422" lon="2.727178"><ele></ele><time>2017-9-17T15:10:50Z</time></trkpt>
<trkpt lat="48.418367" lon="2.727142"><ele></ele><time>2017-9-17T15:10:53Z</time></trkpt>
<trkpt lat="48.418318" lon="2.727110"><ele></ele><time>2017-9-17T15:10:56Z</time></trkpt>
<trkpt lat="48.418268" lon="2.727077"><ele></ele><time>2017-9-17T15:10:59Z</time></trkpt>
<trkpt lat="48.418210" lon="2.727035"><ele></ele><time>2017-9-17T15:11:2Z</time></trkpt>
<trkpt lat="48.418150" lon="2.726992"><ele></ele><time>2017-9-17T15:11:5Z</time></trkpt>
<trkpt lat="48.418087" lon="2.726952"><ele></ele><time>2017-9-17T15:11:8Z</time></trkpt>
<trkpt lat="48.418017" lon="2.726912"><ele></ele><time>2017-9-17T15:11:11Z</time></trkpt>
<trkpt lat="48.417880" lon="2.726863"><ele></ele><time>2017-9-17T15:11:14Z</time></trkpt>
<trkpt lat="48.417758" lon="2.726865"><ele></ele><time>2017-9-17T15:11:17Z</time></trkpt>
<trkpt lat="48.417655" lon="2.726868"><ele></ele><time>2017-9-17T15:11:20Z</time></trkpt>
<trkpt lat="48.417585" lon="2.726810"><ele></ele><time>2017-9-17T15:11:23Z</time></trkpt>
<trkpt lat="48.417553" lon="2.726718"><ele></ele><time>2017-9-17T15:11:26Z</time></trkpt>
<trkpt lat="48.417517" lon="2.726615"><ele></ele><time>2017-9-17T15:11:29Z</time></trkpt>
<trkpt lat="48.417475" lon="2.726500"><ele></ele><time>2017-9-17T15:11:32Z</time></trkpt>
<trkpt lat="48.417432" lon="2.726382"><ele></ele><time>2017-9-17T15:11:35Z</time></trkpt>
<trkpt lat="48.417412" lon="2.726322"><ele></ele><time>2017-9-17T15:11:38Z</time></trkpt>
<trkpt lat="48.417392" lon="2.726258"><ele></ele><time>2017-9-17T15:11:41Z</time></trkpt>
<trkpt lat="48.417375" lon="2.726195"><ele></ele><time>2017-9-17T15:11:44Z</time></trkpt>
<trkpt lat="48.417348" lon="2.726068"><ele></ele><time>2017-9-17T15:11:47Z</time></trkpt>
<trkpt lat="48.417322" lon="2.725947"><ele></ele><time>2017-9-17T15:11:50Z</time></trkpt>
<trkpt lat="48.417302" lon="2.725885"><ele></ele><time>2017-9-17T15:11:53Z</time></trkpt>
<trkpt lat="48.417267" lon="2.725763"><ele></ele><time>2017-9-17T15:11:56Z</time></trkpt>
<trkpt lat="48.417252" lon="2.725702"><ele></ele><time>2017-9-17T15:11:59Z</time></trkpt>
<trkpt lat="48.417233" lon="2.725637"><ele></ele><time>2017-9-17T15:12:2Z</time></trkpt>
<trkpt lat="48.417210" lon="2.725507"><ele></ele><time>2017-9-17T15:12:5Z</time></trkpt>
<trkpt lat="48.417197" lon="2.725375"><ele></ele><time>2017-9-17T15:12:8Z</time></trkpt>
<trkpt lat="48.417200" lon="2.725243"><ele></ele><time>2017-9-17T15:12:11Z</time></trkpt>
<trkpt lat="48.417225" lon="2.725113"><ele></ele><time>2017-9-17T15:12:14Z</time></trkpt>
<trkpt lat="48.417238" lon="2.724985"><ele></ele><time>2017-9-17T15:12:17Z</time></trkpt>
<trkpt lat="48.417240" lon="2.724877"><ele></ele><time>2017-9-17T15:12:20Z</time></trkpt>
<trkpt lat="48.417230" lon="2.724778"><ele></ele><time>2017-9-17T15:12:23Z</time></trkpt>
<trkpt lat="48.417225" lon="2.724668"><ele></ele><time>2017-9-17T15:12:26Z</time></trkpt>
<trkpt lat="48.417228" lon="2.724568"><ele></ele><time>2017-9-17T15:12:29Z</time></trkpt>
<trkpt lat="48.417212" lon="2.724443"><ele></ele><time>2017-9-17T15:12:32Z</time></trkpt>
<trkpt lat="48.417203" lon="2.724385"><ele></ele><time>2017-9-17T15:12:35Z</time></trkpt>
<trkpt lat="48.417207" lon="2.724218"><ele></ele><time>2017-9-17T15:12:38Z</time></trkpt>
<trkpt lat="48.417198" lon="2.724100"><ele></ele><time>2017-9-17T15:12:41Z</time></trkpt>
<trkpt lat="48.417198" lon="2.723978"><ele></ele><time>2017-9-17T15:12:44Z</time></trkpt>
<trkpt lat="48.417177" lon="2.723878"><ele></ele><time>2017-9-17T15:12:47Z</time></trkpt>
<trkpt lat="48.417153" lon="2.723793"><ele></ele><time>2017-9-17T15:12:50Z</time></trkpt>
<trkpt lat="48.417128" lon="2.723688"><ele></ele><time>2017-9-17T15:12:53Z</time></trkpt>
<trkpt lat="48.417105" lon="2.723605"><ele></ele><time>2017-9-17T15:12:56Z</time></trkpt>
<trkpt lat="48.417072" lon="2.723502"><ele></ele><time>2017-9-17T15:12:59Z</time></trkpt>
<trkpt lat="48.417050" lon="2.723405"><ele></ele><time>2017-9-17T15:13:2Z</time></trkpt>
<trkpt lat="48.417023" lon="2.723310"><ele></ele><time>2017-9-17T15:13:5Z</time></trkpt>
<trkpt lat="48.416982" lon="2.723202"><ele></ele><time>2017-9-17T15:13:8Z</time></trkpt>
<trkpt lat="48.416962" lon="2.723140"><ele></ele><time>2017-9-17T15:13:11Z</time></trkpt>
<trkpt lat="48.416928" lon="2.723018"><ele></ele><time>2017-9-17T15:13:14Z</time></trkpt>
<trkpt lat="48.416907" lon="2.722927"><ele></ele><time>2017-9-17T15:13:17Z</time></trkpt>
<trkpt lat="48.416902" lon="2.722805"><ele></ele><time>2017-9-17T15:13:20Z</time></trkpt>
<trkpt lat="48.416895" lon="2.722698"><ele></ele><time>2017-9-17T15:13:23Z</time></trkpt>
<trkpt lat="48.416900" lon="2.722568"><ele></ele><time>2017-9-17T15:13:26Z</time></trkpt>
<trkpt lat="48.416903" lon="2.722443"><ele></ele><time>2017-9-17T15:13:29Z</time></trkpt>
<trkpt lat="48.416908" lon="2.722328"><ele></ele><time>2017-9-17T15:13:32Z</time></trkpt>
<trkpt lat="48.416915" lon="2.722195"><ele></ele><time>2017-9-17T15:13:35Z</time></trkpt>
<trkpt lat="48.416903" lon="2.722067"><ele></ele><time>2017-9-17T15:13:38Z</time></trkpt>
<trkpt lat="48.416890" lon="2.721940"><ele></ele><time>2017-9-17T15:13:41Z</time></trkpt>
<trkpt lat="48.416893" lon="2.721823"><ele></ele><time>2017-9-17T15:13:44Z</time></trkpt>
<trkpt lat="48.416892" lon="2.721712"><ele></ele><time>2017-9-17T15:13:47Z</time></trkpt>
<trkpt lat="48.416910" lon="2.721600"><ele></ele><time>2017-9-17T15:13:50Z</time></trkpt>
<trkpt lat="48.416910" lon="2.721475"><ele></ele><time>2017-9-17T15:13:53Z</time></trkpt>
<trkpt lat="48.416910" lon="2.721415"><ele></ele><time>2017-9-17T15:13:56Z</time></trkpt>
<trkpt lat="48.416920" lon="2.721297"><ele></ele><time>2017-9-17T15:13:59Z</time></trkpt>
<trkpt lat="48.416907" lon="2.721167"><ele></ele><time>2017-9-17T15:14:2Z</time></trkpt>
<trkpt lat="48.416912" lon="2.721043"><ele></ele><time>2017-9-17T15:14:5Z</time></trkpt>
<trkpt lat="48.416927" lon="2.720935"><ele></ele><time>2017-9-17T15:14:8Z</time></trkpt>
<trkpt lat="48.416933" lon="2.720847"><ele></ele><time>2017-9-17T15:14:11Z</time></trkpt>
<trkpt lat="48.416938" lon="2.720743"><ele></ele><time>2017-9-17T15:14:14Z</time></trkpt>
<trkpt lat="48.416945" lon="2.720637"><ele></ele><time>2017-9-17T15:14:17Z</time></trkpt>
<trkpt lat="48.416967" lon="2.720530"><ele></ele><time>2017-9-17T15:14:20Z</time></trkpt>
<trkpt lat="48.416988" lon="2.720420"><ele></ele><time>2017-9-17T15:14:23Z</time></trkpt>
<trkpt lat="48.417020" lon="2.720320"><ele></ele><time>2017-9-17T15:14:26Z</time></trkpt>
<trkpt lat="48.417052" lon="2.720243"><ele></ele><time>2017-9-17T15:14:29Z</time></trkpt>
<trkpt lat="48.417077" lon="2.720137"><ele></ele><time>2017-9-17T15:14:32Z</time></trkpt>
<trkpt lat="48.417102" lon="2.720040"><ele></ele><time>2017-9-17T15:14:35Z</time></trkpt>
<trkpt lat="48.417132" lon="2.719937"><ele></ele><time>2017-9-17T15:14:38Z</time></trkpt>
<trkpt lat="48.417142" lon="2.719833"><ele></ele><time>2017-9-17T15:14:41Z</time></trkpt>
<trkpt lat="48.417150" lon="2.719722"><ele></ele><time>2017-9-17T15:14:44Z</time></trkpt>
<trkpt lat="48.417180" lon="2.719607"><ele></ele><time>2017-9-17T15:14:47Z</time></trkpt>
<trkpt lat="48.417195" lon="2.719518"><ele></ele><time>2017-9-17T15:14:50Z</time></trkpt>
<trkpt lat="48.417198" lon="2.719423"><ele></ele><time>2017-9-17T15:14:53Z</time></trkpt>
<trkpt lat="48.417183" lon="2.719323"><ele></ele><time>2017-9-17T15:14:56Z</time></trkpt>
<trkpt lat="48.417182" lon="2.719207"><ele></ele><time>2017-9-17T15:14:59Z</time></trkpt>
<trkpt lat="48.417178" lon="2.719078"><ele></ele><time>2017-9-17T15:15:2Z</time></trkpt>
<trkpt lat="48.417163" lon="2.718952"><ele></ele><time>2017-9-17T15:15:5Z</time></trkpt>
<trkpt lat="48.417167" lon="2.718907"><ele></ele><time>2017-9-17T15:15:8Z</time></trkpt>
<trkpt lat="48.417190" lon="2.718820"><ele></ele><time>2017-9-17T15:15:11Z</time></trkpt>
<trkpt lat="48.417228" lon="2.718728"><ele></ele><time>2017-9-17T15:15:14Z</time></trkpt>
<trkpt lat="48.417250" lon="2.718692"><ele></ele><time>2017-9-17T15:15:17Z</time></trkpt>
<trkpt lat="48.417310" lon="2.718575"><ele></ele><time>2017-9-17T15:15:20Z</time></trkpt>
<trkpt lat="48.417355" lon="2.718512"><ele></ele><time>2017-9-17T15:15:23Z</time></trkpt>
<trkpt lat="48.417397" lon="2.718452"><ele></ele><time>2017-9-17T15:15:26Z</time></trkpt>
<trkpt lat="48.417475" lon="2.718387"><ele></ele><time>2017-9-17T15:15:29Z</time></trkpt>
<trkpt lat="48.417537" lon="2.718340"><ele></ele><time>2017-9-17T15:15:32Z</time></trkpt>
<trkpt lat="48.417607" lon="2.718268"><ele></ele><time>2017-9-17T15:15:35Z</time></trkpt>
<trkpt lat="48.417672" lon="2.718213"><ele></ele><time>2017-9-17T15:15:38Z</time></trkpt>
<trkpt lat="48.417750" lon="2.718152"><ele></ele><time>2017-9-17T15:15:41Z</time></trkpt>
<trkpt lat="48.417832" lon="2.718107"><ele></ele><time>2017-9-17T15:15:44Z</time></trkpt>
<trkpt lat="48.417900" lon="2.718077"><ele></ele><time>2017-9-17T15:15:47Z</time></trkpt>
<trkpt lat="48.417970" lon="2.718047"><ele></ele><time>2017-9-17T15:15:50Z</time></trkpt>
<trkpt lat="48.418040" lon="2.717997"><ele></ele><time>2017-9-17T15:15:53Z</time></trkpt>
<trkpt lat="48.418092" lon="2.717897"><ele></ele><time>2017-9-17T15:15:56Z</time></trkpt>
<trkpt lat="48.418130" lon="2.717808"><ele></ele><time>2017-9-17T15:15:59Z</time></trkpt>
<trkpt lat="48.418165" lon="2.717690"><ele></ele><time>2017-9-17T15:16:2Z</time></trkpt>
<trkpt lat="48.418228" lon="2.717607"><ele></ele><time>2017-9-17T15:16:5Z</time></trkpt>
<trkpt lat="48.418287" lon="2.717523"><ele></ele><time>2017-9-17T15:16:8Z</time></trkpt>
<trkpt lat="48.418335" lon="2.717448"><ele></ele><time>2017-9-17T15:16:11Z</time></trkpt>
<trkpt lat="48.418350" lon="2.717420"><ele></ele><time>2017-9-17T15:16:14Z</time></trkpt>
<trkpt lat="48.418437" lon="2.717250"><ele></ele><time>2017-9-17T15:16:17Z</time></trkpt>
<trkpt lat="48.418480" lon="2.717143"><ele></ele><time>2017-9-17T15:16:20Z</time></trkpt>
<trkpt lat="48.418508" lon="2.717025"><ele></ele><time>2017-9-17T15:16:23Z</time></trkpt>
<trkpt lat="48.418523" lon="2.716925"><ele></ele><time>2017-9-17T15:16:26Z</time></trkpt>
<trkpt lat="48.418560" lon="2.716808"><ele></ele><time>2017-9-17T15:16:29Z</time></trkpt>
<trkpt lat="48.418600" lon="2.716693"><ele></ele><time>2017-9-17T15:16:32Z</time></trkpt>
<trkpt lat="48.418607" lon="2.716572"><ele></ele><time>2017-9-17T15:16:35Z</time></trkpt>
<trkpt lat="48.418590" lon="2.716462"><ele></ele><time>2017-9-17T15:16:38Z</time></trkpt>
<trkpt lat="48.418563" lon="2.716333"><ele></ele><time>2017-9-17T15:16:41Z</time></trkpt>
<trkpt lat="48.418563" lon="2.716228"><ele></ele><time>2017-9-17T15:16:44Z</time></trkpt>
<trkpt lat="48.418560" lon="2.716102"><ele></ele><time>2017-9-17T15:16:47Z</time></trkpt>
<trkpt lat="48.418553" lon="2.716030"><ele></ele><time>2017-9-17T15:16:50Z</time></trkpt>
<trkpt lat="48.418537" lon="2.715905"><ele></ele><time>2017-9-17T15:16:53Z</time></trkpt>
<trkpt lat="48.418513" lon="2.715780"><ele></ele><time>2017-9-17T15:16:56Z</time></trkpt>
<trkpt lat="48.418495" lon="2.715705"><ele></ele><time>2017-9-17T15:16:59Z</time></trkpt>
<trkpt lat="48.418475" lon="2.715613"><ele></ele><time>2017-9-17T15:17:2Z</time></trkpt>
<trkpt lat="48.418450" lon="2.715513"><ele></ele><time>2017-9-17T15:17:5Z</time></trkpt>
<trkpt lat="48.418420" lon="2.715410"><ele></ele><time>2017-9-17T15:17:8Z</time></trkpt>
<trkpt lat="48.418393" lon="2.715318"><ele></ele><time>2017-9-17T15:17:11Z</time></trkpt>
<trkpt lat="48.418372" lon="2.715233"><ele></ele><time>2017-9-17T15:17:14Z</time></trkpt>
<trkpt lat="48.418353" lon="2.715155"><ele></ele><time>2017-9-17T15:17:17Z</time></trkpt>
<trkpt lat="48.418338" lon="2.715025"><ele></ele><time>2017-9-17T15:17:20Z</time></trkpt>
<trkpt lat="48.418323" lon="2.714925"><ele></ele><time>2017-9-17T15:17:23Z</time></trkpt>
<trkpt lat="48.418285" lon="2.714820"><ele></ele><time>2017-9-17T15:17:26Z</time></trkpt>
<trkpt lat="48.418260" lon="2.714712"><ele></ele><time>2017-9-17T15:17:29Z</time></trkpt>
<trkpt lat="48.418257" lon="2.714610"><ele></ele><time>2017-9-17T15:17:32Z</time></trkpt>
<trkpt lat="48.418245" lon="2.714497"><ele></ele><time>2017-9-17T15:17:35Z</time></trkpt>
<trkpt lat="48.418247" lon="2.714372"><ele></ele><time>2017-9-17T15:17:38Z</time></trkpt>
<trkpt lat="48.418295" lon="2.714260"><ele></ele><time>2017-9-17T15:17:41Z</time></trkpt>
<trkpt lat="48.418352" lon="2.714170"><ele></ele><time>2017-9-17T15:17:44Z</time></trkpt>
<trkpt lat="48.418367" lon="2.714042"><ele></ele><time>2017-9-17T15:17:47Z</time></trkpt>
<trkpt lat="48.418375" lon="2.713915"><ele></ele><time>2017-9-17T15:17:50Z</time></trkpt>
<trkpt lat="48.418383" lon="2.713820"><ele></ele><time>2017-9-17T15:17:53Z</time></trkpt>
<trkpt lat="48.418388" lon="2.713758"><ele></ele><time>2017-9-17T15:17:56Z</time></trkpt>
<trkpt lat="48.418428" lon="2.713567"><ele></ele><time>2017-9-17T15:17:59Z</time></trkpt>
<trkpt lat="48.418442" lon="2.713502"><ele></ele><time>2017-9-17T15:18:2Z</time></trkpt>
<trkpt lat="48.418462" lon="2.713362"><ele></ele><time>2017-9-17T15:18:5Z</time></trkpt>
<trkpt lat="48.418477" lon="2.713242"><ele></ele><time>2017-9-17T15:18:8Z</time></trkpt>
<trkpt lat="48.418497" lon="2.713138"><ele></ele><time>2017-9-17T15:18:11Z</time></trkpt>
<trkpt lat="48.418503" lon="2.713040"><ele></ele><time>2017-9-17T15:18:14Z</time></trkpt>
<trkpt lat="48.418513" lon="2.712952"><ele></ele><time>2017-9-17T15:18:17Z</time></trkpt>
<trkpt lat="48.418532" lon="2.712823"><ele></ele><time>2017-9-17T15:18:20Z</time></trkpt>
<trkpt lat="48.418552" lon="2.712738"><ele></ele><time>2017-9-17T15:18:23Z</time></trkpt>
<trkpt lat="48.418570" lon="2.712643"><ele></ele><time>2017-9-17T15:18:26Z</time></trkpt>
<trkpt lat="48.418582" lon="2.712533"><ele></ele><time>2017-9-17T15:18:29Z</time></trkpt>
<trkpt lat="48.418617" lon="2.712427"><ele></ele><time>2017-9-17T15:18:32Z</time></trkpt>
<trkpt lat="48.418618" lon="2.712305"><ele></ele><time>2017-9-17T15:18:35Z</time></trkpt>
<trkpt lat="48.418608" lon="2.712218"><ele></ele><time>2017-9-17T15:18:38Z</time></trkpt>
<trkpt lat="48.418615" lon="2.712128"><ele></ele><time>2017-9-17T15:18:41Z</time></trkpt>
<trkpt lat="48.418657" lon="2.711987"><ele></ele><time>2017-9-17T15:18:44Z</time></trkpt>
<trkpt lat="48.418698" lon="2.711863"><ele></ele><time>2017-9-17T15:18:47Z</time></trkpt>
<trkpt lat="48.418752" lon="2.711735"><ele></ele><time>2017-9-17T15:18:50Z</time></trkpt>
<trkpt lat="48.418783" lon="2.711673"><ele></ele><time>2017-9-17T15:18:53Z</time></trkpt>
<trkpt lat="48.418825" lon="2.711603"><ele></ele><time>2017-9-17T15:18:56Z</time></trkpt>
<trkpt lat="48.418865" lon="2.711528"><ele></ele><time>2017-9-17T15:18:59Z</time></trkpt>
<trkpt lat="48.418912" lon="2.711443"><ele></ele><time>2017-9-17T15:19:2Z</time></trkpt>
<trkpt lat="48.418945" lon="2.711365"><ele></ele><time>2017-9-17T15:19:5Z</time></trkpt>
<trkpt lat="48.418970" lon="2.711290"><ele></ele><time>2017-9-17T15:19:8Z</time></trkpt>
<trkpt lat="48.418985" lon="2.711167"><ele></ele><time>2017-9-17T15:19:11Z</time></trkpt>
<trkpt lat="48.418972" lon="2.711073"><ele></ele><time>2017-9-17T15:19:14Z</time></trkpt>
<trkpt lat="48.418963" lon="2.710980"><ele></ele><time>2017-9-17T15:19:17Z</time></trkpt>
<trkpt lat="48.418955" lon="2.710892"><ele></ele><time>2017-9-17T15:19:20Z</time></trkpt>
<trkpt lat="48.418910" lon="2.710780"><ele></ele><time>2017-9-17T15:19:23Z</time></trkpt>
<trkpt lat="48.418883" lon="2.710718"><ele></ele><time>2017-9-17T15:19:26Z</time></trkpt>
<trkpt lat="48.418865" lon="2.710653"><ele></ele><time>2017-9-17T15:19:29Z</time></trkpt>
<trkpt lat="48.418833" lon="2.710462"><ele></ele><time>2017-9-17T15:19:32Z</time></trkpt>
<trkpt lat="48.418815" lon="2.710340"><ele></ele><time>2017-9-17T15:19:35Z</time></trkpt>
<trkpt lat="48.418790" lon="2.710213"><ele></ele><time>2017-9-17T15:19:38Z</time></trkpt>
<trkpt lat="48.418777" lon="2.710147"><ele></ele><time>2017-9-17T15:19:41Z</time></trkpt>
<trkpt lat="48.418757" lon="2.710017"><ele></ele><time>2017-9-17T15:19:44Z</time></trkpt>
<trkpt lat="48.418743" lon="2.709905"><ele></ele><time>2017-9-17T15:19:47Z</time></trkpt>
<trkpt lat="48.418737" lon="2.709848"><ele></ele><time>2017-9-17T15:19:50Z</time></trkpt>
<trkpt lat="48.418722" lon="2.709743"><ele></ele><time>2017-9-17T15:19:53Z</time></trkpt>
<trkpt lat="48.418715" lon="2.709637"><ele></ele><time>2017-9-17T15:19:56Z</time></trkpt>
<trkpt lat="48.418700" lon="2.709533"><ele></ele><time>2017-9-17T15:19:59Z</time></trkpt>
<trkpt lat="48.418688" lon="2.709435"><ele></ele><time>2017-9-17T15:20:2Z</time></trkpt>
<trkpt lat="48.418675" lon="2.709335"><ele></ele><time>2017-9-17T15:20:5Z</time></trkpt>
<trkpt lat="48.418652" lon="2.709232"><ele></ele><time>2017-9-17T15:20:8Z</time></trkpt>
<trkpt lat="48.418623" lon="2.709113"><ele></ele><time>2017-9-17T15:20:11Z</time></trkpt>
<trkpt lat="48.418612" lon="2.708995"><ele></ele><time>2017-9-17T15:20:14Z</time></trkpt>
<trkpt lat="48.418598" lon="2.708882"><ele></ele><time>2017-9-17T15:20:17Z</time></trkpt>
<trkpt lat="48.418592" lon="2.708760"><ele></ele><time>2017-9-17T15:20:20Z</time></trkpt>
<trkpt lat="48.418593" lon="2.708653"><ele></ele><time>2017-9-17T15:20:23Z</time></trkpt>
<trkpt lat="48.418610" lon="2.708560"><ele></ele><time>2017-9-17T15:20:26Z</time></trkpt>
<trkpt lat="48.418635" lon="2.708450"><ele></ele><time>2017-9-17T15:20:29Z</time></trkpt>
<trkpt lat="48.418598" lon="2.708332"><ele></ele><time>2017-9-17T15:20:32Z</time></trkpt>
<trkpt lat="48.418613" lon="2.708205"><ele></ele><time>2017-9-17T15:20:35Z</time></trkpt>
<trkpt lat="48.418550" lon="2.708117"><ele></ele><time>2017-9-17T15:20:38Z</time></trkpt>
<trkpt lat="48.418537" lon="2.708112"><ele></ele><time>2017-9-17T15:20:41Z</time></trkpt>
<trkpt lat="48.418393" lon="2.708047"><ele></ele><time>2017-9-17T15:20:44Z</time></trkpt>
<trkpt lat="48.418393" lon="2.707925"><ele></ele><time>2017-9-17T15:20:47Z</time></trkpt>
<trkpt lat="48.418397" lon="2.707817"><ele></ele><time>2017-9-17T15:20:50Z</time></trkpt>
<trkpt lat="48.418410" lon="2.707687"><ele></ele><time>2017-9-17T15:20:53Z</time></trkpt>
<trkpt lat="48.418498" lon="2.707688"><ele></ele><time>2017-9-17T15:20:56Z</time></trkpt>
<trkpt lat="48.418513" lon="2.707697"><ele></ele><time>2017-9-17T15:20:59Z</time></trkpt>
<trkpt lat="48.418643" lon="2.707712"><ele></ele><time>2017-9-17T15:21:2Z</time></trkpt>
<trkpt lat="48.418687" lon="2.707647"><ele></ele><time>2017-9-17T15:21:5Z</time></trkpt>
<trkpt lat="48.418705" lon="2.707582"><ele></ele><time>2017-9-17T15:21:8Z</time></trkpt>
<trkpt lat="48.418743" lon="2.707525"><ele></ele><time>2017-9-17T15:21:11Z</time></trkpt>
<trkpt lat="48.418787" lon="2.707473"><ele></ele><time>2017-9-17T15:21:14Z</time></trkpt>
<trkpt lat="48.418832" lon="2.707402"><ele></ele><time>2017-9-17T15:21:17Z</time></trkpt>
<trkpt lat="48.418872" lon="2.707342"><ele></ele><time>2017-9-17T15:21:20Z</time></trkpt>
<trkpt lat="48.418942" lon="2.707273"><ele></ele><time>2017-9-17T15:21:23Z</time></trkpt>
<trkpt lat="48.419000" lon="2.707187"><ele></ele><time>2017-9-17T15:21:26Z</time></trkpt>
<trkpt lat="48.419032" lon="2.707103"><ele></ele><time>2017-9-17T15:21:29Z</time></trkpt>
<trkpt lat="48.419053" lon="2.707013"><ele></ele><time>2017-9-17T15:21:32Z</time></trkpt>
<trkpt lat="48.419075" lon="2.706918"><ele></ele><time>2017-9-17T15:21:35Z</time></trkpt>
<trkpt lat="48.419097" lon="2.706822"><ele></ele><time>2017-9-17T15:21:38Z</time></trkpt>
<trkpt lat="48.419125" lon="2.706730"><ele></ele><time>2017-9-17T15:21:41Z</time></trkpt>
<trkpt lat="48.419170" lon="2.706632"><ele></ele><time>2017-9-17T15:21:44Z</time></trkpt>
<trkpt lat="48.419212" lon="2.706535"><ele></ele><time>2017-9-17T15:21:47Z</time></trkpt>
<trkpt lat="48.419257" lon="2.706453"><ele></ele><time>2017-9-17T15:21:50Z</time></trkpt>
<trkpt lat="48.419283" lon="2.706382"><ele></ele><time>2017-9-17T15:21:53Z</time></trkpt>
<trkpt lat="48.419337" lon="2.706278"><ele></ele><time>2017-9-17T15:21:56Z</time></trkpt>
<trkpt lat="48.419390" lon="2.706195"><ele></ele><time>2017-9-17T15:21:59Z</time></trkpt>
<trkpt lat="48.419410" lon="2.706150"><ele></ele><time>2017-9-17T15:22:2Z</time></trkpt>
<trkpt lat="48.419452" lon="2.706083"><ele></ele><time>2017-9-17T15:22:5Z</time></trkpt>
<trkpt lat="48.419483" lon="2.706003"><ele></ele><time>2017-9-17T15:22:8Z</time></trkpt>
<trkpt lat="48.419495" lon="2.705903"><ele></ele><time>2017-9-17T15:22:11Z</time></trkpt>
<trkpt lat="48.419517" lon="2.705807"><ele></ele><time>2017-9-17T15:22:14Z</time></trkpt>
<trkpt lat="48.419525" lon="2.705703"><ele></ele><time>2017-9-17T15:22:17Z</time></trkpt>
<trkpt lat="48.419535" lon="2.705607"><ele></ele><time>2017-9-17T15:22:20Z</time></trkpt>
<trkpt lat="48.419550" lon="2.705508"><ele></ele><time>2017-9-17T15:22:23Z</time></trkpt>
<trkpt lat="48.419560" lon="2.705400"><ele></ele><time>2017-9-17T15:22:26Z</time></trkpt>
<trkpt lat="48.419563" lon="2.705283"><ele></ele><time>2017-9-17T15:22:29Z</time></trkpt>
<trkpt lat="48.419563" lon="2.705167"><ele></ele><time>2017-9-17T15:22:32Z</time></trkpt>
<trkpt lat="48.419568" lon="2.705050"><ele></ele><time>2017-9-17T15:22:35Z</time></trkpt>
<trkpt lat="48.419587" lon="2.704935"><ele></ele><time>2017-9-17T15:22:38Z</time></trkpt>
<trkpt lat="48.419598" lon="2.704818"><ele></ele><time>2017-9-17T15:22:41Z</time></trkpt>
<trkpt lat="48.419603" lon="2.704700"><ele></ele><time>2017-9-17T15:22:44Z</time></trkpt>
<trkpt lat="48.419612" lon="2.704643"><ele></ele><time>2017-9-17T15:22:47Z</time></trkpt>
<trkpt lat="48.419617" lon="2.704525"><ele></ele><time>2017-9-17T15:22:50Z</time></trkpt>
<trkpt lat="48.419625" lon="2.704413"><ele></ele><time>2017-9-17T15:22:53Z</time></trkpt>
<trkpt lat="48.419635" lon="2.704290"><ele></ele><time>2017-9-17T15:22:56Z</time></trkpt>
<trkpt lat="48.419648" lon="2.704160"><ele></ele><time>2017-9-17T15:22:59Z</time></trkpt>
<trkpt lat="48.419663" lon="2.704030"><ele></ele><time>2017-9-17T15:23:2Z</time></trkpt>
<trkpt lat="48.419683" lon="2.703897"><ele></ele><time>2017-9-17T15:23:5Z</time></trkpt>
<trkpt lat="48.419703" lon="2.703768"><ele></ele><time>2017-9-17T15:23:8Z</time></trkpt>
<trkpt lat="48.419712" lon="2.703650"><ele></ele><time>2017-9-17T15:23:11Z</time></trkpt>
<trkpt lat="48.419728" lon="2.703537"><ele></ele><time>2017-9-17T15:23:14Z</time></trkpt>
<trkpt lat="48.419767" lon="2.703435"><ele></ele><time>2017-9-17T15:23:17Z</time></trkpt>
<trkpt lat="48.419805" lon="2.703362"><ele></ele><time>2017-9-17T15:23:20Z</time></trkpt>
<trkpt lat="48.419837" lon="2.703267"><ele></ele><time>2017-9-17T15:23:23Z</time></trkpt>
<trkpt lat="48.419870" lon="2.703182"><ele></ele><time>2017-9-17T15:23:26Z</time></trkpt>
<trkpt lat="48.419918" lon="2.703068"><ele></ele><time>2017-9-17T15:23:29Z</time></trkpt>
<trkpt lat="48.419947" lon="2.702988"><ele></ele><time>2017-9-17T15:23:32Z</time></trkpt>
<trkpt lat="48.419980" lon="2.702905"><ele></ele><time>2017-9-17T15:23:35Z</time></trkpt>
<trkpt lat="48.420003" lon="2.702820"><ele></ele><time>2017-9-17T15:23:38Z</time></trkpt>
<trkpt lat="48.420018" lon="2.702780"><ele></ele><time>2017-9-17T15:23:41Z</time></trkpt>
<trkpt lat="48.420055" lon="2.702617"><ele></ele><time>2017-9-17T15:23:44Z</time></trkpt>
<trkpt lat="48.420073" lon="2.702500"><ele></ele><time>2017-9-17T15:23:47Z</time></trkpt>
<trkpt lat="48.420098" lon="2.702380"><ele></ele><time>2017-9-17T15:23:50Z</time></trkpt>
<trkpt lat="48.420122" lon="2.702260"><ele></ele><time>2017-9-17T15:23:53Z</time></trkpt>
<trkpt lat="48.420163" lon="2.702125"><ele></ele><time>2017-9-17T15:23:56Z</time></trkpt>
<trkpt lat="48.420190" lon="2.701990"><ele></ele><time>2017-9-17T15:23:59Z</time></trkpt>
<trkpt lat="48.420208" lon="2.701850"><ele></ele><time>2017-9-17T15:24:2Z</time></trkpt>
<trkpt lat="48.420230" lon="2.701703"><ele></ele><time>2017-9-17T15:24:5Z</time></trkpt>
<trkpt lat="48.420240" lon="2.701633"><ele></ele><time>2017-9-17T15:24:8Z</time></trkpt>
<trkpt lat="48.420262" lon="2.701517"><ele></ele><time>2017-9-17T15:24:11Z</time></trkpt>
<trkpt lat="48.420285" lon="2.701395"><ele></ele><time>2017-9-17T15:24:14Z</time></trkpt>
<trkpt lat="48.420298" lon="2.701323"><ele></ele><time>2017-9-17T15:24:17Z</time></trkpt>
<trkpt lat="48.420315" lon="2.701257"><ele></ele><time>2017-9-17T15:24:20Z</time></trkpt>
<trkpt lat="48.420332" lon="2.701185"><ele></ele><time>2017-9-17T15:24:23Z</time></trkpt>
<trkpt lat="48.420340" lon="2.701105"><ele></ele><time>2017-9-17T15:24:26Z</time></trkpt>
<trkpt lat="48.420358" lon="2.701032"><ele></ele><time>2017-9-17T15:24:29Z</time></trkpt>
<trkpt lat="48.420382" lon="2.700968"><ele></ele><time>2017-9-17T15:24:32Z</time></trkpt>
<trkpt lat="48.420403" lon="2.700900"><ele></ele><time>2017-9-17T15:24:35Z</time></trkpt>
<trkpt lat="48.420422" lon="2.700827"><ele></ele><time>2017-9-17T15:24:38Z</time></trkpt>
<trkpt lat="48.420440" lon="2.700757"><ele></ele><time>2017-9-17T15:24:41Z</time></trkpt>
<trkpt lat="48.420458" lon="2.700692"><ele></ele><time>2017-9-17T15:24:44Z</time></trkpt>
<trkpt lat="48.420477" lon="2.700625"><ele></ele><time>2017-9-17T15:24:47Z</time></trkpt>
<trkpt lat="48.420497" lon="2.700557"><ele></ele><time>2017-9-17T15:24:50Z</time></trkpt>
<trkpt lat="48.420522" lon="2.700430"><ele></ele><time>2017-9-17T15:24:53Z</time></trkpt>
<trkpt lat="48.420540" lon="2.700305"><ele></ele><time>2017-9-17T15:24:56Z</time></trkpt>
<trkpt lat="48.420562" lon="2.700193"><ele></ele><time>2017-9-17T15:24:59Z</time></trkpt>
<trkpt lat="48.420598" lon="2.700080"><ele></ele><time>2017-9-17T15:25:2Z</time></trkpt>
<trkpt lat="48.420638" lon="2.699965"><ele></ele><time>2017-9-17T15:25:5Z</time></trkpt>
<trkpt lat="48.420672" lon="2.699875"><ele></ele><time>2017-9-17T15:25:8Z</time></trkpt>
<trkpt lat="48.420693" lon="2.699763"><ele></ele><time>2017-9-17T15:25:11Z</time></trkpt>
<trkpt lat="48.420700" lon="2.699648"><ele></ele><time>2017-9-17T15:25:14Z</time></trkpt>
<trkpt lat="48.420745" lon="2.699545"><ele></ele><time>2017-9-17T15:25:17Z</time></trkpt>
<trkpt lat="48.420790" lon="2.699452"><ele></ele><time>2017-9-17T15:25:20Z</time></trkpt>
<trkpt lat="48.420820" lon="2.699352"><ele></ele><time>2017-9-17T15:25:23Z</time></trkpt>
<trkpt lat="48.420840" lon="2.699258"><ele></ele><time>2017-9-17T15:25:26Z</time></trkpt>
<trkpt lat="48.420840" lon="2.699170"><ele></ele><time>2017-9-17T15:25:29Z</time></trkpt>
<trkpt lat="48.420848" lon="2.699123"><ele></ele><time>2017-9-17T15:25:32Z</time></trkpt>
<trkpt lat="48.420857" lon="2.698928"><ele></ele><time>2017-9-17T15:25:35Z</time></trkpt>
<trkpt lat="48.420875" lon="2.698813"><ele></ele><time>2017-9-17T15:25:38Z</time></trkpt>
<trkpt lat="48.420892" lon="2.698718"><ele></ele><time>2017-9-17T15:25:41Z</time></trkpt>
<trkpt lat="48.420898" lon="2.698625"><ele></ele><time>2017-9-17T15:25:44Z</time></trkpt>
<trkpt lat="48.420912" lon="2.698522"><ele></ele><time>2017-9-17T15:25:47Z</time></trkpt>
<trkpt lat="48.420935" lon="2.698438"><ele></ele><time>2017-9-17T15:25:50Z</time></trkpt>
<trkpt lat="48.420957" lon="2.698335"><ele></ele><time>2017-9-17T15:25:53Z</time></trkpt>
<trkpt lat="48.420977" lon="2.698230"><ele></ele><time>2017-9-17T15:25:56Z</time></trkpt>
<trkpt lat="48.421007" lon="2.698122"><ele></ele><time>2017-9-17T15:25:59Z</time></trkpt>
<trkpt lat="48.421017" lon="2.698067"><ele></ele><time>2017-9-17T15:26:2Z</time></trkpt>
<trkpt lat="48.421043" lon="2.697960"><ele></ele><time>2017-9-17T15:26:5Z</time></trkpt>
<trkpt lat="48.421048" lon="2.697847"><ele></ele><time>2017-9-17T15:26:8Z</time></trkpt>
<trkpt lat="48.421065" lon="2.697740"><ele></ele><time>2017-9-17T15:26:11Z</time></trkpt>
<trkpt lat="48.421087" lon="2.697632"><ele></ele><time>2017-9-17T15:26:14Z</time></trkpt>
<trkpt lat="48.421107" lon="2.697513"><ele></ele><time>2017-9-17T15:26:17Z</time></trkpt>
<trkpt lat="48.421123" lon="2.697402"><ele></ele><time>2017-9-17T15:26:20Z</time></trkpt>
<trkpt lat="48.421145" lon="2.697287"><ele></ele><time>2017-9-17T15:26:23Z</time></trkpt>
<trkpt lat="48.421160" lon="2.697180"><ele></ele><time>2017-9-17T15:26:26Z</time></trkpt>
<trkpt lat="48.421185" lon="2.697085"><ele></ele><time>2017-9-17T15:26:29Z</time></trkpt>
<trkpt lat="48.421208" lon="2.696988"><ele></ele><time>2017-9-17T15:26:32Z</time></trkpt>
<trkpt lat="48.421228" lon="2.696882"><ele></ele><time>2017-9-17T15:26:35Z</time></trkpt>
<trkpt lat="48.421250" lon="2.696772"><ele></ele><time>2017-9-17T15:26:38Z</time></trkpt>
<trkpt lat="48.421263" lon="2.696710"><ele></ele><time>2017-9-17T15:26:41Z</time></trkpt>
<trkpt lat="48.421280" lon="2.696643"><ele></ele><time>2017-9-17T15:26:44Z</time></trkpt>
<trkpt lat="48.421300" lon="2.696582"><ele></ele><time>2017-9-17T15:26:47Z</time></trkpt>
<trkpt lat="48.421332" lon="2.696458"><ele></ele><time>2017-9-17T15:26:50Z</time></trkpt>
<trkpt lat="48.421352" lon="2.696398"><ele></ele><time>2017-9-17T15:26:53Z</time></trkpt>
<trkpt lat="48.421370" lon="2.696332"><ele></ele><time>2017-9-17T15:26:56Z</time></trkpt>
<trkpt lat="48.421383" lon="2.696262"><ele></ele><time>2017-9-17T15:26:59Z</time></trkpt>
<trkpt lat="48.421398" lon="2.696190"><ele></ele><time>2017-9-17T15:27:2Z</time></trkpt>
<trkpt lat="48.421418" lon="2.696062"><ele></ele><time>2017-9-17T15:27:5Z</time></trkpt>
<trkpt lat="48.421433" lon="2.695935"><ele></ele><time>2017-9-17T15:27:8Z</time></trkpt>
<trkpt lat="48.421447" lon="2.695822"><ele></ele><time>2017-9-17T15:27:11Z</time></trkpt>
<trkpt lat="48.421455" lon="2.695698"><ele></ele><time>2017-9-17T15:27:14Z</time></trkpt>
<trkpt lat="48.421458" lon="2.695650"><ele></ele><time>2017-9-17T15:27:17Z</time></trkpt>
<trkpt lat="48.421457" lon="2.695477"><ele></ele><time>2017-9-17T15:27:20Z</time></trkpt>
<trkpt lat="48.421445" lon="2.695385"><ele></ele><time>2017-9-17T15:27:23Z</time></trkpt>
<trkpt lat="48.421418" lon="2.695290"><ele></ele><time>2017-9-17T15:27:26Z</time></trkpt>
<trkpt lat="48.421383" lon="2.695190"><ele></ele><time>2017-9-17T15:27:29Z</time></trkpt>
<trkpt lat="48.421365" lon="2.695138"><ele></ele><time>2017-9-17T15:27:32Z</time></trkpt>
<trkpt lat="48.421350" lon="2.695027"><ele></ele><time>2017-9-17T15:27:35Z</time></trkpt>
<trkpt lat="48.421408" lon="2.694930"><ele></ele><time>2017-9-17T15:27:38Z</time></trkpt>
<trkpt lat="48.421455" lon="2.694820"><ele></ele><time>2017-9-17T15:27:41Z</time></trkpt>
<trkpt lat="48.421495" lon="2.694713"><ele></ele><time>2017-9-17T15:27:44Z</time></trkpt>
<trkpt lat="48.421568" lon="2.694665"><ele></ele><time>2017-9-17T15:27:47Z</time></trkpt>
<trkpt lat="48.421647" lon="2.694628"><ele></ele><time>2017-9-17T15:27:50Z</time></trkpt>
<trkpt lat="48.421732" lon="2.694598"><ele></ele><time>2017-9-17T15:27:53Z</time></trkpt>
<trkpt lat="48.421817" lon="2.694567"><ele></ele><time>2017-9-17T15:27:56Z</time></trkpt>
<trkpt lat="48.421835" lon="2.694562"><ele></ele><time>2017-9-17T15:27:59Z</time></trkpt>
<trkpt lat="48.421975" lon="2.694475"><ele></ele><time>2017-9-17T15:28:2Z</time></trkpt>
<trkpt lat="48.422062" lon="2.694493"><ele></ele><time>2017-9-17T15:28:5Z</time></trkpt>
<trkpt lat="48.422145" lon="2.694455"><ele></ele><time>2017-9-17T15:28:8Z</time></trkpt>
<trkpt lat="48.422232" lon="2.694448"><ele></ele><time>2017-9-17T15:28:11Z</time></trkpt>
<trkpt lat="48.422307" lon="2.694387"><ele></ele><time>2017-9-17T15:28:14Z</time></trkpt>
<trkpt lat="48.422307" lon="2.694373"><ele></ele><time>2017-9-17T15:28:17Z</time></trkpt>
<trkpt lat="48.422362" lon="2.694148"><ele></ele><time>2017-9-17T15:28:20Z</time></trkpt>
<trkpt lat="48.422427" lon="2.694062"><ele></ele><time>2017-9-17T15:28:23Z</time></trkpt>
<trkpt lat="48.422510" lon="2.694072"><ele></ele><time>2017-9-17T15:28:26Z</time></trkpt>
<trkpt lat="48.422517" lon="2.694075"><ele></ele><time>2017-9-17T15:28:29Z</time></trkpt>
<trkpt lat="48.422667" lon="2.694188"><ele></ele><time>2017-9-17T15:28:32Z</time></trkpt>
<trkpt lat="48.422673" lon="2.694193"><ele></ele><time>2017-9-17T15:28:35Z</time></trkpt>
<trkpt lat="48.422820" lon="2.694283"><ele></ele><time>2017-9-17T15:28:38Z</time></trkpt>
<trkpt lat="48.422902" lon="2.694245"><ele></ele><time>2017-9-17T15:28:41Z</time></trkpt>
<trkpt lat="48.422908" lon="2.694237"><ele></ele><time>2017-9-17T15:28:44Z</time></trkpt>
<trkpt lat="48.422963" lon="2.694005"><ele></ele><time>2017-9-17T15:28:47Z</time></trkpt>
<trkpt lat="48.422900" lon="2.693917"><ele></ele><time>2017-9-17T15:28:50Z</time></trkpt>
<trkpt lat="48.422838" lon="2.693827"><ele></ele><time>2017-9-17T15:28:53Z</time></trkpt>
<trkpt lat="48.422833" lon="2.693817"><ele></ele><time>2017-9-17T15:28:56Z</time></trkpt>
<trkpt lat="48.422792" lon="2.693587"><ele></ele><time>2017-9-17T15:28:59Z</time></trkpt>
<trkpt lat="48.422843" lon="2.693480"><ele></ele><time>2017-9-17T15:29:2Z</time></trkpt>
<trkpt lat="48.422905" lon="2.693382"><ele></ele><time>2017-9-17T15:29:5Z</time></trkpt>
<trkpt lat="48.422947" lon="2.693323"><ele></ele><time>2017-9-17T15:29:8Z</time></trkpt>
<trkpt lat="48.423012" lon="2.693235"><ele></ele><time>2017-9-17T15:29:11Z</time></trkpt>
<trkpt lat="48.423072" lon="2.693150"><ele></ele><time>2017-9-17T15:29:14Z</time></trkpt>
<trkpt lat="48.423147" lon="2.693110"><ele></ele><time>2017-9-17T15:29:17Z</time></trkpt>
<trkpt lat="48.423222" lon="2.693152"><ele></ele><time>2017-9-17T15:29:20Z</time></trkpt>
<trkpt lat="48.423237" lon="2.693165"><ele></ele><time>2017-9-17T15:29:23Z</time></trkpt>
<trkpt lat="48.423362" lon="2.693263"><ele></ele><time>2017-9-17T15:29:26Z</time></trkpt>
<trkpt lat="48.423435" lon="2.693322"><ele></ele><time>2017-9-17T15:29:29Z</time></trkpt>
<trkpt lat="48.423513" lon="2.693387"><ele></ele><time>2017-9-17T15:29:32Z</time></trkpt>
<trkpt lat="48.423578" lon="2.693427"><ele></ele><time>2017-9-17T15:29:35Z</time></trkpt>
<trkpt lat="48.423648" lon="2.693483"><ele></ele><time>2017-9-17T15:29:38Z</time></trkpt>
<trkpt lat="48.423732" lon="2.693533"><ele></ele><time>2017-9-17T15:29:41Z</time></trkpt>
<trkpt lat="48.423810" lon="2.693587"><ele></ele><time>2017-9-17T15:29:44Z</time></trkpt>
<trkpt lat="48.423868" lon="2.693620"><ele></ele><time>2017-9-17T15:29:47Z</time></trkpt>
<trkpt lat="48.423937" lon="2.693673"><ele></ele><time>2017-9-17T15:29:50Z</time></trkpt>
<trkpt lat="48.423988" lon="2.693705"><ele></ele><time>2017-9-17T15:29:53Z</time></trkpt>
<trkpt lat="48.424058" lon="2.693732"><ele></ele><time>2017-9-17T15:29:56Z</time></trkpt>
<trkpt lat="48.424128" lon="2.693770"><ele></ele><time>2017-9-17T15:29:59Z</time></trkpt>
<trkpt lat="48.424182" lon="2.693807"><ele></ele><time>2017-9-17T15:30:2Z</time></trkpt>
<trkpt lat="48.424247" lon="2.693845"><ele></ele><time>2017-9-17T15:30:5Z</time></trkpt>
<trkpt lat="48.424308" lon="2.693897"><ele></ele><time>2017-9-17T15:30:8Z</time></trkpt>
<trkpt lat="48.424388" lon="2.693945"><ele></ele><time>2017-9-17T15:30:11Z</time></trkpt>
<trkpt lat="48.424462" lon="2.693997"><ele></ele><time>2017-9-17T15:30:14Z</time></trkpt>
<trkpt lat="48.424500" lon="2.694035"><ele></ele><time>2017-9-17T15:30:17Z</time></trkpt>
<trkpt lat="48.424547" lon="2.694067"><ele></ele><time>2017-9-17T15:30:20Z</time></trkpt>
<trkpt lat="48.424593" lon="2.694100"><ele></ele><time>2017-9-17T15:30:23Z</time></trkpt>
<trkpt lat="48.424653" lon="2.694135"><ele></ele><time>2017-9-17T15:30:26Z</time></trkpt>
<trkpt lat="48.424717" lon="2.694152"><ele></ele><time>2017-9-17T15:30:29Z</time></trkpt>
<trkpt lat="48.424747" lon="2.694155"><ele></ele><time>2017-9-17T15:30:32Z</time></trkpt>
<trkpt lat="48.424878" lon="2.694128"><ele></ele><time>2017-9-17T15:30:35Z</time></trkpt>
<trkpt lat="48.424962" lon="2.694092"><ele></ele><time>2017-9-17T15:30:38Z</time></trkpt>
<trkpt lat="48.425048" lon="2.694063"><ele></ele><time>2017-9-17T15:30:41Z</time></trkpt>
<trkpt lat="48.425130" lon="2.694037"><ele></ele><time>2017-9-17T15:30:44Z</time></trkpt>
<trkpt lat="48.425187" lon="2.694022"><ele></ele><time>2017-9-17T15:30:47Z</time></trkpt>
<trkpt lat="48.425267" lon="2.693990"><ele></ele><time>2017-9-17T15:30:50Z</time></trkpt>
<trkpt lat="48.425338" lon="2.693952"><ele></ele><time>2017-9-17T15:30:53Z</time></trkpt>
<trkpt lat="48.425358" lon="2.693952"><ele></ele><time>2017-9-17T15:30:56Z</time></trkpt>
<trkpt lat="48.425457" lon="2.693935"><ele></ele><time>2017-9-17T15:30:59Z</time></trkpt>
<trkpt lat="48.425523" lon="2.693908"><ele></ele><time>2017-9-17T15:31:2Z</time></trkpt>
<trkpt lat="48.425597" lon="2.693882"><ele></ele><time>2017-9-17T15:31:5Z</time></trkpt>
<trkpt lat="48.425682" lon="2.693843"><ele></ele><time>2017-9-17T15:31:8Z</time></trkpt>
<trkpt lat="48.425767" lon="2.693803"><ele></ele><time>2017-9-17T15:31:11Z</time></trkpt>
<trkpt lat="48.425828" lon="2.693775"><ele></ele><time>2017-9-17T15:31:14Z</time></trkpt>
<trkpt lat="48.425885" lon="2.693748"><ele></ele><time>2017-9-17T15:31:17Z</time></trkpt>
<trkpt lat="48.425945" lon="2.693732"><ele></ele><time>2017-9-17T15:31:20Z</time></trkpt>
<trkpt lat="48.426012" lon="2.693707"><ele></ele><time>2017-9-17T15:31:23Z</time></trkpt>
<trkpt lat="48.426090" lon="2.693673"><ele></ele><time>2017-9-17T15:31:26Z</time></trkpt>
<trkpt lat="48.426148" lon="2.693645"><ele></ele><time>2017-9-17T15:31:29Z</time></trkpt>
<trkpt lat="48.426217" lon="2.693622"><ele></ele><time>2017-9-17T15:31:32Z</time></trkpt>
<trkpt lat="48.426283" lon="2.693598"><ele></ele><time>2017-9-17T15:31:35Z</time></trkpt>
<trkpt lat="48.426348" lon="2.693568"><ele></ele><time>2017-9-17T15:31:38Z</time></trkpt>
<trkpt lat="48.426418" lon="2.693530"><ele></ele><time>2017-9-17T15:31:41Z</time></trkpt>
<trkpt lat="48.426482" lon="2.693505"><ele></ele><time>2017-9-17T15:31:44Z</time></trkpt>
<trkpt lat="48.426543" lon="2.693473"><ele></ele><time>2017-9-17T15:31:47Z</time></trkpt>
<trkpt lat="48.426603" lon="2.693438"><ele></ele><time>2017-9-17T15:31:50Z</time></trkpt>
<trkpt lat="48.426670" lon="2.693410"><ele></ele><time>2017-9-17T15:31:53Z</time></trkpt>
<trkpt lat="48.426737" lon="2.693375"><ele></ele><time>2017-9-17T15:31:56Z</time></trkpt>
<trkpt lat="48.426795" lon="2.693342"><ele></ele><time>2017-9-17T15:31:59Z</time></trkpt>
<trkpt lat="48.426860" lon="2.693322"><ele></ele><time>2017-9-17T15:32:2Z</time></trkpt>
<trkpt lat="48.426925" lon="2.693297"><ele></ele><time>2017-9-17T15:32:5Z</time></trkpt>
<trkpt lat="48.426985" lon="2.693270"><ele></ele><time>2017-9-17T15:32:8Z</time></trkpt>
<trkpt lat="48.427048" lon="2.693243"><ele></ele><time>2017-9-17T15:32:11Z</time></trkpt>
<trkpt lat="48.427085" lon="2.693230"><ele></ele><time>2017-9-17T15:32:14Z</time></trkpt>
<trkpt lat="48.427142" lon="2.693208"><ele></ele><time>2017-9-17T15:32:17Z</time></trkpt>
<trkpt lat="48.427208" lon="2.693178"><ele></ele><time>2017-9-17T15:32:20Z</time></trkpt>
<trkpt lat="48.427247" lon="2.693162"><ele></ele><time>2017-9-17T15:32:23Z</time></trkpt>
<trkpt lat="48.427348" lon="2.693117"><ele></ele><time>2017-9-17T15:32:26Z</time></trkpt>
<trkpt lat="48.427408" lon="2.693092"><ele></ele><time>2017-9-17T15:32:29Z</time></trkpt>
<trkpt lat="48.427473" lon="2.693067"><ele></ele><time>2017-9-17T15:32:32Z</time></trkpt>
<trkpt lat="48.427550" lon="2.693043"><ele></ele><time>2017-9-17T15:32:35Z</time></trkpt>
<trkpt lat="48.427618" lon="2.693013"><ele></ele><time>2017-9-17T15:32:38Z</time></trkpt>
<trkpt lat="48.427685" lon="2.692987"><ele></ele><time>2017-9-17T15:32:41Z</time></trkpt>
<trkpt lat="48.427720" lon="2.692973"><ele></ele><time>2017-9-17T15:32:44Z</time></trkpt>
<trkpt lat="48.427793" lon="2.692947"><ele></ele><time>2017-9-17T15:32:47Z</time></trkpt>
<trkpt lat="48.427867" lon="2.692920"><ele></ele><time>2017-9-17T15:32:50Z</time></trkpt>
<trkpt lat="48.427930" lon="2.692892"><ele></ele><time>2017-9-17T15:32:53Z</time></trkpt>
<trkpt lat="48.428005" lon="2.692858"><ele></ele><time>2017-9-17T15:32:56Z</time></trkpt>
<trkpt lat="48.428083" lon="2.692822"><ele></ele><time>2017-9-17T15:32:59Z</time></trkpt>
<trkpt lat="48.428148" lon="2.692805"><ele></ele><time>2017-9-17T15:33:2Z</time></trkpt>
<trkpt lat="48.428222" lon="2.692775"><ele></ele><time>2017-9-17T15:33:5Z</time></trkpt>
<trkpt lat="48.428293" lon="2.692745"><ele></ele><time>2017-9-17T15:33:8Z</time></trkpt>
<trkpt lat="48.428367" lon="2.692710"><ele></ele><time>2017-9-17T15:33:11Z</time></trkpt>
<trkpt lat="48.428432" lon="2.692682"><ele></ele><time>2017-9-17T15:33:14Z</time></trkpt>
<trkpt lat="48.428497" lon="2.692672"><ele></ele><time>2017-9-17T15:33:17Z</time></trkpt>
<trkpt lat="48.428560" lon="2.692619"><ele></ele><time>2017-9-17T15:33:20Z</time></trkpt>
<trkpt lat="48.428623" lon="2.692582"><ele></ele><time>2017-9-17T15:33:23Z</time></trkpt>
<trkpt lat="48.428710" lon="2.692568"><ele></ele><time>2017-9-17T15:33:26Z</time></trkpt>
<trkpt lat="48.428648" lon="2.692473"><ele></ele><time>2017-9-17T15:33:29Z</time></trkpt>
<trkpt lat="48.428600" lon="2.692392"><ele></ele><time>2017-9-17T15:33:32Z</time></trkpt>
<trkpt lat="48.428587" lon="2.692372"><ele></ele><time>2017-9-17T15:33:35Z</time></trkpt>
<trkpt lat="48.428495" lon="2.692223"><ele></ele><time>2017-9-17T15:33:38Z</time></trkpt>
<trkpt lat="48.428450" lon="2.692167"><ele></ele><time>2017-9-17T15:33:41Z</time></trkpt>
<trkpt lat="48.428405" lon="2.692102"><ele></ele><time>2017-9-17T15:33:44Z</time></trkpt>
<trkpt lat="48.428360" lon="2.692037"><ele></ele><time>2017-9-17T15:33:47Z</time></trkpt>
<trkpt lat="48.428303" lon="2.691955"><ele></ele><time>2017-9-17T15:33:50Z</time></trkpt>
<trkpt lat="48.428235" lon="2.691880"><ele></ele><time>2017-9-17T15:33:53Z</time></trkpt>
<trkpt lat="48.428180" lon="2.691802"><ele></ele><time>2017-9-17T15:33:56Z</time></trkpt>
<trkpt lat="48.428117" lon="2.691747"><ele></ele><time>2017-9-17T15:33:59Z</time></trkpt>
<trkpt lat="48.428050" lon="2.691677"><ele></ele><time>2017-9-17T15:34:2Z</time></trkpt>
<trkpt lat="48.428013" lon="2.691560"><ele></ele><time>2017-9-17T15:34:5Z</time></trkpt>
<trkpt lat="48.427955" lon="2.691470"><ele></ele><time>2017-9-17T15:34:8Z</time></trkpt>
<trkpt lat="48.427902" lon="2.691387"><ele></ele><time>2017-9-17T15:34:11Z</time></trkpt>
<trkpt lat="48.427862" lon="2.691267"><ele></ele><time>2017-9-17T15:34:14Z</time></trkpt>
<trkpt lat="48.427855" lon="2.691232"><ele></ele><time>2017-9-17T15:34:17Z</time></trkpt>
<trkpt lat="48.427795" lon="2.691048"><ele></ele><time>2017-9-17T15:34:20Z</time></trkpt>
<trkpt lat="48.427763" lon="2.690983"><ele></ele><time>2017-9-17T15:34:23Z</time></trkpt>
<trkpt lat="48.427707" lon="2.690907"><ele></ele><time>2017-9-17T15:34:26Z</time></trkpt>
<trkpt lat="48.427675" lon="2.690828"><ele></ele><time>2017-9-17T15:34:29Z</time></trkpt>
<trkpt lat="48.427638" lon="2.690707"><ele></ele><time>2017-9-17T15:34:32Z</time></trkpt>
<trkpt lat="48.427617" lon="2.690603"><ele></ele><time>2017-9-17T15:34:35Z</time></trkpt>
<trkpt lat="48.427583" lon="2.690493"><ele></ele><time>2017-9-17T15:34:38Z</time></trkpt>
<trkpt lat="48.427575" lon="2.690390"><ele></ele><time>2017-9-17T15:34:41Z</time></trkpt>
<trkpt lat="48.427563" lon="2.690268"><ele></ele><time>2017-9-17T15:34:44Z</time></trkpt>
<trkpt lat="48.427543" lon="2.690202"><ele></ele><time>2017-9-17T15:34:47Z</time></trkpt>
<trkpt lat="48.427523" lon="2.690130"><ele></ele><time>2017-9-17T15:34:50Z</time></trkpt>
<trkpt lat="48.427505" lon="2.690053"><ele></ele><time>2017-9-17T15:34:53Z</time></trkpt>
<trkpt lat="48.427490" lon="2.689985"><ele></ele><time>2017-9-17T15:34:56Z</time></trkpt>
<trkpt lat="48.427472" lon="2.689908"><ele></ele><time>2017-9-17T15:34:59Z</time></trkpt>
<trkpt lat="48.427435" lon="2.689765"><ele></ele><time>2017-9-17T15:35:2Z</time></trkpt>
<trkpt lat="48.427418" lon="2.689635"><ele></ele><time>2017-9-17T15:35:5Z</time></trkpt>
<trkpt lat="48.427397" lon="2.689505"><ele></ele><time>2017-9-17T15:35:8Z</time></trkpt>
<trkpt lat="48.427372" lon="2.689373"><ele></ele><time>2017-9-17T15:35:11Z</time></trkpt>
<trkpt lat="48.427372" lon="2.689265"><ele></ele><time>2017-9-17T15:35:14Z</time></trkpt>
<trkpt lat="48.427397" lon="2.689180"><ele></ele><time>2017-9-17T15:35:17Z</time></trkpt>
<trkpt lat="48.427407" lon="2.689080"><ele></ele><time>2017-9-17T15:35:20Z</time></trkpt>
<trkpt lat="48.427425" lon="2.688967"><ele></ele><time>2017-9-17T15:35:23Z</time></trkpt>
<trkpt lat="48.427432" lon="2.688843"><ele></ele><time>2017-9-17T15:35:26Z</time></trkpt>
<trkpt lat="48.427445" lon="2.688745"><ele></ele><time>2017-9-17T15:35:29Z</time></trkpt>
<trkpt lat="48.427443" lon="2.688630"><ele></ele><time>2017-9-17T15:35:32Z</time></trkpt>
<trkpt lat="48.427455" lon="2.688538"><ele></ele><time>2017-9-17T15:35:35Z</time></trkpt>
<trkpt lat="48.427472" lon="2.688445"><ele></ele><time>2017-9-17T15:35:38Z</time></trkpt>
<trkpt lat="48.427492" lon="2.688332"><ele></ele><time>2017-9-17T15:35:41Z</time></trkpt>
<trkpt lat="48.427512" lon="2.688233"><ele></ele><time>2017-9-17T15:35:44Z</time></trkpt>
<trkpt lat="48.427520" lon="2.688123"><ele></ele><time>2017-9-17T15:35:47Z</time></trkpt>
<trkpt lat="48.427528" lon="2.688015"><ele></ele><time>2017-9-17T15:35:50Z</time></trkpt>
<trkpt lat="48.427533" lon="2.687957"><ele></ele><time>2017-9-17T15:35:53Z</time></trkpt>
<trkpt lat="48.427552" lon="2.687785"><ele></ele><time>2017-9-17T15:35:56Z</time></trkpt>
<trkpt lat="48.427567" lon="2.687662"><ele></ele><time>2017-9-17T15:35:59Z</time></trkpt>
<trkpt lat="48.427582" lon="2.687537"><ele></ele><time>2017-9-17T15:36:2Z</time></trkpt>
<trkpt lat="48.427585" lon="2.687402"><ele></ele><time>2017-9-17T15:36:5Z</time></trkpt>
<trkpt lat="48.427590" lon="2.687345"><ele></ele><time>2017-9-17T15:36:8Z</time></trkpt>
<trkpt lat="48.427602" lon="2.687225"><ele></ele><time>2017-9-17T15:36:11Z</time></trkpt>
<trkpt lat="48.427610" lon="2.687115"><ele></ele><time>2017-9-17T15:36:14Z</time></trkpt>
<trkpt lat="48.427622" lon="2.687010"><ele></ele><time>2017-9-17T15:36:17Z</time></trkpt>
<trkpt lat="48.427633" lon="2.686910"><ele></ele><time>2017-9-17T15:36:20Z</time></trkpt>
<trkpt lat="48.427640" lon="2.686817"><ele></ele><time>2017-9-17T15:36:23Z</time></trkpt>
<trkpt lat="48.427643" lon="2.686722"><ele></ele><time>2017-9-17T15:36:26Z</time></trkpt>
<trkpt lat="48.427648" lon="2.686617"><ele></ele><time>2017-9-17T15:36:29Z</time></trkpt>
<trkpt lat="48.427647" lon="2.686513"><ele></ele><time>2017-9-17T15:36:32Z</time></trkpt>
<trkpt lat="48.427655" lon="2.686405"><ele></ele><time>2017-9-17T15:36:35Z</time></trkpt>
<trkpt lat="48.427675" lon="2.686300"><ele></ele><time>2017-9-17T15:36:38Z</time></trkpt>
<trkpt lat="48.427685" lon="2.686198"><ele></ele><time>2017-9-17T15:36:41Z</time></trkpt>
<trkpt lat="48.427698" lon="2.686100"><ele></ele><time>2017-9-17T15:36:44Z</time></trkpt>
<trkpt lat="48.427705" lon="2.686005"><ele></ele><time>2017-9-17T15:36:47Z</time></trkpt>
<trkpt lat="48.427700" lon="2.685902"><ele></ele><time>2017-9-17T15:36:50Z</time></trkpt>
<trkpt lat="48.427708" lon="2.685800"><ele></ele><time>2017-9-17T15:36:53Z</time></trkpt>
<trkpt lat="48.427725" lon="2.685690"><ele></ele><time>2017-9-17T15:36:56Z</time></trkpt>
<trkpt lat="48.427737" lon="2.685590"><ele></ele><time>2017-9-17T15:36:59Z</time></trkpt>
<trkpt lat="48.427747" lon="2.685485"><ele></ele><time>2017-9-17T15:37:2Z</time></trkpt>
<trkpt lat="48.427752" lon="2.685373"><ele></ele><time>2017-9-17T15:37:5Z</time></trkpt>
<trkpt lat="48.427762" lon="2.685260"><ele></ele><time>2017-9-17T15:37:8Z</time></trkpt>
<trkpt lat="48.427773" lon="2.685157"><ele></ele><time>2017-9-17T15:37:11Z</time></trkpt>
<trkpt lat="48.427785" lon="2.685055"><ele></ele><time>2017-9-17T15:37:14Z</time></trkpt>
<trkpt lat="48.427788" lon="2.685007"><ele></ele><time>2017-9-17T15:37:17Z</time></trkpt>
<trkpt lat="48.427798" lon="2.684895"><ele></ele><time>2017-9-17T15:37:20Z</time></trkpt>
<trkpt lat="48.427822" lon="2.684770"><ele></ele><time>2017-9-17T15:37:23Z</time></trkpt>
<trkpt lat="48.427840" lon="2.684648"><ele></ele><time>2017-9-17T15:37:26Z</time></trkpt>
<trkpt lat="48.427855" lon="2.684538"><ele></ele><time>2017-9-17T15:37:29Z</time></trkpt>
<trkpt lat="48.427867" lon="2.684407"><ele></ele><time>2017-9-17T15:37:32Z</time></trkpt>
<trkpt lat="48.427870" lon="2.684273"><ele></ele><time>2017-9-17T15:37:35Z</time></trkpt>
<trkpt lat="48.427902" lon="2.684150"><ele></ele><time>2017-9-17T15:37:38Z</time></trkpt>
<trkpt lat="48.427922" lon="2.684020"><ele></ele><time>2017-9-17T15:37:41Z</time></trkpt>
<trkpt lat="48.427930" lon="2.683922"><ele></ele><time>2017-9-17T15:37:44Z</time></trkpt>
<trkpt lat="48.427935" lon="2.683823"><ele></ele><time>2017-9-17T15:37:47Z</time></trkpt>
<trkpt lat="48.427947" lon="2.683727"><ele></ele><time>2017-9-17T15:37:50Z</time></trkpt>
<trkpt lat="48.427962" lon="2.683630"><ele></ele><time>2017-9-17T15:37:53Z</time></trkpt>
<trkpt lat="48.427963" lon="2.683528"><ele></ele><time>2017-9-17T15:37:56Z</time></trkpt>
<trkpt lat="48.427965" lon="2.683473"><ele></ele><time>2017-9-17T15:37:59Z</time></trkpt>
<trkpt lat="48.427968" lon="2.683358"><ele></ele><time>2017-9-17T15:38:2Z</time></trkpt>
<trkpt lat="48.427975" lon="2.683252"><ele></ele><time>2017-9-17T15:38:5Z</time></trkpt>
<trkpt lat="48.427975" lon="2.683162"><ele></ele><time>2017-9-17T15:38:8Z</time></trkpt>
<trkpt lat="48.427988" lon="2.683073"><ele></ele><time>2017-9-17T15:38:11Z</time></trkpt>
<trkpt lat="48.428000" lon="2.682970"><ele></ele><time>2017-9-17T15:38:14Z</time></trkpt>
<trkpt lat="48.428003" lon="2.682873"><ele></ele><time>2017-9-17T15:38:17Z</time></trkpt>
<trkpt lat="48.428012" lon="2.682778"><ele></ele><time>2017-9-17T15:38:20Z</time></trkpt>
<trkpt lat="48.428002" lon="2.682678"><ele></ele><time>2017-9-17T15:38:23Z</time></trkpt>
<trkpt lat="48.427982" lon="2.682575"><ele></ele><time>2017-9-17T15:38:26Z</time></trkpt>
<trkpt lat="48.427975" lon="2.682527"><ele></ele><time>2017-9-17T15:38:29Z</time></trkpt>
<trkpt lat="48.427950" lon="2.682377"><ele></ele><time>2017-9-17T15:38:32Z</time></trkpt>
<trkpt lat="48.427913" lon="2.682280"><ele></ele><time>2017-9-17T15:38:35Z</time></trkpt>
<trkpt lat="48.427877" lon="2.682188"><ele></ele><time>2017-9-17T15:38:38Z</time></trkpt>
<trkpt lat="48.427845" lon="2.682105"><ele></ele><time>2017-9-17T15:38:41Z</time></trkpt>
<trkpt lat="48.427798" lon="2.681992"><ele></ele><time>2017-9-17T15:38:44Z</time></trkpt>
<trkpt lat="48.427757" lon="2.681892"><ele></ele><time>2017-9-17T15:38:47Z</time></trkpt>
<trkpt lat="48.427730" lon="2.681855"><ele></ele><time>2017-9-17T15:38:50Z</time></trkpt>
<trkpt lat="48.427677" lon="2.681782"><ele></ele><time>2017-9-17T15:38:53Z</time></trkpt>
<trkpt lat="48.427607" lon="2.681700"><ele></ele><time>2017-9-17T15:38:56Z</time></trkpt>
<trkpt lat="48.427553" lon="2.681635"><ele></ele><time>2017-9-17T15:38:59Z</time></trkpt>
<trkpt lat="48.427483" lon="2.681562"><ele></ele><time>2017-9-17T15:39:2Z</time></trkpt>
<trkpt lat="48.427415" lon="2.681477"><ele></ele><time>2017-9-17T15:39:5Z</time></trkpt>
<trkpt lat="48.427362" lon="2.681397"><ele></ele><time>2017-9-17T15:39:8Z</time></trkpt>
<trkpt lat="48.427305" lon="2.681300"><ele></ele><time>2017-9-17T15:39:11Z</time></trkpt>
<trkpt lat="48.427255" lon="2.681200"><ele></ele><time>2017-9-17T15:39:14Z</time></trkpt>
<trkpt lat="48.427205" lon="2.681127"><ele></ele><time>2017-9-17T15:39:17Z</time></trkpt>
<trkpt lat="48.427160" lon="2.681047"><ele></ele><time>2017-9-17T15:39:20Z</time></trkpt>
<trkpt lat="48.427107" lon="2.680960"><ele></ele><time>2017-9-17T15:39:23Z</time></trkpt>
<trkpt lat="48.427050" lon="2.680877"><ele></ele><time>2017-9-17T15:39:26Z</time></trkpt>
<trkpt lat="48.427015" lon="2.680807"><ele></ele><time>2017-9-17T15:39:29Z</time></trkpt>
<trkpt lat="48.426968" lon="2.680732"><ele></ele><time>2017-9-17T15:39:32Z</time></trkpt>
<trkpt lat="48.426917" lon="2.680660"><ele></ele><time>2017-9-17T15:39:35Z</time></trkpt>
<trkpt lat="48.426873" lon="2.680593"><ele></ele><time>2017-9-17T15:39:38Z</time></trkpt>
<trkpt lat="48.426828" lon="2.680517"><ele></ele><time>2017-9-17T15:39:41Z</time></trkpt>
<trkpt lat="48.426787" lon="2.680440"><ele></ele><time>2017-9-17T15:39:44Z</time></trkpt>
<trkpt lat="48.426743" lon="2.680332"><ele></ele><time>2017-9-17T15:39:47Z</time></trkpt>
<trkpt lat="48.426680" lon="2.680275"><ele></ele><time>2017-9-17T15:39:50Z</time></trkpt>
<trkpt lat="48.426662" lon="2.680255"><ele></ele><time>2017-9-17T15:39:53Z</time></trkpt>
<trkpt lat="48.426582" lon="2.680102"><ele></ele><time>2017-9-17T15:39:56Z</time></trkpt>
<trkpt lat="48.426555" lon="2.679995"><ele></ele><time>2017-9-17T15:39:59Z</time></trkpt>
<trkpt lat="48.426540" lon="2.679883"><ele></ele><time>2017-9-17T15:40:2Z</time></trkpt>
<trkpt lat="48.426520" lon="2.679797"><ele></ele><time>2017-9-17T15:40:5Z</time></trkpt>
<trkpt lat="48.426507" lon="2.679685"><ele></ele><time>2017-9-17T15:40:8Z</time></trkpt>
<trkpt lat="48.426478" lon="2.679573"><ele></ele><time>2017-9-17T15:40:11Z</time></trkpt>
<trkpt lat="48.426452" lon="2.679505"><ele></ele><time>2017-9-17T15:40:14Z</time></trkpt>
<trkpt lat="48.426432" lon="2.679380"><ele></ele><time>2017-9-17T15:40:17Z</time></trkpt>
<trkpt lat="48.426412" lon="2.679308"><ele></ele><time>2017-9-17T15:40:20Z</time></trkpt>
<trkpt lat="48.426397" lon="2.679177"><ele></ele><time>2017-9-17T15:40:23Z</time></trkpt>
<trkpt lat="48.426388" lon="2.679060"><ele></ele><time>2017-9-17T15:40:26Z</time></trkpt>
<trkpt lat="48.426378" lon="2.678988"><ele></ele><time>2017-9-17T15:40:29Z</time></trkpt>
<trkpt lat="48.426355" lon="2.678860"><ele></ele><time>2017-9-17T15:40:32Z</time></trkpt>
<trkpt lat="48.426352" lon="2.678755"><ele></ele><time>2017-9-17T15:40:35Z</time></trkpt>
<trkpt lat="48.426365" lon="2.678660"><ele></ele><time>2017-9-17T15:40:38Z</time></trkpt>
<trkpt lat="48.426375" lon="2.678558"><ele></ele><time>2017-9-17T15:40:41Z</time></trkpt>
<trkpt lat="48.426377" lon="2.678478"><ele></ele><time>2017-9-17T15:40:44Z</time></trkpt>
<trkpt lat="48.426378" lon="2.678353"><ele></ele><time>2017-9-17T15:40:47Z</time></trkpt>
<trkpt lat="48.426382" lon="2.678223"><ele></ele><time>2017-9-17T15:40:50Z</time></trkpt>
<trkpt lat="48.426380" lon="2.678092"><ele></ele><time>2017-9-17T15:40:53Z</time></trkpt>
<trkpt lat="48.426395" lon="2.678000"><ele></ele><time>2017-9-17T15:40:56Z</time></trkpt>
<trkpt lat="48.426395" lon="2.677898"><ele></ele><time>2017-9-17T15:40:59Z</time></trkpt>
<trkpt lat="48.426383" lon="2.677790"><ele></ele><time>2017-9-17T15:41:2Z</time></trkpt>
<trkpt lat="48.426363" lon="2.677665"><ele></ele><time>2017-9-17T15:41:5Z</time></trkpt>
<trkpt lat="48.426357" lon="2.677543"><ele></ele><time>2017-9-17T15:41:8Z</time></trkpt>
<trkpt lat="48.426375" lon="2.677462"><ele></ele><time>2017-9-17T15:41:11Z</time></trkpt>
<trkpt lat="48.426403" lon="2.677383"><ele></ele><time>2017-9-17T15:41:14Z</time></trkpt>
<trkpt lat="48.426430" lon="2.677277"><ele></ele><time>2017-9-17T15:41:17Z</time></trkpt>
<trkpt lat="48.426402" lon="2.677182"><ele></ele><time>2017-9-17T15:41:20Z</time></trkpt>
<trkpt lat="48.426355" lon="2.677083"><ele></ele><time>2017-9-17T15:41:23Z</time></trkpt>
<trkpt lat="48.426305" lon="2.676983"><ele></ele><time>2017-9-17T15:41:26Z</time></trkpt>
<trkpt lat="48.426262" lon="2.676900"><ele></ele><time>2017-9-17T15:41:29Z</time></trkpt>
<trkpt lat="48.426197" lon="2.676862"><ele></ele><time>2017-9-17T15:41:32Z</time></trkpt>
<trkpt lat="48.426128" lon="2.676835"><ele></ele><time>2017-9-17T15:41:35Z</time></trkpt>
<trkpt lat="48.426067" lon="2.676777"><ele></ele><time>2017-9-17T15:41:38Z</time></trkpt>
<trkpt lat="48.426047" lon="2.676730"><ele></ele><time>2017-9-17T15:41:41Z</time></trkpt>
<trkpt lat="48.426018" lon="2.676627"><ele></ele><time>2017-9-17T15:41:44Z</time></trkpt>
<trkpt lat="48.425972" lon="2.676513"><ele></ele><time>2017-9-17T15:41:47Z</time></trkpt>
<trkpt lat="48.425927" lon="2.676430"><ele></ele><time>2017-9-17T15:41:50Z</time></trkpt>
<trkpt lat="48.425888" lon="2.676320"><ele></ele><time>2017-9-17T15:41:53Z</time></trkpt>
<trkpt lat="48.425870" lon="2.676208"><ele></ele><time>2017-9-17T15:41:56Z</time></trkpt>
<trkpt lat="48.425852" lon="2.676130"><ele></ele><time>2017-9-17T15:41:59Z</time></trkpt>
<trkpt lat="48.425820" lon="2.676050"><ele></ele><time>2017-9-17T15:42:2Z</time></trkpt>
<trkpt lat="48.425770" lon="2.675938"><ele></ele><time>2017-9-17T15:42:5Z</time></trkpt>
<trkpt lat="48.425732" lon="2.675822"><ele></ele><time>2017-9-17T15:42:8Z</time></trkpt>
<trkpt lat="48.425702" lon="2.675723"><ele></ele><time>2017-9-17T15:42:11Z</time></trkpt>
<trkpt lat="48.425673" lon="2.675605"><ele></ele><time>2017-9-17T15:42:14Z</time></trkpt>
<trkpt lat="48.425622" lon="2.675498"><ele></ele><time>2017-9-17T15:42:17Z</time></trkpt>
<trkpt lat="48.425602" lon="2.675457"><ele></ele><time>2017-9-17T15:42:20Z</time></trkpt>
<trkpt lat="48.425567" lon="2.675373"><ele></ele><time>2017-9-17T15:42:23Z</time></trkpt>
<trkpt lat="48.425533" lon="2.675307"><ele></ele><time>2017-9-17T15:42:26Z</time></trkpt>
<trkpt lat="48.425505" lon="2.675268"><ele></ele><time>2017-9-17T15:42:29Z</time></trkpt>
<trkpt lat="48.425433" lon="2.675105"><ele></ele><time>2017-9-17T15:42:32Z</time></trkpt>
<trkpt lat="48.425378" lon="2.675007"><ele></ele><time>2017-9-17T15:42:35Z</time></trkpt>
<trkpt lat="48.425348" lon="2.674922"><ele></ele><time>2017-9-17T15:42:38Z</time></trkpt>
<trkpt lat="48.425320" lon="2.674820"><ele></ele><time>2017-9-17T15:42:41Z</time></trkpt>
<trkpt lat="48.425277" lon="2.674707"><ele></ele><time>2017-9-17T15:42:44Z</time></trkpt>
<trkpt lat="48.425252" lon="2.674577"><ele></ele><time>2017-9-17T15:42:47Z</time></trkpt>
<trkpt lat="48.425205" lon="2.674490"><ele></ele><time>2017-9-17T15:42:50Z</time></trkpt>
<trkpt lat="48.425185" lon="2.674397"><ele></ele><time>2017-9-17T15:42:53Z</time></trkpt>
<trkpt lat="48.425230" lon="2.674293"><ele></ele><time>2017-9-17T15:42:56Z</time></trkpt>
<trkpt lat="48.425302" lon="2.674218"><ele></ele><time>2017-9-17T15:42:59Z</time></trkpt>
<trkpt lat="48.425322" lon="2.674197"><ele></ele><time>2017-9-17T15:43:2Z</time></trkpt>
<trkpt lat="48.425413" lon="2.674072"><ele></ele><time>2017-9-17T15:43:5Z</time></trkpt>
<trkpt lat="48.425455" lon="2.674002"><ele></ele><time>2017-9-17T15:43:8Z</time></trkpt>
<trkpt lat="48.425517" lon="2.673928"><ele></ele><time>2017-9-17T15:43:11Z</time></trkpt>
<trkpt lat="48.425588" lon="2.673867"><ele></ele><time>2017-9-17T15:43:14Z</time></trkpt>
<trkpt lat="48.425647" lon="2.673810"><ele></ele><time>2017-9-17T15:43:17Z</time></trkpt>
<trkpt lat="48.425707" lon="2.673747"><ele></ele><time>2017-9-17T15:43:20Z</time></trkpt>
<trkpt lat="48.425763" lon="2.673692"><ele></ele><time>2017-9-17T15:43:23Z</time></trkpt>
<trkpt lat="48.425830" lon="2.673645"><ele></ele><time>2017-9-17T15:43:26Z</time></trkpt>
<trkpt lat="48.425902" lon="2.673608"><ele></ele><time>2017-9-17T15:43:29Z</time></trkpt>
<trkpt lat="48.425958" lon="2.673537"><ele></ele><time>2017-9-17T15:43:32Z</time></trkpt>
<trkpt lat="48.426028" lon="2.673465"><ele></ele><time>2017-9-17T15:43:35Z</time></trkpt>
<trkpt lat="48.426083" lon="2.673417"><ele></ele><time>2017-9-17T15:43:38Z</time></trkpt>
<trkpt lat="48.426150" lon="2.673343"><ele></ele><time>2017-9-17T15:43:41Z</time></trkpt>
<trkpt lat="48.426190" lon="2.673302"><ele></ele><time>2017-9-17T15:43:44Z</time></trkpt>
<trkpt lat="48.426250" lon="2.673252"><ele></ele><time>2017-9-17T15:43:47Z</time></trkpt>
<trkpt lat="48.426315" lon="2.673202"><ele></ele><time>2017-9-17T15:43:50Z</time></trkpt>
<trkpt lat="48.426373" lon="2.673125"><ele></ele><time>2017-9-17T15:43:53Z</time></trkpt>
<trkpt lat="48.426437" lon="2.673068"><ele></ele><time>2017-9-17T15:43:56Z</time></trkpt>
<trkpt lat="48.426508" lon="2.672998"><ele></ele><time>2017-9-17T15:43:59Z</time></trkpt>
<trkpt lat="48.426528" lon="2.672973"><ele></ele><time>2017-9-17T15:44:2Z</time></trkpt>
<trkpt lat="48.426647" lon="2.672858"><ele></ele><time>2017-9-17T15:44:5Z</time></trkpt>
<trkpt lat="48.426718" lon="2.672787"><ele></ele><time>2017-9-17T15:44:8Z</time></trkpt>
<trkpt lat="48.426803" lon="2.672803"><ele></ele><time>2017-9-17T15:44:11Z</time></trkpt>
<trkpt lat="48.426885" lon="2.672858"><ele></ele><time>2017-9-17T15:44:14Z</time></trkpt>
<trkpt lat="48.426943" lon="2.672912"><ele></ele><time>2017-9-17T15:44:17Z</time></trkpt>
<trkpt lat="48.427005" lon="2.672957"><ele></ele><time>2017-9-17T15:44:20Z</time></trkpt>
<trkpt lat="48.427037" lon="2.672977"><ele></ele><time>2017-9-17T15:44:23Z</time></trkpt>
<trkpt lat="48.427090" lon="2.673033"><ele></ele><time>2017-9-17T15:44:26Z</time></trkpt>
<trkpt lat="48.427157" lon="2.673097"><ele></ele><time>2017-9-17T15:44:29Z</time></trkpt>
<trkpt lat="48.427200" lon="2.673157"><ele></ele><time>2017-9-17T15:44:32Z</time></trkpt>
<trkpt lat="48.427270" lon="2.673222"><ele></ele><time>2017-9-17T15:44:35Z</time></trkpt>
<trkpt lat="48.427333" lon="2.673293"><ele></ele><time>2017-9-17T15:44:38Z</time></trkpt>
<trkpt lat="48.427378" lon="2.673353"><ele></ele><time>2017-9-17T15:44:41Z</time></trkpt>
<trkpt lat="48.427428" lon="2.673455"><ele></ele><time>2017-9-17T15:44:44Z</time></trkpt>
<trkpt lat="48.427437" lon="2.673472"><ele></ele><time>2017-9-17T15:44:47Z</time></trkpt>
<trkpt lat="48.427518" lon="2.673625"><ele></ele><time>2017-9-17T15:44:50Z</time></trkpt>
<trkpt lat="48.427562" lon="2.673725"><ele></ele><time>2017-9-17T15:44:53Z</time></trkpt>
<trkpt lat="48.427578" lon="2.673802"><ele></ele><time>2017-9-17T15:44:56Z</time></trkpt>
<trkpt lat="48.427597" lon="2.673865"><ele></ele><time>2017-9-17T15:44:59Z</time></trkpt>
<trkpt lat="48.427643" lon="2.673968"><ele></ele><time>2017-9-17T15:45:2Z</time></trkpt>
<trkpt lat="48.427707" lon="2.674008"><ele></ele><time>2017-9-17T15:45:5Z</time></trkpt>
<trkpt lat="48.427778" lon="2.674050"><ele></ele><time>2017-9-17T15:45:8Z</time></trkpt>
<trkpt lat="48.427843" lon="2.674078"><ele></ele><time>2017-9-17T15:45:11Z</time></trkpt>
<trkpt lat="48.427913" lon="2.674135"><ele></ele><time>2017-9-17T15:45:14Z</time></trkpt>
<trkpt lat="48.427990" lon="2.674188"><ele></ele><time>2017-9-17T15:45:17Z</time></trkpt>
<trkpt lat="48.427963" lon="2.674305"><ele></ele><time>2017-9-17T15:45:20Z</time></trkpt>
<trkpt lat="48.427990" lon="2.674395"><ele></ele><time>2017-9-17T15:45:23Z</time></trkpt>
<trkpt lat="48.428012" lon="2.674460"><ele></ele><time>2017-9-17T15:45:26Z</time></trkpt>
<trkpt lat="48.428050" lon="2.674563"><ele></ele><time>2017-9-17T15:45:29Z</time></trkpt>
<trkpt lat="48.428073" lon="2.674660"><ele></ele><time>2017-9-17T15:45:32Z</time></trkpt>
<trkpt lat="48.428103" lon="2.674765"><ele></ele><time>2017-9-17T15:45:35Z</time></trkpt>
<trkpt lat="48.428142" lon="2.674880"><ele></ele><time>2017-9-17T15:45:38Z</time></trkpt>
<trkpt lat="48.428177" lon="2.674988"><ele></ele><time>2017-9-17T15:45:41Z</time></trkpt>
<trkpt lat="48.428205" lon="2.675088"><ele></ele><time>2017-9-17T15:45:44Z</time></trkpt>
<trkpt lat="48.428202" lon="2.675202"><ele></ele><time>2017-9-17T15:45:47Z</time></trkpt>
<trkpt lat="48.428200" lon="2.675337"><ele></ele><time>2017-9-17T15:45:50Z</time></trkpt>
<trkpt lat="48.428205" lon="2.675402"><ele></ele><time>2017-9-17T15:45:53Z</time></trkpt>
<trkpt lat="48.428242" lon="2.675593"><ele></ele><time>2017-9-17T15:45:56Z</time></trkpt>
<trkpt lat="48.428285" lon="2.675708"><ele></ele><time>2017-9-17T15:45:59Z</time></trkpt>
<trkpt lat="48.428347" lon="2.675740"><ele></ele><time>2017-9-17T15:46:2Z</time></trkpt>
<trkpt lat="48.428365" lon="2.675778"><ele></ele><time>2017-9-17T15:46:5Z</time></trkpt>
<trkpt lat="48.428413" lon="2.675885"><ele></ele><time>2017-9-17T15:46:8Z</time></trkpt>
<trkpt lat="48.428455" lon="2.675990"><ele></ele><time>2017-9-17T15:46:11Z</time></trkpt>
<trkpt lat="48.428493" lon="2.676067"><ele></ele><time>2017-9-17T15:46:14Z</time></trkpt>
<trkpt lat="48.428540" lon="2.676167"><ele></ele><time>2017-9-17T15:46:17Z</time></trkpt>
<trkpt lat="48.428593" lon="2.676257"><ele></ele><time>2017-9-17T15:46:20Z</time></trkpt>
<trkpt lat="48.428637" lon="2.676335"><ele></ele><time>2017-9-17T15:46:23Z</time></trkpt>
<trkpt lat="48.428695" lon="2.676427"><ele></ele><time>2017-9-17T15:46:26Z</time></trkpt>
<trkpt lat="48.428737" lon="2.676538"><ele></ele><time>2017-9-17T15:46:29Z</time></trkpt>
<trkpt lat="48.428743" lon="2.676557"><ele></ele><time>2017-9-17T15:46:32Z</time></trkpt>
<trkpt lat="48.428825" lon="2.676735"><ele></ele><time>2017-9-17T15:46:35Z</time></trkpt>
<trkpt lat="48.428867" lon="2.676845"><ele></ele><time>2017-9-17T15:46:38Z</time></trkpt>
<trkpt lat="48.428917" lon="2.676948"><ele></ele><time>2017-9-17T15:46:41Z</time></trkpt>
<trkpt lat="48.428962" lon="2.677042"><ele></ele><time>2017-9-17T15:46:44Z</time></trkpt>
<trkpt lat="48.429020" lon="2.677143"><ele></ele><time>2017-9-17T15:46:47Z</time></trkpt>
<trkpt lat="48.429068" lon="2.677217"><ele></ele><time>2017-9-17T15:46:50Z</time></trkpt>
<trkpt lat="48.429118" lon="2.677285"><ele></ele><time>2017-9-17T15:46:53Z</time></trkpt>
<trkpt lat="48.429158" lon="2.677353"><ele></ele><time>2017-9-17T15:46:56Z</time></trkpt>
<trkpt lat="48.429197" lon="2.677462"><ele></ele><time>2017-9-17T15:46:59Z</time></trkpt>
<trkpt lat="48.429250" lon="2.677532"><ele></ele><time>2017-9-17T15:47:2Z</time></trkpt>
<trkpt lat="48.429312" lon="2.677583"><ele></ele><time>2017-9-17T15:47:5Z</time></trkpt>
<trkpt lat="48.429377" lon="2.677630"><ele></ele><time>2017-9-17T15:47:8Z</time></trkpt>
<trkpt lat="48.429437" lon="2.677667"><ele></ele><time>2017-9-17T15:47:11Z</time></trkpt>
<trkpt lat="48.429517" lon="2.677698"><ele></ele><time>2017-9-17T15:47:14Z</time></trkpt>
<trkpt lat="48.429597" lon="2.677758"><ele></ele><time>2017-9-17T15:47:17Z</time></trkpt>
<trkpt lat="48.429653" lon="2.677775"><ele></ele><time>2017-9-17T15:47:20Z</time></trkpt>
<trkpt lat="48.429738" lon="2.677783"><ele></ele><time>2017-9-17T15:47:23Z</time></trkpt>
<trkpt lat="48.429817" lon="2.677823"><ele></ele><time>2017-9-17T15:47:26Z</time></trkpt>
<trkpt lat="48.429823" lon="2.677828"><ele></ele><time>2017-9-17T15:47:29Z</time></trkpt>
<trkpt lat="48.429927" lon="2.677967"><ele></ele><time>2017-9-17T15:47:32Z</time></trkpt>
<trkpt lat="48.429970" lon="2.678055"><ele></ele><time>2017-9-17T15:47:35Z</time></trkpt>
<trkpt lat="48.430013" lon="2.678153"><ele></ele><time>2017-9-17T15:47:38Z</time></trkpt>
<trkpt lat="48.430047" lon="2.678273"><ele></ele><time>2017-9-17T15:47:41Z</time></trkpt>
<trkpt lat="48.430073" lon="2.678390"><ele></ele><time>2017-9-17T15:47:44Z</time></trkpt>
<trkpt lat="48.430123" lon="2.678485"><ele></ele><time>2017-9-17T15:47:47Z</time></trkpt>
<trkpt lat="48.430212" lon="2.678493"><ele></ele><time>2017-9-17T15:47:50Z</time></trkpt>
<trkpt lat="48.430295" lon="2.678468"><ele></ele><time>2017-9-17T15:47:53Z</time></trkpt>
<trkpt lat="48.430353" lon="2.678540"><ele></ele><time>2017-9-17T15:47:56Z</time></trkpt>
<trkpt lat="48.430382" lon="2.678562"><ele></ele><time>2017-9-17T15:47:59Z</time></trkpt>
<trkpt lat="48.430477" lon="2.678643"><ele></ele><time>2017-9-17T15:48:2Z</time></trkpt>
<trkpt lat="48.430540" lon="2.678730"><ele></ele><time>2017-9-17T15:48:5Z</time></trkpt>
<trkpt lat="48.430605" lon="2.678812"><ele></ele><time>2017-9-17T15:48:8Z</time></trkpt>
<trkpt lat="48.430662" lon="2.678863"><ele></ele><time>2017-9-17T15:48:11Z</time></trkpt>
<trkpt lat="48.430740" lon="2.678928"><ele></ele><time>2017-9-17T15:48:14Z</time></trkpt>
<trkpt lat="48.430813" lon="2.678990"><ele></ele><time>2017-9-17T15:48:17Z</time></trkpt>
<trkpt lat="48.430857" lon="2.679032"><ele></ele><time>2017-9-17T15:48:20Z</time></trkpt>
<trkpt lat="48.430922" lon="2.679098"><ele></ele><time>2017-9-17T15:48:23Z</time></trkpt>
<trkpt lat="48.430988" lon="2.679158"><ele></ele><time>2017-9-17T15:48:26Z</time></trkpt>
<trkpt lat="48.431055" lon="2.679232"><ele></ele><time>2017-9-17T15:48:29Z</time></trkpt>
<trkpt lat="48.431118" lon="2.679305"><ele></ele><time>2017-9-17T15:48:32Z</time></trkpt>
<trkpt lat="48.431188" lon="2.679388"><ele></ele><time>2017-9-17T15:48:35Z</time></trkpt>
<trkpt lat="48.431258" lon="2.679418"><ele></ele><time>2017-9-17T15:48:38Z</time></trkpt>
<trkpt lat="48.431300" lon="2.679438"><ele></ele><time>2017-9-17T15:48:41Z</time></trkpt>
<trkpt lat="48.431395" lon="2.679488"><ele></ele><time>2017-9-17T15:48:44Z</time></trkpt>
<trkpt lat="48.431472" lon="2.679548"><ele></ele><time>2017-9-17T15:48:47Z</time></trkpt>
<trkpt lat="48.431528" lon="2.679620"><ele></ele><time>2017-9-17T15:48:50Z</time></trkpt>
<trkpt lat="48.431582" lon="2.679690"><ele></ele><time>2017-9-17T15:48:53Z</time></trkpt>
<trkpt lat="48.431650" lon="2.679745"><ele></ele><time>2017-9-17T15:48:56Z</time></trkpt>
<trkpt lat="48.431713" lon="2.679788"><ele></ele><time>2017-9-17T15:48:59Z</time></trkpt>
<trkpt lat="48.431777" lon="2.679832"><ele></ele><time>2017-9-17T15:49:2Z</time></trkpt>
<trkpt lat="48.431808" lon="2.679848"><ele></ele><time>2017-9-17T15:49:5Z</time></trkpt>
<trkpt lat="48.431888" lon="2.679950"><ele></ele><time>2017-9-17T15:49:8Z</time></trkpt>
<trkpt lat="48.431945" lon="2.680032"><ele></ele><time>2017-9-17T15:49:11Z</time></trkpt>
<trkpt lat="48.432008" lon="2.680123"><ele></ele><time>2017-9-17T15:49:14Z</time></trkpt>
<trkpt lat="48.432028" lon="2.680203"><ele></ele><time>2017-9-17T15:49:17Z</time></trkpt>
<trkpt lat="48.432053" lon="2.680295"><ele></ele><time>2017-9-17T15:49:20Z</time></trkpt>
<trkpt lat="48.432093" lon="2.680413"><ele></ele><time>2017-9-17T15:49:23Z</time></trkpt>
<trkpt lat="48.432138" lon="2.680495"><ele></ele><time>2017-9-17T15:49:26Z</time></trkpt>
<trkpt lat="48.432190" lon="2.680585"><ele></ele><time>2017-9-17T15:49:29Z</time></trkpt>
<trkpt lat="48.432237" lon="2.680655"><ele></ele><time>2017-9-17T15:49:32Z</time></trkpt>
<trkpt lat="48.432283" lon="2.680733"><ele></ele><time>2017-9-17T15:49:35Z</time></trkpt>
<trkpt lat="48.432320" lon="2.680843"><ele></ele><time>2017-9-17T15:49:38Z</time></trkpt>
<trkpt lat="48.432358" lon="2.680913"><ele></ele><time>2017-9-17T15:49:41Z</time></trkpt>
<trkpt lat="48.432388" lon="2.680990"><ele></ele><time>2017-9-17T15:49:44Z</time></trkpt>
<trkpt lat="48.432418" lon="2.681088"><ele></ele><time>2017-9-17T15:49:47Z</time></trkpt>
<trkpt lat="48.432448" lon="2.681175"><ele></ele><time>2017-9-17T15:49:50Z</time></trkpt>
<trkpt lat="48.432488" lon="2.681263"><ele></ele><time>2017-9-17T15:49:53Z</time></trkpt>
<trkpt lat="48.432523" lon="2.681343"><ele></ele><time>2017-9-17T15:49:56Z</time></trkpt>
<trkpt lat="48.432555" lon="2.681428"><ele></ele><time>2017-9-17T15:49:59Z</time></trkpt>
<trkpt lat="48.432592" lon="2.681537"><ele></ele><time>2017-9-17T15:50:2Z</time></trkpt>
<trkpt lat="48.432640" lon="2.681623"><ele></ele><time>2017-9-17T15:50:5Z</time></trkpt>
<trkpt lat="48.432702" lon="2.681570"><ele></ele><time>2017-9-17T15:50:8Z</time></trkpt>
<trkpt lat="48.432745" lon="2.681480"><ele></ele><time>2017-9-17T15:50:11Z</time></trkpt>
<trkpt lat="48.432788" lon="2.681405"><ele></ele><time>2017-9-17T15:50:14Z</time></trkpt>
<trkpt lat="48.432823" lon="2.681318"><ele></ele><time>2017-9-17T15:50:17Z</time></trkpt>
<trkpt lat="48.432850" lon="2.681207"><ele></ele><time>2017-9-17T15:50:20Z</time></trkpt>
<trkpt lat="48.432885" lon="2.681078"><ele></ele><time>2017-9-17T15:50:23Z</time></trkpt>
<trkpt lat="48.432905" lon="2.681010"><ele></ele><time>2017-9-17T15:50:26Z</time></trkpt>
<trkpt lat="48.432940" lon="2.680892"><ele></ele><time>2017-9-17T15:50:29Z</time></trkpt>
<trkpt lat="48.432975" lon="2.680780"><ele></ele><time>2017-9-17T15:50:32Z</time></trkpt>
<trkpt lat="48.433003" lon="2.680663"><ele></ele><time>2017-9-17T15:50:35Z</time></trkpt>
<trkpt lat="48.433050" lon="2.680555"><ele></ele><time>2017-9-17T15:50:38Z</time></trkpt>
<trkpt lat="48.433100" lon="2.680445"><ele></ele><time>2017-9-17T15:50:41Z</time></trkpt>
<trkpt lat="48.433147" lon="2.680335"><ele></ele><time>2017-9-17T15:50:44Z</time></trkpt>
<trkpt lat="48.433168" lon="2.680217"><ele></ele><time>2017-9-17T15:50:47Z</time></trkpt>
<trkpt lat="48.433197" lon="2.680103"><ele></ele><time>2017-9-17T15:50:50Z</time></trkpt>
<trkpt lat="48.433223" lon="2.679982"><ele></ele><time>2017-9-17T15:50:53Z</time></trkpt>
<trkpt lat="48.433247" lon="2.679860"><ele></ele><time>2017-9-17T15:50:56Z</time></trkpt>
<trkpt lat="48.433272" lon="2.679728"><ele></ele><time>2017-9-17T15:50:59Z</time></trkpt>
<trkpt lat="48.433298" lon="2.679605"><ele></ele><time>2017-9-17T15:51:2Z</time></trkpt>
<trkpt lat="48.433322" lon="2.679488"><ele></ele><time>2017-9-17T15:51:5Z</time></trkpt>
<trkpt lat="48.433342" lon="2.679368"><ele></ele><time>2017-9-17T15:51:8Z</time></trkpt>
<trkpt lat="48.433362" lon="2.679253"><ele></ele><time>2017-9-17T15:51:11Z</time></trkpt>
<trkpt lat="48.433387" lon="2.679140"><ele></ele><time>2017-9-17T15:51:14Z</time></trkpt>
<trkpt lat="48.433413" lon="2.679022"><ele></ele><time>2017-9-17T15:51:17Z</time></trkpt>
<trkpt lat="48.433445" lon="2.678912"><ele></ele><time>2017-9-17T15:51:20Z</time></trkpt>
<trkpt lat="48.433477" lon="2.678800"><ele></ele><time>2017-9-17T15:51:23Z</time></trkpt>
<trkpt lat="48.433510" lon="2.678690"><ele></ele><time>2017-9-17T15:51:26Z</time></trkpt>
<trkpt lat="48.433543" lon="2.678578"><ele></ele><time>2017-9-17T15:51:29Z</time></trkpt>
<trkpt lat="48.433577" lon="2.678468"><ele></ele><time>2017-9-17T15:51:32Z</time></trkpt>
<trkpt lat="48.433593" lon="2.678415"><ele></ele><time>2017-9-17T15:51:35Z</time></trkpt>
<trkpt lat="48.433625" lon="2.678308"><ele></ele><time>2017-9-17T15:51:38Z</time></trkpt>
<trkpt lat="48.433658" lon="2.678202"><ele></ele><time>2017-9-17T15:51:41Z</time></trkpt>
<trkpt lat="48.433692" lon="2.678095"><ele></ele><time>2017-9-17T15:51:44Z</time></trkpt>
<trkpt lat="48.433730" lon="2.677987"><ele></ele><time>2017-9-17T15:51:47Z</time></trkpt>
<trkpt lat="48.433768" lon="2.677875"><ele></ele><time>2017-9-17T15:51:50Z</time></trkpt>
<trkpt lat="48.433807" lon="2.677770"><ele></ele><time>2017-9-17T15:51:53Z</time></trkpt>
<trkpt lat="48.433845" lon="2.677668"><ele></ele><time>2017-9-17T15:51:56Z</time></trkpt>
<trkpt lat="48.433882" lon="2.677572"><ele></ele><time>2017-9-17T15:51:59Z</time></trkpt>
<trkpt lat="48.433920" lon="2.677482"><ele></ele><time>2017-9-17T15:52:2Z</time></trkpt>
<trkpt lat="48.433965" lon="2.677397"><ele></ele><time>2017-9-17T15:52:5Z</time></trkpt>
<trkpt lat="48.434018" lon="2.677318"><ele></ele><time>2017-9-17T15:52:8Z</time></trkpt>
<trkpt lat="48.434070" lon="2.677242"><ele></ele><time>2017-9-17T15:52:11Z</time></trkpt>
<trkpt lat="48.434122" lon="2.677168"><ele></ele><time>2017-9-17T15:52:14Z</time></trkpt>
<trkpt lat="48.434175" lon="2.677097"><ele></ele><time>2017-9-17T15:52:17Z</time></trkpt>
<trkpt lat="48.434230" lon="2.677022"><ele></ele><time>2017-9-17T15:52:20Z</time></trkpt>
<trkpt lat="48.434287" lon="2.676945"><ele></ele><time>2017-9-17T15:52:23Z</time></trkpt>
<trkpt lat="48.434345" lon="2.676870"><ele></ele><time>2017-9-17T15:52:26Z</time></trkpt>
<trkpt lat="48.434400" lon="2.676798"><ele></ele><time>2017-9-17T15:52:29Z</time></trkpt>
<trkpt lat="48.434453" lon="2.676732"><ele></ele><time>2017-9-17T15:52:32Z</time></trkpt>
<trkpt lat="48.434505" lon="2.676662"><ele></ele><time>2017-9-17T15:52:35Z</time></trkpt>
<trkpt lat="48.434555" lon="2.676593"><ele></ele><time>2017-9-17T15:52:38Z</time></trkpt>
<trkpt lat="48.434605" lon="2.676522"><ele></ele><time>2017-9-17T15:52:41Z</time></trkpt>
<trkpt lat="48.434658" lon="2.676447"><ele></ele><time>2017-9-17T15:52:44Z</time></trkpt>
<trkpt lat="48.434685" lon="2.676408"><ele></ele><time>2017-9-17T15:52:47Z</time></trkpt>
<trkpt lat="48.434787" lon="2.676255"><ele></ele><time>2017-9-17T15:52:50Z</time></trkpt>
<trkpt lat="48.434832" lon="2.676175"><ele></ele><time>2017-9-17T15:52:53Z</time></trkpt>
<trkpt lat="48.434867" lon="2.676093"><ele></ele><time>2017-9-17T15:52:56Z</time></trkpt>
<trkpt lat="48.434898" lon="2.676007"><ele></ele><time>2017-9-17T15:52:59Z</time></trkpt>
<trkpt lat="48.434928" lon="2.675923"><ele></ele><time>2017-9-17T15:53:2Z</time></trkpt>
<trkpt lat="48.434958" lon="2.675837"><ele></ele><time>2017-9-17T15:53:5Z</time></trkpt>
<trkpt lat="48.434988" lon="2.675752"><ele></ele><time>2017-9-17T15:53:8Z</time></trkpt>
<trkpt lat="48.435018" lon="2.675672"><ele></ele><time>2017-9-17T15:53:11Z</time></trkpt>
<trkpt lat="48.435047" lon="2.675590"><ele></ele><time>2017-9-17T15:53:14Z</time></trkpt>
<trkpt lat="48.435078" lon="2.675503"><ele></ele><time>2017-9-17T15:53:17Z</time></trkpt>
<trkpt lat="48.435105" lon="2.675413"><ele></ele><time>2017-9-17T15:53:20Z</time></trkpt>
<trkpt lat="48.435128" lon="2.675325"><ele></ele><time>2017-9-17T15:53:23Z</time></trkpt>
<trkpt lat="48.435152" lon="2.675237"><ele></ele><time>2017-9-17T15:53:26Z</time></trkpt>
<trkpt lat="48.435167" lon="2.675148"><ele></ele><time>2017-9-17T15:53:29Z</time></trkpt>
<trkpt lat="48.435172" lon="2.675102"><ele></ele><time>2017-9-17T15:53:32Z</time></trkpt>
<trkpt lat="48.435178" lon="2.674927"><ele></ele><time>2017-9-17T15:53:35Z</time></trkpt>
<trkpt lat="48.435177" lon="2.674800"><ele></ele><time>2017-9-17T15:53:38Z</time></trkpt>
<trkpt lat="48.435175" lon="2.674675"><ele></ele><time>2017-9-17T15:53:41Z</time></trkpt>
<trkpt lat="48.435175" lon="2.674595"><ele></ele><time>2017-9-17T15:53:44Z</time></trkpt>
<trkpt lat="48.435180" lon="2.674520"><ele></ele><time>2017-9-17T15:53:47Z</time></trkpt>
<trkpt lat="48.435182" lon="2.674447"><ele></ele><time>2017-9-17T15:53:50Z</time></trkpt>
<trkpt lat="48.435182" lon="2.674367"><ele></ele><time>2017-9-17T15:53:53Z</time></trkpt>
<trkpt lat="48.435182" lon="2.674288"><ele></ele><time>2017-9-17T15:53:56Z</time></trkpt>
<trkpt lat="48.435185" lon="2.674213"><ele></ele><time>2017-9-17T15:53:59Z</time></trkpt>
<trkpt lat="48.435177" lon="2.674088"><ele></ele><time>2017-9-17T15:54:2Z</time></trkpt>
<trkpt lat="48.435177" lon="2.673975"><ele></ele><time>2017-9-17T15:54:5Z</time></trkpt>
<trkpt lat="48.435182" lon="2.673867"><ele></ele><time>2017-9-17T15:54:8Z</time></trkpt>
<trkpt lat="48.435187" lon="2.673755"><ele></ele><time>2017-9-17T15:54:11Z</time></trkpt>
<trkpt lat="48.435180" lon="2.673648"><ele></ele><time>2017-9-17T15:54:14Z</time></trkpt>
<trkpt lat="48.435170" lon="2.673535"><ele></ele><time>2017-9-17T15:54:17Z</time></trkpt>
<trkpt lat="48.435182" lon="2.673428"><ele></ele><time>2017-9-17T15:54:20Z</time></trkpt>
<trkpt lat="48.435195" lon="2.673298"><ele></ele><time>2017-9-17T15:54:23Z</time></trkpt>
<trkpt lat="48.435208" lon="2.673165"><ele></ele><time>2017-9-17T15:54:26Z</time></trkpt>
<trkpt lat="48.435223" lon="2.673053"><ele></ele><time>2017-9-17T15:54:29Z</time></trkpt>
<trkpt lat="48.435223" lon="2.673027"><ele></ele><time>2017-9-17T15:54:32Z</time></trkpt>
<trkpt lat="48.435257" lon="2.672798"><ele></ele><time>2017-9-17T15:54:35Z</time></trkpt>
<trkpt lat="48.435270" lon="2.672688"><ele></ele><time>2017-9-17T15:54:38Z</time></trkpt>
<trkpt lat="48.435282" lon="2.672592"><ele></ele><time>2017-9-17T15:54:41Z</time></trkpt>
<trkpt lat="48.435297" lon="2.672483"><ele></ele><time>2017-9-17T15:54:44Z</time></trkpt>
<trkpt lat="48.435323" lon="2.672362"><ele></ele><time>2017-9-17T15:54:47Z</time></trkpt>
<trkpt lat="48.435352" lon="2.672235"><ele></ele><time>2017-9-17T15:54:50Z</time></trkpt>
<trkpt lat="48.435390" lon="2.672125"><ele></ele><time>2017-9-17T15:54:53Z</time></trkpt>
<trkpt lat="48.435397" lon="2.672098"><ele></ele><time>2017-9-17T15:54:56Z</time></trkpt>
<trkpt lat="48.435420" lon="2.671915"><ele></ele><time>2017-9-17T15:54:59Z</time></trkpt>
<trkpt lat="48.435430" lon="2.671845"><ele></ele><time>2017-9-17T15:55:2Z</time></trkpt>
<trkpt lat="48.435448" lon="2.671732"><ele></ele><time>2017-9-17T15:55:5Z</time></trkpt>
<trkpt lat="48.435473" lon="2.671633"><ele></ele><time>2017-9-17T15:55:8Z</time></trkpt>
<trkpt lat="48.435487" lon="2.671525"><ele></ele><time>2017-9-17T15:55:11Z</time></trkpt>
<trkpt lat="48.435498" lon="2.671398"><ele></ele><time>2017-9-17T15:55:14Z</time></trkpt>
<trkpt lat="48.435518" lon="2.671323"><ele></ele><time>2017-9-17T15:55:17Z</time></trkpt>
<trkpt lat="48.435543" lon="2.671200"><ele></ele><time>2017-9-17T15:55:20Z</time></trkpt>
<trkpt lat="48.435583" lon="2.671110"><ele></ele><time>2017-9-17T15:55:23Z</time></trkpt>
<trkpt lat="48.435617" lon="2.670990"><ele></ele><time>2017-9-17T15:55:26Z</time></trkpt>
<trkpt lat="48.435677" lon="2.670932"><ele></ele><time>2017-9-17T15:55:29Z</time></trkpt>
<trkpt lat="48.435752" lon="2.670905"><ele></ele><time>2017-9-17T15:55:32Z</time></trkpt>
<trkpt lat="48.435813" lon="2.670895"><ele></ele><time>2017-9-17T15:55:35Z</time></trkpt>
<trkpt lat="48.435868" lon="2.670882"><ele></ele><time>2017-9-17T15:55:38Z</time></trkpt>
<trkpt lat="48.435920" lon="2.670872"><ele></ele><time>2017-9-17T15:55:41Z</time></trkpt>
<trkpt lat="48.435995" lon="2.670868"><ele></ele><time>2017-9-17T15:55:44Z</time></trkpt>
<trkpt lat="48.436070" lon="2.670870"><ele></ele><time>2017-9-17T15:55:47Z</time></trkpt>
<trkpt lat="48.436142" lon="2.670887"><ele></ele><time>2017-9-17T15:55:50Z</time></trkpt>
<trkpt lat="48.436228" lon="2.670903"><ele></ele><time>2017-9-17T15:55:53Z</time></trkpt>
<trkpt lat="48.436308" lon="2.670920"><ele></ele><time>2017-9-17T15:55:56Z</time></trkpt>
<trkpt lat="48.436388" lon="2.670920"><ele></ele><time>2017-9-17T15:55:59Z</time></trkpt>
<trkpt lat="48.436412" lon="2.670918"><ele></ele><time>2017-9-17T15:56:2Z</time></trkpt>
<trkpt lat="48.436508" lon="2.670920"><ele></ele><time>2017-9-17T15:56:5Z</time></trkpt>
<trkpt lat="48.436557" lon="2.670920"><ele></ele><time>2017-9-17T15:56:8Z</time></trkpt>
<trkpt lat="48.436643" lon="2.670925"><ele></ele><time>2017-9-17T15:56:11Z</time></trkpt>
<trkpt lat="48.436725" lon="2.670940"><ele></ele><time>2017-9-17T15:56:14Z</time></trkpt>
<trkpt lat="48.436798" lon="2.670948"><ele></ele><time>2017-9-17T15:56:17Z</time></trkpt>
<trkpt lat="48.436875" lon="2.670950"><ele></ele><time>2017-9-17T15:56:20Z</time></trkpt>
<trkpt lat="48.436962" lon="2.670955"><ele></ele><time>2017-9-17T15:56:23Z</time></trkpt>
<trkpt lat="48.437037" lon="2.670960"><ele></ele><time>2017-9-17T15:56:26Z</time></trkpt>
<trkpt lat="48.437112" lon="2.670953"><ele></ele><time>2017-9-17T15:56:29Z</time></trkpt>
<trkpt lat="48.437190" lon="2.670952"><ele></ele><time>2017-9-17T15:56:32Z</time></trkpt>
<trkpt lat="48.437260" lon="2.670958"><ele></ele><time>2017-9-17T15:56:35Z</time></trkpt>
<trkpt lat="48.437325" lon="2.670965"><ele></ele><time>2017-9-17T15:56:38Z</time></trkpt>
<trkpt lat="48.437390" lon="2.670972"><ele></ele><time>2017-9-17T15:56:41Z</time></trkpt>
<trkpt lat="48.437457" lon="2.670978"><ele></ele><time>2017-9-17T15:56:44Z</time></trkpt>
<trkpt lat="48.437522" lon="2.670982"><ele></ele><time>2017-9-17T15:56:47Z</time></trkpt>
<trkpt lat="48.437605" lon="2.670993"><ele></ele><time>2017-9-17T15:56:50Z</time></trkpt>
<trkpt lat="48.437688" lon="2.671005"><ele></ele><time>2017-9-17T15:56:53Z</time></trkpt>
<trkpt lat="48.437775" lon="2.671017"><ele></ele><time>2017-9-17T15:56:56Z</time></trkpt>
<trkpt lat="48.437848" lon="2.671027"><ele></ele><time>2017-9-17T15:56:59Z</time></trkpt>
<trkpt lat="48.437917" lon="2.671027"><ele></ele><time>2017-9-17T15:57:2Z</time></trkpt>
<trkpt lat="48.437985" lon="2.671017"><ele></ele><time>2017-9-17T15:57:5Z</time></trkpt>
<trkpt lat="48.438062" lon="2.671007"><ele></ele><time>2017-9-17T15:57:8Z</time></trkpt>
<trkpt lat="48.438088" lon="2.670997"><ele></ele><time>2017-9-17T15:57:11Z</time></trkpt>
<trkpt lat="48.438225" lon="2.670967"><ele></ele><time>2017-9-17T15:57:14Z</time></trkpt>
<trkpt lat="48.438303" lon="2.670942"><ele></ele><time>2017-9-17T15:57:17Z</time></trkpt>
<trkpt lat="48.438350" lon="2.670935"><ele></ele><time>2017-9-17T15:57:20Z</time></trkpt>
<trkpt lat="48.438398" lon="2.670933"><ele></ele><time>2017-9-17T15:57:23Z</time></trkpt>
<trkpt lat="48.438445" lon="2.670923"><ele></ele><time>2017-9-17T15:57:26Z</time></trkpt>
<trkpt lat="48.438492" lon="2.670913"><ele></ele><time>2017-9-17T15:57:29Z</time></trkpt>
<trkpt lat="48.438572" lon="2.670900"><ele></ele><time>2017-9-17T15:57:32Z</time></trkpt>
<trkpt lat="48.438637" lon="2.670897"><ele></ele><time>2017-9-17T15:57:35Z</time></trkpt>
<trkpt lat="48.438723" lon="2.670877"><ele></ele><time>2017-9-17T15:57:38Z</time></trkpt>
<trkpt lat="48.438800" lon="2.670868"><ele></ele><time>2017-9-17T15:57:41Z</time></trkpt>
<trkpt lat="48.438873" lon="2.670847"><ele></ele><time>2017-9-17T15:57:44Z</time></trkpt>
<trkpt lat="48.438957" lon="2.670830"><ele></ele><time>2017-9-17T15:57:47Z</time></trkpt>
<trkpt lat="48.439040" lon="2.670818"><ele></ele><time>2017-9-17T15:57:50Z</time></trkpt>
<trkpt lat="48.439120" lon="2.670797"><ele></ele><time>2017-9-17T15:57:53Z</time></trkpt>
<trkpt lat="48.439202" lon="2.670783"><ele></ele><time>2017-9-17T15:57:56Z</time></trkpt>
<trkpt lat="48.439287" lon="2.670777"><ele></ele><time>2017-9-17T15:57:59Z</time></trkpt>
<trkpt lat="48.439358" lon="2.670765"><ele></ele><time>2017-9-17T15:58:2Z</time></trkpt>
<trkpt lat="48.439430" lon="2.670750"><ele></ele><time>2017-9-17T15:58:5Z</time></trkpt>
<trkpt lat="48.439460" lon="2.670747"><ele></ele><time>2017-9-17T15:58:8Z</time></trkpt>
<trkpt lat="48.439568" lon="2.670725"><ele></ele><time>2017-9-17T15:58:11Z</time></trkpt>
<trkpt lat="48.439617" lon="2.670708"><ele></ele><time>2017-9-17T15:58:14Z</time></trkpt>
<trkpt lat="48.439700" lon="2.670680"><ele></ele><time>2017-9-17T15:58:17Z</time></trkpt>
<trkpt lat="48.439785" lon="2.670652"><ele></ele><time>2017-9-17T15:58:20Z</time></trkpt>
<trkpt lat="48.439857" lon="2.670645"><ele></ele><time>2017-9-17T15:58:23Z</time></trkpt>
<trkpt lat="48.439943" lon="2.670625"><ele></ele><time>2017-9-17T15:58:26Z</time></trkpt>
<trkpt lat="48.440017" lon="2.670613"><ele></ele><time>2017-9-17T15:58:29Z</time></trkpt>
<trkpt lat="48.440083" lon="2.670600"><ele></ele><time>2017-9-17T15:58:32Z</time></trkpt>
<trkpt lat="48.440152" lon="2.670592"><ele></ele><time>2017-9-17T15:58:35Z</time></trkpt>
<trkpt lat="48.440220" lon="2.670578"><ele></ele><time>2017-9-17T15:58:38Z</time></trkpt>
<trkpt lat="48.440303" lon="2.670570"><ele></ele><time>2017-9-17T15:58:41Z</time></trkpt>
<trkpt lat="48.440392" lon="2.670555"><ele></ele><time>2017-9-17T15:58:44Z</time></trkpt>
<trkpt lat="48.440472" lon="2.670543"><ele></ele><time>2017-9-17T15:58:47Z</time></trkpt>
<trkpt lat="48.440550" lon="2.670543"><ele></ele><time>2017-9-17T15:58:50Z</time></trkpt>
<trkpt lat="48.440627" lon="2.670527"><ele></ele><time>2017-9-17T15:58:53Z</time></trkpt>
<trkpt lat="48.440715" lon="2.670507"><ele></ele><time>2017-9-17T15:58:56Z</time></trkpt>
<trkpt lat="48.440803" lon="2.670483"><ele></ele><time>2017-9-17T15:58:59Z</time></trkpt>
<trkpt lat="48.440813" lon="2.670482"><ele></ele><time>2017-9-17T15:59:2Z</time></trkpt>
<trkpt lat="48.440920" lon="2.670317"><ele></ele><time>2017-9-17T15:59:5Z</time></trkpt>
<trkpt lat="48.440977" lon="2.670217"><ele></ele><time>2017-9-17T15:59:8Z</time></trkpt>
<trkpt lat="48.441028" lon="2.670110"><ele></ele><time>2017-9-17T15:59:11Z</time></trkpt>
<trkpt lat="48.441057" lon="2.669997"><ele></ele><time>2017-9-17T15:59:14Z</time></trkpt>
<trkpt lat="48.441077" lon="2.669870"><ele></ele><time>2017-9-17T15:59:17Z</time></trkpt>
<trkpt lat="48.441100" lon="2.669755"><ele></ele><time>2017-9-17T15:59:20Z</time></trkpt>
<trkpt lat="48.441147" lon="2.669648"><ele></ele><time>2017-9-17T15:59:23Z</time></trkpt>
<trkpt lat="48.441150" lon="2.669638"><ele></ele><time>2017-9-17T15:59:26Z</time></trkpt>
<trkpt lat="48.441200" lon="2.669410"><ele></ele><time>2017-9-17T15:59:29Z</time></trkpt>
<trkpt lat="48.441217" lon="2.669292"><ele></ele><time>2017-9-17T15:59:32Z</time></trkpt>
<trkpt lat="48.441247" lon="2.669178"><ele></ele><time>2017-9-17T15:59:35Z</time></trkpt>
<trkpt lat="48.441283" lon="2.669080"><ele></ele><time>2017-9-17T15:59:38Z</time></trkpt>
<trkpt lat="48.441322" lon="2.668965"><ele></ele><time>2017-9-17T15:59:41Z</time></trkpt>
<trkpt lat="48.441375" lon="2.668880"><ele></ele><time>2017-9-17T15:59:44Z</time></trkpt>
<trkpt lat="48.441455" lon="2.668885"><ele></ele><time>2017-9-17T15:59:47Z</time></trkpt>
<trkpt lat="48.441503" lon="2.668915"><ele></ele><time>2017-9-17T15:59:50Z</time></trkpt>
<trkpt lat="48.441543" lon="2.668938"><ele></ele><time>2017-9-17T15:59:53Z</time></trkpt>
<trkpt lat="48.441642" lon="2.669005"><ele></ele><time>2017-9-17T15:59:56Z</time></trkpt>
<trkpt lat="48.441727" lon="2.669048"><ele></ele><time>2017-9-17T15:59:59Z</time></trkpt>
<trkpt lat="48.441790" lon="2.669080"><ele></ele><time>2017-9-17T16:0:2Z</time></trkpt>
<trkpt lat="48.441847" lon="2.669117"><ele></ele><time>2017-9-17T16:0:5Z</time></trkpt>
<trkpt lat="48.441903" lon="2.669177"><ele></ele><time>2017-9-17T16:0:8Z</time></trkpt>
<trkpt lat="48.441937" lon="2.669240"><ele></ele><time>2017-9-17T16:0:11Z</time></trkpt>
<trkpt lat="48.442008" lon="2.669285"><ele></ele><time>2017-9-17T16:0:14Z</time></trkpt>
<trkpt lat="48.442092" lon="2.669310"><ele></ele><time>2017-9-17T16:0:17Z</time></trkpt>
<trkpt lat="48.442175" lon="2.669307"><ele></ele><time>2017-9-17T16:0:20Z</time></trkpt>
<trkpt lat="48.442247" lon="2.669343"><ele></ele><time>2017-9-17T16:0:23Z</time></trkpt>
<trkpt lat="48.442323" lon="2.669397"><ele></ele><time>2017-9-17T16:0:26Z</time></trkpt>
<trkpt lat="48.442408" lon="2.669420"><ele></ele><time>2017-9-17T16:0:29Z</time></trkpt>
<trkpt lat="48.442473" lon="2.669453"><ele></ele><time>2017-9-17T16:0:32Z</time></trkpt>
<trkpt lat="48.442547" lon="2.669443"><ele></ele><time>2017-9-17T16:0:35Z</time></trkpt>
<trkpt lat="48.442620" lon="2.669450"><ele></ele><time>2017-9-17T16:0:38Z</time></trkpt>
<trkpt lat="48.442670" lon="2.669448"><ele></ele><time>2017-9-17T16:0:41Z</time></trkpt>
<trkpt lat="48.442735" lon="2.669425"><ele></ele><time>2017-9-17T16:0:44Z</time></trkpt>
<trkpt lat="48.442758" lon="2.669418"><ele></ele><time>2017-9-17T16:0:47Z</time></trkpt>
<trkpt lat="48.442883" lon="2.669358"><ele></ele><time>2017-9-17T16:0:50Z</time></trkpt>
<trkpt lat="48.442948" lon="2.669387"><ele></ele><time>2017-9-17T16:0:53Z</time></trkpt>
<trkpt lat="48.443010" lon="2.669398"><ele></ele><time>2017-9-17T16:0:56Z</time></trkpt>
<trkpt lat="48.443068" lon="2.669457"><ele></ele><time>2017-9-17T16:0:59Z</time></trkpt>
<trkpt lat="48.443143" lon="2.669525"><ele></ele><time>2017-9-17T16:1:2Z</time></trkpt>
<trkpt lat="48.443228" lon="2.669553"><ele></ele><time>2017-9-17T16:1:5Z</time></trkpt>
<trkpt lat="48.443313" lon="2.669577"><ele></ele><time>2017-9-17T16:1:8Z</time></trkpt>
<trkpt lat="48.443382" lon="2.669595"><ele></ele><time>2017-9-17T16:1:11Z</time></trkpt>
<trkpt lat="48.443450" lon="2.669607"><ele></ele><time>2017-9-17T16:1:14Z</time></trkpt>
<trkpt lat="48.443527" lon="2.669622"><ele></ele><time>2017-9-17T16:1:17Z</time></trkpt>
<trkpt lat="48.443575" lon="2.669727"><ele></ele><time>2017-9-17T16:1:20Z</time></trkpt>
<trkpt lat="48.443635" lon="2.669810"><ele></ele><time>2017-9-17T16:1:23Z</time></trkpt>
<trkpt lat="48.443712" lon="2.669818"><ele></ele><time>2017-9-17T16:1:26Z</time></trkpt>
<trkpt lat="48.443743" lon="2.669707"><ele></ele><time>2017-9-17T16:1:29Z</time></trkpt>
<trkpt lat="48.443765" lon="2.669577"><ele></ele><time>2017-9-17T16:1:32Z</time></trkpt>
<trkpt lat="48.443800" lon="2.669472"><ele></ele><time>2017-9-17T16:1:35Z</time></trkpt>
<trkpt lat="48.443833" lon="2.669360"><ele></ele><time>2017-9-17T16:1:38Z</time></trkpt>
<trkpt lat="48.443847" lon="2.669337"><ele></ele><time>2017-9-17T16:1:41Z</time></trkpt>
<trkpt lat="48.443928" lon="2.669163"><ele></ele><time>2017-9-17T16:1:44Z</time></trkpt>
<trkpt lat="48.443988" lon="2.669110"><ele></ele><time>2017-9-17T16:1:47Z</time></trkpt>
<trkpt lat="48.444063" lon="2.669037"><ele></ele><time>2017-9-17T16:1:50Z</time></trkpt>
<trkpt lat="48.444113" lon="2.668982"><ele></ele><time>2017-9-17T16:1:53Z</time></trkpt>
<trkpt lat="48.444165" lon="2.668920"><ele></ele><time>2017-9-17T16:1:56Z</time></trkpt>
<trkpt lat="48.444213" lon="2.668858"><ele></ele><time>2017-9-17T16:1:59Z</time></trkpt>
<trkpt lat="48.444263" lon="2.668800"><ele></ele><time>2017-9-17T16:2:2Z</time></trkpt>
<trkpt lat="48.444318" lon="2.668733"><ele></ele><time>2017-9-17T16:2:5Z</time></trkpt>
<trkpt lat="48.444368" lon="2.668665"><ele></ele><time>2017-9-17T16:2:8Z</time></trkpt>
<trkpt lat="48.444413" lon="2.668592"><ele></ele><time>2017-9-17T16:2:11Z</time></trkpt>
<trkpt lat="48.444460" lon="2.668538"><ele></ele><time>2017-9-17T16:2:14Z</time></trkpt>
<trkpt lat="48.444505" lon="2.668482"><ele></ele><time>2017-9-17T16:2:17Z</time></trkpt>
<trkpt lat="48.444528" lon="2.668447"><ele></ele><time>2017-9-17T16:2:20Z</time></trkpt>
<trkpt lat="48.444580" lon="2.668372"><ele></ele><time>2017-9-17T16:2:23Z</time></trkpt>
<trkpt lat="48.444633" lon="2.668300"><ele></ele><time>2017-9-17T16:2:26Z</time></trkpt>
<trkpt lat="48.444693" lon="2.668227"><ele></ele><time>2017-9-17T16:2:29Z</time></trkpt>
<trkpt lat="48.444752" lon="2.668147"><ele></ele><time>2017-9-17T16:2:32Z</time></trkpt>
<trkpt lat="48.444810" lon="2.668068"><ele></ele><time>2017-9-17T16:2:35Z</time></trkpt>
<trkpt lat="48.444868" lon="2.667993"><ele></ele><time>2017-9-17T16:2:38Z</time></trkpt>
<trkpt lat="48.444922" lon="2.667917"><ele></ele><time>2017-9-17T16:2:41Z</time></trkpt>
<trkpt lat="48.444978" lon="2.667845"><ele></ele><time>2017-9-17T16:2:44Z</time></trkpt>
<trkpt lat="48.445033" lon="2.667777"><ele></ele><time>2017-9-17T16:2:47Z</time></trkpt>
<trkpt lat="48.445090" lon="2.667708"><ele></ele><time>2017-9-17T16:2:50Z</time></trkpt>
<trkpt lat="48.445122" lon="2.667673"><ele></ele><time>2017-9-17T16:2:53Z</time></trkpt>
<trkpt lat="48.445192" lon="2.667607"><ele></ele><time>2017-9-17T16:2:56Z</time></trkpt>
<trkpt lat="48.445258" lon="2.667533"><ele></ele><time>2017-9-17T16:2:59Z</time></trkpt>
<trkpt lat="48.445323" lon="2.667467"><ele></ele><time>2017-9-17T16:3:2Z</time></trkpt>
<trkpt lat="48.445382" lon="2.667395"><ele></ele><time>2017-9-17T16:3:5Z</time></trkpt>
<trkpt lat="48.445438" lon="2.667327"><ele></ele><time>2017-9-17T16:3:8Z</time></trkpt>
<trkpt lat="48.445470" lon="2.667290"><ele></ele><time>2017-9-17T16:3:11Z</time></trkpt>
<trkpt lat="48.445562" lon="2.667183"><ele></ele><time>2017-9-17T16:3:14Z</time></trkpt>
<trkpt lat="48.445622" lon="2.667117"><ele></ele><time>2017-9-17T16:3:17Z</time></trkpt>
<trkpt lat="48.445677" lon="2.667045"><ele></ele><time>2017-9-17T16:3:20Z</time></trkpt>
<trkpt lat="48.445733" lon="2.666972"><ele></ele><time>2017-9-17T16:3:23Z</time></trkpt>
<trkpt lat="48.445762" lon="2.666933"><ele></ele><time>2017-9-17T16:3:26Z</time></trkpt>
<trkpt lat="48.445813" lon="2.666865"><ele></ele><time>2017-9-17T16:3:29Z</time></trkpt>
<trkpt lat="48.445868" lon="2.666802"><ele></ele><time>2017-9-17T16:3:32Z</time></trkpt>
<trkpt lat="48.445915" lon="2.666730"><ele></ele><time>2017-9-17T16:3:35Z</time></trkpt>
<trkpt lat="48.445972" lon="2.666668"><ele></ele><time>2017-9-17T16:3:38Z</time></trkpt>
<trkpt lat="48.446028" lon="2.666597"><ele></ele><time>2017-9-17T16:3:41Z</time></trkpt>
<trkpt lat="48.446092" lon="2.666522"><ele></ele><time>2017-9-17T16:3:44Z</time></trkpt>
<trkpt lat="48.446155" lon="2.666452"><ele></ele><time>2017-9-17T16:3:47Z</time></trkpt>
<trkpt lat="48.446217" lon="2.666385"><ele></ele><time>2017-9-17T16:3:50Z</time></trkpt>
<trkpt lat="48.446277" lon="2.666312"><ele></ele><time>2017-9-17T16:3:53Z</time></trkpt>
<trkpt lat="48.446337" lon="2.666237"><ele></ele><time>2017-9-17T16:3:56Z</time></trkpt>
<trkpt lat="48.446402" lon="2.666157"><ele></ele><time>2017-9-17T16:3:59Z</time></trkpt>
<trkpt lat="48.446435" lon="2.666115"><ele></ele><time>2017-9-17T16:4:2Z</time></trkpt>
<trkpt lat="48.446497" lon="2.666032"><ele></ele><time>2017-9-17T16:4:5Z</time></trkpt>
<trkpt lat="48.446565" lon="2.665952"><ele></ele><time>2017-9-17T16:4:8Z</time></trkpt>
<trkpt lat="48.446633" lon="2.665872"><ele></ele><time>2017-9-17T16:4:11Z</time></trkpt>
<trkpt lat="48.446697" lon="2.665790"><ele></ele><time>2017-9-17T16:4:14Z</time></trkpt>
<trkpt lat="48.446758" lon="2.665708"><ele></ele><time>2017-9-17T16:4:17Z</time></trkpt>
<trkpt lat="48.446820" lon="2.665622"><ele></ele><time>2017-9-17T16:4:20Z</time></trkpt>
<trkpt lat="48.446882" lon="2.665537"><ele></ele><time>2017-9-17T16:4:23Z</time></trkpt>
<trkpt lat="48.446947" lon="2.665465"><ele></ele><time>2017-9-17T16:4:26Z</time></trkpt>
<trkpt lat="48.447013" lon="2.665395"><ele></ele><time>2017-9-17T16:4:29Z</time></trkpt>
<trkpt lat="48.447082" lon="2.665332"><ele></ele><time>2017-9-17T16:4:32Z</time></trkpt>
<trkpt lat="48.447150" lon="2.665260"><ele></ele><time>2017-9-17T16:4:35Z</time></trkpt>
<trkpt lat="48.447180" lon="2.665223"><ele></ele><time>2017-9-17T16:4:38Z</time></trkpt>
<trkpt lat="48.447237" lon="2.665142"><ele></ele><time>2017-9-17T16:4:41Z</time></trkpt>
<trkpt lat="48.447290" lon="2.665057"><ele></ele><time>2017-9-17T16:4:44Z</time></trkpt>
<trkpt lat="48.447317" lon="2.665017"><ele></ele><time>2017-9-17T16:4:47Z</time></trkpt>
<trkpt lat="48.447418" lon="2.664922"><ele></ele><time>2017-9-17T16:4:50Z</time></trkpt>
<trkpt lat="48.447472" lon="2.664850"><ele></ele><time>2017-9-17T16:4:53Z</time></trkpt>
<trkpt lat="48.447535" lon="2.664785"><ele></ele><time>2017-9-17T16:4:56Z</time></trkpt>
<trkpt lat="48.447597" lon="2.664722"><ele></ele><time>2017-9-17T16:4:59Z</time></trkpt>
<trkpt lat="48.447650" lon="2.664648"><ele></ele><time>2017-9-17T16:5:2Z</time></trkpt>
<trkpt lat="48.447708" lon="2.664573"><ele></ele><time>2017-9-17T16:5:5Z</time></trkpt>
<trkpt lat="48.447770" lon="2.664510"><ele></ele><time>2017-9-17T16:5:8Z</time></trkpt>
<trkpt lat="48.447822" lon="2.664445"><ele></ele><time>2017-9-17T16:5:11Z</time></trkpt>
<trkpt lat="48.447885" lon="2.664377"><ele></ele><time>2017-9-17T16:5:14Z</time></trkpt>
<trkpt lat="48.447908" lon="2.664267"><ele></ele><time>2017-9-17T16:5:17Z</time></trkpt>
<trkpt lat="48.447965" lon="2.664178"><ele></ele><time>2017-9-17T16:5:20Z</time></trkpt>
<trkpt lat="48.448002" lon="2.664090"><ele></ele><time>2017-9-17T16:5:23Z</time></trkpt>
<trkpt lat="48.448035" lon="2.663993"><ele></ele><time>2017-9-17T16:5:26Z</time></trkpt>
<trkpt lat="48.448070" lon="2.663890"><ele></ele><time>2017-9-17T16:5:29Z</time></trkpt>
<trkpt lat="48.448105" lon="2.663790"><ele></ele><time>2017-9-17T16:5:32Z</time></trkpt>
<trkpt lat="48.448142" lon="2.663688"><ele></ele><time>2017-9-17T16:5:35Z</time></trkpt>
<trkpt lat="48.448178" lon="2.663592"><ele></ele><time>2017-9-17T16:5:38Z</time></trkpt>
<trkpt lat="48.448210" lon="2.663497"><ele></ele><time>2017-9-17T16:5:41Z</time></trkpt>
<trkpt lat="48.448252" lon="2.663403"><ele></ele><time>2017-9-17T16:5:44Z</time></trkpt>
<trkpt lat="48.448292" lon="2.663312"><ele></ele><time>2017-9-17T16:5:47Z</time></trkpt>
<trkpt lat="48.448328" lon="2.663218"><ele></ele><time>2017-9-17T16:5:50Z</time></trkpt>
<trkpt lat="48.448353" lon="2.663117"><ele></ele><time>2017-9-17T16:5:53Z</time></trkpt>
<trkpt lat="48.448380" lon="2.663015"><ele></ele><time>2017-9-17T16:5:56Z</time></trkpt>
<trkpt lat="48.448415" lon="2.662917"><ele></ele><time>2017-9-17T16:5:59Z</time></trkpt>
<trkpt lat="48.448443" lon="2.662827"><ele></ele><time>2017-9-17T16:6:2Z</time></trkpt>
<trkpt lat="48.448473" lon="2.662742"><ele></ele><time>2017-9-17T16:6:5Z</time></trkpt>
<trkpt lat="48.448502" lon="2.662627"><ele></ele><time>2017-9-17T16:6:8Z</time></trkpt>
<trkpt lat="48.448532" lon="2.662507"><ele></ele><time>2017-9-17T16:6:11Z</time></trkpt>
<trkpt lat="48.448548" lon="2.662452"><ele></ele><time>2017-9-17T16:6:14Z</time></trkpt>
<trkpt lat="48.448595" lon="2.662297"><ele></ele><time>2017-9-17T16:6:17Z</time></trkpt>
<trkpt lat="48.448623" lon="2.662205"><ele></ele><time>2017-9-17T16:6:20Z</time></trkpt>
<trkpt lat="48.448667" lon="2.662088"><ele></ele><time>2017-9-17T16:6:23Z</time></trkpt>
<trkpt lat="48.448700" lon="2.661963"><ele></ele><time>2017-9-17T16:6:26Z</time></trkpt>
<trkpt lat="48.448720" lon="2.661875"><ele></ele><time>2017-9-17T16:6:29Z</time></trkpt>
<trkpt lat="48.448752" lon="2.661770"><ele></ele><time>2017-9-17T16:6:32Z</time></trkpt>
<trkpt lat="48.448778" lon="2.661685"><ele></ele><time>2017-9-17T16:6:35Z</time></trkpt>
<trkpt lat="48.448818" lon="2.661565"><ele></ele><time>2017-9-17T16:6:38Z</time></trkpt>
<trkpt lat="48.448838" lon="2.661478"><ele></ele><time>2017-9-17T16:6:41Z</time></trkpt>
<trkpt lat="48.448870" lon="2.661398"><ele></ele><time>2017-9-17T16:6:44Z</time></trkpt>
<trkpt lat="48.448910" lon="2.661282"><ele></ele><time>2017-9-17T16:6:47Z</time></trkpt>
<trkpt lat="48.448937" lon="2.661212"><ele></ele><time>2017-9-17T16:6:50Z</time></trkpt>
<trkpt lat="48.448962" lon="2.661135"><ele></ele><time>2017-9-17T16:6:53Z</time></trkpt>
<trkpt lat="48.448987" lon="2.661045"><ele></ele><time>2017-9-17T16:6:56Z</time></trkpt>
<trkpt lat="48.449010" lon="2.660960"><ele></ele><time>2017-9-17T16:6:59Z</time></trkpt>
<trkpt lat="48.449045" lon="2.660885"><ele></ele><time>2017-9-17T16:7:2Z</time></trkpt>
<trkpt lat="48.449072" lon="2.660800"><ele></ele><time>2017-9-17T16:7:5Z</time></trkpt>
<trkpt lat="48.449102" lon="2.660708"><ele></ele><time>2017-9-17T16:7:8Z</time></trkpt>
<trkpt lat="48.449143" lon="2.660597"><ele></ele><time>2017-9-17T16:7:11Z</time></trkpt>
<trkpt lat="48.449168" lon="2.660477"><ele></ele><time>2017-9-17T16:7:14Z</time></trkpt>
<trkpt lat="48.449222" lon="2.660373"><ele></ele><time>2017-9-17T16:7:17Z</time></trkpt>
<trkpt lat="48.449235" lon="2.660240"><ele></ele><time>2017-9-17T16:7:20Z</time></trkpt>
<trkpt lat="48.449233" lon="2.660225"><ele></ele><time>2017-9-17T16:7:23Z</time></trkpt>
<trkpt lat="48.449307" lon="2.660010"><ele></ele><time>2017-9-17T16:7:26Z</time></trkpt>
<trkpt lat="48.449350" lon="2.659923"><ele></ele><time>2017-9-17T16:7:29Z</time></trkpt>
<trkpt lat="48.449392" lon="2.659827"><ele></ele><time>2017-9-17T16:7:32Z</time></trkpt>
<trkpt lat="48.449425" lon="2.659725"><ele></ele><time>2017-9-17T16:7:35Z</time></trkpt>
<trkpt lat="48.449447" lon="2.659603"><ele></ele><time>2017-9-17T16:7:38Z</time></trkpt>
<trkpt lat="48.449485" lon="2.659517"><ele></ele><time>2017-9-17T16:7:41Z</time></trkpt>
<trkpt lat="48.449510" lon="2.659435"><ele></ele><time>2017-9-17T16:7:44Z</time></trkpt>
<trkpt lat="48.449543" lon="2.659350"><ele></ele><time>2017-9-17T16:7:47Z</time></trkpt>
<trkpt lat="48.449578" lon="2.659230"><ele></ele><time>2017-9-17T16:7:50Z</time></trkpt>
<trkpt lat="48.449627" lon="2.659123"><ele></ele><time>2017-9-17T16:7:53Z</time></trkpt>
<trkpt lat="48.449640" lon="2.659107"><ele></ele><time>2017-9-17T16:7:56Z</time></trkpt>
<trkpt lat="48.449768" lon="2.659075"><ele></ele><time>2017-9-17T16:7:59Z</time></trkpt>
<trkpt lat="48.449848" lon="2.659095"><ele></ele><time>2017-9-17T16:8:2Z</time></trkpt>
<trkpt lat="48.449918" lon="2.659112"><ele></ele><time>2017-9-17T16:8:5Z</time></trkpt>
<trkpt lat="48.449985" lon="2.659128"><ele></ele><time>2017-9-17T16:8:8Z</time></trkpt>
<trkpt lat="48.450048" lon="2.659145"><ele></ele><time>2017-9-17T16:8:11Z</time></trkpt>
<trkpt lat="48.450082" lon="2.659150"><ele></ele><time>2017-9-17T16:8:14Z</time></trkpt>
<trkpt lat="48.450187" lon="2.659170"><ele></ele><time>2017-9-17T16:8:17Z</time></trkpt>
<trkpt lat="48.450263" lon="2.659177"><ele></ele><time>2017-9-17T16:8:20Z</time></trkpt>
<trkpt lat="48.450332" lon="2.659188"><ele></ele><time>2017-9-17T16:8:23Z</time></trkpt>
<trkpt lat="48.450408" lon="2.659203"><ele></ele><time>2017-9-17T16:8:26Z</time></trkpt>
<trkpt lat="48.450488" lon="2.659218"><ele></ele><time>2017-9-17T16:8:29Z</time></trkpt>
<trkpt lat="48.450523" lon="2.659222"><ele></ele><time>2017-9-17T16:8:32Z</time></trkpt>
<trkpt lat="48.450602" lon="2.659233"><ele></ele><time>2017-9-17T16:8:35Z</time></trkpt>
<trkpt lat="48.450677" lon="2.659247"><ele></ele><time>2017-9-17T16:8:38Z</time></trkpt>
<trkpt lat="48.450753" lon="2.659265"><ele></ele><time>2017-9-17T16:8:41Z</time></trkpt>
<trkpt lat="48.450830" lon="2.659283"><ele></ele><time>2017-9-17T16:8:44Z</time></trkpt>
<trkpt lat="48.450905" lon="2.659298"><ele></ele><time>2017-9-17T16:8:47Z</time></trkpt>
<trkpt lat="48.450978" lon="2.659293"><ele></ele><time>2017-9-17T16:8:50Z</time></trkpt>
<trkpt lat="48.451020" lon="2.659298"><ele></ele><time>2017-9-17T16:8:53Z</time></trkpt>
<trkpt lat="48.451068" lon="2.659307"><ele></ele><time>2017-9-17T16:8:56Z</time></trkpt>
<trkpt lat="48.451118" lon="2.659320"><ele></ele><time>2017-9-17T16:8:59Z</time></trkpt>
<trkpt lat="48.451168" lon="2.659330"><ele></ele><time>2017-9-17T16:9:2Z</time></trkpt>
<trkpt lat="48.451218" lon="2.659333"><ele></ele><time>2017-9-17T16:9:5Z</time></trkpt>
<trkpt lat="48.451267" lon="2.659333"><ele></ele><time>2017-9-17T16:9:8Z</time></trkpt>
<trkpt lat="48.451313" lon="2.659338"><ele></ele><time>2017-9-17T16:9:11Z</time></trkpt>
<trkpt lat="48.451398" lon="2.659348"><ele></ele><time>2017-9-17T16:9:14Z</time></trkpt>
<trkpt lat="48.451483" lon="2.659367"><ele></ele><time>2017-9-17T16:9:17Z</time></trkpt>
<trkpt lat="48.451568" lon="2.659377"><ele></ele><time>2017-9-17T16:9:20Z</time></trkpt>
<trkpt lat="48.451643" lon="2.659387"><ele></ele><time>2017-9-17T16:9:23Z</time></trkpt>
<trkpt lat="48.451732" lon="2.659403"><ele></ele><time>2017-9-17T16:9:26Z</time></trkpt>
<trkpt lat="48.451817" lon="2.659427"><ele></ele><time>2017-9-17T16:9:29Z</time></trkpt>
<trkpt lat="48.451898" lon="2.659437"><ele></ele><time>2017-9-17T16:9:32Z</time></trkpt>
<trkpt lat="48.451940" lon="2.659442"><ele></ele><time>2017-9-17T16:9:35Z</time></trkpt>
<trkpt lat="48.452028" lon="2.659453"><ele></ele><time>2017-9-17T16:9:38Z</time></trkpt>
<trkpt lat="48.452073" lon="2.659460"><ele></ele><time>2017-9-17T16:9:41Z</time></trkpt>
<trkpt lat="48.452118" lon="2.659467"><ele></ele><time>2017-9-17T16:9:44Z</time></trkpt>
<trkpt lat="48.452167" lon="2.659473"><ele></ele><time>2017-9-17T16:9:47Z</time></trkpt>
<trkpt lat="48.452213" lon="2.659477"><ele></ele><time>2017-9-17T16:9:50Z</time></trkpt>
<trkpt lat="48.452263" lon="2.659483"><ele></ele><time>2017-9-17T16:9:53Z</time></trkpt>
<trkpt lat="48.452310" lon="2.659488"><ele></ele><time>2017-9-17T16:9:56Z</time></trkpt>
<trkpt lat="48.452355" lon="2.659497"><ele></ele><time>2017-9-17T16:9:59Z</time></trkpt>
<trkpt lat="48.452403" lon="2.659507"><ele></ele><time>2017-9-17T16:10:2Z</time></trkpt>
<trkpt lat="48.452497" lon="2.659523"><ele></ele><time>2017-9-17T16:10:5Z</time></trkpt>
<trkpt lat="48.452543" lon="2.659532"><ele></ele><time>2017-9-17T16:10:8Z</time></trkpt>
<trkpt lat="48.452595" lon="2.659540"><ele></ele><time>2017-9-17T16:10:11Z</time></trkpt>
<trkpt lat="48.452647" lon="2.659550"><ele></ele><time>2017-9-17T16:10:14Z</time></trkpt>
<trkpt lat="48.452695" lon="2.659560"><ele></ele><time>2017-9-17T16:10:17Z</time></trkpt>
<trkpt lat="48.452742" lon="2.659573"><ele></ele><time>2017-9-17T16:10:20Z</time></trkpt>
<trkpt lat="48.452788" lon="2.659585"><ele></ele><time>2017-9-17T16:10:23Z</time></trkpt>
<trkpt lat="48.452833" lon="2.659592"><ele></ele><time>2017-9-17T16:10:26Z</time></trkpt>
<trkpt lat="48.452922" lon="2.659607"><ele></ele><time>2017-9-17T16:10:29Z</time></trkpt>
<trkpt lat="48.453007" lon="2.659625"><ele></ele><time>2017-9-17T16:10:32Z</time></trkpt>
<trkpt lat="48.453052" lon="2.659633"><ele></ele><time>2017-9-17T16:10:35Z</time></trkpt>
<trkpt lat="48.453098" lon="2.659643"><ele></ele><time>2017-9-17T16:10:38Z</time></trkpt>
<trkpt lat="48.453143" lon="2.659652"><ele></ele><time>2017-9-17T16:10:41Z</time></trkpt>
<trkpt lat="48.453188" lon="2.659660"><ele></ele><time>2017-9-17T16:10:44Z</time></trkpt>
<trkpt lat="48.453233" lon="2.659663"><ele></ele><time>2017-9-17T16:10:47Z</time></trkpt>
<trkpt lat="48.453278" lon="2.659668"><ele></ele><time>2017-9-17T16:10:50Z</time></trkpt>
<trkpt lat="48.453323" lon="2.659673"><ele></ele><time>2017-9-17T16:10:53Z</time></trkpt>
<trkpt lat="48.453370" lon="2.659682"><ele></ele><time>2017-9-17T16:10:56Z</time></trkpt>
<trkpt lat="48.453465" lon="2.659690"><ele></ele><time>2017-9-17T16:10:59Z</time></trkpt>
<trkpt lat="48.453555" lon="2.659702"><ele></ele><time>2017-9-17T16:11:2Z</time></trkpt>
<trkpt lat="48.453643" lon="2.659720"><ele></ele><time>2017-9-17T16:11:5Z</time></trkpt>
<trkpt lat="48.453690" lon="2.659730"><ele></ele><time>2017-9-17T16:11:8Z</time></trkpt>
<trkpt lat="48.453742" lon="2.659740"><ele></ele><time>2017-9-17T16:11:11Z</time></trkpt>
<trkpt lat="48.453792" lon="2.659748"><ele></ele><time>2017-9-17T16:11:14Z</time></trkpt>
<trkpt lat="48.453842" lon="2.659760"><ele></ele><time>2017-9-17T16:11:17Z</time></trkpt>
<trkpt lat="48.453890" lon="2.659772"><ele></ele><time>2017-9-17T16:11:20Z</time></trkpt>
<trkpt lat="48.453943" lon="2.659780"><ele></ele><time>2017-9-17T16:11:23Z</time></trkpt>
<trkpt lat="48.453995" lon="2.659785"><ele></ele><time>2017-9-17T16:11:26Z</time></trkpt>
<trkpt lat="48.454048" lon="2.659797"><ele></ele><time>2017-9-17T16:11:29Z</time></trkpt>
<trkpt lat="48.454103" lon="2.659807"><ele></ele><time>2017-9-17T16:11:32Z</time></trkpt>
<trkpt lat="48.454157" lon="2.659812"><ele></ele><time>2017-9-17T16:11:35Z</time></trkpt>
<trkpt lat="48.454205" lon="2.659815"><ele></ele><time>2017-9-17T16:11:38Z</time></trkpt>
<trkpt lat="48.454252" lon="2.659820"><ele></ele><time>2017-9-17T16:11:41Z</time></trkpt>
<trkpt lat="48.454300" lon="2.659823"><ele></ele><time>2017-9-17T16:11:44Z</time></trkpt>
<trkpt lat="48.454348" lon="2.659825"><ele></ele><time>2017-9-17T16:11:47Z</time></trkpt>
<trkpt lat="48.454400" lon="2.659835"><ele></ele><time>2017-9-17T16:11:50Z</time></trkpt>
<trkpt lat="48.454450" lon="2.659847"><ele></ele><time>2017-9-17T16:11:53Z</time></trkpt>
<trkpt lat="48.454498" lon="2.659853"><ele></ele><time>2017-9-17T16:11:56Z</time></trkpt>
<trkpt lat="48.454547" lon="2.659862"><ele></ele><time>2017-9-17T16:11:59Z</time></trkpt>
<trkpt lat="48.454597" lon="2.659877"><ele></ele><time>2017-9-17T16:12:2Z</time></trkpt>
<trkpt lat="48.454692" lon="2.659897"><ele></ele><time>2017-9-17T16:12:5Z</time></trkpt>
<trkpt lat="48.454743" lon="2.659903"><ele></ele><time>2017-9-17T16:12:8Z</time></trkpt>
<trkpt lat="48.454792" lon="2.659915"><ele></ele><time>2017-9-17T16:12:11Z</time></trkpt>
<trkpt lat="48.454840" lon="2.659922"><ele></ele><time>2017-9-17T16:12:14Z</time></trkpt>
<trkpt lat="48.454888" lon="2.659927"><ele></ele><time>2017-9-17T16:12:17Z</time></trkpt>
<trkpt lat="48.454977" lon="2.659942"><ele></ele><time>2017-9-17T16:12:20Z</time></trkpt>
<trkpt lat="48.455028" lon="2.659953"><ele></ele><time>2017-9-17T16:12:23Z</time></trkpt>
<trkpt lat="48.455117" lon="2.659968"><ele></ele><time>2017-9-17T16:12:26Z</time></trkpt>
<trkpt lat="48.455205" lon="2.659988"><ele></ele><time>2017-9-17T16:12:29Z</time></trkpt>
<trkpt lat="48.455293" lon="2.660008"><ele></ele><time>2017-9-17T16:12:32Z</time></trkpt>
<trkpt lat="48.455340" lon="2.660018"><ele></ele><time>2017-9-17T16:12:35Z</time></trkpt>
<trkpt lat="48.455427" lon="2.660035"><ele></ele><time>2017-9-17T16:12:38Z</time></trkpt>
<trkpt lat="48.455512" lon="2.660052"><ele></ele><time>2017-9-17T16:12:41Z</time></trkpt>
<trkpt lat="48.455557" lon="2.660057"><ele></ele><time>2017-9-17T16:12:44Z</time></trkpt>
<trkpt lat="48.455642" lon="2.660067"><ele></ele><time>2017-9-17T16:12:47Z</time></trkpt>
<trkpt lat="48.455728" lon="2.660077"><ele></ele><time>2017-9-17T16:12:50Z</time></trkpt>
<trkpt lat="48.455777" lon="2.660082"><ele></ele><time>2017-9-17T16:12:53Z</time></trkpt>
<trkpt lat="48.455825" lon="2.660087"><ele></ele><time>2017-9-17T16:12:56Z</time></trkpt>
<trkpt lat="48.455878" lon="2.660097"><ele></ele><time>2017-9-17T16:12:59Z</time></trkpt>
<trkpt lat="48.455930" lon="2.660105"><ele></ele><time>2017-9-17T16:13:2Z</time></trkpt>
<trkpt lat="48.455985" lon="2.660110"><ele></ele><time>2017-9-17T16:13:5Z</time></trkpt>
<trkpt lat="48.456038" lon="2.660120"><ele></ele><time>2017-9-17T16:13:8Z</time></trkpt>
<trkpt lat="48.456085" lon="2.660138"><ele></ele><time>2017-9-17T16:13:11Z</time></trkpt>
<trkpt lat="48.456157" lon="2.660153"><ele></ele><time>2017-9-17T16:13:14Z</time></trkpt>
<trkpt lat="48.456203" lon="2.660118"><ele></ele><time>2017-9-17T16:13:17Z</time></trkpt>
<trkpt lat="48.456230" lon="2.660042"><ele></ele><time>2017-9-17T16:13:20Z</time></trkpt>
<trkpt lat="48.456250" lon="2.659947"><ele></ele><time>2017-9-17T16:13:23Z</time></trkpt>
<trkpt lat="48.456280" lon="2.659838"><ele></ele><time>2017-9-17T16:13:26Z</time></trkpt>
<trkpt lat="48.456302" lon="2.659718"><ele></ele><time>2017-9-17T16:13:29Z</time></trkpt>
<trkpt lat="48.456332" lon="2.659595"><ele></ele><time>2017-9-17T16:13:32Z</time></trkpt>
<trkpt lat="48.456345" lon="2.659530"><ele></ele><time>2017-9-17T16:13:35Z</time></trkpt>
<trkpt lat="48.456358" lon="2.659465"><ele></ele><time>2017-9-17T16:13:38Z</time></trkpt>
<trkpt lat="48.456372" lon="2.659400"><ele></ele><time>2017-9-17T16:13:41Z</time></trkpt>
<trkpt lat="48.456385" lon="2.659330"><ele></ele><time>2017-9-17T16:13:44Z</time></trkpt>
<trkpt lat="48.456400" lon="2.659253"><ele></ele><time>2017-9-17T16:13:47Z</time></trkpt>
<trkpt lat="48.456415" lon="2.659178"><ele></ele><time>2017-9-17T16:13:50Z</time></trkpt>
<trkpt lat="48.456432" lon="2.659105"><ele></ele><time>2017-9-17T16:13:53Z</time></trkpt>
<trkpt lat="48.456450" lon="2.659032"><ele></ele><time>2017-9-17T16:13:56Z</time></trkpt>
<trkpt lat="48.456467" lon="2.658953"><ele></ele><time>2017-9-17T16:13:59Z</time></trkpt>
<trkpt lat="48.456482" lon="2.658872"><ele></ele><time>2017-9-17T16:14:2Z</time></trkpt>
<trkpt lat="48.456498" lon="2.658792"><ele></ele><time>2017-9-17T16:14:5Z</time></trkpt>
<trkpt lat="48.456518" lon="2.658712"><ele></ele><time>2017-9-17T16:14:8Z</time></trkpt>
<trkpt lat="48.456537" lon="2.658630"><ele></ele><time>2017-9-17T16:14:11Z</time></trkpt>
<trkpt lat="48.456560" lon="2.658557"><ele></ele><time>2017-9-17T16:14:14Z</time></trkpt>
<trkpt lat="48.456585" lon="2.658487"><ele></ele><time>2017-9-17T16:14:17Z</time></trkpt>
<trkpt lat="48.456612" lon="2.658420"><ele></ele><time>2017-9-17T16:14:20Z</time></trkpt>
<trkpt lat="48.456640" lon="2.658360"><ele></ele><time>2017-9-17T16:14:23Z</time></trkpt>
<trkpt lat="48.456695" lon="2.658237"><ele></ele><time>2017-9-17T16:14:26Z</time></trkpt>
<trkpt lat="48.456747" lon="2.658118"><ele></ele><time>2017-9-17T16:14:29Z</time></trkpt>
<trkpt lat="48.456800" lon="2.658012"><ele></ele><time>2017-9-17T16:14:32Z</time></trkpt>
<trkpt lat="48.456860" lon="2.657913"><ele></ele><time>2017-9-17T16:14:35Z</time></trkpt>
<trkpt lat="48.456937" lon="2.657852"><ele></ele><time>2017-9-17T16:14:38Z</time></trkpt>
<trkpt lat="48.457015" lon="2.657807"><ele></ele><time>2017-9-17T16:14:41Z</time></trkpt>
<trkpt lat="48.457097" lon="2.657770"><ele></ele><time>2017-9-17T16:14:44Z</time></trkpt>
<trkpt lat="48.457177" lon="2.657735"><ele></ele><time>2017-9-17T16:14:47Z</time></trkpt>
<trkpt lat="48.457225" lon="2.657717"><ele></ele><time>2017-9-17T16:14:50Z</time></trkpt>
<trkpt lat="48.457277" lon="2.657698"><ele></ele><time>2017-9-17T16:14:53Z</time></trkpt>
<trkpt lat="48.457323" lon="2.657678"><ele></ele><time>2017-9-17T16:14:56Z</time></trkpt>
<trkpt lat="48.457410" lon="2.657647"><ele></ele><time>2017-9-17T16:14:59Z</time></trkpt>
<trkpt lat="48.457492" lon="2.657695"><ele></ele><time>2017-9-17T16:15:2Z</time></trkpt>
<trkpt lat="48.457500" lon="2.657807"><ele></ele><time>2017-9-17T16:15:5Z</time></trkpt>
<trkpt lat="48.457525" lon="2.657933"><ele></ele><time>2017-9-17T16:15:8Z</time></trkpt>
<trkpt lat="48.457550" lon="2.657990"><ele></ele><time>2017-9-17T16:15:11Z</time></trkpt>
<trkpt lat="48.457600" lon="2.658098"><ele></ele><time>2017-9-17T16:15:14Z</time></trkpt>
<trkpt lat="48.457630" lon="2.658130"><ele></ele><time>2017-9-17T16:15:17Z</time></trkpt>
<trkpt lat="48.457695" lon="2.658157"><ele></ele><time>2017-9-17T16:15:20Z</time></trkpt>
<trkpt lat="48.457780" lon="2.658165"><ele></ele><time>2017-9-17T16:15:23Z</time></trkpt>
<trkpt lat="48.457860" lon="2.658212"><ele></ele><time>2017-9-17T16:15:26Z</time></trkpt>
<trkpt lat="48.457903" lon="2.658248"><ele></ele><time>2017-9-17T16:15:29Z</time></trkpt>
<trkpt lat="48.457940" lon="2.658290"><ele></ele><time>2017-9-17T16:15:32Z</time></trkpt>
<trkpt lat="48.457975" lon="2.658345"><ele></ele><time>2017-9-17T16:15:35Z</time></trkpt>
<trkpt lat="48.458008" lon="2.658408"><ele></ele><time>2017-9-17T16:15:38Z</time></trkpt>
<trkpt lat="48.458040" lon="2.658478"><ele></ele><time>2017-9-17T16:15:41Z</time></trkpt>
<trkpt lat="48.458065" lon="2.658550"><ele></ele><time>2017-9-17T16:15:44Z</time></trkpt>
<trkpt lat="48.458093" lon="2.658618"><ele></ele><time>2017-9-17T16:15:47Z</time></trkpt>
<trkpt lat="48.458122" lon="2.658688"><ele></ele><time>2017-9-17T16:15:50Z</time></trkpt>
<trkpt lat="48.458153" lon="2.658758"><ele></ele><time>2017-9-17T16:15:53Z</time></trkpt>
<trkpt lat="48.458190" lon="2.658825"><ele></ele><time>2017-9-17T16:15:56Z</time></trkpt>
<trkpt lat="48.458223" lon="2.658885"><ele></ele><time>2017-9-17T16:15:59Z</time></trkpt>
<trkpt lat="48.458257" lon="2.658933"><ele></ele><time>2017-9-17T16:16:2Z</time></trkpt>
<trkpt lat="48.458292" lon="2.658977"><ele></ele><time>2017-9-17T16:16:5Z</time></trkpt>
<trkpt lat="48.458330" lon="2.659020"><ele></ele><time>2017-9-17T16:16:8Z</time></trkpt>
<trkpt lat="48.458388" lon="2.659122"><ele></ele><time>2017-9-17T16:16:11Z</time></trkpt>
<trkpt lat="48.458440" lon="2.659220"><ele></ele><time>2017-9-17T16:16:14Z</time></trkpt>
<trkpt lat="48.458477" lon="2.659337"><ele></ele><time>2017-9-17T16:16:17Z</time></trkpt>
<trkpt lat="48.458495" lon="2.659453"><ele></ele><time>2017-9-17T16:16:20Z</time></trkpt>
<trkpt lat="48.458497" lon="2.659585"><ele></ele><time>2017-9-17T16:16:23Z</time></trkpt>
<trkpt lat="48.458492" lon="2.659655"><ele></ele><time>2017-9-17T16:16:26Z</time></trkpt>
<trkpt lat="48.458490" lon="2.659728"><ele></ele><time>2017-9-17T16:16:29Z</time></trkpt>
<trkpt lat="48.458488" lon="2.659800"><ele></ele><time>2017-9-17T16:16:32Z</time></trkpt>
<trkpt lat="48.458482" lon="2.659877"><ele></ele><time>2017-9-17T16:16:35Z</time></trkpt>
<trkpt lat="48.458473" lon="2.659958"><ele></ele><time>2017-9-17T16:16:38Z</time></trkpt>
<trkpt lat="48.458468" lon="2.660035"><ele></ele><time>2017-9-17T16:16:41Z</time></trkpt>
<trkpt lat="48.458462" lon="2.660123"><ele></ele><time>2017-9-17T16:16:44Z</time></trkpt>
<trkpt lat="48.458460" lon="2.660198"><ele></ele><time>2017-9-17T16:16:47Z</time></trkpt>
<trkpt lat="48.458458" lon="2.660272"><ele></ele><time>2017-9-17T16:16:50Z</time></trkpt>
<trkpt lat="48.458462" lon="2.660350"><ele></ele><time>2017-9-17T16:16:53Z</time></trkpt>
<trkpt lat="48.458475" lon="2.660430"><ele></ele><time>2017-9-17T16:16:56Z</time></trkpt>
<trkpt lat="48.458490" lon="2.660502"><ele></ele><time>2017-9-17T16:16:59Z</time></trkpt>
<trkpt lat="48.458512" lon="2.660572"><ele></ele><time>2017-9-17T16:17:2Z</time></trkpt>
<trkpt lat="48.458540" lon="2.660628"><ele></ele><time>2017-9-17T16:17:5Z</time></trkpt>
<trkpt lat="48.458580" lon="2.660677"><ele></ele><time>2017-9-17T16:17:8Z</time></trkpt>
<trkpt lat="48.458688" lon="2.660747"><ele></ele><time>2017-9-17T16:17:11Z</time></trkpt>
<trkpt lat="48.458802" lon="2.660825"><ele></ele><time>2017-9-17T16:17:14Z</time></trkpt>
<trkpt lat="48.458910" lon="2.660895"><ele></ele><time>2017-9-17T16:17:17Z</time></trkpt>
<trkpt lat="48.458967" lon="2.660928"><ele></ele><time>2017-9-17T16:17:20Z</time></trkpt>
<trkpt lat="48.459017" lon="2.660960"><ele></ele><time>2017-9-17T16:17:23Z</time></trkpt>
<trkpt lat="48.459070" lon="2.660992"><ele></ele><time>2017-9-17T16:17:26Z</time></trkpt>
<trkpt lat="48.459118" lon="2.661028"><ele></ele><time>2017-9-17T16:17:29Z</time></trkpt>
<trkpt lat="48.459170" lon="2.661062"><ele></ele><time>2017-9-17T16:17:32Z</time></trkpt>
<trkpt lat="48.459215" lon="2.661092"><ele></ele><time>2017-9-17T16:17:35Z</time></trkpt>
<trkpt lat="48.459257" lon="2.661123"><ele></ele><time>2017-9-17T16:17:38Z</time></trkpt>
<trkpt lat="48.459333" lon="2.661178"><ele></ele><time>2017-9-17T16:17:41Z</time></trkpt>
<trkpt lat="48.459402" lon="2.661223"><ele></ele><time>2017-9-17T16:17:44Z</time></trkpt>
<trkpt lat="48.459463" lon="2.661263"><ele></ele><time>2017-9-17T16:17:47Z</time></trkpt>
<trkpt lat="48.459535" lon="2.661305"><ele></ele><time>2017-9-17T16:17:50Z</time></trkpt>
<trkpt lat="48.459607" lon="2.661347"><ele></ele><time>2017-9-17T16:17:53Z</time></trkpt>
<trkpt lat="48.459672" lon="2.661372"><ele></ele><time>2017-9-17T16:17:56Z</time></trkpt>
<trkpt lat="48.459738" lon="2.661390"><ele></ele><time>2017-9-17T16:17:59Z</time></trkpt>
<trkpt lat="48.459822" lon="2.661412"><ele></ele><time>2017-9-17T16:18:2Z</time></trkpt>
<trkpt lat="48.459893" lon="2.661433"><ele></ele><time>2017-9-17T16:18:5Z</time></trkpt>
<trkpt lat="48.459975" lon="2.661433"><ele></ele><time>2017-9-17T16:18:8Z</time></trkpt>
<trkpt lat="48.460047" lon="2.661397"><ele></ele><time>2017-9-17T16:18:11Z</time></trkpt>
<trkpt lat="48.460102" lon="2.661358"><ele></ele><time>2017-9-17T16:18:14Z</time></trkpt>
<trkpt lat="48.460165" lon="2.661338"><ele></ele><time>2017-9-17T16:18:17Z</time></trkpt>
<trkpt lat="48.460228" lon="2.661320"><ele></ele><time>2017-9-17T16:18:20Z</time></trkpt>
<trkpt lat="48.460262" lon="2.661313"><ele></ele><time>2017-9-17T16:18:23Z</time></trkpt>
<trkpt lat="48.460397" lon="2.661245"><ele></ele><time>2017-9-17T16:18:26Z</time></trkpt>
<trkpt lat="48.460462" lon="2.661203"><ele></ele><time>2017-9-17T16:18:29Z</time></trkpt>
<trkpt lat="48.460515" lon="2.661140"><ele></ele><time>2017-9-17T16:18:32Z</time></trkpt>
<trkpt lat="48.460540" lon="2.661053"><ele></ele><time>2017-9-17T16:18:35Z</time></trkpt>
<trkpt lat="48.460590" lon="2.660948"><ele></ele><time>2017-9-17T16:18:38Z</time></trkpt>
<trkpt lat="48.460655" lon="2.660857"><ele></ele><time>2017-9-17T16:18:41Z</time></trkpt>
<trkpt lat="48.460703" lon="2.660793"><ele></ele><time>2017-9-17T16:18:44Z</time></trkpt>
<trkpt lat="48.460773" lon="2.660717"><ele></ele><time>2017-9-17T16:18:47Z</time></trkpt>
<trkpt lat="48.460833" lon="2.660618"><ele></ele><time>2017-9-17T16:18:50Z</time></trkpt>
<trkpt lat="48.460905" lon="2.660567"><ele></ele><time>2017-9-17T16:18:53Z</time></trkpt>
<trkpt lat="48.460990" lon="2.660548"><ele></ele><time>2017-9-17T16:18:56Z</time></trkpt>
<trkpt lat="48.461057" lon="2.660472"><ele></ele><time>2017-9-17T16:18:59Z</time></trkpt>
<trkpt lat="48.461142" lon="2.660438"><ele></ele><time>2017-9-17T16:19:2Z</time></trkpt>
<trkpt lat="48.461182" lon="2.660440"><ele></ele><time>2017-9-17T16:19:5Z</time></trkpt>
<trkpt lat="48.461232" lon="2.660450"><ele></ele><time>2017-9-17T16:19:8Z</time></trkpt>
<trkpt lat="48.461282" lon="2.660468"><ele></ele><time>2017-9-17T16:19:11Z</time></trkpt>
<trkpt lat="48.461355" lon="2.660503"><ele></ele><time>2017-9-17T16:19:14Z</time></trkpt>
<trkpt lat="48.461393" lon="2.660517"><ele></ele><time>2017-9-17T16:19:17Z</time></trkpt>
<trkpt lat="48.461448" lon="2.660532"><ele></ele><time>2017-9-17T16:19:20Z</time></trkpt>
<trkpt lat="48.461533" lon="2.660545"><ele></ele><time>2017-9-17T16:19:23Z</time></trkpt>
<trkpt lat="48.461620" lon="2.660527"><ele></ele><time>2017-9-17T16:19:26Z</time></trkpt>
<trkpt lat="48.461710" lon="2.660498"><ele></ele><time>2017-9-17T16:19:29Z</time></trkpt>
<trkpt lat="48.461823" lon="2.660470"><ele></ele><time>2017-9-17T16:19:32Z</time></trkpt>
<trkpt lat="48.461882" lon="2.660458"><ele></ele><time>2017-9-17T16:19:35Z</time></trkpt>
<trkpt lat="48.461937" lon="2.660447"><ele></ele><time>2017-9-17T16:19:38Z</time></trkpt>
<trkpt lat="48.461990" lon="2.660432"><ele></ele><time>2017-9-17T16:19:41Z</time></trkpt>
<trkpt lat="48.462042" lon="2.660422"><ele></ele><time>2017-9-17T16:19:44Z</time></trkpt>
<trkpt lat="48.462127" lon="2.660407"><ele></ele><time>2017-9-17T16:19:47Z</time></trkpt>
<trkpt lat="48.462177" lon="2.660377"><ele></ele><time>2017-9-17T16:19:50Z</time></trkpt>
<trkpt lat="48.462230" lon="2.660343"><ele></ele><time>2017-9-17T16:19:53Z</time></trkpt>
<trkpt lat="48.462275" lon="2.660310"><ele></ele><time>2017-9-17T16:19:56Z</time></trkpt>
<trkpt lat="48.462327" lon="2.660275"><ele></ele><time>2017-9-17T16:19:59Z</time></trkpt>
<trkpt lat="48.462382" lon="2.660238"><ele></ele><time>2017-9-17T16:20:2Z</time></trkpt>
<trkpt lat="48.462440" lon="2.660188"><ele></ele><time>2017-9-17T16:20:5Z</time></trkpt>
<trkpt lat="48.462493" lon="2.660148"><ele></ele><time>2017-9-17T16:20:8Z</time></trkpt>
<trkpt lat="48.462538" lon="2.660112"><ele></ele><time>2017-9-17T16:20:11Z</time></trkpt>
<trkpt lat="48.462583" lon="2.660065"><ele></ele><time>2017-9-17T16:20:14Z</time></trkpt>
<trkpt lat="48.462633" lon="2.660023"><ele></ele><time>2017-9-17T16:20:17Z</time></trkpt>
<trkpt lat="48.462683" lon="2.659982"><ele></ele><time>2017-9-17T16:20:20Z</time></trkpt>
<trkpt lat="48.462727" lon="2.659945"><ele></ele><time>2017-9-17T16:20:23Z</time></trkpt>
<trkpt lat="48.462775" lon="2.659912"><ele></ele><time>2017-9-17T16:20:26Z</time></trkpt>
<trkpt lat="48.462825" lon="2.659880"><ele></ele><time>2017-9-17T16:20:29Z</time></trkpt>
<trkpt lat="48.462870" lon="2.659840"><ele></ele><time>2017-9-17T16:20:32Z</time></trkpt>
<trkpt lat="48.462938" lon="2.659763"><ele></ele><time>2017-9-17T16:20:35Z</time></trkpt>
<trkpt lat="48.462978" lon="2.659727"><ele></ele><time>2017-9-17T16:20:38Z</time></trkpt>
<trkpt lat="48.463022" lon="2.659688"><ele></ele><time>2017-9-17T16:20:41Z</time></trkpt>
<trkpt lat="48.463107" lon="2.659618"><ele></ele><time>2017-9-17T16:20:44Z</time></trkpt>
<trkpt lat="48.463195" lon="2.659535"><ele></ele><time>2017-9-17T16:20:47Z</time></trkpt>
<trkpt lat="48.463292" lon="2.659450"><ele></ele><time>2017-9-17T16:20:50Z</time></trkpt>
<trkpt lat="48.463395" lon="2.659370"><ele></ele><time>2017-9-17T16:20:53Z</time></trkpt>
<trkpt lat="48.463492" lon="2.659282"><ele></ele><time>2017-9-17T16:20:56Z</time></trkpt>
<trkpt lat="48.463585" lon="2.659207"><ele></ele><time>2017-9-17T16:20:59Z</time></trkpt>
<trkpt lat="48.463670" lon="2.659152"><ele></ele><time>2017-9-17T16:21:2Z</time></trkpt>
<trkpt lat="48.463770" lon="2.659092"><ele></ele><time>2017-9-17T16:21:5Z</time></trkpt>
<trkpt lat="48.463865" lon="2.659012"><ele></ele><time>2017-9-17T16:21:8Z</time></trkpt>
<trkpt lat="48.463908" lon="2.658965"><ele></ele><time>2017-9-17T16:21:11Z</time></trkpt>
<trkpt lat="48.463962" lon="2.658917"><ele></ele><time>2017-9-17T16:21:14Z</time></trkpt>
<trkpt lat="48.464017" lon="2.658858"><ele></ele><time>2017-9-17T16:21:17Z</time></trkpt>
<trkpt lat="48.464065" lon="2.658823"><ele></ele><time>2017-9-17T16:21:20Z</time></trkpt>
<trkpt lat="48.464177" lon="2.658748"><ele></ele><time>2017-9-17T16:21:23Z</time></trkpt>
<trkpt lat="48.464217" lon="2.658710"><ele></ele><time>2017-9-17T16:21:26Z</time></trkpt>
<trkpt lat="48.464255" lon="2.658678"><ele></ele><time>2017-9-17T16:21:29Z</time></trkpt>
<trkpt lat="48.464298" lon="2.658638"><ele></ele><time>2017-9-17T16:21:32Z</time></trkpt>
<trkpt lat="48.464343" lon="2.658602"><ele></ele><time>2017-9-17T16:21:35Z</time></trkpt>
<trkpt lat="48.464395" lon="2.658565"><ele></ele><time>2017-9-17T16:21:38Z</time></trkpt>
<trkpt lat="48.464438" lon="2.658537"><ele></ele><time>2017-9-17T16:21:41Z</time></trkpt>
<trkpt lat="48.464482" lon="2.658517"><ele></ele><time>2017-9-17T16:21:44Z</time></trkpt>
<trkpt lat="48.464533" lon="2.658508"><ele></ele><time>2017-9-17T16:21:47Z</time></trkpt>
<trkpt lat="48.464592" lon="2.658503"><ele></ele><time>2017-9-17T16:21:50Z</time></trkpt>
<trkpt lat="48.464642" lon="2.658507"><ele></ele><time>2017-9-17T16:21:53Z</time></trkpt>
<trkpt lat="48.464693" lon="2.658515"><ele></ele><time>2017-9-17T16:21:56Z</time></trkpt>
<trkpt lat="48.464747" lon="2.658525"><ele></ele><time>2017-9-17T16:21:59Z</time></trkpt>
<trkpt lat="48.464800" lon="2.658532"><ele></ele><time>2017-9-17T16:22:2Z</time></trkpt>
<trkpt lat="48.464853" lon="2.658527"><ele></ele><time>2017-9-17T16:22:5Z</time></trkpt>
<trkpt lat="48.464902" lon="2.658513"><ele></ele><time>2017-9-17T16:22:8Z</time></trkpt>
<trkpt lat="48.464953" lon="2.658497"><ele></ele><time>2017-9-17T16:22:11Z</time></trkpt>
<trkpt lat="48.465005" lon="2.658485"><ele></ele><time>2017-9-17T16:22:14Z</time></trkpt>
<trkpt lat="48.465055" lon="2.658477"><ele></ele><time>2017-9-17T16:22:17Z</time></trkpt>
<trkpt lat="48.465105" lon="2.658470"><ele></ele><time>2017-9-17T16:22:20Z</time></trkpt>
<trkpt lat="48.465157" lon="2.658467"><ele></ele><time>2017-9-17T16:22:23Z</time></trkpt>
<trkpt lat="48.465203" lon="2.658463"><ele></ele><time>2017-9-17T16:22:26Z</time></trkpt>
<trkpt lat="48.465247" lon="2.658457"><ele></ele><time>2017-9-17T16:22:29Z</time></trkpt>
<trkpt lat="48.465293" lon="2.658452"><ele></ele><time>2017-9-17T16:22:32Z</time></trkpt>
<trkpt lat="48.465342" lon="2.658447"><ele></ele><time>2017-9-17T16:22:35Z</time></trkpt>
<trkpt lat="48.465390" lon="2.658447"><ele></ele><time>2017-9-17T16:22:38Z</time></trkpt>
<trkpt lat="48.465438" lon="2.658457"><ele></ele><time>2017-9-17T16:22:41Z</time></trkpt>
<trkpt lat="48.465488" lon="2.658483"><ele></ele><time>2017-9-17T16:22:44Z</time></trkpt>
<trkpt lat="48.465582" lon="2.658542"><ele></ele><time>2017-9-17T16:22:47Z</time></trkpt>
<trkpt lat="48.465680" lon="2.658557"><ele></ele><time>2017-9-17T16:22:50Z</time></trkpt>
<trkpt lat="48.465767" lon="2.658512"><ele></ele><time>2017-9-17T16:22:53Z</time></trkpt>
<trkpt lat="48.465857" lon="2.658465"><ele></ele><time>2017-9-17T16:22:56Z</time></trkpt>
<trkpt lat="48.465948" lon="2.658432"><ele></ele><time>2017-9-17T16:22:59Z</time></trkpt>
<trkpt lat="48.466038" lon="2.658413"><ele></ele><time>2017-9-17T16:23:2Z</time></trkpt>
<trkpt lat="48.466113" lon="2.658403"><ele></ele><time>2017-9-17T16:23:5Z</time></trkpt>
<trkpt lat="48.466213" lon="2.658407"><ele></ele><time>2017-9-17T16:23:8Z</time></trkpt>
<trkpt lat="48.466265" lon="2.658413"><ele></ele><time>2017-9-17T16:23:11Z</time></trkpt>
<trkpt lat="48.466317" lon="2.658427"><ele></ele><time>2017-9-17T16:23:14Z</time></trkpt>
<trkpt lat="48.466373" lon="2.658440"><ele></ele><time>2017-9-17T16:23:17Z</time></trkpt>
<trkpt lat="48.466422" lon="2.658448"><ele></ele><time>2017-9-17T16:23:20Z</time></trkpt>
<trkpt lat="48.466473" lon="2.658450"><ele></ele><time>2017-9-17T16:23:23Z</time></trkpt>
<trkpt lat="48.466520" lon="2.658452"><ele></ele><time>2017-9-17T16:23:26Z</time></trkpt>
<trkpt lat="48.466568" lon="2.658455"><ele></ele><time>2017-9-17T16:23:29Z</time></trkpt>
<trkpt lat="48.466652" lon="2.658467"><ele></ele><time>2017-9-17T16:23:32Z</time></trkpt>
<trkpt lat="48.466732" lon="2.658475"><ele></ele><time>2017-9-17T16:23:35Z</time></trkpt>
<trkpt lat="48.466797" lon="2.658472"><ele></ele><time>2017-9-17T16:23:38Z</time></trkpt>
<trkpt lat="48.466865" lon="2.658477"><ele></ele><time>2017-9-17T16:23:41Z</time></trkpt>
<trkpt lat="48.466950" lon="2.658500"><ele></ele><time>2017-9-17T16:23:44Z</time></trkpt>
<trkpt lat="48.466998" lon="2.658505"><ele></ele><time>2017-9-17T16:23:47Z</time></trkpt>
<trkpt lat="48.467087" lon="2.658505"><ele></ele><time>2017-9-17T16:23:50Z</time></trkpt>
<trkpt lat="48.467168" lon="2.658510"><ele></ele><time>2017-9-17T16:23:53Z</time></trkpt>
<trkpt lat="48.467207" lon="2.658512"><ele></ele><time>2017-9-17T16:23:56Z</time></trkpt>
<trkpt lat="48.467292" lon="2.658523"><ele></ele><time>2017-9-17T16:23:59Z</time></trkpt>
<trkpt lat="48.467392" lon="2.658532"><ele></ele><time>2017-9-17T16:24:2Z</time></trkpt>
<trkpt lat="48.467443" lon="2.658535"><ele></ele><time>2017-9-17T16:24:5Z</time></trkpt>
<trkpt lat="48.467493" lon="2.658538"><ele></ele><time>2017-9-17T16:24:8Z</time></trkpt>
<trkpt lat="48.467538" lon="2.658548"><ele></ele><time>2017-9-17T16:24:11Z</time></trkpt>
<trkpt lat="48.467583" lon="2.658560"><ele></ele><time>2017-9-17T16:24:14Z</time></trkpt>
<trkpt lat="48.467628" lon="2.658567"><ele></ele><time>2017-9-17T16:24:17Z</time></trkpt>
<trkpt lat="48.467757" lon="2.658592"><ele></ele><time>2017-9-17T16:24:20Z</time></trkpt>
<trkpt lat="48.467835" lon="2.658595"><ele></ele><time>2017-9-17T16:24:23Z</time></trkpt>
<trkpt lat="48.467918" lon="2.658602"><ele></ele><time>2017-9-17T16:24:26Z</time></trkpt>
<trkpt lat="48.467988" lon="2.658587"><ele></ele><time>2017-9-17T16:24:29Z</time></trkpt>
<trkpt lat="48.468057" lon="2.658592"><ele></ele><time>2017-9-17T16:24:32Z</time></trkpt>
<trkpt lat="48.468133" lon="2.658595"><ele></ele><time>2017-9-17T16:24:35Z</time></trkpt>
<trkpt lat="48.468213" lon="2.658602"><ele></ele><time>2017-9-17T16:24:38Z</time></trkpt>
<trkpt lat="48.468255" lon="2.658607"><ele></ele><time>2017-9-17T16:24:41Z</time></trkpt>
<trkpt lat="48.468335" lon="2.658625"><ele></ele><time>2017-9-17T16:24:44Z</time></trkpt>
<trkpt lat="48.468415" lon="2.658633"><ele></ele><time>2017-9-17T16:24:47Z</time></trkpt>
<trkpt lat="48.468477" lon="2.658640"><ele></ele><time>2017-9-17T16:24:50Z</time></trkpt>
<trkpt lat="48.468550" lon="2.658647"><ele></ele><time>2017-9-17T16:24:53Z</time></trkpt>
<trkpt lat="48.468627" lon="2.658652"><ele></ele><time>2017-9-17T16:24:56Z</time></trkpt>
<trkpt lat="48.468670" lon="2.658652"><ele></ele><time>2017-9-17T16:24:59Z</time></trkpt>
<trkpt lat="48.468718" lon="2.658658"><ele></ele><time>2017-9-17T16:25:2Z</time></trkpt>
<trkpt lat="48.468807" lon="2.658668"><ele></ele><time>2017-9-17T16:25:5Z</time></trkpt>
<trkpt lat="48.468888" lon="2.658682"><ele></ele><time>2017-9-17T16:25:8Z</time></trkpt>
<trkpt lat="48.468977" lon="2.658693"><ele></ele><time>2017-9-17T16:25:11Z</time></trkpt>
<trkpt lat="48.469025" lon="2.658698"><ele></ele><time>2017-9-17T16:25:14Z</time></trkpt>
<trkpt lat="48.469107" lon="2.658703"><ele></ele><time>2017-9-17T16:25:17Z</time></trkpt>
<trkpt lat="48.469188" lon="2.658710"><ele></ele><time>2017-9-17T16:25:20Z</time></trkpt>
<trkpt lat="48.469283" lon="2.658722"><ele></ele><time>2017-9-17T16:25:23Z</time></trkpt>
<trkpt lat="48.469370" lon="2.658728"><ele></ele><time>2017-9-17T16:25:26Z</time></trkpt>
<trkpt lat="48.469463" lon="2.658738"><ele></ele><time>2017-9-17T16:25:29Z</time></trkpt>
<trkpt lat="48.469510" lon="2.658743"><ele></ele><time>2017-9-17T16:25:32Z</time></trkpt>
<trkpt lat="48.469593" lon="2.658753"><ele></ele><time>2017-9-17T16:25:35Z</time></trkpt>
<trkpt lat="48.469682" lon="2.658770"><ele></ele><time>2017-9-17T16:25:38Z</time></trkpt>
<trkpt lat="48.469763" lon="2.658782"><ele></ele><time>2017-9-17T16:25:41Z</time></trkpt>
<trkpt lat="48.469847" lon="2.658788"><ele></ele><time>2017-9-17T16:25:44Z</time></trkpt>
<trkpt lat="48.469892" lon="2.658792"><ele></ele><time>2017-9-17T16:25:47Z</time></trkpt>
<trkpt lat="48.469980" lon="2.658803"><ele></ele><time>2017-9-17T16:25:50Z</time></trkpt>
<trkpt lat="48.470055" lon="2.658817"><ele></ele><time>2017-9-17T16:25:53Z</time></trkpt>
<trkpt lat="48.470102" lon="2.658825"><ele></ele><time>2017-9-17T16:25:56Z</time></trkpt>
<trkpt lat="48.470152" lon="2.658832"><ele></ele><time>2017-9-17T16:25:59Z</time></trkpt>
<trkpt lat="48.470198" lon="2.658837"><ele></ele><time>2017-9-17T16:26:2Z</time></trkpt>
<trkpt lat="48.470243" lon="2.658842"><ele></ele><time>2017-9-17T16:26:5Z</time></trkpt>
<trkpt lat="48.470332" lon="2.658848"><ele></ele><time>2017-9-17T16:26:8Z</time></trkpt>
<trkpt lat="48.470373" lon="2.658850"><ele></ele><time>2017-9-17T16:26:11Z</time></trkpt>
<trkpt lat="48.470465" lon="2.658860"><ele></ele><time>2017-9-17T16:26:14Z</time></trkpt>
<trkpt lat="48.470542" lon="2.658872"><ele></ele><time>2017-9-17T16:26:17Z</time></trkpt>
<trkpt lat="48.470615" lon="2.658872"><ele></ele><time>2017-9-17T16:26:20Z</time></trkpt>
<trkpt lat="48.470698" lon="2.658875"><ele></ele><time>2017-9-17T16:26:23Z</time></trkpt>
<trkpt lat="48.470747" lon="2.658878"><ele></ele><time>2017-9-17T16:26:26Z</time></trkpt>
<trkpt lat="48.470833" lon="2.658890"><ele></ele><time>2017-9-17T16:26:29Z</time></trkpt>
<trkpt lat="48.470912" lon="2.658887"><ele></ele><time>2017-9-17T16:26:32Z</time></trkpt>
<trkpt lat="48.470990" lon="2.658873"><ele></ele><time>2017-9-17T16:26:35Z</time></trkpt>
<trkpt lat="48.471065" lon="2.658847"><ele></ele><time>2017-9-17T16:26:38Z</time></trkpt>
<trkpt lat="48.471143" lon="2.658810"><ele></ele><time>2017-9-17T16:26:41Z</time></trkpt>
<trkpt lat="48.471213" lon="2.658767"><ele></ele><time>2017-9-17T16:26:44Z</time></trkpt>
<trkpt lat="48.471288" lon="2.658715"><ele></ele><time>2017-9-17T16:26:47Z</time></trkpt>
<trkpt lat="48.471363" lon="2.658665"><ele></ele><time>2017-9-17T16:26:50Z</time></trkpt>
<trkpt lat="48.471438" lon="2.658608"><ele></ele><time>2017-9-17T16:26:53Z</time></trkpt>
<trkpt lat="48.471517" lon="2.658553"><ele></ele><time>2017-9-17T16:26:56Z</time></trkpt>
<trkpt lat="48.471583" lon="2.658478"><ele></ele><time>2017-9-17T16:26:59Z</time></trkpt>
<trkpt lat="48.471623" lon="2.658440"><ele></ele><time>2017-9-17T16:27:2Z</time></trkpt>
<trkpt lat="48.471693" lon="2.658368"><ele></ele><time>2017-9-17T16:27:5Z</time></trkpt>
<trkpt lat="48.471760" lon="2.658318"><ele></ele><time>2017-9-17T16:27:8Z</time></trkpt>
<trkpt lat="48.471818" lon="2.658263"><ele></ele><time>2017-9-17T16:27:11Z</time></trkpt>
<trkpt lat="48.471877" lon="2.658217"><ele></ele><time>2017-9-17T16:27:14Z</time></trkpt>
<trkpt lat="48.471940" lon="2.658168"><ele></ele><time>2017-9-17T16:27:17Z</time></trkpt>
<trkpt lat="48.472005" lon="2.658115"><ele></ele><time>2017-9-17T16:27:20Z</time></trkpt>
<trkpt lat="48.472068" lon="2.658053"><ele></ele><time>2017-9-17T16:27:23Z</time></trkpt>
<trkpt lat="48.472138" lon="2.657992"><ele></ele><time>2017-9-17T16:27:26Z</time></trkpt>
<trkpt lat="48.472210" lon="2.657935"><ele></ele><time>2017-9-17T16:27:29Z</time></trkpt>
<trkpt lat="48.472283" lon="2.657885"><ele></ele><time>2017-9-17T16:27:32Z</time></trkpt>
<trkpt lat="48.472363" lon="2.657845"><ele></ele><time>2017-9-17T16:27:35Z</time></trkpt>
<trkpt lat="48.472438" lon="2.657798"><ele></ele><time>2017-9-17T16:27:38Z</time></trkpt>
<trkpt lat="48.472503" lon="2.657725"><ele></ele><time>2017-9-17T16:27:41Z</time></trkpt>
<trkpt lat="48.472572" lon="2.657655"><ele></ele><time>2017-9-17T16:27:44Z</time></trkpt>
<trkpt lat="48.472638" lon="2.657598"><ele></ele><time>2017-9-17T16:27:47Z</time></trkpt>
<trkpt lat="48.472708" lon="2.657538"><ele></ele><time>2017-9-17T16:27:50Z</time></trkpt>
<trkpt lat="48.472778" lon="2.657482"><ele></ele><time>2017-9-17T16:27:53Z</time></trkpt>
<trkpt lat="48.472848" lon="2.657427"><ele></ele><time>2017-9-17T16:27:56Z</time></trkpt>
<trkpt lat="48.472915" lon="2.657368"><ele></ele><time>2017-9-17T16:27:59Z</time></trkpt>
<trkpt lat="48.472982" lon="2.657315"><ele></ele><time>2017-9-17T16:28:2Z</time></trkpt>
<trkpt lat="48.473047" lon="2.657275"><ele></ele><time>2017-9-17T16:28:5Z</time></trkpt>
<trkpt lat="48.473078" lon="2.657247"><ele></ele><time>2017-9-17T16:28:8Z</time></trkpt>
<trkpt lat="48.473127" lon="2.657188"><ele></ele><time>2017-9-17T16:28:11Z</time></trkpt>
<trkpt lat="48.473185" lon="2.657123"><ele></ele><time>2017-9-17T16:28:14Z</time></trkpt>
<trkpt lat="48.473253" lon="2.657060"><ele></ele><time>2017-9-17T16:28:17Z</time></trkpt>
<trkpt lat="48.473325" lon="2.656997"><ele></ele><time>2017-9-17T16:28:20Z</time></trkpt>
<trkpt lat="48.473393" lon="2.656927"><ele></ele><time>2017-9-17T16:28:23Z</time></trkpt>
<trkpt lat="48.473460" lon="2.656842"><ele></ele><time>2017-9-17T16:28:26Z</time></trkpt>
<trkpt lat="48.473538" lon="2.656787"><ele></ele><time>2017-9-17T16:28:29Z</time></trkpt>
<trkpt lat="48.473612" lon="2.656740"><ele></ele><time>2017-9-17T16:28:32Z</time></trkpt>
<trkpt lat="48.473685" lon="2.656693"><ele></ele><time>2017-9-17T16:28:35Z</time></trkpt>
<trkpt lat="48.473760" lon="2.656652"><ele></ele><time>2017-9-17T16:28:38Z</time></trkpt>
<trkpt lat="48.473820" lon="2.656592"><ele></ele><time>2017-9-17T16:28:41Z</time></trkpt>
<trkpt lat="48.473873" lon="2.656523"><ele></ele><time>2017-9-17T16:28:44Z</time></trkpt>
<trkpt lat="48.473913" lon="2.656490"><ele></ele><time>2017-9-17T16:28:47Z</time></trkpt>
<trkpt lat="48.473983" lon="2.656415"><ele></ele><time>2017-9-17T16:28:50Z</time></trkpt>
<trkpt lat="48.474055" lon="2.656355"><ele></ele><time>2017-9-17T16:28:53Z</time></trkpt>
<trkpt lat="48.474127" lon="2.656290"><ele></ele><time>2017-9-17T16:28:56Z</time></trkpt>
<trkpt lat="48.474200" lon="2.656233"><ele></ele><time>2017-9-17T16:28:59Z</time></trkpt>
<trkpt lat="48.474277" lon="2.656180"><ele></ele><time>2017-9-17T16:29:2Z</time></trkpt>
<trkpt lat="48.474320" lon="2.656155"><ele></ele><time>2017-9-17T16:29:5Z</time></trkpt>
<trkpt lat="48.474395" lon="2.656092"><ele></ele><time>2017-9-17T16:29:8Z</time></trkpt>
<trkpt lat="48.474435" lon="2.656057"><ele></ele><time>2017-9-17T16:29:11Z</time></trkpt>
<trkpt lat="48.474477" lon="2.656017"><ele></ele><time>2017-9-17T16:29:14Z</time></trkpt>
<trkpt lat="48.474523" lon="2.655972"><ele></ele><time>2017-9-17T16:29:17Z</time></trkpt>
<trkpt lat="48.474568" lon="2.655937"><ele></ele><time>2017-9-17T16:29:20Z</time></trkpt>
<trkpt lat="48.474612" lon="2.655903"><ele></ele><time>2017-9-17T16:29:23Z</time></trkpt>
<trkpt lat="48.474650" lon="2.655870"><ele></ele><time>2017-9-17T16:29:26Z</time></trkpt>
<trkpt lat="48.474727" lon="2.655808"><ele></ele><time>2017-9-17T16:29:29Z</time></trkpt>
<trkpt lat="48.474768" lon="2.655782"><ele></ele><time>2017-9-17T16:29:32Z</time></trkpt>
<trkpt lat="48.474815" lon="2.655743"><ele></ele><time>2017-9-17T16:29:35Z</time></trkpt>
<trkpt lat="48.474860" lon="2.655708"><ele></ele><time>2017-9-17T16:29:38Z</time></trkpt>
<trkpt lat="48.474903" lon="2.655668"><ele></ele><time>2017-9-17T16:29:41Z</time></trkpt>
<trkpt lat="48.474943" lon="2.655633"><ele></ele><time>2017-9-17T16:29:44Z</time></trkpt>
<trkpt lat="48.474982" lon="2.655600"><ele></ele><time>2017-9-17T16:29:47Z</time></trkpt>
<trkpt lat="48.475023" lon="2.655565"><ele></ele><time>2017-9-17T16:29:50Z</time></trkpt>
<trkpt lat="48.475093" lon="2.655503"><ele></ele><time>2017-9-17T16:29:53Z</time></trkpt>
<trkpt lat="48.475170" lon="2.655445"><ele></ele><time>2017-9-17T16:29:56Z</time></trkpt>
<trkpt lat="48.475210" lon="2.655417"><ele></ele><time>2017-9-17T16:29:59Z</time></trkpt>
<trkpt lat="48.475285" lon="2.655353"><ele></ele><time>2017-9-17T16:30:2Z</time></trkpt>
<trkpt lat="48.475362" lon="2.655283"><ele></ele><time>2017-9-17T16:30:5Z</time></trkpt>
<trkpt lat="48.475442" lon="2.655230"><ele></ele><time>2017-9-17T16:30:8Z</time></trkpt>
<trkpt lat="48.475525" lon="2.655178"><ele></ele><time>2017-9-17T16:30:11Z</time></trkpt>
<trkpt lat="48.475603" lon="2.655110"><ele></ele><time>2017-9-17T16:30:14Z</time></trkpt>
<trkpt lat="48.475682" lon="2.655032"><ele></ele><time>2017-9-17T16:30:17Z</time></trkpt>
<trkpt lat="48.475753" lon="2.654975"><ele></ele><time>2017-9-17T16:30:20Z</time></trkpt>
<trkpt lat="48.475827" lon="2.654930"><ele></ele><time>2017-9-17T16:30:23Z</time></trkpt>
<trkpt lat="48.475923" lon="2.654847"><ele></ele><time>2017-9-17T16:30:26Z</time></trkpt>
<trkpt lat="48.476030" lon="2.654773"><ele></ele><time>2017-9-17T16:30:29Z</time></trkpt>
<trkpt lat="48.476120" lon="2.654683"><ele></ele><time>2017-9-17T16:30:32Z</time></trkpt>
<trkpt lat="48.476200" lon="2.654627"><ele></ele><time>2017-9-17T16:30:35Z</time></trkpt>
<trkpt lat="48.476265" lon="2.654552"><ele></ele><time>2017-9-17T16:30:38Z</time></trkpt>
<trkpt lat="48.476330" lon="2.654473"><ele></ele><time>2017-9-17T16:30:41Z</time></trkpt>
<trkpt lat="48.476378" lon="2.654437"><ele></ele><time>2017-9-17T16:30:44Z</time></trkpt>
<trkpt lat="48.476455" lon="2.654370"><ele></ele><time>2017-9-17T16:30:47Z</time></trkpt>
<trkpt lat="48.476493" lon="2.654343"><ele></ele><time>2017-9-17T16:30:50Z</time></trkpt>
<trkpt lat="48.476535" lon="2.654300"><ele></ele><time>2017-9-17T16:30:53Z</time></trkpt>
<trkpt lat="48.476578" lon="2.654262"><ele></ele><time>2017-9-17T16:30:56Z</time></trkpt>
<trkpt lat="48.476617" lon="2.654222"><ele></ele><time>2017-9-17T16:30:59Z</time></trkpt>
<trkpt lat="48.476693" lon="2.654157"><ele></ele><time>2017-9-17T16:31:2Z</time></trkpt>
<trkpt lat="48.476752" lon="2.654095"><ele></ele><time>2017-9-17T16:31:5Z</time></trkpt>
<trkpt lat="48.476812" lon="2.654038"><ele></ele><time>2017-9-17T16:31:8Z</time></trkpt>
<trkpt lat="48.476880" lon="2.653982"><ele></ele><time>2017-9-17T16:31:11Z</time></trkpt>
<trkpt lat="48.476957" lon="2.653922"><ele></ele><time>2017-9-17T16:31:14Z</time></trkpt>
<trkpt lat="48.477037" lon="2.653867"><ele></ele><time>2017-9-17T16:31:17Z</time></trkpt>
<trkpt lat="48.477122" lon="2.653797"><ele></ele><time>2017-9-17T16:31:20Z</time></trkpt>
<trkpt lat="48.477205" lon="2.653732"><ele></ele><time>2017-9-17T16:31:23Z</time></trkpt>
<trkpt lat="48.477275" lon="2.653657"><ele></ele><time>2017-9-17T16:31:26Z</time></trkpt>
<trkpt lat="48.477350" lon="2.653600"><ele></ele><time>2017-9-17T16:31:29Z</time></trkpt>
<trkpt lat="48.477430" lon="2.653542"><ele></ele><time>2017-9-17T16:31:32Z</time></trkpt>
<trkpt lat="48.477508" lon="2.653483"><ele></ele><time>2017-9-17T16:31:35Z</time></trkpt>
<trkpt lat="48.477585" lon="2.653415"><ele></ele><time>2017-9-17T16:31:38Z</time></trkpt>
<trkpt lat="48.477662" lon="2.653350"><ele></ele><time>2017-9-17T16:31:41Z</time></trkpt>
<trkpt lat="48.477732" lon="2.653295"><ele></ele><time>2017-9-17T16:31:44Z</time></trkpt>
<trkpt lat="48.477805" lon="2.653225"><ele></ele><time>2017-9-17T16:31:47Z</time></trkpt>
<trkpt lat="48.477875" lon="2.653170"><ele></ele><time>2017-9-17T16:31:50Z</time></trkpt>
<trkpt lat="48.477913" lon="2.653127"><ele></ele><time>2017-9-17T16:31:53Z</time></trkpt>
<trkpt lat="48.477960" lon="2.653090"><ele></ele><time>2017-9-17T16:31:56Z</time></trkpt>
<trkpt lat="48.478032" lon="2.653030"><ele></ele><time>2017-9-17T16:31:59Z</time></trkpt>
<trkpt lat="48.478097" lon="2.652965"><ele></ele><time>2017-9-17T16:32:2Z</time></trkpt>
<trkpt lat="48.478167" lon="2.652915"><ele></ele><time>2017-9-17T16:32:5Z</time></trkpt>
<trkpt lat="48.478228" lon="2.652857"><ele></ele><time>2017-9-17T16:32:8Z</time></trkpt>
<trkpt lat="48.478272" lon="2.652812"><ele></ele><time>2017-9-17T16:32:11Z</time></trkpt>
<trkpt lat="48.478320" lon="2.652767"><ele></ele><time>2017-9-17T16:32:14Z</time></trkpt>
<trkpt lat="48.478367" lon="2.652737"><ele></ele><time>2017-9-17T16:32:17Z</time></trkpt>
<trkpt lat="48.478413" lon="2.652707"><ele></ele><time>2017-9-17T16:32:20Z</time></trkpt>
<trkpt lat="48.478455" lon="2.652672"><ele></ele><time>2017-9-17T16:32:23Z</time></trkpt>
<trkpt lat="48.478528" lon="2.652602"><ele></ele><time>2017-9-17T16:32:26Z</time></trkpt>
<trkpt lat="48.478582" lon="2.652515"><ele></ele><time>2017-9-17T16:32:29Z</time></trkpt>
<trkpt lat="48.478635" lon="2.652437"><ele></ele><time>2017-9-17T16:32:32Z</time></trkpt>
<trkpt lat="48.478697" lon="2.652373"><ele></ele><time>2017-9-17T16:32:35Z</time></trkpt>
<trkpt lat="48.478760" lon="2.652320"><ele></ele><time>2017-9-17T16:32:38Z</time></trkpt>
<trkpt lat="48.478812" lon="2.652283"><ele></ele><time>2017-9-17T16:32:41Z</time></trkpt>
<trkpt lat="48.478870" lon="2.652245"><ele></ele><time>2017-9-17T16:32:44Z</time></trkpt>
<trkpt lat="48.478938" lon="2.652202"><ele></ele><time>2017-9-17T16:32:47Z</time></trkpt>
<trkpt lat="48.479012" lon="2.652165"><ele></ele><time>2017-9-17T16:32:50Z</time></trkpt>
<trkpt lat="48.479082" lon="2.652113"><ele></ele><time>2017-9-17T16:32:53Z</time></trkpt>
<trkpt lat="48.479150" lon="2.652045"><ele></ele><time>2017-9-17T16:32:56Z</time></trkpt>
<trkpt lat="48.479178" lon="2.652035"><ele></ele><time>2017-9-17T16:32:59Z</time></trkpt>
<trkpt lat="48.479235" lon="2.651987"><ele></ele><time>2017-9-17T16:33:2Z</time></trkpt>
<trkpt lat="48.479288" lon="2.651955"><ele></ele><time>2017-9-17T16:33:5Z</time></trkpt>
<trkpt lat="48.479360" lon="2.651912"><ele></ele><time>2017-9-17T16:33:8Z</time></trkpt>
<trkpt lat="48.479430" lon="2.651860"><ele></ele><time>2017-9-17T16:33:11Z</time></trkpt>
<trkpt lat="48.479493" lon="2.651805"><ele></ele><time>2017-9-17T16:33:14Z</time></trkpt>
<trkpt lat="48.479563" lon="2.651758"><ele></ele><time>2017-9-17T16:33:17Z</time></trkpt>
<trkpt lat="48.479633" lon="2.651707"><ele></ele><time>2017-9-17T16:33:20Z</time></trkpt>
<trkpt lat="48.479703" lon="2.651660"><ele></ele><time>2017-9-17T16:33:23Z</time></trkpt>
<trkpt lat="48.479780" lon="2.651613"><ele></ele><time>2017-9-17T16:33:26Z</time></trkpt>
<trkpt lat="48.479818" lon="2.651580"><ele></ele><time>2017-9-17T16:33:29Z</time></trkpt>
<trkpt lat="48.479883" lon="2.651520"><ele></ele><time>2017-9-17T16:33:32Z</time></trkpt>
<trkpt lat="48.479933" lon="2.651463"><ele></ele><time>2017-9-17T16:33:35Z</time></trkpt>
<trkpt lat="48.479988" lon="2.651412"><ele></ele><time>2017-9-17T16:33:38Z</time></trkpt>
<trkpt lat="48.480048" lon="2.651367"><ele></ele><time>2017-9-17T16:33:41Z</time></trkpt>
<trkpt lat="48.480112" lon="2.651290"><ele></ele><time>2017-9-17T16:33:44Z</time></trkpt>
<trkpt lat="48.480168" lon="2.651233"><ele></ele><time>2017-9-17T16:33:47Z</time></trkpt>
<trkpt lat="48.480217" lon="2.651193"><ele></ele><time>2017-9-17T16:33:50Z</time></trkpt>
<trkpt lat="48.480267" lon="2.651145"><ele></ele><time>2017-9-17T16:33:53Z</time></trkpt>
<trkpt lat="48.480328" lon="2.651093"><ele></ele><time>2017-9-17T16:33:56Z</time></trkpt>
<trkpt lat="48.480383" lon="2.651037"><ele></ele><time>2017-9-17T16:33:59Z</time></trkpt>
<trkpt lat="48.480433" lon="2.650990"><ele></ele><time>2017-9-17T16:34:2Z</time></trkpt>
<trkpt lat="48.480498" lon="2.650915"><ele></ele><time>2017-9-17T16:34:5Z</time></trkpt>
<trkpt lat="48.480553" lon="2.650873"><ele></ele><time>2017-9-17T16:34:8Z</time></trkpt>
<trkpt lat="48.480630" lon="2.650807"><ele></ele><time>2017-9-17T16:34:11Z</time></trkpt>
<trkpt lat="48.480683" lon="2.650745"><ele></ele><time>2017-9-17T16:34:14Z</time></trkpt>
<trkpt lat="48.480738" lon="2.650697"><ele></ele><time>2017-9-17T16:34:17Z</time></trkpt>
<trkpt lat="48.480818" lon="2.650637"><ele></ele><time>2017-9-17T16:34:20Z</time></trkpt>
<trkpt lat="48.480880" lon="2.650580"><ele></ele><time>2017-9-17T16:34:23Z</time></trkpt>
<trkpt lat="48.480942" lon="2.650527"><ele></ele><time>2017-9-17T16:34:26Z</time></trkpt>
<trkpt lat="48.480965" lon="2.650502"><ele></ele><time>2017-9-17T16:34:29Z</time></trkpt>
<trkpt lat="48.481080" lon="2.650392"><ele></ele><time>2017-9-17T16:34:32Z</time></trkpt>
<trkpt lat="48.481162" lon="2.650340"><ele></ele><time>2017-9-17T16:34:35Z</time></trkpt>
<trkpt lat="48.481223" lon="2.650293"><ele></ele><time>2017-9-17T16:34:38Z</time></trkpt>
<trkpt lat="48.481290" lon="2.650232"><ele></ele><time>2017-9-17T16:34:41Z</time></trkpt>
<trkpt lat="48.481368" lon="2.650190"><ele></ele><time>2017-9-17T16:34:44Z</time></trkpt>
<trkpt lat="48.481437" lon="2.650123"><ele></ele><time>2017-9-17T16:34:47Z</time></trkpt>
<trkpt lat="48.481508" lon="2.650053"><ele></ele><time>2017-9-17T16:34:50Z</time></trkpt>
<trkpt lat="48.481575" lon="2.649995"><ele></ele><time>2017-9-17T16:34:53Z</time></trkpt>
<trkpt lat="48.481635" lon="2.649947"><ele></ele><time>2017-9-17T16:34:56Z</time></trkpt>
<trkpt lat="48.481707" lon="2.649880"><ele></ele><time>2017-9-17T16:34:59Z</time></trkpt>
<trkpt lat="48.481770" lon="2.649817"><ele></ele><time>2017-9-17T16:35:2Z</time></trkpt>
<trkpt lat="48.481825" lon="2.649780"><ele></ele><time>2017-9-17T16:35:5Z</time></trkpt>
<trkpt lat="48.481905" lon="2.649723"><ele></ele><time>2017-9-17T16:35:8Z</time></trkpt>
<trkpt lat="48.481950" lon="2.649682"><ele></ele><time>2017-9-17T16:35:11Z</time></trkpt>
<trkpt lat="48.482023" lon="2.649617"><ele></ele><time>2017-9-17T16:35:14Z</time></trkpt>
<trkpt lat="48.482102" lon="2.649552"><ele></ele><time>2017-9-17T16:35:17Z</time></trkpt>
<trkpt lat="48.482143" lon="2.649518"><ele></ele><time>2017-9-17T16:35:20Z</time></trkpt>
<trkpt lat="48.482223" lon="2.649463"><ele></ele><time>2017-9-17T16:35:23Z</time></trkpt>
<trkpt lat="48.482288" lon="2.649410"><ele></ele><time>2017-9-17T16:35:26Z</time></trkpt>
<trkpt lat="48.482353" lon="2.649353"><ele></ele><time>2017-9-17T16:35:29Z</time></trkpt>
<trkpt lat="48.482420" lon="2.649288"><ele></ele><time>2017-9-17T16:35:32Z</time></trkpt>
<trkpt lat="48.482483" lon="2.649230"><ele></ele><time>2017-9-17T16:35:35Z</time></trkpt>
<trkpt lat="48.482552" lon="2.649173"><ele></ele><time>2017-9-17T16:35:38Z</time></trkpt>
<trkpt lat="48.482618" lon="2.649102"><ele></ele><time>2017-9-17T16:35:41Z</time></trkpt>
<trkpt lat="48.482673" lon="2.649058"><ele></ele><time>2017-9-17T16:35:44Z</time></trkpt>
<trkpt lat="48.482728" lon="2.649012"><ele></ele><time>2017-9-17T16:35:47Z</time></trkpt>
<trkpt lat="48.482787" lon="2.648960"><ele></ele><time>2017-9-17T16:35:50Z</time></trkpt>
<trkpt lat="48.482842" lon="2.648910"><ele></ele><time>2017-9-17T16:35:53Z</time></trkpt>
<trkpt lat="48.482873" lon="2.648892"><ele></ele><time>2017-9-17T16:35:56Z</time></trkpt>
<trkpt lat="48.482928" lon="2.648843"><ele></ele><time>2017-9-17T16:35:59Z</time></trkpt>
<trkpt lat="48.482987" lon="2.648795"><ele></ele><time>2017-9-17T16:36:2Z</time></trkpt>
<trkpt lat="48.483050" lon="2.648737"><ele></ele><time>2017-9-17T16:36:5Z</time></trkpt>
<trkpt lat="48.483117" lon="2.648675"><ele></ele><time>2017-9-17T16:36:8Z</time></trkpt>
<trkpt lat="48.483185" lon="2.648628"><ele></ele><time>2017-9-17T16:36:11Z</time></trkpt>
<trkpt lat="48.483252" lon="2.648572"><ele></ele><time>2017-9-17T16:36:14Z</time></trkpt>
<trkpt lat="48.483312" lon="2.648518"><ele></ele><time>2017-9-17T16:36:17Z</time></trkpt>
<trkpt lat="48.483375" lon="2.648465"><ele></ele><time>2017-9-17T16:36:20Z</time></trkpt>
<trkpt lat="48.483442" lon="2.648423"><ele></ele><time>2017-9-17T16:36:23Z</time></trkpt>
<trkpt lat="48.483510" lon="2.648368"><ele></ele><time>2017-9-17T16:36:26Z</time></trkpt>
<trkpt lat="48.483578" lon="2.648308"><ele></ele><time>2017-9-17T16:36:29Z</time></trkpt>
<trkpt lat="48.483647" lon="2.648250"><ele></ele><time>2017-9-17T16:36:32Z</time></trkpt>
<trkpt lat="48.483722" lon="2.648177"><ele></ele><time>2017-9-17T16:36:35Z</time></trkpt>
<trkpt lat="48.483797" lon="2.648105"><ele></ele><time>2017-9-17T16:36:38Z</time></trkpt>
<trkpt lat="48.483872" lon="2.648038"><ele></ele><time>2017-9-17T16:36:41Z</time></trkpt>
<trkpt lat="48.483908" lon="2.648008"><ele></ele><time>2017-9-17T16:36:44Z</time></trkpt>
<trkpt lat="48.484020" lon="2.647930"><ele></ele><time>2017-9-17T16:36:47Z</time></trkpt>
<trkpt lat="48.484093" lon="2.647868"><ele></ele><time>2017-9-17T16:36:50Z</time></trkpt>
<trkpt lat="48.484172" lon="2.647808"><ele></ele><time>2017-9-17T16:36:53Z</time></trkpt>
<trkpt lat="48.484212" lon="2.647777"><ele></ele><time>2017-9-17T16:36:56Z</time></trkpt>
<trkpt lat="48.484252" lon="2.647742"><ele></ele><time>2017-9-17T16:36:59Z</time></trkpt>
<trkpt lat="48.484292" lon="2.647707"><ele></ele><time>2017-9-17T16:37:2Z</time></trkpt>
<trkpt lat="48.484332" lon="2.647670"><ele></ele><time>2017-9-17T16:37:5Z</time></trkpt>
<trkpt lat="48.484373" lon="2.647632"><ele></ele><time>2017-9-17T16:37:8Z</time></trkpt>
<trkpt lat="48.484415" lon="2.647598"><ele></ele><time>2017-9-17T16:37:11Z</time></trkpt>
<trkpt lat="48.484457" lon="2.647563"><ele></ele><time>2017-9-17T16:37:14Z</time></trkpt>
<trkpt lat="48.484500" lon="2.647527"><ele></ele><time>2017-9-17T16:37:17Z</time></trkpt>
<trkpt lat="48.484543" lon="2.647490"><ele></ele><time>2017-9-17T16:37:20Z</time></trkpt>
<trkpt lat="48.484587" lon="2.647452"><ele></ele><time>2017-9-17T16:37:23Z</time></trkpt>
<trkpt lat="48.484630" lon="2.647413"><ele></ele><time>2017-9-17T16:37:26Z</time></trkpt>
<trkpt lat="48.484720" lon="2.647335"><ele></ele><time>2017-9-17T16:37:29Z</time></trkpt>
<trkpt lat="48.484813" lon="2.647253"><ele></ele><time>2017-9-17T16:37:32Z</time></trkpt>
<trkpt lat="48.484910" lon="2.647173"><ele></ele><time>2017-9-17T16:37:35Z</time></trkpt>
<trkpt lat="48.485007" lon="2.647095"><ele></ele><time>2017-9-17T16:37:38Z</time></trkpt>
<trkpt lat="48.485108" lon="2.647018"><ele></ele><time>2017-9-17T16:37:41Z</time></trkpt>
<trkpt lat="48.485160" lon="2.646980"><ele></ele><time>2017-9-17T16:37:44Z</time></trkpt>
<trkpt lat="48.485213" lon="2.646938"><ele></ele><time>2017-9-17T16:37:47Z</time></trkpt>
<trkpt lat="48.485317" lon="2.646843"><ele></ele><time>2017-9-17T16:37:50Z</time></trkpt>
<trkpt lat="48.485367" lon="2.646795"><ele></ele><time>2017-9-17T16:37:53Z</time></trkpt>
<trkpt lat="48.485417" lon="2.646745"><ele></ele><time>2017-9-17T16:37:56Z</time></trkpt>
<trkpt lat="48.485468" lon="2.646698"><ele></ele><time>2017-9-17T16:37:59Z</time></trkpt>
<trkpt lat="48.485522" lon="2.646650"><ele></ele><time>2017-9-17T16:38:2Z</time></trkpt>
<trkpt lat="48.485577" lon="2.646603"><ele></ele><time>2017-9-17T16:38:5Z</time></trkpt>
<trkpt lat="48.485632" lon="2.646558"><ele></ele><time>2017-9-17T16:38:8Z</time></trkpt>
<trkpt lat="48.485688" lon="2.646513"><ele></ele><time>2017-9-17T16:38:11Z</time></trkpt>
<trkpt lat="48.485745" lon="2.646468"><ele></ele><time>2017-9-17T16:38:14Z</time></trkpt>
<trkpt lat="48.485800" lon="2.646428"><ele></ele><time>2017-9-17T16:38:17Z</time></trkpt>
<trkpt lat="48.485857" lon="2.646392"><ele></ele><time>2017-9-17T16:38:20Z</time></trkpt>
<trkpt lat="48.485907" lon="2.646357"><ele></ele><time>2017-9-17T16:38:23Z</time></trkpt>
<trkpt lat="48.485958" lon="2.646310"><ele></ele><time>2017-9-17T16:38:26Z</time></trkpt>
<trkpt lat="48.486015" lon="2.646258"><ele></ele><time>2017-9-17T16:38:29Z</time></trkpt>
<trkpt lat="48.486068" lon="2.646198"><ele></ele><time>2017-9-17T16:38:32Z</time></trkpt>
<trkpt lat="48.486125" lon="2.646139"><ele></ele><time>2017-9-17T16:38:35Z</time></trkpt>
<trkpt lat="48.486178" lon="2.646083"><ele></ele><time>2017-9-17T16:38:38Z</time></trkpt>
<trkpt lat="48.486232" lon="2.646033"><ele></ele><time>2017-9-17T16:38:41Z</time></trkpt>
<trkpt lat="48.486283" lon="2.645985"><ele></ele><time>2017-9-17T16:38:44Z</time></trkpt>
<trkpt lat="48.486330" lon="2.645947"><ele></ele><time>2017-9-17T16:38:47Z</time></trkpt>
<trkpt lat="48.486373" lon="2.645915"><ele></ele><time>2017-9-17T16:38:50Z</time></trkpt>
<trkpt lat="48.486415" lon="2.645878"><ele></ele><time>2017-9-17T16:38:53Z</time></trkpt>
<trkpt lat="48.486492" lon="2.645797"><ele></ele><time>2017-9-17T16:38:56Z</time></trkpt>
<trkpt lat="48.486563" lon="2.645738"><ele></ele><time>2017-9-17T16:38:59Z</time></trkpt>
<trkpt lat="48.486638" lon="2.645673"><ele></ele><time>2017-9-17T16:39:2Z</time></trkpt>
<trkpt lat="48.486713" lon="2.645607"><ele></ele><time>2017-9-17T16:39:5Z</time></trkpt>
<trkpt lat="48.486750" lon="2.645577"><ele></ele><time>2017-9-17T16:39:8Z</time></trkpt>
<trkpt lat="48.486867" lon="2.645482"><ele></ele><time>2017-9-17T16:39:11Z</time></trkpt>
<trkpt lat="48.486937" lon="2.645428"><ele></ele><time>2017-9-17T16:39:14Z</time></trkpt>
<trkpt lat="48.487012" lon="2.645373"><ele></ele><time>2017-9-17T16:39:17Z</time></trkpt>
<trkpt lat="48.487083" lon="2.645317"><ele></ele><time>2017-9-17T16:39:20Z</time></trkpt>
<trkpt lat="48.487160" lon="2.645257"><ele></ele><time>2017-9-17T16:39:23Z</time></trkpt>
<trkpt lat="48.487237" lon="2.645183"><ele></ele><time>2017-9-17T16:39:26Z</time></trkpt>
<trkpt lat="48.487317" lon="2.645115"><ele></ele><time>2017-9-17T16:39:29Z</time></trkpt>
<trkpt lat="48.487397" lon="2.645040"><ele></ele><time>2017-9-17T16:39:32Z</time></trkpt>
<trkpt lat="48.487435" lon="2.645002"><ele></ele><time>2017-9-17T16:39:35Z</time></trkpt>
<trkpt lat="48.487502" lon="2.644915"><ele></ele><time>2017-9-17T16:39:38Z</time></trkpt>
<trkpt lat="48.487557" lon="2.644843"><ele></ele><time>2017-9-17T16:39:41Z</time></trkpt>
<trkpt lat="48.487620" lon="2.644808"><ele></ele><time>2017-9-17T16:39:44Z</time></trkpt>
<trkpt lat="48.487678" lon="2.644767"><ele></ele><time>2017-9-17T16:39:47Z</time></trkpt>
<trkpt lat="48.487740" lon="2.644713"><ele></ele><time>2017-9-17T16:39:50Z</time></trkpt>
<trkpt lat="48.487805" lon="2.644655"><ele></ele><time>2017-9-17T16:39:53Z</time></trkpt>
<trkpt lat="48.487870" lon="2.644600"><ele></ele><time>2017-9-17T16:39:56Z</time></trkpt>
<trkpt lat="48.487938" lon="2.644543"><ele></ele><time>2017-9-17T16:39:59Z</time></trkpt>
<trkpt lat="48.488008" lon="2.644478"><ele></ele><time>2017-9-17T16:40:2Z</time></trkpt>
<trkpt lat="48.488077" lon="2.644410"><ele></ele><time>2017-9-17T16:40:5Z</time></trkpt>
<trkpt lat="48.488147" lon="2.644342"><ele></ele><time>2017-9-17T16:40:8Z</time></trkpt>
<trkpt lat="48.488220" lon="2.644273"><ele></ele><time>2017-9-17T16:40:11Z</time></trkpt>
<trkpt lat="48.488287" lon="2.644213"><ele></ele><time>2017-9-17T16:40:14Z</time></trkpt>
<trkpt lat="48.488365" lon="2.644153"><ele></ele><time>2017-9-17T16:40:17Z</time></trkpt>
<trkpt lat="48.488440" lon="2.644093"><ele></ele><time>2017-9-17T16:40:20Z</time></trkpt>
<trkpt lat="48.488512" lon="2.644055"><ele></ele><time>2017-9-17T16:40:23Z</time></trkpt>
<trkpt lat="48.488582" lon="2.644030"><ele></ele><time>2017-9-17T16:40:26Z</time></trkpt>
<trkpt lat="48.488637" lon="2.643983"><ele></ele><time>2017-9-17T16:40:29Z</time></trkpt>
<trkpt lat="48.488698" lon="2.643950"><ele></ele><time>2017-9-17T16:40:32Z</time></trkpt>
<trkpt lat="48.488760" lon="2.643922"><ele></ele><time>2017-9-17T16:40:35Z</time></trkpt>
<trkpt lat="48.488823" lon="2.643890"><ele></ele><time>2017-9-17T16:40:38Z</time></trkpt>
<trkpt lat="48.488860" lon="2.643877"><ele></ele><time>2017-9-17T16:40:41Z</time></trkpt>
<trkpt lat="48.488968" lon="2.643832"><ele></ele><time>2017-9-17T16:40:44Z</time></trkpt>
<trkpt lat="48.489045" lon="2.643805"><ele></ele><time>2017-9-17T16:40:47Z</time></trkpt>
<trkpt lat="48.489118" lon="2.643770"><ele></ele><time>2017-9-17T16:40:50Z</time></trkpt>
<trkpt lat="48.489197" lon="2.643737"><ele></ele><time>2017-9-17T16:40:53Z</time></trkpt>
<trkpt lat="48.489272" lon="2.643707"><ele></ele><time>2017-9-17T16:40:56Z</time></trkpt>
<trkpt lat="48.489343" lon="2.643688"><ele></ele><time>2017-9-17T16:40:59Z</time></trkpt>
<trkpt lat="48.489408" lon="2.643663"><ele></ele><time>2017-9-17T16:41:2Z</time></trkpt>
<trkpt lat="48.489485" lon="2.643623"><ele></ele><time>2017-9-17T16:41:5Z</time></trkpt>
<trkpt lat="48.489557" lon="2.643580"><ele></ele><time>2017-9-17T16:41:8Z</time></trkpt>
<trkpt lat="48.489635" lon="2.643532"><ele></ele><time>2017-9-17T16:41:11Z</time></trkpt>
<trkpt lat="48.489682" lon="2.643485"><ele></ele><time>2017-9-17T16:41:14Z</time></trkpt>
<trkpt lat="48.489748" lon="2.643397"><ele></ele><time>2017-9-17T16:41:17Z</time></trkpt>
<trkpt lat="48.489825" lon="2.643330"><ele></ele><time>2017-9-17T16:41:20Z</time></trkpt>
<trkpt lat="48.489872" lon="2.643252"><ele></ele><time>2017-9-17T16:41:23Z</time></trkpt>
<trkpt lat="48.489938" lon="2.643180"><ele></ele><time>2017-9-17T16:41:26Z</time></trkpt>
<trkpt lat="48.489985" lon="2.643115"><ele></ele><time>2017-9-17T16:41:29Z</time></trkpt>
<trkpt lat="48.490033" lon="2.643052"><ele></ele><time>2017-9-17T16:41:32Z</time></trkpt>
<trkpt lat="48.490082" lon="2.642982"><ele></ele><time>2017-9-17T16:41:35Z</time></trkpt>
<trkpt lat="48.490130" lon="2.642925"><ele></ele><time>2017-9-17T16:41:38Z</time></trkpt>
<trkpt lat="48.490180" lon="2.642865"><ele></ele><time>2017-9-17T16:41:41Z</time></trkpt>
<trkpt lat="48.490233" lon="2.642810"><ele></ele><time>2017-9-17T16:41:44Z</time></trkpt>
<trkpt lat="48.490287" lon="2.642752"><ele></ele><time>2017-9-17T16:41:47Z</time></trkpt>
<trkpt lat="48.490337" lon="2.642683"><ele></ele><time>2017-9-17T16:41:50Z</time></trkpt>
<trkpt lat="48.490387" lon="2.642620"><ele></ele><time>2017-9-17T16:41:53Z</time></trkpt>
<trkpt lat="48.490447" lon="2.642553"><ele></ele><time>2017-9-17T16:41:56Z</time></trkpt>
<trkpt lat="48.490512" lon="2.642482"><ele></ele><time>2017-9-17T16:41:59Z</time></trkpt>
<trkpt lat="48.490583" lon="2.642402"><ele></ele><time>2017-9-17T16:42:2Z</time></trkpt>
<trkpt lat="48.490627" lon="2.642352"><ele></ele><time>2017-9-17T16:42:5Z</time></trkpt>
<trkpt lat="48.490663" lon="2.642302"><ele></ele><time>2017-9-17T16:42:8Z</time></trkpt>
<trkpt lat="48.490700" lon="2.642247"><ele></ele><time>2017-9-17T16:42:11Z</time></trkpt>
<trkpt lat="48.490735" lon="2.642198"><ele></ele><time>2017-9-17T16:42:14Z</time></trkpt>
<trkpt lat="48.490772" lon="2.642150"><ele></ele><time>2017-9-17T16:42:17Z</time></trkpt>
<trkpt lat="48.490807" lon="2.642103"><ele></ele><time>2017-9-17T16:42:20Z</time></trkpt>
<trkpt lat="48.490847" lon="2.642052"><ele></ele><time>2017-9-17T16:42:23Z</time></trkpt>
<trkpt lat="48.490883" lon="2.642003"><ele></ele><time>2017-9-17T16:42:26Z</time></trkpt>
<trkpt lat="48.490920" lon="2.641955"><ele></ele><time>2017-9-17T16:42:29Z</time></trkpt>
<trkpt lat="48.490960" lon="2.641913"><ele></ele><time>2017-9-17T16:42:32Z</time></trkpt>
<trkpt lat="48.491000" lon="2.641862"><ele></ele><time>2017-9-17T16:42:35Z</time></trkpt>
<trkpt lat="48.491030" lon="2.641810"><ele></ele><time>2017-9-17T16:42:38Z</time></trkpt>
<trkpt lat="48.491063" lon="2.641762"><ele></ele><time>2017-9-17T16:42:41Z</time></trkpt>
<trkpt lat="48.491098" lon="2.641715"><ele></ele><time>2017-9-17T16:42:44Z</time></trkpt>
<trkpt lat="48.491132" lon="2.641665"><ele></ele><time>2017-9-17T16:42:47Z</time></trkpt>
<trkpt lat="48.491203" lon="2.641600"><ele></ele><time>2017-9-17T16:42:50Z</time></trkpt>
<trkpt lat="48.491272" lon="2.641530"><ele></ele><time>2017-9-17T16:42:53Z</time></trkpt>
<trkpt lat="48.491323" lon="2.641457"><ele></ele><time>2017-9-17T16:42:56Z</time></trkpt>
<trkpt lat="48.491367" lon="2.641387"><ele></ele><time>2017-9-17T16:42:59Z</time></trkpt>
<trkpt lat="48.491432" lon="2.641293"><ele></ele><time>2017-9-17T16:43:2Z</time></trkpt>
<trkpt lat="48.491480" lon="2.641223"><ele></ele><time>2017-9-17T16:43:5Z</time></trkpt>
<trkpt lat="48.491532" lon="2.641160"><ele></ele><time>2017-9-17T16:43:8Z</time></trkpt>
<trkpt lat="48.491593" lon="2.641088"><ele></ele><time>2017-9-17T16:43:11Z</time></trkpt>
<trkpt lat="48.491662" lon="2.641005"><ele></ele><time>2017-9-17T16:43:14Z</time></trkpt>
<trkpt lat="48.491730" lon="2.640925"><ele></ele><time>2017-9-17T16:43:17Z</time></trkpt>
<trkpt lat="48.491803" lon="2.640853"><ele></ele><time>2017-9-17T16:43:20Z</time></trkpt>
<trkpt lat="48.491872" lon="2.640772"><ele></ele><time>2017-9-17T16:43:23Z</time></trkpt>
<trkpt lat="48.491945" lon="2.640682"><ele></ele><time>2017-9-17T16:43:26Z</time></trkpt>
<trkpt lat="48.491980" lon="2.640630"><ele></ele><time>2017-9-17T16:43:29Z</time></trkpt>
<trkpt lat="48.492017" lon="2.640582"><ele></ele><time>2017-9-17T16:43:32Z</time></trkpt>
<trkpt lat="48.492080" lon="2.640497"><ele></ele><time>2017-9-17T16:43:35Z</time></trkpt>
<trkpt lat="48.492147" lon="2.640417"><ele></ele><time>2017-9-17T16:43:38Z</time></trkpt>
<trkpt lat="48.492215" lon="2.640348"><ele></ele><time>2017-9-17T16:43:41Z</time></trkpt>
<trkpt lat="48.492245" lon="2.640298"><ele></ele><time>2017-9-17T16:43:44Z</time></trkpt>
<trkpt lat="48.492282" lon="2.640238"><ele></ele><time>2017-9-17T16:43:47Z</time></trkpt>
<trkpt lat="48.492315" lon="2.640190"><ele></ele><time>2017-9-17T16:43:50Z</time></trkpt>
<trkpt lat="48.492345" lon="2.640138"><ele></ele><time>2017-9-17T16:43:53Z</time></trkpt>
<trkpt lat="48.492380" lon="2.640095"><ele></ele><time>2017-9-17T16:43:56Z</time></trkpt>
<trkpt lat="48.492415" lon="2.640047"><ele></ele><time>2017-9-17T16:43:59Z</time></trkpt>
<trkpt lat="48.492452" lon="2.640002"><ele></ele><time>2017-9-17T16:44:2Z</time></trkpt>
<trkpt lat="48.492522" lon="2.639920"><ele></ele><time>2017-9-17T16:44:5Z</time></trkpt>
<trkpt lat="48.492555" lon="2.639883"><ele></ele><time>2017-9-17T16:44:8Z</time></trkpt>
<trkpt lat="48.492658" lon="2.639778"><ele></ele><time>2017-9-17T16:44:11Z</time></trkpt>
<trkpt lat="48.492695" lon="2.639737"><ele></ele><time>2017-9-17T16:44:14Z</time></trkpt>
<trkpt lat="48.492733" lon="2.639692"><ele></ele><time>2017-9-17T16:44:17Z</time></trkpt>
<trkpt lat="48.492815" lon="2.639610"><ele></ele><time>2017-9-17T16:44:20Z</time></trkpt>
<trkpt lat="48.492905" lon="2.639552"><ele></ele><time>2017-9-17T16:44:23Z</time></trkpt>
<trkpt lat="48.492987" lon="2.639507"><ele></ele><time>2017-9-17T16:44:26Z</time></trkpt>
<trkpt lat="48.493027" lon="2.639473"><ele></ele><time>2017-9-17T16:44:29Z</time></trkpt>
<trkpt lat="48.493068" lon="2.639423"><ele></ele><time>2017-9-17T16:44:32Z</time></trkpt>
<trkpt lat="48.493110" lon="2.639362"><ele></ele><time>2017-9-17T16:44:35Z</time></trkpt>
<trkpt lat="48.493140" lon="2.639283"><ele></ele><time>2017-9-17T16:44:38Z</time></trkpt>
<trkpt lat="48.493173" lon="2.639218"><ele></ele><time>2017-9-17T16:44:41Z</time></trkpt>
<trkpt lat="48.493203" lon="2.639152"><ele></ele><time>2017-9-17T16:44:44Z</time></trkpt>
<trkpt lat="48.493238" lon="2.639097"><ele></ele><time>2017-9-17T16:44:47Z</time></trkpt>
<trkpt lat="48.493277" lon="2.639040"><ele></ele><time>2017-9-17T16:44:50Z</time></trkpt>
<trkpt lat="48.493315" lon="2.638982"><ele></ele><time>2017-9-17T16:44:53Z</time></trkpt>
<trkpt lat="48.493353" lon="2.638930"><ele></ele><time>2017-9-17T16:44:56Z</time></trkpt>
<trkpt lat="48.493392" lon="2.638882"><ele></ele><time>2017-9-17T16:44:59Z</time></trkpt>
<trkpt lat="48.493430" lon="2.638832"><ele></ele><time>2017-9-17T16:45:2Z</time></trkpt>
<trkpt lat="48.493470" lon="2.638780"><ele></ele><time>2017-9-17T16:45:5Z</time></trkpt>
<trkpt lat="48.493510" lon="2.638730"><ele></ele><time>2017-9-17T16:45:8Z</time></trkpt>
<trkpt lat="48.493552" lon="2.638678"><ele></ele><time>2017-9-17T16:45:11Z</time></trkpt>
<trkpt lat="48.493635" lon="2.638573"><ele></ele><time>2017-9-17T16:45:14Z</time></trkpt>
<trkpt lat="48.493720" lon="2.638467"><ele></ele><time>2017-9-17T16:45:17Z</time></trkpt>
<trkpt lat="48.493805" lon="2.638355"><ele></ele><time>2017-9-17T16:45:20Z</time></trkpt>
<trkpt lat="48.493892" lon="2.638245"><ele></ele><time>2017-9-17T16:45:23Z</time></trkpt>
<trkpt lat="48.493935" lon="2.638190"><ele></ele><time>2017-9-17T16:45:26Z</time></trkpt>
<trkpt lat="48.493978" lon="2.638137"><ele></ele><time>2017-9-17T16:45:29Z</time></trkpt>
<trkpt lat="48.494022" lon="2.638082"><ele></ele><time>2017-9-17T16:45:32Z</time></trkpt>
<trkpt lat="48.494065" lon="2.638028"><ele></ele><time>2017-9-17T16:45:35Z</time></trkpt>
<trkpt lat="48.494107" lon="2.637975"><ele></ele><time>2017-9-17T16:45:38Z</time></trkpt>
<trkpt lat="48.494150" lon="2.637925"><ele></ele><time>2017-9-17T16:45:41Z</time></trkpt>
<trkpt lat="48.494193" lon="2.637875"><ele></ele><time>2017-9-17T16:45:44Z</time></trkpt>
<trkpt lat="48.494237" lon="2.637823"><ele></ele><time>2017-9-17T16:45:47Z</time></trkpt>
<trkpt lat="48.494280" lon="2.637772"><ele></ele><time>2017-9-17T16:45:50Z</time></trkpt>
<trkpt lat="48.494322" lon="2.637718"><ele></ele><time>2017-9-17T16:45:53Z</time></trkpt>
<trkpt lat="48.494363" lon="2.637668"><ele></ele><time>2017-9-17T16:45:56Z</time></trkpt>
<trkpt lat="48.494407" lon="2.637620"><ele></ele><time>2017-9-17T16:45:59Z</time></trkpt>
<trkpt lat="48.494450" lon="2.637570"><ele></ele><time>2017-9-17T16:46:2Z</time></trkpt>
<trkpt lat="48.494493" lon="2.637517"><ele></ele><time>2017-9-17T16:46:5Z</time></trkpt>
<trkpt lat="48.494537" lon="2.637462"><ele></ele><time>2017-9-17T16:46:8Z</time></trkpt>
<trkpt lat="48.494578" lon="2.637407"><ele></ele><time>2017-9-17T16:46:11Z</time></trkpt>
<trkpt lat="48.494620" lon="2.637353"><ele></ele><time>2017-9-17T16:46:14Z</time></trkpt>
<trkpt lat="48.494662" lon="2.637302"><ele></ele><time>2017-9-17T16:46:17Z</time></trkpt>
<trkpt lat="48.494703" lon="2.637250"><ele></ele><time>2017-9-17T16:46:20Z</time></trkpt>
<trkpt lat="48.494743" lon="2.637198"><ele></ele><time>2017-9-17T16:46:23Z</time></trkpt>
<trkpt lat="48.494785" lon="2.637148"><ele></ele><time>2017-9-17T16:46:26Z</time></trkpt>
<trkpt lat="48.494867" lon="2.637050"><ele></ele><time>2017-9-17T16:46:29Z</time></trkpt>
<trkpt lat="48.494908" lon="2.636998"><ele></ele><time>2017-9-17T16:46:32Z</time></trkpt>
<trkpt lat="48.494948" lon="2.636945"><ele></ele><time>2017-9-17T16:46:35Z</time></trkpt>
<trkpt lat="48.494990" lon="2.636895"><ele></ele><time>2017-9-17T16:46:38Z</time></trkpt>
<trkpt lat="48.495033" lon="2.636843"><ele></ele><time>2017-9-17T16:46:41Z</time></trkpt>
<trkpt lat="48.495075" lon="2.636790"><ele></ele><time>2017-9-17T16:46:44Z</time></trkpt>
<trkpt lat="48.495117" lon="2.636735"><ele></ele><time>2017-9-17T16:46:47Z</time></trkpt>
<trkpt lat="48.495157" lon="2.636682"><ele></ele><time>2017-9-17T16:46:50Z</time></trkpt>
<trkpt lat="48.495198" lon="2.636630"><ele></ele><time>2017-9-17T16:46:53Z</time></trkpt>
<trkpt lat="48.495242" lon="2.636580"><ele></ele><time>2017-9-17T16:46:56Z</time></trkpt>
<trkpt lat="48.495285" lon="2.636530"><ele></ele><time>2017-9-17T16:46:59Z</time></trkpt>
<trkpt lat="48.495328" lon="2.636477"><ele></ele><time>2017-9-17T16:47:2Z</time></trkpt>
<trkpt lat="48.495373" lon="2.636422"><ele></ele><time>2017-9-17T16:47:5Z</time></trkpt>
<trkpt lat="48.495417" lon="2.636367"><ele></ele><time>2017-9-17T16:47:8Z</time></trkpt>
<trkpt lat="48.495462" lon="2.636310"><ele></ele><time>2017-9-17T16:47:11Z</time></trkpt>
<trkpt lat="48.495505" lon="2.636253"><ele></ele><time>2017-9-17T16:47:14Z</time></trkpt>
<trkpt lat="48.495548" lon="2.636197"><ele></ele><time>2017-9-17T16:47:17Z</time></trkpt>
<trkpt lat="48.495590" lon="2.636142"><ele></ele><time>2017-9-17T16:47:20Z</time></trkpt>
<trkpt lat="48.495632" lon="2.636088"><ele></ele><time>2017-9-17T16:47:23Z</time></trkpt>
<trkpt lat="48.495675" lon="2.636042"><ele></ele><time>2017-9-17T16:47:26Z</time></trkpt>
<trkpt lat="48.495718" lon="2.635990"><ele></ele><time>2017-9-17T16:47:29Z</time></trkpt>
<trkpt lat="48.495758" lon="2.635938"><ele></ele><time>2017-9-17T16:47:32Z</time></trkpt>
<trkpt lat="48.495800" lon="2.635888"><ele></ele><time>2017-9-17T16:47:35Z</time></trkpt>
<trkpt lat="48.495842" lon="2.635838"><ele></ele><time>2017-9-17T16:47:38Z</time></trkpt>
<trkpt lat="48.495920" lon="2.635740"><ele></ele><time>2017-9-17T16:47:41Z</time></trkpt>
<trkpt lat="48.495992" lon="2.635658"><ele></ele><time>2017-9-17T16:47:44Z</time></trkpt>
<trkpt lat="48.496033" lon="2.635617"><ele></ele><time>2017-9-17T16:47:47Z</time></trkpt>
<trkpt lat="48.496075" lon="2.635563"><ele></ele><time>2017-9-17T16:47:50Z</time></trkpt>
<trkpt lat="48.496117" lon="2.635510"><ele></ele><time>2017-9-17T16:47:53Z</time></trkpt>
<trkpt lat="48.496155" lon="2.635453"><ele></ele><time>2017-9-17T16:47:56Z</time></trkpt>
<trkpt lat="48.496195" lon="2.635402"><ele></ele><time>2017-9-17T16:47:59Z</time></trkpt>
<trkpt lat="48.496233" lon="2.635348"><ele></ele><time>2017-9-17T16:48:2Z</time></trkpt>
<trkpt lat="48.496270" lon="2.635298"><ele></ele><time>2017-9-17T16:48:5Z</time></trkpt>
<trkpt lat="48.496338" lon="2.635212"><ele></ele><time>2017-9-17T16:48:8Z</time></trkpt>
<trkpt lat="48.496403" lon="2.635140"><ele></ele><time>2017-9-17T16:48:11Z</time></trkpt>
<trkpt lat="48.496465" lon="2.635065"><ele></ele><time>2017-9-17T16:48:14Z</time></trkpt>
</trkseg></trk></gpx>